<?xml version="1.0" encoding="UTF-8" standalone="no" ?>
<gpx xmlns="http://www.topografix.com/GPX/1/1" xmlns:xsi="http://www.w3.org/2001/XMLSchema-instance" xsi:schemaLocation="http://www.topografix.com/GPX/1/1 http://www.topografix.com/GPX/1/1/gpx.xsd" version="1.1" creator="VisuGPX - https://www.visugpx.com">
  <metadata>
    <name>Rando vtt Cissé 2018</name>
    <desc><![CDATA[15km type vtt,le reste,belle balade sous un ciel bleu.....]]></desc>
  </metadata>
  <trk>
    <name><![CDATA[Rando vtt Cissé 2018]]></name>
    <trkseg>
      <trkpt lat="46.64692" lon="0.23737">
        <ele>235.84</ele>
        <time>2018-09-02T06:33:58.893Z</time>
      </trkpt>
      <trkpt lat="46.64696" lon="0.23765">
        <ele>274.42</ele>
        <time>2018-09-02T06:34:04.888Z</time>
      </trkpt>
      <trkpt lat="46.6469" lon="0.23754">
        <ele>265.91</ele>
        <time>2018-09-02T06:34:09.000Z</time>
      </trkpt>
      <trkpt lat="46.64685" lon="0.23741">
        <ele>251.17</ele>
        <time>2018-09-02T06:34:15.000Z</time>
      </trkpt>
      <trkpt lat="46.6469" lon="0.2373">
        <ele>237.1</ele>
        <time>2018-09-02T06:34:24.000Z</time>
      </trkpt>
      <trkpt lat="46.64699" lon="0.23726">
        <ele>220.31</ele>
        <time>2018-09-02T06:34:44.000Z</time>
      </trkpt>
      <trkpt lat="46.6469" lon="0.23733">
        <ele>210.45</ele>
        <time>2018-09-02T06:36:01.000Z</time>
      </trkpt>
      <trkpt lat="46.64682" lon="0.23727">
        <ele>209.31</ele>
        <time>2018-09-02T06:36:06.000Z</time>
      </trkpt>
      <trkpt lat="46.64673" lon="0.23735">
        <ele>208.05</ele>
        <time>2018-09-02T06:36:12.000Z</time>
      </trkpt>
      <trkpt lat="46.64668" lon="0.23747">
        <ele>207.4</ele>
        <time>2018-09-02T06:36:15.000Z</time>
      </trkpt>
      <trkpt lat="46.64669" lon="0.23761">
        <ele>206.37</ele>
        <time>2018-09-02T06:36:20.000Z</time>
      </trkpt>
      <trkpt lat="46.64677" lon="0.2377">
        <ele>205.8</ele>
        <time>2018-09-02T06:36:23.000Z</time>
      </trkpt>
      <trkpt lat="46.64686" lon="0.23778">
        <ele>205.3</ele>
        <time>2018-09-02T06:36:26.000Z</time>
      </trkpt>
      <trkpt lat="46.64694" lon="0.23786">
        <ele>204.82</ele>
        <time>2018-09-02T06:36:29.000Z</time>
      </trkpt>
      <trkpt lat="46.64702" lon="0.23794">
        <ele>204.36</ele>
        <time>2018-09-02T06:36:32.000Z</time>
      </trkpt>
      <trkpt lat="46.6471" lon="0.23802">
        <ele>203.81</ele>
        <time>2018-09-02T06:36:36.000Z</time>
      </trkpt>
      <trkpt lat="46.64719" lon="0.23809">
        <ele>203.32</ele>
        <time>2018-09-02T06:36:40.000Z</time>
      </trkpt>
      <trkpt lat="46.64727" lon="0.23817">
        <ele>202.96</ele>
        <time>2018-09-02T06:36:43.000Z</time>
      </trkpt>
      <trkpt lat="46.64735" lon="0.23827">
        <ele>202.7</ele>
        <time>2018-09-02T06:36:46.000Z</time>
      </trkpt>
      <trkpt lat="46.64744" lon="0.23837">
        <ele>202.07</ele>
        <time>2018-09-02T06:36:49.000Z</time>
      </trkpt>
      <trkpt lat="46.64754" lon="0.23847">
        <ele>201.68</ele>
        <time>2018-09-02T06:36:52.000Z</time>
      </trkpt>
      <trkpt lat="46.64764" lon="0.23854">
        <ele>201.59</ele>
        <time>2018-09-02T06:36:55.000Z</time>
      </trkpt>
      <trkpt lat="46.64776" lon="0.23852">
        <ele>201.17</ele>
        <time>2018-09-02T06:36:58.000Z</time>
      </trkpt>
      <trkpt lat="46.64782" lon="0.23842">
        <ele>201.06</ele>
        <time>2018-09-02T06:37:00.000Z</time>
      </trkpt>
      <trkpt lat="46.64789" lon="0.23828">
        <ele>201.29</ele>
        <time>2018-09-02T06:37:03.000Z</time>
      </trkpt>
      <trkpt lat="46.64796" lon="0.23814">
        <ele>201.19</ele>
        <time>2018-09-02T06:37:06.000Z</time>
      </trkpt>
      <trkpt lat="46.64805" lon="0.23801">
        <ele>200.83</ele>
        <time>2018-09-02T06:37:09.000Z</time>
      </trkpt>
      <trkpt lat="46.64813" lon="0.2379">
        <ele>200.46</ele>
        <time>2018-09-02T06:37:12.000Z</time>
      </trkpt>
      <trkpt lat="46.64823" lon="0.2378">
        <ele>200.14</ele>
        <time>2018-09-02T06:37:15.000Z</time>
      </trkpt>
      <trkpt lat="46.64832" lon="0.2377">
        <ele>199.87</ele>
        <time>2018-09-02T06:37:18.000Z</time>
      </trkpt>
      <trkpt lat="46.64842" lon="0.23758">
        <ele>199.97</ele>
        <time>2018-09-02T06:37:21.000Z</time>
      </trkpt>
      <trkpt lat="46.64853" lon="0.23746">
        <ele>200.44</ele>
        <time>2018-09-02T06:37:24.000Z</time>
      </trkpt>
      <trkpt lat="46.6486" lon="0.23737">
        <ele>200.66</ele>
        <time>2018-09-02T06:37:26.000Z</time>
      </trkpt>
      <trkpt lat="46.64867" lon="0.23728">
        <ele>200.63</ele>
        <time>2018-09-02T06:37:28.000Z</time>
      </trkpt>
      <trkpt lat="46.64874" lon="0.2372">
        <ele>200.52</ele>
        <time>2018-09-02T06:37:30.000Z</time>
      </trkpt>
      <trkpt lat="46.64883" lon="0.23706">
        <ele>200.34</ele>
        <time>2018-09-02T06:37:33.000Z</time>
      </trkpt>
      <trkpt lat="46.64892" lon="0.23692">
        <ele>199.85</ele>
        <time>2018-09-02T06:37:36.000Z</time>
      </trkpt>
      <trkpt lat="46.64898" lon="0.23674">
        <ele>199.09</ele>
        <time>2018-09-02T06:37:39.000Z</time>
      </trkpt>
      <trkpt lat="46.64901" lon="0.23662">
        <ele>198.89</ele>
        <time>2018-09-02T06:37:41.000Z</time>
      </trkpt>
      <trkpt lat="46.64906" lon="0.23644">
        <ele>198.68</ele>
        <time>2018-09-02T06:37:44.000Z</time>
      </trkpt>
      <trkpt lat="46.64911" lon="0.23631">
        <ele>198.95</ele>
        <time>2018-09-02T06:37:46.000Z</time>
      </trkpt>
      <trkpt lat="46.64914" lon="0.23619">
        <ele>199.27</ele>
        <time>2018-09-02T06:37:48.000Z</time>
      </trkpt>
      <trkpt lat="46.64919" lon="0.23606">
        <ele>199.43</ele>
        <time>2018-09-02T06:37:50.000Z</time>
      </trkpt>
      <trkpt lat="46.64923" lon="0.23592">
        <ele>199.53</ele>
        <time>2018-09-02T06:37:52.000Z</time>
      </trkpt>
      <trkpt lat="46.64927" lon="0.2358">
        <ele>199.47</ele>
        <time>2018-09-02T06:37:54.000Z</time>
      </trkpt>
      <trkpt lat="46.64932" lon="0.23568">
        <ele>199.53</ele>
        <time>2018-09-02T06:37:56.000Z</time>
      </trkpt>
      <trkpt lat="46.64937" lon="0.23556">
        <ele>199.63</ele>
        <time>2018-09-02T06:37:58.000Z</time>
      </trkpt>
      <trkpt lat="46.64943" lon="0.23545">
        <ele>199.72</ele>
        <time>2018-09-02T06:38:00.000Z</time>
      </trkpt>
      <trkpt lat="46.64949" lon="0.23532">
        <ele>199.64</ele>
        <time>2018-09-02T06:38:02.000Z</time>
      </trkpt>
      <trkpt lat="46.64955" lon="0.23521">
        <ele>199.2</ele>
        <time>2018-09-02T06:38:04.000Z</time>
      </trkpt>
      <trkpt lat="46.64961" lon="0.2351">
        <ele>198.62</ele>
        <time>2018-09-02T06:38:06.000Z</time>
      </trkpt>
      <trkpt lat="46.64967" lon="0.23498">
        <ele>198.27</ele>
        <time>2018-09-02T06:38:08.000Z</time>
      </trkpt>
      <trkpt lat="46.64973" lon="0.23486">
        <ele>198.27</ele>
        <time>2018-09-02T06:38:10.000Z</time>
      </trkpt>
      <trkpt lat="46.64979" lon="0.23473">
        <ele>198.37</ele>
        <time>2018-09-02T06:38:12.000Z</time>
      </trkpt>
      <trkpt lat="46.64986" lon="0.23458">
        <ele>198.45</ele>
        <time>2018-09-02T06:38:14.000Z</time>
      </trkpt>
      <trkpt lat="46.64993" lon="0.23445">
        <ele>198.57</ele>
        <time>2018-09-02T06:38:16.000Z</time>
      </trkpt>
      <trkpt lat="46.65" lon="0.23431">
        <ele>198.51</ele>
        <time>2018-09-02T06:38:18.000Z</time>
      </trkpt>
      <trkpt lat="46.65007" lon="0.23415">
        <ele>198.35</ele>
        <time>2018-09-02T06:38:20.000Z</time>
      </trkpt>
      <trkpt lat="46.65014" lon="0.234">
        <ele>198.04</ele>
        <time>2018-09-02T06:38:22.000Z</time>
      </trkpt>
      <trkpt lat="46.6502" lon="0.23386">
        <ele>197.72</ele>
        <time>2018-09-02T06:38:24.000Z</time>
      </trkpt>
      <trkpt lat="46.65027" lon="0.23373">
        <ele>197.44</ele>
        <time>2018-09-02T06:38:26.000Z</time>
      </trkpt>
      <trkpt lat="46.65033" lon="0.23359">
        <ele>197.22</ele>
        <time>2018-09-02T06:38:28.000Z</time>
      </trkpt>
      <trkpt lat="46.6504" lon="0.23345">
        <ele>197.01</ele>
        <time>2018-09-02T06:38:30.000Z</time>
      </trkpt>
      <trkpt lat="46.65047" lon="0.23331">
        <ele>196.85</ele>
        <time>2018-09-02T06:38:32.000Z</time>
      </trkpt>
      <trkpt lat="46.65054" lon="0.23318">
        <ele>196.73</ele>
        <time>2018-09-02T06:38:34.000Z</time>
      </trkpt>
      <trkpt lat="46.6506" lon="0.23306">
        <ele>196.77</ele>
        <time>2018-09-02T06:38:36.000Z</time>
      </trkpt>
      <trkpt lat="46.65067" lon="0.23295">
        <ele>196.85</ele>
        <time>2018-09-02T06:38:38.000Z</time>
      </trkpt>
      <trkpt lat="46.65075" lon="0.23287">
        <ele>196.94</ele>
        <time>2018-09-02T06:38:40.000Z</time>
      </trkpt>
      <trkpt lat="46.65084" lon="0.2328">
        <ele>197.01</ele>
        <time>2018-09-02T06:38:42.000Z</time>
      </trkpt>
      <trkpt lat="46.65094" lon="0.23273">
        <ele>197.03</ele>
        <time>2018-09-02T06:38:44.000Z</time>
      </trkpt>
      <trkpt lat="46.65104" lon="0.23267">
        <ele>197.02</ele>
        <time>2018-09-02T06:38:46.000Z</time>
      </trkpt>
      <trkpt lat="46.65113" lon="0.2326">
        <ele>197.02</ele>
        <time>2018-09-02T06:38:48.000Z</time>
      </trkpt>
      <trkpt lat="46.65123" lon="0.23254">
        <ele>196.99</ele>
        <time>2018-09-02T06:38:50.000Z</time>
      </trkpt>
      <trkpt lat="46.65132" lon="0.23247">
        <ele>196.95</ele>
        <time>2018-09-02T06:38:52.000Z</time>
      </trkpt>
      <trkpt lat="46.65141" lon="0.23241">
        <ele>196.66</ele>
        <time>2018-09-02T06:38:54.000Z</time>
      </trkpt>
      <trkpt lat="46.65151" lon="0.23234">
        <ele>196.19</ele>
        <time>2018-09-02T06:38:56.000Z</time>
      </trkpt>
      <trkpt lat="46.65159" lon="0.23227">
        <ele>195.76</ele>
        <time>2018-09-02T06:38:58.000Z</time>
      </trkpt>
      <trkpt lat="46.65168" lon="0.2322">
        <ele>195.5</ele>
        <time>2018-09-02T06:39:00.000Z</time>
      </trkpt>
      <trkpt lat="46.65177" lon="0.23211">
        <ele>195.38</ele>
        <time>2018-09-02T06:39:02.000Z</time>
      </trkpt>
      <trkpt lat="46.65185" lon="0.23202">
        <ele>195.4</ele>
        <time>2018-09-02T06:39:04.000Z</time>
      </trkpt>
      <trkpt lat="46.65192" lon="0.23192">
        <ele>195.5</ele>
        <time>2018-09-02T06:39:06.000Z</time>
      </trkpt>
      <trkpt lat="46.65199" lon="0.23181">
        <ele>195.44</ele>
        <time>2018-09-02T06:39:08.000Z</time>
      </trkpt>
      <trkpt lat="46.65205" lon="0.2317">
        <ele>195.66</ele>
        <time>2018-09-02T06:39:10.000Z</time>
      </trkpt>
      <trkpt lat="46.6521" lon="0.23157">
        <ele>196.02</ele>
        <time>2018-09-02T06:39:12.000Z</time>
      </trkpt>
      <trkpt lat="46.65213" lon="0.23144">
        <ele>196.48</ele>
        <time>2018-09-02T06:39:14.000Z</time>
      </trkpt>
      <trkpt lat="46.65217" lon="0.23129">
        <ele>197.15</ele>
        <time>2018-09-02T06:39:16.000Z</time>
      </trkpt>
      <trkpt lat="46.6522" lon="0.23116">
        <ele>198.07</ele>
        <time>2018-09-02T06:39:18.000Z</time>
      </trkpt>
      <trkpt lat="46.65224" lon="0.23102">
        <ele>198.94</ele>
        <time>2018-09-02T06:39:20.000Z</time>
      </trkpt>
      <trkpt lat="46.65229" lon="0.23085">
        <ele>200.09</ele>
        <time>2018-09-02T06:39:23.000Z</time>
      </trkpt>
      <trkpt lat="46.6523" lon="0.2307">
        <ele>200.72</ele>
        <time>2018-09-02T06:39:26.000Z</time>
      </trkpt>
      <trkpt lat="46.65224" lon="0.23053">
        <ele>200.74</ele>
        <time>2018-09-02T06:39:29.000Z</time>
      </trkpt>
      <trkpt lat="46.65217" lon="0.23036">
        <ele>201.01</ele>
        <time>2018-09-02T06:39:32.000Z</time>
      </trkpt>
      <trkpt lat="46.65213" lon="0.23023">
        <ele>201.02</ele>
        <time>2018-09-02T06:39:34.000Z</time>
      </trkpt>
      <trkpt lat="46.65207" lon="0.2301">
        <ele>201.03</ele>
        <time>2018-09-02T06:39:36.000Z</time>
      </trkpt>
      <trkpt lat="46.65202" lon="0.22998">
        <ele>200.8</ele>
        <time>2018-09-02T06:39:38.000Z</time>
      </trkpt>
      <trkpt lat="46.65193" lon="0.22983">
        <ele>200.59</ele>
        <time>2018-09-02T06:39:41.000Z</time>
      </trkpt>
      <trkpt lat="46.65186" lon="0.22971">
        <ele>199.89</ele>
        <time>2018-09-02T06:39:43.000Z</time>
      </trkpt>
      <trkpt lat="46.65178" lon="0.2296">
        <ele>199.67</ele>
        <time>2018-09-02T06:39:45.000Z</time>
      </trkpt>
      <trkpt lat="46.65171" lon="0.2295">
        <ele>200.01</ele>
        <time>2018-09-02T06:39:47.000Z</time>
      </trkpt>
      <trkpt lat="46.65165" lon="0.22939">
        <ele>200.5</ele>
        <time>2018-09-02T06:39:49.000Z</time>
      </trkpt>
      <trkpt lat="46.6516" lon="0.22928">
        <ele>200.37</ele>
        <time>2018-09-02T06:39:51.000Z</time>
      </trkpt>
      <trkpt lat="46.65151" lon="0.22914">
        <ele>200.56</ele>
        <time>2018-09-02T06:39:54.000Z</time>
      </trkpt>
      <trkpt lat="46.65142" lon="0.22902">
        <ele>200.45</ele>
        <time>2018-09-02T06:39:57.000Z</time>
      </trkpt>
      <trkpt lat="46.65138" lon="0.22886">
        <ele>200.17</ele>
        <time>2018-09-02T06:40:00.000Z</time>
      </trkpt>
      <trkpt lat="46.65145" lon="0.22877">
        <ele>200.86</ele>
        <time>2018-09-02T06:40:02.000Z</time>
      </trkpt>
      <trkpt lat="46.65157" lon="0.22867">
        <ele>201.57</ele>
        <time>2018-09-02T06:40:05.000Z</time>
      </trkpt>
      <trkpt lat="46.65167" lon="0.22863">
        <ele>202.07</ele>
        <time>2018-09-02T06:40:07.000Z</time>
      </trkpt>
      <trkpt lat="46.65176" lon="0.22863">
        <ele>202.26</ele>
        <time>2018-09-02T06:40:09.000Z</time>
      </trkpt>
      <trkpt lat="46.65186" lon="0.22861">
        <ele>202.25</ele>
        <time>2018-09-02T06:40:11.000Z</time>
      </trkpt>
      <trkpt lat="46.65197" lon="0.2286">
        <ele>202.03</ele>
        <time>2018-09-02T06:40:13.000Z</time>
      </trkpt>
      <trkpt lat="46.65207" lon="0.22858">
        <ele>201.5</ele>
        <time>2018-09-02T06:40:15.000Z</time>
      </trkpt>
      <trkpt lat="46.6522" lon="0.22854">
        <ele>200.86</ele>
        <time>2018-09-02T06:40:18.000Z</time>
      </trkpt>
      <trkpt lat="46.65222" lon="0.22839">
        <ele>200.65</ele>
        <time>2018-09-02T06:40:21.000Z</time>
      </trkpt>
      <trkpt lat="46.65215" lon="0.22828">
        <ele>200.56</ele>
        <time>2018-09-02T06:40:23.000Z</time>
      </trkpt>
      <trkpt lat="46.65207" lon="0.22815">
        <ele>200.71</ele>
        <time>2018-09-02T06:40:25.000Z</time>
      </trkpt>
      <trkpt lat="46.65199" lon="0.22802">
        <ele>200.72</ele>
        <time>2018-09-02T06:40:27.000Z</time>
      </trkpt>
      <trkpt lat="46.65191" lon="0.22789">
        <ele>200.53</ele>
        <time>2018-09-02T06:40:29.000Z</time>
      </trkpt>
      <trkpt lat="46.65184" lon="0.22776">
        <ele>200.29</ele>
        <time>2018-09-02T06:40:31.000Z</time>
      </trkpt>
      <trkpt lat="46.65176" lon="0.22763">
        <ele>200.14</ele>
        <time>2018-09-02T06:40:33.000Z</time>
      </trkpt>
      <trkpt lat="46.65169" lon="0.2275">
        <ele>200.01</ele>
        <time>2018-09-02T06:40:35.000Z</time>
      </trkpt>
      <trkpt lat="46.65161" lon="0.22737">
        <ele>199.96</ele>
        <time>2018-09-02T06:40:37.000Z</time>
      </trkpt>
      <trkpt lat="46.65154" lon="0.22724">
        <ele>199.99</ele>
        <time>2018-09-02T06:40:39.000Z</time>
      </trkpt>
      <trkpt lat="46.65147" lon="0.22711">
        <ele>200.22</ele>
        <time>2018-09-02T06:40:41.000Z</time>
      </trkpt>
      <trkpt lat="46.6514" lon="0.22697">
        <ele>200.47</ele>
        <time>2018-09-02T06:40:43.000Z</time>
      </trkpt>
      <trkpt lat="46.65134" lon="0.22685">
        <ele>200.62</ele>
        <time>2018-09-02T06:40:45.000Z</time>
      </trkpt>
      <trkpt lat="46.65128" lon="0.22671">
        <ele>200.83</ele>
        <time>2018-09-02T06:40:47.000Z</time>
      </trkpt>
      <trkpt lat="46.65122" lon="0.22658">
        <ele>200.99</ele>
        <time>2018-09-02T06:40:49.000Z</time>
      </trkpt>
      <trkpt lat="46.65117" lon="0.22647">
        <ele>201.23</ele>
        <time>2018-09-02T06:40:51.000Z</time>
      </trkpt>
      <trkpt lat="46.65109" lon="0.22638">
        <ele>201.3</ele>
        <time>2018-09-02T06:40:53.000Z</time>
      </trkpt>
      <trkpt lat="46.65102" lon="0.22629">
        <ele>201.43</ele>
        <time>2018-09-02T06:40:55.000Z</time>
      </trkpt>
      <trkpt lat="46.65095" lon="0.22618">
        <ele>201.78</ele>
        <time>2018-09-02T06:40:57.000Z</time>
      </trkpt>
      <trkpt lat="46.65089" lon="0.22607">
        <ele>202.3</ele>
        <time>2018-09-02T06:40:59.000Z</time>
      </trkpt>
      <trkpt lat="46.65081" lon="0.22597">
        <ele>202.62</ele>
        <time>2018-09-02T06:41:01.000Z</time>
      </trkpt>
      <trkpt lat="46.65075" lon="0.22585">
        <ele>202.89</ele>
        <time>2018-09-02T06:41:03.000Z</time>
      </trkpt>
      <trkpt lat="46.65068" lon="0.22574">
        <ele>203.12</ele>
        <time>2018-09-02T06:41:05.000Z</time>
      </trkpt>
      <trkpt lat="46.65061" lon="0.22563">
        <ele>203.33</ele>
        <time>2018-09-02T06:41:07.000Z</time>
      </trkpt>
      <trkpt lat="46.65055" lon="0.22552">
        <ele>203.66</ele>
        <time>2018-09-02T06:41:09.000Z</time>
      </trkpt>
      <trkpt lat="46.65048" lon="0.22541">
        <ele>203.89</ele>
        <time>2018-09-02T06:41:11.000Z</time>
      </trkpt>
      <trkpt lat="46.65041" lon="0.2253">
        <ele>204.13</ele>
        <time>2018-09-02T06:41:13.000Z</time>
      </trkpt>
      <trkpt lat="46.65034" lon="0.22519">
        <ele>204.5</ele>
        <time>2018-09-02T06:41:15.000Z</time>
      </trkpt>
      <trkpt lat="46.65028" lon="0.22509">
        <ele>204.8</ele>
        <time>2018-09-02T06:41:17.000Z</time>
      </trkpt>
      <trkpt lat="46.65021" lon="0.22498">
        <ele>205.08</ele>
        <time>2018-09-02T06:41:19.000Z</time>
      </trkpt>
      <trkpt lat="46.65014" lon="0.22488">
        <ele>205.61</ele>
        <time>2018-09-02T06:41:21.000Z</time>
      </trkpt>
      <trkpt lat="46.65006" lon="0.22478">
        <ele>205.98</ele>
        <time>2018-09-02T06:41:23.000Z</time>
      </trkpt>
      <trkpt lat="46.64998" lon="0.2247">
        <ele>206</ele>
        <time>2018-09-02T06:41:25.000Z</time>
      </trkpt>
      <trkpt lat="46.6499" lon="0.2246">
        <ele>205.72</ele>
        <time>2018-09-02T06:41:27.000Z</time>
      </trkpt>
      <trkpt lat="46.64982" lon="0.22449">
        <ele>205.4</ele>
        <time>2018-09-02T06:41:29.000Z</time>
      </trkpt>
      <trkpt lat="46.64974" lon="0.22438">
        <ele>205.38</ele>
        <time>2018-09-02T06:41:31.000Z</time>
      </trkpt>
      <trkpt lat="46.64967" lon="0.22428">
        <ele>205.5</ele>
        <time>2018-09-02T06:41:33.000Z</time>
      </trkpt>
      <trkpt lat="46.64959" lon="0.22419">
        <ele>205.46</ele>
        <time>2018-09-02T06:41:35.000Z</time>
      </trkpt>
      <trkpt lat="46.64952" lon="0.2241">
        <ele>205.29</ele>
        <time>2018-09-02T06:41:37.000Z</time>
      </trkpt>
      <trkpt lat="46.64943" lon="0.22398">
        <ele>205.15</ele>
        <time>2018-09-02T06:41:40.000Z</time>
      </trkpt>
      <trkpt lat="46.64934" lon="0.22388">
        <ele>205.15</ele>
        <time>2018-09-02T06:41:44.000Z</time>
      </trkpt>
      <trkpt lat="46.64925" lon="0.22381">
        <ele>205.14</ele>
        <time>2018-09-02T06:41:47.000Z</time>
      </trkpt>
      <trkpt lat="46.64916" lon="0.22368">
        <ele>204.99</ele>
        <time>2018-09-02T06:41:50.000Z</time>
      </trkpt>
      <trkpt lat="46.64906" lon="0.22354">
        <ele>205.2</ele>
        <time>2018-09-02T06:41:53.000Z</time>
      </trkpt>
      <trkpt lat="46.64899" lon="0.22344">
        <ele>205.47</ele>
        <time>2018-09-02T06:41:55.000Z</time>
      </trkpt>
      <trkpt lat="46.64888" lon="0.22328">
        <ele>205.77</ele>
        <time>2018-09-02T06:41:58.000Z</time>
      </trkpt>
      <trkpt lat="46.64881" lon="0.22317">
        <ele>205.85</ele>
        <time>2018-09-02T06:42:00.000Z</time>
      </trkpt>
      <trkpt lat="46.64873" lon="0.22306">
        <ele>205.91</ele>
        <time>2018-09-02T06:42:02.000Z</time>
      </trkpt>
      <trkpt lat="46.64864" lon="0.22294">
        <ele>206.02</ele>
        <time>2018-09-02T06:42:04.000Z</time>
      </trkpt>
      <trkpt lat="46.64857" lon="0.22283">
        <ele>206.1</ele>
        <time>2018-09-02T06:42:06.000Z</time>
      </trkpt>
      <trkpt lat="46.64848" lon="0.2227">
        <ele>206.13</ele>
        <time>2018-09-02T06:42:08.000Z</time>
      </trkpt>
      <trkpt lat="46.6484" lon="0.22258">
        <ele>206.06</ele>
        <time>2018-09-02T06:42:10.000Z</time>
      </trkpt>
      <trkpt lat="46.64827" lon="0.22241">
        <ele>205.86</ele>
        <time>2018-09-02T06:42:13.000Z</time>
      </trkpt>
      <trkpt lat="46.64819" lon="0.22229">
        <ele>205.58</ele>
        <time>2018-09-02T06:42:15.000Z</time>
      </trkpt>
      <trkpt lat="46.64806" lon="0.22211">
        <ele>205.28</ele>
        <time>2018-09-02T06:42:18.000Z</time>
      </trkpt>
      <trkpt lat="46.64798" lon="0.22199">
        <ele>204.92</ele>
        <time>2018-09-02T06:42:20.000Z</time>
      </trkpt>
      <trkpt lat="46.6479" lon="0.22188">
        <ele>204.68</ele>
        <time>2018-09-02T06:42:22.000Z</time>
      </trkpt>
      <trkpt lat="46.64781" lon="0.22177">
        <ele>204.54</ele>
        <time>2018-09-02T06:42:24.000Z</time>
      </trkpt>
      <trkpt lat="46.64773" lon="0.22165">
        <ele>204.49</ele>
        <time>2018-09-02T06:42:26.000Z</time>
      </trkpt>
      <trkpt lat="46.64764" lon="0.22153">
        <ele>204.48</ele>
        <time>2018-09-02T06:42:28.000Z</time>
      </trkpt>
      <trkpt lat="46.64755" lon="0.22141">
        <ele>204.28</ele>
        <time>2018-09-02T06:42:30.000Z</time>
      </trkpt>
      <trkpt lat="46.64747" lon="0.22129">
        <ele>204.16</ele>
        <time>2018-09-02T06:42:32.000Z</time>
      </trkpt>
      <trkpt lat="46.64739" lon="0.22117">
        <ele>204.01</ele>
        <time>2018-09-02T06:42:34.000Z</time>
      </trkpt>
      <trkpt lat="46.64731" lon="0.22105">
        <ele>203.88</ele>
        <time>2018-09-02T06:42:36.000Z</time>
      </trkpt>
      <trkpt lat="46.64722" lon="0.22093">
        <ele>203.79</ele>
        <time>2018-09-02T06:42:38.000Z</time>
      </trkpt>
      <trkpt lat="46.64713" lon="0.22081">
        <ele>203.83</ele>
        <time>2018-09-02T06:42:40.000Z</time>
      </trkpt>
      <trkpt lat="46.64704" lon="0.22069">
        <ele>203.88</ele>
        <time>2018-09-02T06:42:42.000Z</time>
      </trkpt>
      <trkpt lat="46.64696" lon="0.22058">
        <ele>204</ele>
        <time>2018-09-02T06:42:44.000Z</time>
      </trkpt>
      <trkpt lat="46.64687" lon="0.22048">
        <ele>204.02</ele>
        <time>2018-09-02T06:42:46.000Z</time>
      </trkpt>
      <trkpt lat="46.64679" lon="0.22037">
        <ele>203.95</ele>
        <time>2018-09-02T06:42:48.000Z</time>
      </trkpt>
      <trkpt lat="46.64671" lon="0.22025">
        <ele>203.79</ele>
        <time>2018-09-02T06:42:50.000Z</time>
      </trkpt>
      <trkpt lat="46.64663" lon="0.22013">
        <ele>203.65</ele>
        <time>2018-09-02T06:42:52.000Z</time>
      </trkpt>
      <trkpt lat="46.64655" lon="0.22002">
        <ele>203.51</ele>
        <time>2018-09-02T06:42:54.000Z</time>
      </trkpt>
      <trkpt lat="46.64648" lon="0.21992">
        <ele>203.57</ele>
        <time>2018-09-02T06:42:56.000Z</time>
      </trkpt>
      <trkpt lat="46.6464" lon="0.21981">
        <ele>203.42</ele>
        <time>2018-09-02T06:42:58.000Z</time>
      </trkpt>
      <trkpt lat="46.64631" lon="0.21969">
        <ele>203.17</ele>
        <time>2018-09-02T06:43:00.000Z</time>
      </trkpt>
      <trkpt lat="46.64623" lon="0.21957">
        <ele>203.05</ele>
        <time>2018-09-02T06:43:02.000Z</time>
      </trkpt>
      <trkpt lat="46.64615" lon="0.21946">
        <ele>202.93</ele>
        <time>2018-09-02T06:43:04.000Z</time>
      </trkpt>
      <trkpt lat="46.64608" lon="0.21933">
        <ele>203</ele>
        <time>2018-09-02T06:43:06.000Z</time>
      </trkpt>
      <trkpt lat="46.64601" lon="0.21919">
        <ele>203.06</ele>
        <time>2018-09-02T06:43:08.000Z</time>
      </trkpt>
      <trkpt lat="46.64594" lon="0.21904">
        <ele>203.12</ele>
        <time>2018-09-02T06:43:10.000Z</time>
      </trkpt>
      <trkpt lat="46.64588" lon="0.2189">
        <ele>203.12</ele>
        <time>2018-09-02T06:43:12.000Z</time>
      </trkpt>
      <trkpt lat="46.64581" lon="0.21876">
        <ele>203.07</ele>
        <time>2018-09-02T06:43:14.000Z</time>
      </trkpt>
      <trkpt lat="46.64574" lon="0.21861">
        <ele>202.94</ele>
        <time>2018-09-02T06:43:16.000Z</time>
      </trkpt>
      <trkpt lat="46.64568" lon="0.21846">
        <ele>202.75</ele>
        <time>2018-09-02T06:43:18.000Z</time>
      </trkpt>
      <trkpt lat="46.64561" lon="0.21832">
        <ele>202.55</ele>
        <time>2018-09-02T06:43:20.000Z</time>
      </trkpt>
      <trkpt lat="46.64554" lon="0.21818">
        <ele>202.25</ele>
        <time>2018-09-02T06:43:22.000Z</time>
      </trkpt>
      <trkpt lat="46.64547" lon="0.21803">
        <ele>201.95</ele>
        <time>2018-09-02T06:43:24.000Z</time>
      </trkpt>
      <trkpt lat="46.64541" lon="0.21789">
        <ele>201.71</ele>
        <time>2018-09-02T06:43:26.000Z</time>
      </trkpt>
      <trkpt lat="46.64534" lon="0.21774">
        <ele>201.49</ele>
        <time>2018-09-02T06:43:28.000Z</time>
      </trkpt>
      <trkpt lat="46.64528" lon="0.2176">
        <ele>201.33</ele>
        <time>2018-09-02T06:43:30.000Z</time>
      </trkpt>
      <trkpt lat="46.64521" lon="0.21746">
        <ele>201.19</ele>
        <time>2018-09-02T06:43:32.000Z</time>
      </trkpt>
      <trkpt lat="46.64515" lon="0.21733">
        <ele>200.98</ele>
        <time>2018-09-02T06:43:34.000Z</time>
      </trkpt>
      <trkpt lat="46.6451" lon="0.2172">
        <ele>200.79</ele>
        <time>2018-09-02T06:43:36.000Z</time>
      </trkpt>
      <trkpt lat="46.64503" lon="0.21706">
        <ele>200.69</ele>
        <time>2018-09-02T06:43:38.000Z</time>
      </trkpt>
      <trkpt lat="46.64497" lon="0.21692">
        <ele>200.68</ele>
        <time>2018-09-02T06:43:40.000Z</time>
      </trkpt>
      <trkpt lat="46.64491" lon="0.21679">
        <ele>200.74</ele>
        <time>2018-09-02T06:43:42.000Z</time>
      </trkpt>
      <trkpt lat="46.64484" lon="0.21666">
        <ele>200.97</ele>
        <time>2018-09-02T06:43:44.000Z</time>
      </trkpt>
      <trkpt lat="46.64478" lon="0.21652">
        <ele>201.17</ele>
        <time>2018-09-02T06:43:46.000Z</time>
      </trkpt>
      <trkpt lat="46.64471" lon="0.21639">
        <ele>201.34</ele>
        <time>2018-09-02T06:43:48.000Z</time>
      </trkpt>
      <trkpt lat="46.64464" lon="0.21625">
        <ele>201.5</ele>
        <time>2018-09-02T06:43:50.000Z</time>
      </trkpt>
      <trkpt lat="46.64458" lon="0.21612">
        <ele>201.56</ele>
        <time>2018-09-02T06:43:52.000Z</time>
      </trkpt>
      <trkpt lat="46.64452" lon="0.21599">
        <ele>201.53</ele>
        <time>2018-09-02T06:43:54.000Z</time>
      </trkpt>
      <trkpt lat="46.64446" lon="0.21585">
        <ele>201.54</ele>
        <time>2018-09-02T06:43:56.000Z</time>
      </trkpt>
      <trkpt lat="46.64439" lon="0.21571">
        <ele>201.47</ele>
        <time>2018-09-02T06:43:58.000Z</time>
      </trkpt>
      <trkpt lat="46.64433" lon="0.21558">
        <ele>201.41</ele>
        <time>2018-09-02T06:44:00.000Z</time>
      </trkpt>
      <trkpt lat="46.64428" lon="0.21545">
        <ele>201.28</ele>
        <time>2018-09-02T06:44:02.000Z</time>
      </trkpt>
      <trkpt lat="46.64422" lon="0.21533">
        <ele>201.15</ele>
        <time>2018-09-02T06:44:04.000Z</time>
      </trkpt>
      <trkpt lat="46.64415" lon="0.21519">
        <ele>201.13</ele>
        <time>2018-09-02T06:44:06.000Z</time>
      </trkpt>
      <trkpt lat="46.64409" lon="0.21506">
        <ele>201.3</ele>
        <time>2018-09-02T06:44:08.000Z</time>
      </trkpt>
      <trkpt lat="46.64403" lon="0.21493">
        <ele>201.38</ele>
        <time>2018-09-02T06:44:10.000Z</time>
      </trkpt>
      <trkpt lat="46.64398" lon="0.21481">
        <ele>201.46</ele>
        <time>2018-09-02T06:44:12.000Z</time>
      </trkpt>
      <trkpt lat="46.64391" lon="0.21466">
        <ele>201.78</ele>
        <time>2018-09-02T06:44:15.000Z</time>
      </trkpt>
      <trkpt lat="46.64386" lon="0.21455">
        <ele>201.89</ele>
        <time>2018-09-02T06:44:17.000Z</time>
      </trkpt>
      <trkpt lat="46.64378" lon="0.21439">
        <ele>201.89</ele>
        <time>2018-09-02T06:44:20.000Z</time>
      </trkpt>
      <trkpt lat="46.64371" lon="0.21423">
        <ele>201.94</ele>
        <time>2018-09-02T06:44:23.000Z</time>
      </trkpt>
      <trkpt lat="46.64365" lon="0.21408">
        <ele>201.94</ele>
        <time>2018-09-02T06:44:26.000Z</time>
      </trkpt>
      <trkpt lat="46.64369" lon="0.21395">
        <ele>201.99</ele>
        <time>2018-09-02T06:44:29.000Z</time>
      </trkpt>
      <trkpt lat="46.64378" lon="0.21388">
        <ele>202.53</ele>
        <time>2018-09-02T06:44:31.000Z</time>
      </trkpt>
      <trkpt lat="46.64387" lon="0.21381">
        <ele>202.77</ele>
        <time>2018-09-02T06:44:33.000Z</time>
      </trkpt>
      <trkpt lat="46.64396" lon="0.21374">
        <ele>202.44</ele>
        <time>2018-09-02T06:44:35.000Z</time>
      </trkpt>
      <trkpt lat="46.64404" lon="0.21367">
        <ele>201.46</ele>
        <time>2018-09-02T06:44:37.000Z</time>
      </trkpt>
      <trkpt lat="46.64412" lon="0.2136">
        <ele>200.53</ele>
        <time>2018-09-02T06:44:39.000Z</time>
      </trkpt>
      <trkpt lat="46.64422" lon="0.21352">
        <ele>199.73</ele>
        <time>2018-09-02T06:44:41.000Z</time>
      </trkpt>
      <trkpt lat="46.64432" lon="0.21343">
        <ele>199.14</ele>
        <time>2018-09-02T06:44:43.000Z</time>
      </trkpt>
      <trkpt lat="46.64443" lon="0.21334">
        <ele>198.92</ele>
        <time>2018-09-02T06:44:45.000Z</time>
      </trkpt>
      <trkpt lat="46.64455" lon="0.21324">
        <ele>198.79</ele>
        <time>2018-09-02T06:44:47.000Z</time>
      </trkpt>
      <trkpt lat="46.64467" lon="0.21315">
        <ele>198.73</ele>
        <time>2018-09-02T06:44:49.000Z</time>
      </trkpt>
      <trkpt lat="46.64479" lon="0.21306">
        <ele>198.47</ele>
        <time>2018-09-02T06:44:51.000Z</time>
      </trkpt>
      <trkpt lat="46.64491" lon="0.21296">
        <ele>198.16</ele>
        <time>2018-09-02T06:44:53.000Z</time>
      </trkpt>
      <trkpt lat="46.64504" lon="0.21286">
        <ele>197.66</ele>
        <time>2018-09-02T06:44:55.000Z</time>
      </trkpt>
      <trkpt lat="46.64516" lon="0.21276">
        <ele>197.19</ele>
        <time>2018-09-02T06:44:57.000Z</time>
      </trkpt>
      <trkpt lat="46.64529" lon="0.21266">
        <ele>196.69</ele>
        <time>2018-09-02T06:44:59.000Z</time>
      </trkpt>
      <trkpt lat="46.64542" lon="0.21255">
        <ele>196.19</ele>
        <time>2018-09-02T06:45:01.000Z</time>
      </trkpt>
      <trkpt lat="46.64555" lon="0.21245">
        <ele>195.61</ele>
        <time>2018-09-02T06:45:03.000Z</time>
      </trkpt>
      <trkpt lat="46.64568" lon="0.21234">
        <ele>195.18</ele>
        <time>2018-09-02T06:45:05.000Z</time>
      </trkpt>
      <trkpt lat="46.64581" lon="0.21223">
        <ele>194.62</ele>
        <time>2018-09-02T06:45:07.000Z</time>
      </trkpt>
      <trkpt lat="46.64595" lon="0.21212">
        <ele>194.02</ele>
        <time>2018-09-02T06:45:09.000Z</time>
      </trkpt>
      <trkpt lat="46.64609" lon="0.21201">
        <ele>193.52</ele>
        <time>2018-09-02T06:45:11.000Z</time>
      </trkpt>
      <trkpt lat="46.64622" lon="0.2119">
        <ele>193.08</ele>
        <time>2018-09-02T06:45:13.000Z</time>
      </trkpt>
      <trkpt lat="46.64632" lon="0.21181">
        <ele>192.6</ele>
        <time>2018-09-02T06:45:15.000Z</time>
      </trkpt>
      <trkpt lat="46.64634" lon="0.21166">
        <ele>191.47</ele>
        <time>2018-09-02T06:45:18.000Z</time>
      </trkpt>
      <trkpt lat="46.64629" lon="0.21153">
        <ele>190.56</ele>
        <time>2018-09-02T06:45:20.000Z</time>
      </trkpt>
      <trkpt lat="46.64622" lon="0.2114">
        <ele>189.82</ele>
        <time>2018-09-02T06:45:22.000Z</time>
      </trkpt>
      <trkpt lat="46.64615" lon="0.21127">
        <ele>189.25</ele>
        <time>2018-09-02T06:45:24.000Z</time>
      </trkpt>
      <trkpt lat="46.64608" lon="0.21114">
        <ele>188.75</ele>
        <time>2018-09-02T06:45:26.000Z</time>
      </trkpt>
      <trkpt lat="46.64601" lon="0.21101">
        <ele>188.36</ele>
        <time>2018-09-02T06:45:28.000Z</time>
      </trkpt>
      <trkpt lat="46.64594" lon="0.21087">
        <ele>188</ele>
        <time>2018-09-02T06:45:30.000Z</time>
      </trkpt>
      <trkpt lat="46.64587" lon="0.21073">
        <ele>187.65</ele>
        <time>2018-09-02T06:45:32.000Z</time>
      </trkpt>
      <trkpt lat="46.64579" lon="0.2106">
        <ele>187.33</ele>
        <time>2018-09-02T06:45:34.000Z</time>
      </trkpt>
      <trkpt lat="46.64572" lon="0.21046">
        <ele>187</ele>
        <time>2018-09-02T06:45:36.000Z</time>
      </trkpt>
      <trkpt lat="46.64565" lon="0.21031">
        <ele>186.68</ele>
        <time>2018-09-02T06:45:38.000Z</time>
      </trkpt>
      <trkpt lat="46.64557" lon="0.21017">
        <ele>186.4</ele>
        <time>2018-09-02T06:45:40.000Z</time>
      </trkpt>
      <trkpt lat="46.64549" lon="0.21002">
        <ele>186.09</ele>
        <time>2018-09-02T06:45:42.000Z</time>
      </trkpt>
      <trkpt lat="46.64542" lon="0.20988">
        <ele>185.86</ele>
        <time>2018-09-02T06:45:44.000Z</time>
      </trkpt>
      <trkpt lat="46.64534" lon="0.20974">
        <ele>185.56</ele>
        <time>2018-09-02T06:45:46.000Z</time>
      </trkpt>
      <trkpt lat="46.64527" lon="0.20961">
        <ele>185.26</ele>
        <time>2018-09-02T06:45:48.000Z</time>
      </trkpt>
      <trkpt lat="46.6452" lon="0.20947">
        <ele>184.85</ele>
        <time>2018-09-02T06:45:50.000Z</time>
      </trkpt>
      <trkpt lat="46.64512" lon="0.20933">
        <ele>184.41</ele>
        <time>2018-09-02T06:45:52.000Z</time>
      </trkpt>
      <trkpt lat="46.64505" lon="0.20919">
        <ele>183.98</ele>
        <time>2018-09-02T06:45:54.000Z</time>
      </trkpt>
      <trkpt lat="46.64497" lon="0.20905">
        <ele>183.61</ele>
        <time>2018-09-02T06:45:56.000Z</time>
      </trkpt>
      <trkpt lat="46.64491" lon="0.20892">
        <ele>183.34</ele>
        <time>2018-09-02T06:45:58.000Z</time>
      </trkpt>
      <trkpt lat="46.64484" lon="0.20878">
        <ele>183.1</ele>
        <time>2018-09-02T06:46:00.000Z</time>
      </trkpt>
      <trkpt lat="46.64477" lon="0.20866">
        <ele>182.95</ele>
        <time>2018-09-02T06:46:02.000Z</time>
      </trkpt>
      <trkpt lat="46.6447" lon="0.20853">
        <ele>182.74</ele>
        <time>2018-09-02T06:46:04.000Z</time>
      </trkpt>
      <trkpt lat="46.64462" lon="0.20839">
        <ele>182.54</ele>
        <time>2018-09-02T06:46:06.000Z</time>
      </trkpt>
      <trkpt lat="46.64455" lon="0.20825">
        <ele>182.38</ele>
        <time>2018-09-02T06:46:08.000Z</time>
      </trkpt>
      <trkpt lat="46.64448" lon="0.20812">
        <ele>182.14</ele>
        <time>2018-09-02T06:46:10.000Z</time>
      </trkpt>
      <trkpt lat="46.64441" lon="0.208">
        <ele>181.96</ele>
        <time>2018-09-02T06:46:12.000Z</time>
      </trkpt>
      <trkpt lat="46.64434" lon="0.20787">
        <ele>181.8</ele>
        <time>2018-09-02T06:46:14.000Z</time>
      </trkpt>
      <trkpt lat="46.64428" lon="0.20775">
        <ele>181.66</ele>
        <time>2018-09-02T06:46:16.000Z</time>
      </trkpt>
      <trkpt lat="46.64421" lon="0.20762">
        <ele>181.57</ele>
        <time>2018-09-02T06:46:18.000Z</time>
      </trkpt>
      <trkpt lat="46.64414" lon="0.2075">
        <ele>181.44</ele>
        <time>2018-09-02T06:46:20.000Z</time>
      </trkpt>
      <trkpt lat="46.64408" lon="0.20736">
        <ele>181.3</ele>
        <time>2018-09-02T06:46:22.000Z</time>
      </trkpt>
      <trkpt lat="46.64401" lon="0.20724">
        <ele>181.16</ele>
        <time>2018-09-02T06:46:24.000Z</time>
      </trkpt>
      <trkpt lat="46.64395" lon="0.20712">
        <ele>181.01</ele>
        <time>2018-09-02T06:46:26.000Z</time>
      </trkpt>
      <trkpt lat="46.64389" lon="0.20701">
        <ele>180.9</ele>
        <time>2018-09-02T06:46:28.000Z</time>
      </trkpt>
      <trkpt lat="46.64384" lon="0.2069">
        <ele>180.74</ele>
        <time>2018-09-02T06:46:30.000Z</time>
      </trkpt>
      <trkpt lat="46.64378" lon="0.20679">
        <ele>180.52</ele>
        <time>2018-09-02T06:46:32.000Z</time>
      </trkpt>
      <trkpt lat="46.64372" lon="0.20668">
        <ele>180.49</ele>
        <time>2018-09-02T06:46:34.000Z</time>
      </trkpt>
      <trkpt lat="46.64364" lon="0.20653">
        <ele>180.21</ele>
        <time>2018-09-02T06:46:37.000Z</time>
      </trkpt>
      <trkpt lat="46.64358" lon="0.20639">
        <ele>180.09</ele>
        <time>2018-09-02T06:46:40.000Z</time>
      </trkpt>
      <trkpt lat="46.64367" lon="0.20625">
        <ele>180.48</ele>
        <time>2018-09-02T06:46:43.000Z</time>
      </trkpt>
      <trkpt lat="46.64376" lon="0.20616">
        <ele>180.53</ele>
        <time>2018-09-02T06:46:45.000Z</time>
      </trkpt>
      <trkpt lat="46.64385" lon="0.20606">
        <ele>180.31</ele>
        <time>2018-09-02T06:46:47.000Z</time>
      </trkpt>
      <trkpt lat="46.64394" lon="0.20596">
        <ele>179.95</ele>
        <time>2018-09-02T06:46:49.000Z</time>
      </trkpt>
      <trkpt lat="46.64403" lon="0.20585">
        <ele>179.41</ele>
        <time>2018-09-02T06:46:51.000Z</time>
      </trkpt>
      <trkpt lat="46.64413" lon="0.20573">
        <ele>178.85</ele>
        <time>2018-09-02T06:46:53.000Z</time>
      </trkpt>
      <trkpt lat="46.64424" lon="0.20561">
        <ele>178.33</ele>
        <time>2018-09-02T06:46:55.000Z</time>
      </trkpt>
      <trkpt lat="46.64435" lon="0.20548">
        <ele>177.78</ele>
        <time>2018-09-02T06:46:57.000Z</time>
      </trkpt>
      <trkpt lat="46.64446" lon="0.20535">
        <ele>177.02</ele>
        <time>2018-09-02T06:46:59.000Z</time>
      </trkpt>
      <trkpt lat="46.64455" lon="0.20525">
        <ele>176.5</ele>
        <time>2018-09-02T06:47:01.000Z</time>
      </trkpt>
      <trkpt lat="46.64463" lon="0.20515">
        <ele>176.47</ele>
        <time>2018-09-02T06:47:03.000Z</time>
      </trkpt>
      <trkpt lat="46.64472" lon="0.20504">
        <ele>176.73</ele>
        <time>2018-09-02T06:47:06.000Z</time>
      </trkpt>
      <trkpt lat="46.6448" lon="0.20495">
        <ele>176.83</ele>
        <time>2018-09-02T06:47:09.000Z</time>
      </trkpt>
      <trkpt lat="46.64488" lon="0.20485">
        <ele>177</ele>
        <time>2018-09-02T06:47:12.000Z</time>
      </trkpt>
      <trkpt lat="46.64497" lon="0.20474">
        <ele>177.33</ele>
        <time>2018-09-02T06:47:16.000Z</time>
      </trkpt>
      <trkpt lat="46.64506" lon="0.20465">
        <ele>177.74</ele>
        <time>2018-09-02T06:47:20.000Z</time>
      </trkpt>
      <trkpt lat="46.64514" lon="0.20455">
        <ele>178.25</ele>
        <time>2018-09-02T06:47:24.000Z</time>
      </trkpt>
      <trkpt lat="46.64521" lon="0.20446">
        <ele>178.82</ele>
        <time>2018-09-02T06:47:28.000Z</time>
      </trkpt>
      <trkpt lat="46.64529" lon="0.20438">
        <ele>179.44</ele>
        <time>2018-09-02T06:47:32.000Z</time>
      </trkpt>
      <trkpt lat="46.64538" lon="0.20429">
        <ele>180.2</ele>
        <time>2018-09-02T06:47:37.000Z</time>
      </trkpt>
      <trkpt lat="46.64546" lon="0.20421">
        <ele>180.83</ele>
        <time>2018-09-02T06:47:41.000Z</time>
      </trkpt>
      <trkpt lat="46.64554" lon="0.20412">
        <ele>181.55</ele>
        <time>2018-09-02T06:47:45.000Z</time>
      </trkpt>
      <trkpt lat="46.64562" lon="0.20403">
        <ele>182.39</ele>
        <time>2018-09-02T06:47:50.000Z</time>
      </trkpt>
      <trkpt lat="46.64571" lon="0.20393">
        <ele>183.14</ele>
        <time>2018-09-02T06:47:55.000Z</time>
      </trkpt>
      <trkpt lat="46.64579" lon="0.20384">
        <ele>183.95</ele>
        <time>2018-09-02T06:48:00.000Z</time>
      </trkpt>
      <trkpt lat="46.64587" lon="0.20375">
        <ele>184.66</ele>
        <time>2018-09-02T06:48:04.000Z</time>
      </trkpt>
      <trkpt lat="46.64596" lon="0.20365">
        <ele>185.36</ele>
        <time>2018-09-02T06:48:08.000Z</time>
      </trkpt>
      <trkpt lat="46.64606" lon="0.20354">
        <ele>186.02</ele>
        <time>2018-09-02T06:48:12.000Z</time>
      </trkpt>
      <trkpt lat="46.64613" lon="0.20344">
        <ele>186.47</ele>
        <time>2018-09-02T06:48:15.000Z</time>
      </trkpt>
      <trkpt lat="46.64622" lon="0.20335">
        <ele>186.8</ele>
        <time>2018-09-02T06:48:18.000Z</time>
      </trkpt>
      <trkpt lat="46.6463" lon="0.20326">
        <ele>187.13</ele>
        <time>2018-09-02T06:48:21.000Z</time>
      </trkpt>
      <trkpt lat="46.64638" lon="0.20316">
        <ele>187.39</ele>
        <time>2018-09-02T06:48:24.000Z</time>
      </trkpt>
      <trkpt lat="46.64647" lon="0.20307">
        <ele>187.96</ele>
        <time>2018-09-02T06:48:27.000Z</time>
      </trkpt>
      <trkpt lat="46.64656" lon="0.20297">
        <ele>188.43</ele>
        <time>2018-09-02T06:48:30.000Z</time>
      </trkpt>
      <trkpt lat="46.64666" lon="0.20288">
        <ele>188.97</ele>
        <time>2018-09-02T06:48:33.000Z</time>
      </trkpt>
      <trkpt lat="46.64677" lon="0.20276">
        <ele>190.01</ele>
        <time>2018-09-02T06:48:36.000Z</time>
      </trkpt>
      <trkpt lat="46.64684" lon="0.20267">
        <ele>190.72</ele>
        <time>2018-09-02T06:48:38.000Z</time>
      </trkpt>
      <trkpt lat="46.64691" lon="0.20257">
        <ele>191.02</ele>
        <time>2018-09-02T06:48:40.000Z</time>
      </trkpt>
      <trkpt lat="46.64699" lon="0.20247">
        <ele>190.77</ele>
        <time>2018-09-02T06:48:42.000Z</time>
      </trkpt>
      <trkpt lat="46.64708" lon="0.20234">
        <ele>190.13</ele>
        <time>2018-09-02T06:48:44.000Z</time>
      </trkpt>
      <trkpt lat="46.64715" lon="0.20221">
        <ele>189.26</ele>
        <time>2018-09-02T06:48:46.000Z</time>
      </trkpt>
      <trkpt lat="46.64719" lon="0.20205">
        <ele>188.19</ele>
        <time>2018-09-02T06:48:48.000Z</time>
      </trkpt>
      <trkpt lat="46.64721" lon="0.20186">
        <ele>186.54</ele>
        <time>2018-09-02T06:48:50.000Z</time>
      </trkpt>
      <trkpt lat="46.64726" lon="0.20162">
        <ele>184.25</ele>
        <time>2018-09-02T06:48:52.000Z</time>
      </trkpt>
      <trkpt lat="46.64728" lon="0.20148">
        <ele>182.85</ele>
        <time>2018-09-02T06:48:53.000Z</time>
      </trkpt>
      <trkpt lat="46.64731" lon="0.20133">
        <ele>181.47</ele>
        <time>2018-09-02T06:48:54.000Z</time>
      </trkpt>
      <trkpt lat="46.64735" lon="0.20118">
        <ele>180.15</ele>
        <time>2018-09-02T06:48:55.000Z</time>
      </trkpt>
      <trkpt lat="46.64738" lon="0.20102">
        <ele>178.93</ele>
        <time>2018-09-02T06:48:56.000Z</time>
      </trkpt>
      <trkpt lat="46.6474" lon="0.20088">
        <ele>177.82</ele>
        <time>2018-09-02T06:48:57.000Z</time>
      </trkpt>
      <trkpt lat="46.64743" lon="0.2007">
        <ele>175.55</ele>
        <time>2018-09-02T06:48:59.000Z</time>
      </trkpt>
      <trkpt lat="46.64735" lon="0.20061">
        <ele>173.1</ele>
        <time>2018-09-02T06:49:02.000Z</time>
      </trkpt>
      <trkpt lat="46.64725" lon="0.20061">
        <ele>171.17</ele>
        <time>2018-09-02T06:49:04.000Z</time>
      </trkpt>
      <trkpt lat="46.64714" lon="0.20061">
        <ele>169.74</ele>
        <time>2018-09-02T06:49:06.000Z</time>
      </trkpt>
      <trkpt lat="46.64704" lon="0.20058">
        <ele>168.6</ele>
        <time>2018-09-02T06:49:08.000Z</time>
      </trkpt>
      <trkpt lat="46.64694" lon="0.20055">
        <ele>167.78</ele>
        <time>2018-09-02T06:49:10.000Z</time>
      </trkpt>
      <trkpt lat="46.64683" lon="0.20051">
        <ele>167.28</ele>
        <time>2018-09-02T06:49:12.000Z</time>
      </trkpt>
      <trkpt lat="46.64673" lon="0.20048">
        <ele>166.94</ele>
        <time>2018-09-02T06:49:14.000Z</time>
      </trkpt>
      <trkpt lat="46.64662" lon="0.20044">
        <ele>166.8</ele>
        <time>2018-09-02T06:49:16.000Z</time>
      </trkpt>
      <trkpt lat="46.64652" lon="0.2004">
        <ele>166.84</ele>
        <time>2018-09-02T06:49:18.000Z</time>
      </trkpt>
      <trkpt lat="46.64641" lon="0.20036">
        <ele>167.03</ele>
        <time>2018-09-02T06:49:20.000Z</time>
      </trkpt>
      <trkpt lat="46.64631" lon="0.2003">
        <ele>167.25</ele>
        <time>2018-09-02T06:49:22.000Z</time>
      </trkpt>
      <trkpt lat="46.64621" lon="0.20026">
        <ele>167.44</ele>
        <time>2018-09-02T06:49:24.000Z</time>
      </trkpt>
      <trkpt lat="46.6461" lon="0.20023">
        <ele>167.58</ele>
        <time>2018-09-02T06:49:26.000Z</time>
      </trkpt>
      <trkpt lat="46.646" lon="0.2002">
        <ele>167.72</ele>
        <time>2018-09-02T06:49:28.000Z</time>
      </trkpt>
      <trkpt lat="46.64591" lon="0.20016">
        <ele>167.84</ele>
        <time>2018-09-02T06:49:30.000Z</time>
      </trkpt>
      <trkpt lat="46.6458" lon="0.20012">
        <ele>167.82</ele>
        <time>2018-09-02T06:49:32.000Z</time>
      </trkpt>
      <trkpt lat="46.64571" lon="0.20008">
        <ele>167.66</ele>
        <time>2018-09-02T06:49:34.000Z</time>
      </trkpt>
      <trkpt lat="46.64561" lon="0.20003">
        <ele>167.7</ele>
        <time>2018-09-02T06:49:36.000Z</time>
      </trkpt>
      <trkpt lat="46.64551" lon="0.19998">
        <ele>167.81</ele>
        <time>2018-09-02T06:49:38.000Z</time>
      </trkpt>
      <trkpt lat="46.64541" lon="0.19993">
        <ele>167.94</ele>
        <time>2018-09-02T06:49:40.000Z</time>
      </trkpt>
      <trkpt lat="46.64531" lon="0.19986">
        <ele>168.03</ele>
        <time>2018-09-02T06:49:42.000Z</time>
      </trkpt>
      <trkpt lat="46.64521" lon="0.19979">
        <ele>167.95</ele>
        <time>2018-09-02T06:49:44.000Z</time>
      </trkpt>
      <trkpt lat="46.6451" lon="0.19972">
        <ele>167.8</ele>
        <time>2018-09-02T06:49:46.000Z</time>
      </trkpt>
      <trkpt lat="46.64499" lon="0.19965">
        <ele>167.73</ele>
        <time>2018-09-02T06:49:48.000Z</time>
      </trkpt>
      <trkpt lat="46.64489" lon="0.19958">
        <ele>167.69</ele>
        <time>2018-09-02T06:49:50.000Z</time>
      </trkpt>
      <trkpt lat="46.64479" lon="0.19951">
        <ele>167.64</ele>
        <time>2018-09-02T06:49:52.000Z</time>
      </trkpt>
      <trkpt lat="46.6447" lon="0.19944">
        <ele>167.34</ele>
        <time>2018-09-02T06:49:54.000Z</time>
      </trkpt>
      <trkpt lat="46.6446" lon="0.19938">
        <ele>167.02</ele>
        <time>2018-09-02T06:49:56.000Z</time>
      </trkpt>
      <trkpt lat="46.6445" lon="0.19932">
        <ele>166.64</ele>
        <time>2018-09-02T06:49:58.000Z</time>
      </trkpt>
      <trkpt lat="46.64441" lon="0.19925">
        <ele>166.46</ele>
        <time>2018-09-02T06:50:00.000Z</time>
      </trkpt>
      <trkpt lat="46.64431" lon="0.19919">
        <ele>166.43</ele>
        <time>2018-09-02T06:50:02.000Z</time>
      </trkpt>
      <trkpt lat="46.64422" lon="0.19913">
        <ele>166.54</ele>
        <time>2018-09-02T06:50:04.000Z</time>
      </trkpt>
      <trkpt lat="46.64412" lon="0.19906">
        <ele>166.65</ele>
        <time>2018-09-02T06:50:06.000Z</time>
      </trkpt>
      <trkpt lat="46.64403" lon="0.199">
        <ele>166.67</ele>
        <time>2018-09-02T06:50:08.000Z</time>
      </trkpt>
      <trkpt lat="46.64395" lon="0.19894">
        <ele>166.76</ele>
        <time>2018-09-02T06:50:10.000Z</time>
      </trkpt>
      <trkpt lat="46.64386" lon="0.19888">
        <ele>167.09</ele>
        <time>2018-09-02T06:50:12.000Z</time>
      </trkpt>
      <trkpt lat="46.64378" lon="0.19883">
        <ele>167.5</ele>
        <time>2018-09-02T06:50:14.000Z</time>
      </trkpt>
      <trkpt lat="46.64368" lon="0.19877">
        <ele>167.65</ele>
        <time>2018-09-02T06:50:16.000Z</time>
      </trkpt>
      <trkpt lat="46.6436" lon="0.19871">
        <ele>167.66</ele>
        <time>2018-09-02T06:50:18.000Z</time>
      </trkpt>
      <trkpt lat="46.64348" lon="0.19862">
        <ele>167.38</ele>
        <time>2018-09-02T06:50:21.000Z</time>
      </trkpt>
      <trkpt lat="46.64336" lon="0.19854">
        <ele>167.13</ele>
        <time>2018-09-02T06:50:24.000Z</time>
      </trkpt>
      <trkpt lat="46.64324" lon="0.19846">
        <ele>167.18</ele>
        <time>2018-09-02T06:50:27.000Z</time>
      </trkpt>
      <trkpt lat="46.64315" lon="0.1984">
        <ele>167.16</ele>
        <time>2018-09-02T06:50:29.000Z</time>
      </trkpt>
      <trkpt lat="46.64306" lon="0.19834">
        <ele>167.13</ele>
        <time>2018-09-02T06:50:31.000Z</time>
      </trkpt>
      <trkpt lat="46.64298" lon="0.19828">
        <ele>167.09</ele>
        <time>2018-09-02T06:50:33.000Z</time>
      </trkpt>
      <trkpt lat="46.64288" lon="0.19822">
        <ele>166.96</ele>
        <time>2018-09-02T06:50:35.000Z</time>
      </trkpt>
      <trkpt lat="46.6428" lon="0.19816">
        <ele>166.95</ele>
        <time>2018-09-02T06:50:37.000Z</time>
      </trkpt>
      <trkpt lat="46.6427" lon="0.19809">
        <ele>166.89</ele>
        <time>2018-09-02T06:50:39.000Z</time>
      </trkpt>
      <trkpt lat="46.64261" lon="0.19803">
        <ele>166.97</ele>
        <time>2018-09-02T06:50:41.000Z</time>
      </trkpt>
      <trkpt lat="46.64252" lon="0.19797">
        <ele>166.94</ele>
        <time>2018-09-02T06:50:43.000Z</time>
      </trkpt>
      <trkpt lat="46.64243" lon="0.19791">
        <ele>166.89</ele>
        <time>2018-09-02T06:50:45.000Z</time>
      </trkpt>
      <trkpt lat="46.64232" lon="0.19784">
        <ele>166.85</ele>
        <time>2018-09-02T06:50:48.000Z</time>
      </trkpt>
      <trkpt lat="46.6422" lon="0.1978">
        <ele>166.89</ele>
        <time>2018-09-02T06:50:51.000Z</time>
      </trkpt>
      <trkpt lat="46.64211" lon="0.19791">
        <ele>166.41</ele>
        <time>2018-09-02T06:50:54.000Z</time>
      </trkpt>
      <trkpt lat="46.64207" lon="0.19806">
        <ele>165.95</ele>
        <time>2018-09-02T06:50:56.000Z</time>
      </trkpt>
      <trkpt lat="46.64205" lon="0.19825">
        <ele>165.7</ele>
        <time>2018-09-02T06:50:58.000Z</time>
      </trkpt>
      <trkpt lat="46.64204" lon="0.19841">
        <ele>165.78</ele>
        <time>2018-09-02T06:51:02.000Z</time>
      </trkpt>
      <trkpt lat="46.64193" lon="0.19838">
        <ele>165.73</ele>
        <time>2018-09-02T06:51:07.000Z</time>
      </trkpt>
      <trkpt lat="46.64181" lon="0.19835">
        <ele>165.15</ele>
        <time>2018-09-02T06:51:13.000Z</time>
      </trkpt>
      <trkpt lat="46.64172" lon="0.19827">
        <ele>165.2</ele>
        <time>2018-09-02T06:51:16.000Z</time>
      </trkpt>
      <trkpt lat="46.64174" lon="0.19813">
        <ele>165.31</ele>
        <time>2018-09-02T06:51:20.000Z</time>
      </trkpt>
      <trkpt lat="46.64177" lon="0.198">
        <ele>165.54</ele>
        <time>2018-09-02T06:51:23.000Z</time>
      </trkpt>
      <trkpt lat="46.6418" lon="0.19786">
        <ele>165.82</ele>
        <time>2018-09-02T06:51:26.000Z</time>
      </trkpt>
      <trkpt lat="46.64183" lon="0.1977">
        <ele>166.23</ele>
        <time>2018-09-02T06:51:30.000Z</time>
      </trkpt>
      <trkpt lat="46.64181" lon="0.19757">
        <ele>166.71</ele>
        <time>2018-09-02T06:51:35.000Z</time>
      </trkpt>
      <trkpt lat="46.64169" lon="0.19752">
        <ele>166.86</ele>
        <time>2018-09-02T06:51:39.000Z</time>
      </trkpt>
      <trkpt lat="46.64159" lon="0.19749">
        <ele>166.92</ele>
        <time>2018-09-02T06:51:42.000Z</time>
      </trkpt>
      <trkpt lat="46.6415" lon="0.19746">
        <ele>167.01</ele>
        <time>2018-09-02T06:51:45.000Z</time>
      </trkpt>
      <trkpt lat="46.64138" lon="0.19741">
        <ele>166.91</ele>
        <time>2018-09-02T06:51:48.000Z</time>
      </trkpt>
      <trkpt lat="46.64129" lon="0.19739">
        <ele>166.27</ele>
        <time>2018-09-02T06:51:50.000Z</time>
      </trkpt>
      <trkpt lat="46.64119" lon="0.19737">
        <ele>165.73</ele>
        <time>2018-09-02T06:51:52.000Z</time>
      </trkpt>
      <trkpt lat="46.64109" lon="0.19736">
        <ele>165.43</ele>
        <time>2018-09-02T06:51:54.000Z</time>
      </trkpt>
      <trkpt lat="46.64099" lon="0.19736">
        <ele>165.36</ele>
        <time>2018-09-02T06:51:56.000Z</time>
      </trkpt>
      <trkpt lat="46.64088" lon="0.19735">
        <ele>165.38</ele>
        <time>2018-09-02T06:51:58.000Z</time>
      </trkpt>
      <trkpt lat="46.64077" lon="0.19735">
        <ele>165.34</ele>
        <time>2018-09-02T06:52:00.000Z</time>
      </trkpt>
      <trkpt lat="46.64067" lon="0.19735">
        <ele>164.82</ele>
        <time>2018-09-02T06:52:02.000Z</time>
      </trkpt>
      <trkpt lat="46.64056" lon="0.19733">
        <ele>164.35</ele>
        <time>2018-09-02T06:52:04.000Z</time>
      </trkpt>
      <trkpt lat="46.64044" lon="0.19731">
        <ele>163.95</ele>
        <time>2018-09-02T06:52:06.000Z</time>
      </trkpt>
      <trkpt lat="46.64033" lon="0.19727">
        <ele>163.82</ele>
        <time>2018-09-02T06:52:08.000Z</time>
      </trkpt>
      <trkpt lat="46.64022" lon="0.19722">
        <ele>163.69</ele>
        <time>2018-09-02T06:52:10.000Z</time>
      </trkpt>
      <trkpt lat="46.64011" lon="0.19717">
        <ele>163.47</ele>
        <time>2018-09-02T06:52:12.000Z</time>
      </trkpt>
      <trkpt lat="46.64" lon="0.19711">
        <ele>163.29</ele>
        <time>2018-09-02T06:52:14.000Z</time>
      </trkpt>
      <trkpt lat="46.63989" lon="0.19705">
        <ele>163.18</ele>
        <time>2018-09-02T06:52:16.000Z</time>
      </trkpt>
      <trkpt lat="46.63978" lon="0.19697">
        <ele>162.98</ele>
        <time>2018-09-02T06:52:18.000Z</time>
      </trkpt>
      <trkpt lat="46.63966" lon="0.1969">
        <ele>162.49</ele>
        <time>2018-09-02T06:52:20.000Z</time>
      </trkpt>
      <trkpt lat="46.63955" lon="0.19687">
        <ele>161.99</ele>
        <time>2018-09-02T06:52:22.000Z</time>
      </trkpt>
      <trkpt lat="46.63945" lon="0.19697">
        <ele>161.53</ele>
        <time>2018-09-02T06:52:24.000Z</time>
      </trkpt>
      <trkpt lat="46.63941" lon="0.19712">
        <ele>161.23</ele>
        <time>2018-09-02T06:52:26.000Z</time>
      </trkpt>
      <trkpt lat="46.63937" lon="0.19729">
        <ele>161.14</ele>
        <time>2018-09-02T06:52:28.000Z</time>
      </trkpt>
      <trkpt lat="46.63934" lon="0.19746">
        <ele>161.08</ele>
        <time>2018-09-02T06:52:30.000Z</time>
      </trkpt>
      <trkpt lat="46.63932" lon="0.19764">
        <ele>161.27</ele>
        <time>2018-09-02T06:52:32.000Z</time>
      </trkpt>
      <trkpt lat="46.63931" lon="0.19782">
        <ele>161.48</ele>
        <time>2018-09-02T06:52:34.000Z</time>
      </trkpt>
      <trkpt lat="46.6393" lon="0.19797">
        <ele>162.12</ele>
        <time>2018-09-02T06:52:36.000Z</time>
      </trkpt>
      <trkpt lat="46.63928" lon="0.19811">
        <ele>162.87</ele>
        <time>2018-09-02T06:52:38.000Z</time>
      </trkpt>
      <trkpt lat="46.63926" lon="0.19825">
        <ele>163.5</ele>
        <time>2018-09-02T06:52:40.000Z</time>
      </trkpt>
      <trkpt lat="46.63923" lon="0.19838">
        <ele>164.03</ele>
        <time>2018-09-02T06:52:42.000Z</time>
      </trkpt>
      <trkpt lat="46.63918" lon="0.19851">
        <ele>164.59</ele>
        <time>2018-09-02T06:52:44.000Z</time>
      </trkpt>
      <trkpt lat="46.63914" lon="0.19863">
        <ele>165.05</ele>
        <time>2018-09-02T06:52:46.000Z</time>
      </trkpt>
      <trkpt lat="46.6391" lon="0.19876">
        <ele>165.54</ele>
        <time>2018-09-02T06:52:48.000Z</time>
      </trkpt>
      <trkpt lat="46.63903" lon="0.19893">
        <ele>166.21</ele>
        <time>2018-09-02T06:52:51.000Z</time>
      </trkpt>
      <trkpt lat="46.63899" lon="0.19907">
        <ele>166.69</ele>
        <time>2018-09-02T06:52:53.000Z</time>
      </trkpt>
      <trkpt lat="46.63894" lon="0.19921">
        <ele>166.71</ele>
        <time>2018-09-02T06:52:55.000Z</time>
      </trkpt>
      <trkpt lat="46.63889" lon="0.19934">
        <ele>167.28</ele>
        <time>2018-09-02T06:52:57.000Z</time>
      </trkpt>
      <trkpt lat="46.63884" lon="0.19947">
        <ele>167.46</ele>
        <time>2018-09-02T06:52:59.000Z</time>
      </trkpt>
      <trkpt lat="46.63879" lon="0.19957">
        <ele>167.47</ele>
        <time>2018-09-02T06:53:01.000Z</time>
      </trkpt>
      <trkpt lat="46.63873" lon="0.19968">
        <ele>167.6</ele>
        <time>2018-09-02T06:53:03.000Z</time>
      </trkpt>
      <trkpt lat="46.63866" lon="0.1998">
        <ele>168.02</ele>
        <time>2018-09-02T06:53:05.000Z</time>
      </trkpt>
      <trkpt lat="46.63857" lon="0.19994">
        <ele>168.13</ele>
        <time>2018-09-02T06:53:08.000Z</time>
      </trkpt>
      <trkpt lat="46.63851" lon="0.20005">
        <ele>168.2</ele>
        <time>2018-09-02T06:53:10.000Z</time>
      </trkpt>
      <trkpt lat="46.63844" lon="0.20017">
        <ele>168.24</ele>
        <time>2018-09-02T06:53:12.000Z</time>
      </trkpt>
      <trkpt lat="46.63838" lon="0.20031">
        <ele>168.21</ele>
        <time>2018-09-02T06:53:15.000Z</time>
      </trkpt>
      <trkpt lat="46.63831" lon="0.20048">
        <ele>168.14</ele>
        <time>2018-09-02T06:53:18.000Z</time>
      </trkpt>
      <trkpt lat="46.63826" lon="0.20066">
        <ele>168.05</ele>
        <time>2018-09-02T06:53:21.000Z</time>
      </trkpt>
      <trkpt lat="46.63819" lon="0.20081">
        <ele>167.58</ele>
        <time>2018-09-02T06:53:24.000Z</time>
      </trkpt>
      <trkpt lat="46.63813" lon="0.20097">
        <ele>167.46</ele>
        <time>2018-09-02T06:53:27.000Z</time>
      </trkpt>
      <trkpt lat="46.63807" lon="0.20111">
        <ele>167.29</ele>
        <time>2018-09-02T06:53:30.000Z</time>
      </trkpt>
      <trkpt lat="46.63802" lon="0.20127">
        <ele>166.27</ele>
        <time>2018-09-02T06:53:33.000Z</time>
      </trkpt>
      <trkpt lat="46.63797" lon="0.20143">
        <ele>166.01</ele>
        <time>2018-09-02T06:53:36.000Z</time>
      </trkpt>
      <trkpt lat="46.63792" lon="0.20159">
        <ele>165.72</ele>
        <time>2018-09-02T06:53:39.000Z</time>
      </trkpt>
      <trkpt lat="46.63788" lon="0.20174">
        <ele>165.49</ele>
        <time>2018-09-02T06:53:42.000Z</time>
      </trkpt>
      <trkpt lat="46.63781" lon="0.20183">
        <ele>165.21</ele>
        <time>2018-09-02T06:53:45.000Z</time>
      </trkpt>
      <trkpt lat="46.63773" lon="0.20191">
        <ele>163.5</ele>
        <time>2018-09-02T06:53:47.000Z</time>
      </trkpt>
      <trkpt lat="46.63766" lon="0.20199">
        <ele>162.52</ele>
        <time>2018-09-02T06:53:49.000Z</time>
      </trkpt>
      <trkpt lat="46.63758" lon="0.20206">
        <ele>162.53</ele>
        <time>2018-09-02T06:53:51.000Z</time>
      </trkpt>
      <trkpt lat="46.6375" lon="0.20214">
        <ele>162.93</ele>
        <time>2018-09-02T06:53:53.000Z</time>
      </trkpt>
      <trkpt lat="46.6374" lon="0.20222">
        <ele>163.2</ele>
        <time>2018-09-02T06:53:55.000Z</time>
      </trkpt>
      <trkpt lat="46.63731" lon="0.20231">
        <ele>163.19</ele>
        <time>2018-09-02T06:53:57.000Z</time>
      </trkpt>
      <trkpt lat="46.63721" lon="0.2024">
        <ele>163.11</ele>
        <time>2018-09-02T06:53:59.000Z</time>
      </trkpt>
      <trkpt lat="46.63711" lon="0.20249">
        <ele>163.26</ele>
        <time>2018-09-02T06:54:01.000Z</time>
      </trkpt>
      <trkpt lat="46.63701" lon="0.20258">
        <ele>163.45</ele>
        <time>2018-09-02T06:54:03.000Z</time>
      </trkpt>
      <trkpt lat="46.63691" lon="0.20267">
        <ele>163.58</ele>
        <time>2018-09-02T06:54:05.000Z</time>
      </trkpt>
      <trkpt lat="46.63681" lon="0.20273">
        <ele>163.25</ele>
        <time>2018-09-02T06:54:06.999Z</time>
      </trkpt>
      <trkpt lat="46.6367" lon="0.20279">
        <ele>163.01</ele>
        <time>2018-09-02T06:54:09.999Z</time>
      </trkpt>
      <trkpt lat="46.63661" lon="0.20288">
        <ele>162.84</ele>
        <time>2018-09-02T06:54:13.999Z</time>
      </trkpt>
      <trkpt lat="46.6367" lon="0.20295">
        <ele>162.87</ele>
        <time>2018-09-02T06:54:17.999Z</time>
      </trkpt>
      <trkpt lat="46.6368" lon="0.20295">
        <ele>162.99</ele>
        <time>2018-09-02T06:54:21.999Z</time>
      </trkpt>
      <trkpt lat="46.63691" lon="0.20297">
        <ele>163.35</ele>
        <time>2018-09-02T06:54:26.999Z</time>
      </trkpt>
      <trkpt lat="46.637" lon="0.20299">
        <ele>163.76</ele>
        <time>2018-09-02T06:54:30.999Z</time>
      </trkpt>
      <trkpt lat="46.6371" lon="0.20303">
        <ele>164.04</ele>
        <time>2018-09-02T06:54:33.999Z</time>
      </trkpt>
      <trkpt lat="46.6372" lon="0.20311">
        <ele>164.4</ele>
        <time>2018-09-02T06:54:37.999Z</time>
      </trkpt>
      <trkpt lat="46.63726" lon="0.20325">
        <ele>164.65</ele>
        <time>2018-09-02T06:54:40.999Z</time>
      </trkpt>
      <trkpt lat="46.63731" lon="0.20342">
        <ele>164.85</ele>
        <time>2018-09-02T06:54:43.999Z</time>
      </trkpt>
      <trkpt lat="46.63734" lon="0.20355">
        <ele>165.05</ele>
        <time>2018-09-02T06:54:46.999Z</time>
      </trkpt>
      <trkpt lat="46.63739" lon="0.20371">
        <ele>165.31</ele>
        <time>2018-09-02T06:54:50.999Z</time>
      </trkpt>
      <trkpt lat="46.63745" lon="0.20385">
        <ele>165.54</ele>
        <time>2018-09-02T06:54:53.999Z</time>
      </trkpt>
      <trkpt lat="46.6375" lon="0.20397">
        <ele>165.77</ele>
        <time>2018-09-02T06:54:56.999Z</time>
      </trkpt>
      <trkpt lat="46.63756" lon="0.2041">
        <ele>166.07</ele>
        <time>2018-09-02T06:54:59.999Z</time>
      </trkpt>
      <trkpt lat="46.6376" lon="0.20421">
        <ele>166.43</ele>
        <time>2018-09-02T06:55:02.999Z</time>
      </trkpt>
      <trkpt lat="46.63765" lon="0.20434">
        <ele>166.82</ele>
        <time>2018-09-02T06:55:05.999Z</time>
      </trkpt>
      <trkpt lat="46.63771" lon="0.20448">
        <ele>167.41</ele>
        <time>2018-09-02T06:55:09.999Z</time>
      </trkpt>
      <trkpt lat="46.63776" lon="0.20461">
        <ele>168.38</ele>
        <time>2018-09-02T06:55:14.999Z</time>
      </trkpt>
      <trkpt lat="46.63781" lon="0.20476">
        <ele>169.4</ele>
        <time>2018-09-02T06:55:19.999Z</time>
      </trkpt>
      <trkpt lat="46.63783" lon="0.2049">
        <ele>170.17</ele>
        <time>2018-09-02T06:55:23.999Z</time>
      </trkpt>
      <trkpt lat="46.6378" lon="0.20505">
        <ele>170.89</ele>
        <time>2018-09-02T06:55:27.999Z</time>
      </trkpt>
      <trkpt lat="46.63778" lon="0.20521">
        <ele>171.63</ele>
        <time>2018-09-02T06:55:31.999Z</time>
      </trkpt>
      <trkpt lat="46.63775" lon="0.20535">
        <ele>172.21</ele>
        <time>2018-09-02T06:55:34.999Z</time>
      </trkpt>
      <trkpt lat="46.63771" lon="0.2055">
        <ele>172.82</ele>
        <time>2018-09-02T06:55:37.999Z</time>
      </trkpt>
      <trkpt lat="46.63768" lon="0.20567">
        <ele>173.55</ele>
        <time>2018-09-02T06:55:41.999Z</time>
      </trkpt>
      <trkpt lat="46.63765" lon="0.2058">
        <ele>174.13</ele>
        <time>2018-09-02T06:55:44.999Z</time>
      </trkpt>
      <trkpt lat="46.63761" lon="0.20596">
        <ele>174.98</ele>
        <time>2018-09-02T06:55:48.999Z</time>
      </trkpt>
      <trkpt lat="46.63758" lon="0.20609">
        <ele>175.58</ele>
        <time>2018-09-02T06:55:51.999Z</time>
      </trkpt>
      <trkpt lat="46.63755" lon="0.20625">
        <ele>176.27</ele>
        <time>2018-09-02T06:55:55.999Z</time>
      </trkpt>
      <trkpt lat="46.63752" lon="0.20639">
        <ele>176.79</ele>
        <time>2018-09-02T06:55:58.999Z</time>
      </trkpt>
      <trkpt lat="46.63749" lon="0.20654">
        <ele>177.55</ele>
        <time>2018-09-02T06:56:02.999Z</time>
      </trkpt>
      <trkpt lat="46.63739" lon="0.20659">
        <ele>178.16</ele>
        <time>2018-09-02T06:56:06.999Z</time>
      </trkpt>
      <trkpt lat="46.63731" lon="0.20651">
        <ele>178.52</ele>
        <time>2018-09-02T06:56:09.999Z</time>
      </trkpt>
      <trkpt lat="46.63721" lon="0.20642">
        <ele>180.5</ele>
        <time>2018-09-02T06:56:12.999Z</time>
      </trkpt>
      <trkpt lat="46.63711" lon="0.20634">
        <ele>181.87</ele>
        <time>2018-09-02T06:56:15.999Z</time>
      </trkpt>
      <trkpt lat="46.63699" lon="0.20625">
        <ele>182.37</ele>
        <time>2018-09-02T06:56:18.999Z</time>
      </trkpt>
      <trkpt lat="46.63691" lon="0.20619">
        <ele>182.43</ele>
        <time>2018-09-02T06:56:20.999Z</time>
      </trkpt>
      <trkpt lat="46.63682" lon="0.20612">
        <ele>182.61</ele>
        <time>2018-09-02T06:56:22.999Z</time>
      </trkpt>
      <trkpt lat="46.63673" lon="0.20605">
        <ele>182.72</ele>
        <time>2018-09-02T06:56:24.999Z</time>
      </trkpt>
      <trkpt lat="46.63664" lon="0.20598">
        <ele>182.79</ele>
        <time>2018-09-02T06:56:26.999Z</time>
      </trkpt>
      <trkpt lat="46.63656" lon="0.20591">
        <ele>182.81</ele>
        <time>2018-09-02T06:56:28.999Z</time>
      </trkpt>
      <trkpt lat="46.63647" lon="0.20584">
        <ele>182.93</ele>
        <time>2018-09-02T06:56:30.999Z</time>
      </trkpt>
      <trkpt lat="46.63637" lon="0.20577">
        <ele>182.93</ele>
        <time>2018-09-02T06:56:32.999Z</time>
      </trkpt>
      <trkpt lat="46.63627" lon="0.20569">
        <ele>182.84</ele>
        <time>2018-09-02T06:56:34.999Z</time>
      </trkpt>
      <trkpt lat="46.63617" lon="0.20562">
        <ele>182.79</ele>
        <time>2018-09-02T06:56:36.999Z</time>
      </trkpt>
      <trkpt lat="46.63607" lon="0.20554">
        <ele>182.68</ele>
        <time>2018-09-02T06:56:38.999Z</time>
      </trkpt>
      <trkpt lat="46.63597" lon="0.20546">
        <ele>182.52</ele>
        <time>2018-09-02T06:56:40.999Z</time>
      </trkpt>
      <trkpt lat="46.63586" lon="0.20538">
        <ele>182.23</ele>
        <time>2018-09-02T06:56:42.999Z</time>
      </trkpt>
      <trkpt lat="46.63576" lon="0.2053">
        <ele>181.94</ele>
        <time>2018-09-02T06:56:44.999Z</time>
      </trkpt>
      <trkpt lat="46.63567" lon="0.20522">
        <ele>181.78</ele>
        <time>2018-09-02T06:56:46.999Z</time>
      </trkpt>
      <trkpt lat="46.63556" lon="0.20514">
        <ele>181.66</ele>
        <time>2018-09-02T06:56:48.999Z</time>
      </trkpt>
      <trkpt lat="46.63545" lon="0.20507">
        <ele>181.47</ele>
        <time>2018-09-02T06:56:50.999Z</time>
      </trkpt>
      <trkpt lat="46.63533" lon="0.20499">
        <ele>181.14</ele>
        <time>2018-09-02T06:56:52.999Z</time>
      </trkpt>
      <trkpt lat="46.63522" lon="0.2049">
        <ele>180.67</ele>
        <time>2018-09-02T06:56:54.999Z</time>
      </trkpt>
      <trkpt lat="46.63511" lon="0.20481">
        <ele>180.24</ele>
        <time>2018-09-02T06:56:56.999Z</time>
      </trkpt>
      <trkpt lat="46.635" lon="0.20472">
        <ele>179.87</ele>
        <time>2018-09-02T06:56:58.999Z</time>
      </trkpt>
      <trkpt lat="46.63488" lon="0.20463">
        <ele>179.56</ele>
        <time>2018-09-02T06:57:00.999Z</time>
      </trkpt>
      <trkpt lat="46.63478" lon="0.20455">
        <ele>179.44</ele>
        <time>2018-09-02T06:57:02.999Z</time>
      </trkpt>
      <trkpt lat="46.63467" lon="0.20446">
        <ele>179.35</ele>
        <time>2018-09-02T06:57:04.999Z</time>
      </trkpt>
      <trkpt lat="46.63456" lon="0.20438">
        <ele>179.29</ele>
        <time>2018-09-02T06:57:06.999Z</time>
      </trkpt>
      <trkpt lat="46.63446" lon="0.2043">
        <ele>179.23</ele>
        <time>2018-09-02T06:57:08.999Z</time>
      </trkpt>
      <trkpt lat="46.63435" lon="0.20422">
        <ele>179.13</ele>
        <time>2018-09-02T06:57:10.999Z</time>
      </trkpt>
      <trkpt lat="46.63425" lon="0.20415">
        <ele>178.96</ele>
        <time>2018-09-02T06:57:12.999Z</time>
      </trkpt>
      <trkpt lat="46.63416" lon="0.20407">
        <ele>178.79</ele>
        <time>2018-09-02T06:57:14.999Z</time>
      </trkpt>
      <trkpt lat="46.63406" lon="0.204">
        <ele>178.66</ele>
        <time>2018-09-02T06:57:16.999Z</time>
      </trkpt>
      <trkpt lat="46.63397" lon="0.20393">
        <ele>178.57</ele>
        <time>2018-09-02T06:57:18.999Z</time>
      </trkpt>
      <trkpt lat="46.63387" lon="0.20385">
        <ele>178.56</ele>
        <time>2018-09-02T06:57:20.999Z</time>
      </trkpt>
      <trkpt lat="46.63377" lon="0.20378">
        <ele>178.6</ele>
        <time>2018-09-02T06:57:22.999Z</time>
      </trkpt>
      <trkpt lat="46.63367" lon="0.2037">
        <ele>178.66</ele>
        <time>2018-09-02T06:57:24.999Z</time>
      </trkpt>
      <trkpt lat="46.63357" lon="0.20363">
        <ele>178.77</ele>
        <time>2018-09-02T06:57:26.999Z</time>
      </trkpt>
      <trkpt lat="46.63348" lon="0.20355">
        <ele>178.87</ele>
        <time>2018-09-02T06:57:28.999Z</time>
      </trkpt>
      <trkpt lat="46.63339" lon="0.20348">
        <ele>179.02</ele>
        <time>2018-09-02T06:57:30.999Z</time>
      </trkpt>
      <trkpt lat="46.63329" lon="0.20341">
        <ele>179.13</ele>
        <time>2018-09-02T06:57:32.999Z</time>
      </trkpt>
      <trkpt lat="46.63319" lon="0.20333">
        <ele>179.23</ele>
        <time>2018-09-02T06:57:34.999Z</time>
      </trkpt>
      <trkpt lat="46.6331" lon="0.20326">
        <ele>179.32</ele>
        <time>2018-09-02T06:57:36.999Z</time>
      </trkpt>
      <trkpt lat="46.63301" lon="0.20319">
        <ele>179.45</ele>
        <time>2018-09-02T06:57:38.999Z</time>
      </trkpt>
      <trkpt lat="46.63292" lon="0.20311">
        <ele>179.53</ele>
        <time>2018-09-02T06:57:40.999Z</time>
      </trkpt>
      <trkpt lat="46.63282" lon="0.20303">
        <ele>179.58</ele>
        <time>2018-09-02T06:57:42.999Z</time>
      </trkpt>
      <trkpt lat="46.63271" lon="0.20296">
        <ele>179.52</ele>
        <time>2018-09-02T06:57:44.999Z</time>
      </trkpt>
      <trkpt lat="46.63262" lon="0.20288">
        <ele>179.33</ele>
        <time>2018-09-02T06:57:46.999Z</time>
      </trkpt>
      <trkpt lat="46.63253" lon="0.20281">
        <ele>179.21</ele>
        <time>2018-09-02T06:57:48.999Z</time>
      </trkpt>
      <trkpt lat="46.63244" lon="0.20274">
        <ele>179.39</ele>
        <time>2018-09-02T06:57:50.999Z</time>
      </trkpt>
      <trkpt lat="46.63234" lon="0.20267">
        <ele>179.35</ele>
        <time>2018-09-02T06:57:52.999Z</time>
      </trkpt>
      <trkpt lat="46.63224" lon="0.20259">
        <ele>179.27</ele>
        <time>2018-09-02T06:57:54.999Z</time>
      </trkpt>
      <trkpt lat="46.63215" lon="0.20252">
        <ele>179.21</ele>
        <time>2018-09-02T06:57:56.999Z</time>
      </trkpt>
      <trkpt lat="46.63206" lon="0.20244">
        <ele>179.09</ele>
        <time>2018-09-02T06:57:58.999Z</time>
      </trkpt>
      <trkpt lat="46.63197" lon="0.20236">
        <ele>178.92</ele>
        <time>2018-09-02T06:58:00.999Z</time>
      </trkpt>
      <trkpt lat="46.63188" lon="0.2023">
        <ele>178.78</ele>
        <time>2018-09-02T06:58:02.999Z</time>
      </trkpt>
      <trkpt lat="46.63179" lon="0.20223">
        <ele>178.72</ele>
        <time>2018-09-02T06:58:04.999Z</time>
      </trkpt>
      <trkpt lat="46.63169" lon="0.20215">
        <ele>178.66</ele>
        <time>2018-09-02T06:58:06.999Z</time>
      </trkpt>
      <trkpt lat="46.6316" lon="0.20208">
        <ele>178.68</ele>
        <time>2018-09-02T06:58:08.999Z</time>
      </trkpt>
      <trkpt lat="46.6315" lon="0.202">
        <ele>178.79</ele>
        <time>2018-09-02T06:58:10.999Z</time>
      </trkpt>
      <trkpt lat="46.6314" lon="0.20193">
        <ele>178.64</ele>
        <time>2018-09-02T06:58:12.999Z</time>
      </trkpt>
      <trkpt lat="46.63131" lon="0.20186">
        <ele>178.53</ele>
        <time>2018-09-02T06:58:14.999Z</time>
      </trkpt>
      <trkpt lat="46.63121" lon="0.20178">
        <ele>178.45</ele>
        <time>2018-09-02T06:58:16.999Z</time>
      </trkpt>
      <trkpt lat="46.63112" lon="0.20172">
        <ele>178.47</ele>
        <time>2018-09-02T06:58:18.999Z</time>
      </trkpt>
      <trkpt lat="46.63103" lon="0.20165">
        <ele>178.74</ele>
        <time>2018-09-02T06:58:20.999Z</time>
      </trkpt>
      <trkpt lat="46.63094" lon="0.20158">
        <ele>178.87</ele>
        <time>2018-09-02T06:58:22.999Z</time>
      </trkpt>
      <trkpt lat="46.63085" lon="0.20153">
        <ele>178.79</ele>
        <time>2018-09-02T06:58:24.999Z</time>
      </trkpt>
      <trkpt lat="46.63076" lon="0.20148">
        <ele>178.62</ele>
        <time>2018-09-02T06:58:26.999Z</time>
      </trkpt>
      <trkpt lat="46.63067" lon="0.20143">
        <ele>178.49</ele>
        <time>2018-09-02T06:58:28.999Z</time>
      </trkpt>
      <trkpt lat="46.63055" lon="0.20136">
        <ele>178.33</ele>
        <time>2018-09-02T06:58:31.999Z</time>
      </trkpt>
      <trkpt lat="46.63046" lon="0.20132">
        <ele>178.34</ele>
        <time>2018-09-02T06:58:33.999Z</time>
      </trkpt>
      <trkpt lat="46.63036" lon="0.20127">
        <ele>178.24</ele>
        <time>2018-09-02T06:58:35.999Z</time>
      </trkpt>
      <trkpt lat="46.63026" lon="0.20123">
        <ele>178</ele>
        <time>2018-09-02T06:58:37.999Z</time>
      </trkpt>
      <trkpt lat="46.63017" lon="0.20119">
        <ele>177.98</ele>
        <time>2018-09-02T06:58:39.999Z</time>
      </trkpt>
      <trkpt lat="46.63008" lon="0.20115">
        <ele>177.93</ele>
        <time>2018-09-02T06:58:41.999Z</time>
      </trkpt>
      <trkpt lat="46.62999" lon="0.20112">
        <ele>177.72</ele>
        <time>2018-09-02T06:58:43.999Z</time>
      </trkpt>
      <trkpt lat="46.62989" lon="0.20107">
        <ele>177.29</ele>
        <time>2018-09-02T06:58:45.999Z</time>
      </trkpt>
      <trkpt lat="46.62978" lon="0.20101">
        <ele>176.34</ele>
        <time>2018-09-02T06:58:47.999Z</time>
      </trkpt>
      <trkpt lat="46.62969" lon="0.20097">
        <ele>175.02</ele>
        <time>2018-09-02T06:58:49.999Z</time>
      </trkpt>
      <trkpt lat="46.6296" lon="0.20108">
        <ele>173.39</ele>
        <time>2018-09-02T06:58:52.999Z</time>
      </trkpt>
      <trkpt lat="46.62959" lon="0.20123">
        <ele>173.33</ele>
        <time>2018-09-02T06:58:54.999Z</time>
      </trkpt>
      <trkpt lat="46.62958" lon="0.20138">
        <ele>173.83</ele>
        <time>2018-09-02T06:58:56.999Z</time>
      </trkpt>
      <trkpt lat="46.62957" lon="0.20154">
        <ele>174.23</ele>
        <time>2018-09-02T06:58:58.999Z</time>
      </trkpt>
      <trkpt lat="46.62957" lon="0.20171">
        <ele>174.44</ele>
        <time>2018-09-02T06:59:00.999Z</time>
      </trkpt>
      <trkpt lat="46.62957" lon="0.20188">
        <ele>174.76</ele>
        <time>2018-09-02T06:59:02.999Z</time>
      </trkpt>
      <trkpt lat="46.62955" lon="0.20205">
        <ele>175.15</ele>
        <time>2018-09-02T06:59:04.999Z</time>
      </trkpt>
      <trkpt lat="46.62953" lon="0.2022">
        <ele>175.4</ele>
        <time>2018-09-02T06:59:06.999Z</time>
      </trkpt>
      <trkpt lat="46.62951" lon="0.20236">
        <ele>175.61</ele>
        <time>2018-09-02T06:59:08.999Z</time>
      </trkpt>
      <trkpt lat="46.62949" lon="0.20252">
        <ele>175.8</ele>
        <time>2018-09-02T06:59:10.999Z</time>
      </trkpt>
      <trkpt lat="46.62947" lon="0.20268">
        <ele>176</ele>
        <time>2018-09-02T06:59:12.999Z</time>
      </trkpt>
      <trkpt lat="46.62944" lon="0.20284">
        <ele>176.1</ele>
        <time>2018-09-02T06:59:14.999Z</time>
      </trkpt>
      <trkpt lat="46.62943" lon="0.20299">
        <ele>176.32</ele>
        <time>2018-09-02T06:59:16.999Z</time>
      </trkpt>
      <trkpt lat="46.6294" lon="0.20313">
        <ele>176.58</ele>
        <time>2018-09-02T06:59:18.999Z</time>
      </trkpt>
      <trkpt lat="46.62938" lon="0.20328">
        <ele>177.28</ele>
        <time>2018-09-02T06:59:20.999Z</time>
      </trkpt>
      <trkpt lat="46.62936" lon="0.20345">
        <ele>177.87</ele>
        <time>2018-09-02T06:59:22.999Z</time>
      </trkpt>
      <trkpt lat="46.62934" lon="0.2036">
        <ele>178.17</ele>
        <time>2018-09-02T06:59:24.999Z</time>
      </trkpt>
      <trkpt lat="46.62931" lon="0.20377">
        <ele>178.12</ele>
        <time>2018-09-02T06:59:26.999Z</time>
      </trkpt>
      <trkpt lat="46.6293" lon="0.20393">
        <ele>178.15</ele>
        <time>2018-09-02T06:59:28.999Z</time>
      </trkpt>
      <trkpt lat="46.62927" lon="0.20409">
        <ele>178.22</ele>
        <time>2018-09-02T06:59:30.999Z</time>
      </trkpt>
      <trkpt lat="46.62925" lon="0.20424">
        <ele>178.17</ele>
        <time>2018-09-02T06:59:32.999Z</time>
      </trkpt>
      <trkpt lat="46.62923" lon="0.2044">
        <ele>178.14</ele>
        <time>2018-09-02T06:59:34.999Z</time>
      </trkpt>
      <trkpt lat="46.62922" lon="0.20456">
        <ele>178.12</ele>
        <time>2018-09-02T06:59:36.999Z</time>
      </trkpt>
      <trkpt lat="46.6292" lon="0.20473">
        <ele>177.95</ele>
        <time>2018-09-02T06:59:38.999Z</time>
      </trkpt>
      <trkpt lat="46.62917" lon="0.20489">
        <ele>177.82</ele>
        <time>2018-09-02T06:59:40.999Z</time>
      </trkpt>
      <trkpt lat="46.62915" lon="0.20506">
        <ele>177.56</ele>
        <time>2018-09-02T06:59:42.999Z</time>
      </trkpt>
      <trkpt lat="46.62913" lon="0.20522">
        <ele>177.01</ele>
        <time>2018-09-02T06:59:44.999Z</time>
      </trkpt>
      <trkpt lat="46.62911" lon="0.20539">
        <ele>176.41</ele>
        <time>2018-09-02T06:59:46.999Z</time>
      </trkpt>
      <trkpt lat="46.62909" lon="0.20554">
        <ele>176.01</ele>
        <time>2018-09-02T06:59:48.999Z</time>
      </trkpt>
      <trkpt lat="46.62906" lon="0.2057">
        <ele>175.78</ele>
        <time>2018-09-02T06:59:50.999Z</time>
      </trkpt>
      <trkpt lat="46.62904" lon="0.20583">
        <ele>175.36</ele>
        <time>2018-09-02T06:59:52.999Z</time>
      </trkpt>
      <trkpt lat="46.62902" lon="0.20598">
        <ele>175.09</ele>
        <time>2018-09-02T06:59:54.999Z</time>
      </trkpt>
      <trkpt lat="46.62899" lon="0.20615">
        <ele>174.89</ele>
        <time>2018-09-02T06:59:56.999Z</time>
      </trkpt>
      <trkpt lat="46.62896" lon="0.20631">
        <ele>174.64</ele>
        <time>2018-09-02T06:59:58.999Z</time>
      </trkpt>
      <trkpt lat="46.62893" lon="0.20648">
        <ele>174.19</ele>
        <time>2018-09-02T07:00:00.999Z</time>
      </trkpt>
      <trkpt lat="46.6289" lon="0.20666">
        <ele>173.6</ele>
        <time>2018-09-02T07:00:02.999Z</time>
      </trkpt>
      <trkpt lat="46.62887" lon="0.20684">
        <ele>173.19</ele>
        <time>2018-09-02T07:00:04.999Z</time>
      </trkpt>
      <trkpt lat="46.62884" lon="0.20703">
        <ele>173.11</ele>
        <time>2018-09-02T07:00:06.999Z</time>
      </trkpt>
      <trkpt lat="46.62879" lon="0.20723">
        <ele>172.96</ele>
        <time>2018-09-02T07:00:08.999Z</time>
      </trkpt>
      <trkpt lat="46.62875" lon="0.20743">
        <ele>172.71</ele>
        <time>2018-09-02T07:00:10.999Z</time>
      </trkpt>
      <trkpt lat="46.62871" lon="0.20764">
        <ele>172.42</ele>
        <time>2018-09-02T07:00:12.999Z</time>
      </trkpt>
      <trkpt lat="46.62869" lon="0.20785">
        <ele>171.99</ele>
        <time>2018-09-02T07:00:14.999Z</time>
      </trkpt>
      <trkpt lat="46.62866" lon="0.20805">
        <ele>171.49</ele>
        <time>2018-09-02T07:00:16.999Z</time>
      </trkpt>
      <trkpt lat="46.62863" lon="0.20826">
        <ele>170.83</ele>
        <time>2018-09-02T07:00:18.999Z</time>
      </trkpt>
      <trkpt lat="46.62862" lon="0.20848">
        <ele>170.11</ele>
        <time>2018-09-02T07:00:20.999Z</time>
      </trkpt>
      <trkpt lat="46.62861" lon="0.20867">
        <ele>169.26</ele>
        <time>2018-09-02T07:00:22.999Z</time>
      </trkpt>
      <trkpt lat="46.62859" lon="0.20883">
        <ele>168.35</ele>
        <time>2018-09-02T07:00:24.999Z</time>
      </trkpt>
      <trkpt lat="46.62857" lon="0.20897">
        <ele>167.73</ele>
        <time>2018-09-02T07:00:26.999Z</time>
      </trkpt>
      <trkpt lat="46.62849" lon="0.20902">
        <ele>167.28</ele>
        <time>2018-09-02T07:00:31.999Z</time>
      </trkpt>
      <trkpt lat="46.62846" lon="0.20887">
        <ele>166.99</ele>
        <time>2018-09-02T07:00:34.999Z</time>
      </trkpt>
      <trkpt lat="46.62846" lon="0.20871">
        <ele>166.73</ele>
        <time>2018-09-02T07:00:37.999Z</time>
      </trkpt>
      <trkpt lat="46.62844" lon="0.20854">
        <ele>166.42</ele>
        <time>2018-09-02T07:00:41.999Z</time>
      </trkpt>
      <trkpt lat="46.62843" lon="0.20838">
        <ele>166.25</ele>
        <time>2018-09-02T07:00:44.999Z</time>
      </trkpt>
      <trkpt lat="46.62845" lon="0.20819">
        <ele>165.8</ele>
        <time>2018-09-02T07:00:47.999Z</time>
      </trkpt>
      <trkpt lat="46.62845" lon="0.20806">
        <ele>165.66</ele>
        <time>2018-09-02T07:00:49.999Z</time>
      </trkpt>
      <trkpt lat="46.62846" lon="0.20788">
        <ele>165.82</ele>
        <time>2018-09-02T07:00:52.999Z</time>
      </trkpt>
      <trkpt lat="46.62847" lon="0.20773">
        <ele>165.92</ele>
        <time>2018-09-02T07:00:54.999Z</time>
      </trkpt>
      <trkpt lat="46.62849" lon="0.20759">
        <ele>165.98</ele>
        <time>2018-09-02T07:00:56.999Z</time>
      </trkpt>
      <trkpt lat="46.6285" lon="0.20742">
        <ele>166.1</ele>
        <time>2018-09-02T07:00:59.999Z</time>
      </trkpt>
      <trkpt lat="46.62851" lon="0.20723">
        <ele>166.25</ele>
        <time>2018-09-02T07:01:02.999Z</time>
      </trkpt>
      <trkpt lat="46.62848" lon="0.207">
        <ele>166.23</ele>
        <time>2018-09-02T07:01:05.999Z</time>
      </trkpt>
      <trkpt lat="46.62848" lon="0.20685">
        <ele>166.1</ele>
        <time>2018-09-02T07:01:07.999Z</time>
      </trkpt>
      <trkpt lat="46.62848" lon="0.20666">
        <ele>163.68</ele>
        <time>2018-09-02T07:01:09.999Z</time>
      </trkpt>
      <trkpt lat="46.6285" lon="0.20645">
        <ele>161.42</ele>
        <time>2018-09-02T07:01:11.999Z</time>
      </trkpt>
      <trkpt lat="46.62852" lon="0.20627">
        <ele>160.83</ele>
        <time>2018-09-02T07:01:13.999Z</time>
      </trkpt>
      <trkpt lat="46.62853" lon="0.20609">
        <ele>161.14</ele>
        <time>2018-09-02T07:01:15.999Z</time>
      </trkpt>
      <trkpt lat="46.62855" lon="0.20594">
        <ele>161.72</ele>
        <time>2018-09-02T07:01:17.999Z</time>
      </trkpt>
      <trkpt lat="46.62857" lon="0.20578">
        <ele>162.26</ele>
        <time>2018-09-02T07:01:19.999Z</time>
      </trkpt>
      <trkpt lat="46.62859" lon="0.20563">
        <ele>162.82</ele>
        <time>2018-09-02T07:01:21.999Z</time>
      </trkpt>
      <trkpt lat="46.62861" lon="0.20548">
        <ele>163.28</ele>
        <time>2018-09-02T07:01:23.999Z</time>
      </trkpt>
      <trkpt lat="46.62862" lon="0.20534">
        <ele>163.5</ele>
        <time>2018-09-02T07:01:25.999Z</time>
      </trkpt>
      <trkpt lat="46.62864" lon="0.2052">
        <ele>163.71</ele>
        <time>2018-09-02T07:01:27.999Z</time>
      </trkpt>
      <trkpt lat="46.62865" lon="0.20505">
        <ele>163.84</ele>
        <time>2018-09-02T07:01:29.999Z</time>
      </trkpt>
      <trkpt lat="46.62867" lon="0.20491">
        <ele>163.88</ele>
        <time>2018-09-02T07:01:31.999Z</time>
      </trkpt>
      <trkpt lat="46.62869" lon="0.20477">
        <ele>163.52</ele>
        <time>2018-09-02T07:01:33.999Z</time>
      </trkpt>
      <trkpt lat="46.6287" lon="0.20463">
        <ele>162.7</ele>
        <time>2018-09-02T07:01:35.999Z</time>
      </trkpt>
      <trkpt lat="46.62871" lon="0.20448">
        <ele>161.65</ele>
        <time>2018-09-02T07:01:37.999Z</time>
      </trkpt>
      <trkpt lat="46.62873" lon="0.20434">
        <ele>160.86</ele>
        <time>2018-09-02T07:01:39.999Z</time>
      </trkpt>
      <trkpt lat="46.62874" lon="0.2042">
        <ele>159.71</ele>
        <time>2018-09-02T07:01:41.999Z</time>
      </trkpt>
      <trkpt lat="46.62875" lon="0.20406">
        <ele>159.06</ele>
        <time>2018-09-02T07:01:43.999Z</time>
      </trkpt>
      <trkpt lat="46.62876" lon="0.20392">
        <ele>158.47</ele>
        <time>2018-09-02T07:01:45.999Z</time>
      </trkpt>
      <trkpt lat="46.62877" lon="0.20378">
        <ele>158.12</ele>
        <time>2018-09-02T07:01:47.999Z</time>
      </trkpt>
      <trkpt lat="46.62878" lon="0.20363">
        <ele>158.39</ele>
        <time>2018-09-02T07:01:49.999Z</time>
      </trkpt>
      <trkpt lat="46.62879" lon="0.20349">
        <ele>159.15</ele>
        <time>2018-09-02T07:01:51.999Z</time>
      </trkpt>
      <trkpt lat="46.62881" lon="0.20333">
        <ele>160.45</ele>
        <time>2018-09-02T07:01:53.999Z</time>
      </trkpt>
      <trkpt lat="46.62882" lon="0.20319">
        <ele>161.72</ele>
        <time>2018-09-02T07:01:55.999Z</time>
      </trkpt>
      <trkpt lat="46.62883" lon="0.20305">
        <ele>162.57</ele>
        <time>2018-09-02T07:01:57.999Z</time>
      </trkpt>
      <trkpt lat="46.62884" lon="0.20291">
        <ele>163</ele>
        <time>2018-09-02T07:01:59.999Z</time>
      </trkpt>
      <trkpt lat="46.62885" lon="0.20277">
        <ele>163.14</ele>
        <time>2018-09-02T07:02:01.999Z</time>
      </trkpt>
      <trkpt lat="46.62886" lon="0.20262">
        <ele>163.21</ele>
        <time>2018-09-02T07:02:03.999Z</time>
      </trkpt>
      <trkpt lat="46.62887" lon="0.20249">
        <ele>163.38</ele>
        <time>2018-09-02T07:02:05.999Z</time>
      </trkpt>
      <trkpt lat="46.62889" lon="0.20235">
        <ele>164.04</ele>
        <time>2018-09-02T07:02:07.999Z</time>
      </trkpt>
      <trkpt lat="46.62889" lon="0.20216">
        <ele>164.56</ele>
        <time>2018-09-02T07:02:10.999Z</time>
      </trkpt>
      <trkpt lat="46.62889" lon="0.20202">
        <ele>165.35</ele>
        <time>2018-09-02T07:02:12.999Z</time>
      </trkpt>
      <trkpt lat="46.62889" lon="0.20187">
        <ele>166.07</ele>
        <time>2018-09-02T07:02:14.999Z</time>
      </trkpt>
      <trkpt lat="46.62889" lon="0.20172">
        <ele>166.74</ele>
        <time>2018-09-02T07:02:16.999Z</time>
      </trkpt>
      <trkpt lat="46.62889" lon="0.20159">
        <ele>167.49</ele>
        <time>2018-09-02T07:02:18.999Z</time>
      </trkpt>
      <trkpt lat="46.6289" lon="0.20144">
        <ele>168.17</ele>
        <time>2018-09-02T07:02:20.999Z</time>
      </trkpt>
      <trkpt lat="46.62891" lon="0.20131">
        <ele>168.93</ele>
        <time>2018-09-02T07:02:22.999Z</time>
      </trkpt>
      <trkpt lat="46.62894" lon="0.20112">
        <ele>168.36</ele>
        <time>2018-09-02T07:02:25.999Z</time>
      </trkpt>
      <trkpt lat="46.62896" lon="0.20092">
        <ele>167.94</ele>
        <time>2018-09-02T07:02:28.999Z</time>
      </trkpt>
      <trkpt lat="46.62898" lon="0.20075">
        <ele>167.86</ele>
        <time>2018-09-02T07:02:31.999Z</time>
      </trkpt>
      <trkpt lat="46.62893" lon="0.20062">
        <ele>167.44</ele>
        <time>2018-09-02T07:02:34.999Z</time>
      </trkpt>
      <trkpt lat="46.62882" lon="0.2006">
        <ele>167.4</ele>
        <time>2018-09-02T07:02:37.999Z</time>
      </trkpt>
      <trkpt lat="46.62871" lon="0.20058">
        <ele>167.42</ele>
        <time>2018-09-02T07:02:39.999Z</time>
      </trkpt>
      <trkpt lat="46.62859" lon="0.20053">
        <ele>167.33</ele>
        <time>2018-09-02T07:02:42.999Z</time>
      </trkpt>
      <trkpt lat="46.62848" lon="0.20051">
        <ele>167.33</ele>
        <time>2018-09-02T07:02:45.999Z</time>
      </trkpt>
      <trkpt lat="46.62838" lon="0.20048">
        <ele>167.36</ele>
        <time>2018-09-02T07:02:48.999Z</time>
      </trkpt>
      <trkpt lat="46.62828" lon="0.20046">
        <ele>167.38</ele>
        <time>2018-09-02T07:02:52.999Z</time>
      </trkpt>
      <trkpt lat="46.62819" lon="0.20044">
        <ele>167.2</ele>
        <time>2018-09-02T07:02:57.999Z</time>
      </trkpt>
      <trkpt lat="46.62809" lon="0.20045">
        <ele>166.94</ele>
        <time>2018-09-02T07:03:18.999Z</time>
      </trkpt>
      <trkpt lat="46.62798" lon="0.20047">
        <ele>166.85</ele>
        <time>2018-09-02T07:03:26.999Z</time>
      </trkpt>
      <trkpt lat="46.62788" lon="0.2005">
        <ele>166.8</ele>
        <time>2018-09-02T07:03:29.999Z</time>
      </trkpt>
      <trkpt lat="46.62779" lon="0.20052">
        <ele>166.65</ele>
        <time>2018-09-02T07:03:33.999Z</time>
      </trkpt>
      <trkpt lat="46.62777" lon="0.20036">
        <ele>166.87</ele>
        <time>2018-09-02T07:03:40.999Z</time>
      </trkpt>
      <trkpt lat="46.6278" lon="0.20021">
        <ele>167.02</ele>
        <time>2018-09-02T07:03:43.999Z</time>
      </trkpt>
      <trkpt lat="46.6278" lon="0.20006">
        <ele>167.11</ele>
        <time>2018-09-02T07:03:46.999Z</time>
      </trkpt>
      <trkpt lat="46.62781" lon="0.19988">
        <ele>167.01</ele>
        <time>2018-09-02T07:03:49.999Z</time>
      </trkpt>
      <trkpt lat="46.62783" lon="0.19974">
        <ele>166.83</ele>
        <time>2018-09-02T07:03:52.999Z</time>
      </trkpt>
      <trkpt lat="46.62784" lon="0.19956">
        <ele>166.55</ele>
        <time>2018-09-02T07:03:55.999Z</time>
      </trkpt>
      <trkpt lat="46.62783" lon="0.19939">
        <ele>166.23</ele>
        <time>2018-09-02T07:03:58.999Z</time>
      </trkpt>
      <trkpt lat="46.6278" lon="0.19925">
        <ele>165.87</ele>
        <time>2018-09-02T07:04:01.999Z</time>
      </trkpt>
      <trkpt lat="46.62779" lon="0.19911">
        <ele>165.59</ele>
        <time>2018-09-02T07:04:04.999Z</time>
      </trkpt>
      <trkpt lat="46.62771" lon="0.19902">
        <ele>165.5</ele>
        <time>2018-09-02T07:04:08.999Z</time>
      </trkpt>
      <trkpt lat="46.62761" lon="0.19898">
        <ele>165.71</ele>
        <time>2018-09-02T07:04:12.999Z</time>
      </trkpt>
      <trkpt lat="46.62753" lon="0.19894">
        <ele>166.2</ele>
        <time>2018-09-02T07:04:17.999Z</time>
      </trkpt>
      <trkpt lat="46.62743" lon="0.19887">
        <ele>166.95</ele>
        <time>2018-09-02T07:04:23.999Z</time>
      </trkpt>
      <trkpt lat="46.62736" lon="0.19877">
        <ele>167.76</ele>
        <time>2018-09-02T07:04:30.999Z</time>
      </trkpt>
      <trkpt lat="46.6273" lon="0.19867">
        <ele>169.11</ele>
        <time>2018-09-02T07:04:37.999Z</time>
      </trkpt>
      <trkpt lat="46.62724" lon="0.19855">
        <ele>170.07</ele>
        <time>2018-09-02T07:04:42.999Z</time>
      </trkpt>
      <trkpt lat="46.62718" lon="0.19844">
        <ele>171.04</ele>
        <time>2018-09-02T07:04:47.999Z</time>
      </trkpt>
      <trkpt lat="46.62712" lon="0.19832">
        <ele>172.22</ele>
        <time>2018-09-02T07:04:53.999Z</time>
      </trkpt>
      <trkpt lat="46.62704" lon="0.19819">
        <ele>172.98</ele>
        <time>2018-09-02T07:04:57.999Z</time>
      </trkpt>
      <trkpt lat="46.62694" lon="0.19811">
        <ele>173.87</ele>
        <time>2018-09-02T07:05:01.999Z</time>
      </trkpt>
      <trkpt lat="46.62685" lon="0.198">
        <ele>174.76</ele>
        <time>2018-09-02T07:05:05.999Z</time>
      </trkpt>
      <trkpt lat="46.6268" lon="0.19786">
        <ele>175.87</ele>
        <time>2018-09-02T07:05:10.999Z</time>
      </trkpt>
      <trkpt lat="46.62674" lon="0.19776">
        <ele>176.66</ele>
        <time>2018-09-02T07:05:14.999Z</time>
      </trkpt>
      <trkpt lat="46.62669" lon="0.19764">
        <ele>177.5</ele>
        <time>2018-09-02T07:05:19.999Z</time>
      </trkpt>
      <trkpt lat="46.62668" lon="0.1975">
        <ele>178.09</ele>
        <time>2018-09-02T07:05:23.999Z</time>
      </trkpt>
      <trkpt lat="46.62668" lon="0.19736">
        <ele>178.61</ele>
        <time>2018-09-02T07:05:27.999Z</time>
      </trkpt>
      <trkpt lat="46.62668" lon="0.19721">
        <ele>179.05</ele>
        <time>2018-09-02T07:05:31.999Z</time>
      </trkpt>
      <trkpt lat="46.6267" lon="0.19704">
        <ele>179.39</ele>
        <time>2018-09-02T07:05:35.999Z</time>
      </trkpt>
      <trkpt lat="46.62672" lon="0.19689">
        <ele>179.76</ele>
        <time>2018-09-02T07:05:39.999Z</time>
      </trkpt>
      <trkpt lat="46.62674" lon="0.19676">
        <ele>180.24</ele>
        <time>2018-09-02T07:05:43.999Z</time>
      </trkpt>
      <trkpt lat="46.62679" lon="0.19663">
        <ele>180.7</ele>
        <time>2018-09-02T07:05:47.999Z</time>
      </trkpt>
      <trkpt lat="46.62685" lon="0.19649">
        <ele>181.13</ele>
        <time>2018-09-02T07:05:51.999Z</time>
      </trkpt>
      <trkpt lat="46.6269" lon="0.19637">
        <ele>181.44</ele>
        <time>2018-09-02T07:05:54.999Z</time>
      </trkpt>
      <trkpt lat="46.62695" lon="0.19622">
        <ele>181.8</ele>
        <time>2018-09-02T07:05:57.999Z</time>
      </trkpt>
      <trkpt lat="46.627" lon="0.19607">
        <ele>182.2</ele>
        <time>2018-09-02T07:06:00.999Z</time>
      </trkpt>
      <trkpt lat="46.62702" lon="0.19594">
        <ele>182.61</ele>
        <time>2018-09-02T07:06:03.999Z</time>
      </trkpt>
      <trkpt lat="46.62696" lon="0.19583">
        <ele>182.98</ele>
        <time>2018-09-02T07:06:06.999Z</time>
      </trkpt>
      <trkpt lat="46.62686" lon="0.19578">
        <ele>183.24</ele>
        <time>2018-09-02T07:06:09.999Z</time>
      </trkpt>
      <trkpt lat="46.62676" lon="0.19573">
        <ele>183.35</ele>
        <time>2018-09-02T07:06:12.999Z</time>
      </trkpt>
      <trkpt lat="46.62666" lon="0.19567">
        <ele>183.42</ele>
        <time>2018-09-02T07:06:15.999Z</time>
      </trkpt>
      <trkpt lat="46.62655" lon="0.1956">
        <ele>183.48</ele>
        <time>2018-09-02T07:06:18.999Z</time>
      </trkpt>
      <trkpt lat="46.62643" lon="0.19553">
        <ele>183.86</ele>
        <time>2018-09-02T07:06:21.999Z</time>
      </trkpt>
      <trkpt lat="46.62632" lon="0.19547">
        <ele>184.01</ele>
        <time>2018-09-02T07:06:24.999Z</time>
      </trkpt>
      <trkpt lat="46.62621" lon="0.19541">
        <ele>184.15</ele>
        <time>2018-09-02T07:06:27.999Z</time>
      </trkpt>
      <trkpt lat="46.62612" lon="0.19537">
        <ele>184.07</ele>
        <time>2018-09-02T07:06:29.999Z</time>
      </trkpt>
      <trkpt lat="46.626" lon="0.19531">
        <ele>183.6</ele>
        <time>2018-09-02T07:06:32.999Z</time>
      </trkpt>
      <trkpt lat="46.62591" lon="0.19526">
        <ele>183.03</ele>
        <time>2018-09-02T07:06:34.999Z</time>
      </trkpt>
      <trkpt lat="46.62582" lon="0.1952">
        <ele>182.38</ele>
        <time>2018-09-02T07:06:36.999Z</time>
      </trkpt>
      <trkpt lat="46.62573" lon="0.19512">
        <ele>181.87</ele>
        <time>2018-09-02T07:06:38.999Z</time>
      </trkpt>
      <trkpt lat="46.62565" lon="0.195">
        <ele>181.21</ele>
        <time>2018-09-02T07:06:40.999Z</time>
      </trkpt>
      <trkpt lat="46.62558" lon="0.19487">
        <ele>180.59</ele>
        <time>2018-09-02T07:06:42.999Z</time>
      </trkpt>
      <trkpt lat="46.62551" lon="0.19474">
        <ele>180.47</ele>
        <time>2018-09-02T07:06:44.999Z</time>
      </trkpt>
      <trkpt lat="46.62546" lon="0.19461">
        <ele>180.61</ele>
        <time>2018-09-02T07:06:46.999Z</time>
      </trkpt>
      <trkpt lat="46.62542" lon="0.19447">
        <ele>180.9</ele>
        <time>2018-09-02T07:06:48.999Z</time>
      </trkpt>
      <trkpt lat="46.62538" lon="0.19434">
        <ele>181.24</ele>
        <time>2018-09-02T07:06:50.999Z</time>
      </trkpt>
      <trkpt lat="46.62533" lon="0.19417">
        <ele>181.54</ele>
        <time>2018-09-02T07:06:53.999Z</time>
      </trkpt>
      <trkpt lat="46.62529" lon="0.19405">
        <ele>181.91</ele>
        <time>2018-09-02T07:06:55.999Z</time>
      </trkpt>
      <trkpt lat="46.62525" lon="0.19393">
        <ele>182.24</ele>
        <time>2018-09-02T07:06:57.999Z</time>
      </trkpt>
      <trkpt lat="46.62521" lon="0.19381">
        <ele>182.5</ele>
        <time>2018-09-02T07:06:59.999Z</time>
      </trkpt>
      <trkpt lat="46.62514" lon="0.19366">
        <ele>183.43</ele>
        <time>2018-09-02T07:07:02.999Z</time>
      </trkpt>
      <trkpt lat="46.62506" lon="0.19354">
        <ele>184.04</ele>
        <time>2018-09-02T07:07:05.999Z</time>
      </trkpt>
      <trkpt lat="46.62497" lon="0.19343">
        <ele>184.44</ele>
        <time>2018-09-02T07:07:08.999Z</time>
      </trkpt>
      <trkpt lat="46.62486" lon="0.19333">
        <ele>184.87</ele>
        <time>2018-09-02T07:07:11.999Z</time>
      </trkpt>
      <trkpt lat="46.62477" lon="0.19325">
        <ele>185.31</ele>
        <time>2018-09-02T07:07:14.999Z</time>
      </trkpt>
      <trkpt lat="46.62467" lon="0.19315">
        <ele>185.74</ele>
        <time>2018-09-02T07:07:17.999Z</time>
      </trkpt>
      <trkpt lat="46.62457" lon="0.19307">
        <ele>185.94</ele>
        <time>2018-09-02T07:07:20.999Z</time>
      </trkpt>
      <trkpt lat="46.62447" lon="0.19298">
        <ele>185.99</ele>
        <time>2018-09-02T07:07:23.999Z</time>
      </trkpt>
      <trkpt lat="46.62439" lon="0.19289">
        <ele>186.09</ele>
        <time>2018-09-02T07:07:26.999Z</time>
      </trkpt>
      <trkpt lat="46.6243" lon="0.1928">
        <ele>186.28</ele>
        <time>2018-09-02T07:07:29.999Z</time>
      </trkpt>
      <trkpt lat="46.6242" lon="0.19271">
        <ele>186.45</ele>
        <time>2018-09-02T07:07:32.999Z</time>
      </trkpt>
      <trkpt lat="46.6241" lon="0.19262">
        <ele>186.75</ele>
        <time>2018-09-02T07:07:35.999Z</time>
      </trkpt>
      <trkpt lat="46.62402" lon="0.19254">
        <ele>186.82</ele>
        <time>2018-09-02T07:07:38.999Z</time>
      </trkpt>
      <trkpt lat="46.62394" lon="0.19245">
        <ele>187.7</ele>
        <time>2018-09-02T07:07:41.999Z</time>
      </trkpt>
      <trkpt lat="46.62383" lon="0.19237">
        <ele>188.85</ele>
        <time>2018-09-02T07:07:44.999Z</time>
      </trkpt>
      <trkpt lat="46.62373" lon="0.19226">
        <ele>189.25</ele>
        <time>2018-09-02T07:07:47.999Z</time>
      </trkpt>
      <trkpt lat="46.62365" lon="0.19219">
        <ele>188.84</ele>
        <time>2018-09-02T07:07:49.999Z</time>
      </trkpt>
      <trkpt lat="46.62355" lon="0.19209">
        <ele>187.91</ele>
        <time>2018-09-02T07:07:52.999Z</time>
      </trkpt>
      <trkpt lat="46.62345" lon="0.192">
        <ele>187.12</ele>
        <time>2018-09-02T07:07:55.999Z</time>
      </trkpt>
      <trkpt lat="46.62336" lon="0.19191">
        <ele>186.64</ele>
        <time>2018-09-02T07:07:58.999Z</time>
      </trkpt>
      <trkpt lat="46.62325" lon="0.19182">
        <ele>186.48</ele>
        <time>2018-09-02T07:08:01.999Z</time>
      </trkpt>
      <trkpt lat="46.62315" lon="0.19173">
        <ele>186.67</ele>
        <time>2018-09-02T07:08:04.999Z</time>
      </trkpt>
      <trkpt lat="46.62307" lon="0.19163">
        <ele>187.88</ele>
        <time>2018-09-02T07:08:07.999Z</time>
      </trkpt>
      <trkpt lat="46.62297" lon="0.19154">
        <ele>188.7</ele>
        <time>2018-09-02T07:08:10.999Z</time>
      </trkpt>
      <trkpt lat="46.62286" lon="0.19145">
        <ele>189.71</ele>
        <time>2018-09-02T07:08:13.999Z</time>
      </trkpt>
      <trkpt lat="46.62277" lon="0.19136">
        <ele>190.77</ele>
        <time>2018-09-02T07:08:16.999Z</time>
      </trkpt>
      <trkpt lat="46.62267" lon="0.19126">
        <ele>191.68</ele>
        <time>2018-09-02T07:08:19.999Z</time>
      </trkpt>
      <trkpt lat="46.62257" lon="0.19117">
        <ele>191.48</ele>
        <time>2018-09-02T07:08:22.999Z</time>
      </trkpt>
      <trkpt lat="46.62246" lon="0.19107">
        <ele>190.95</ele>
        <time>2018-09-02T07:08:25.999Z</time>
      </trkpt>
      <trkpt lat="46.62235" lon="0.19098">
        <ele>190.24</ele>
        <time>2018-09-02T07:08:28.999Z</time>
      </trkpt>
      <trkpt lat="46.62225" lon="0.19088">
        <ele>189.66</ele>
        <time>2018-09-02T07:08:31.999Z</time>
      </trkpt>
      <trkpt lat="46.62217" lon="0.19078">
        <ele>190.2</ele>
        <time>2018-09-02T07:08:34.999Z</time>
      </trkpt>
      <trkpt lat="46.62206" lon="0.19068">
        <ele>190.22</ele>
        <time>2018-09-02T07:08:37.999Z</time>
      </trkpt>
      <trkpt lat="46.62198" lon="0.19059">
        <ele>190.34</ele>
        <time>2018-09-02T07:08:40.999Z</time>
      </trkpt>
      <trkpt lat="46.62189" lon="0.1905">
        <ele>190.45</ele>
        <time>2018-09-02T07:08:43.999Z</time>
      </trkpt>
      <trkpt lat="46.62181" lon="0.19042">
        <ele>190.6</ele>
        <time>2018-09-02T07:08:46.999Z</time>
      </trkpt>
      <trkpt lat="46.62173" lon="0.19033">
        <ele>191.23</ele>
        <time>2018-09-02T07:08:49.999Z</time>
      </trkpt>
      <trkpt lat="46.62165" lon="0.19026">
        <ele>191.7</ele>
        <time>2018-09-02T07:08:51.999Z</time>
      </trkpt>
      <trkpt lat="46.62157" lon="0.19018">
        <ele>191.65</ele>
        <time>2018-09-02T07:08:53.999Z</time>
      </trkpt>
      <trkpt lat="46.62149" lon="0.1901">
        <ele>191.14</ele>
        <time>2018-09-02T07:08:55.999Z</time>
      </trkpt>
      <trkpt lat="46.62139" lon="0.19">
        <ele>190.62</ele>
        <time>2018-09-02T07:08:58.999Z</time>
      </trkpt>
      <trkpt lat="46.6213" lon="0.18992">
        <ele>190.88</ele>
        <time>2018-09-02T07:09:01.999Z</time>
      </trkpt>
      <trkpt lat="46.62119" lon="0.18982">
        <ele>191.06</ele>
        <time>2018-09-02T07:09:04.999Z</time>
      </trkpt>
      <trkpt lat="46.62109" lon="0.18973">
        <ele>191.93</ele>
        <time>2018-09-02T07:09:07.999Z</time>
      </trkpt>
      <trkpt lat="46.62101" lon="0.18964">
        <ele>193.12</ele>
        <time>2018-09-02T07:09:10.999Z</time>
      </trkpt>
      <trkpt lat="46.62091" lon="0.18955">
        <ele>193.77</ele>
        <time>2018-09-02T07:09:13.999Z</time>
      </trkpt>
      <trkpt lat="46.62082" lon="0.18946">
        <ele>193.92</ele>
        <time>2018-09-02T07:09:16.999Z</time>
      </trkpt>
      <trkpt lat="46.62072" lon="0.18938">
        <ele>193.98</ele>
        <time>2018-09-02T07:09:19.999Z</time>
      </trkpt>
      <trkpt lat="46.62064" lon="0.18929">
        <ele>194.04</ele>
        <time>2018-09-02T07:09:22.999Z</time>
      </trkpt>
      <trkpt lat="46.62054" lon="0.1892">
        <ele>194.19</ele>
        <time>2018-09-02T07:09:25.999Z</time>
      </trkpt>
      <trkpt lat="46.62045" lon="0.18912">
        <ele>194.92</ele>
        <time>2018-09-02T07:09:28.999Z</time>
      </trkpt>
      <trkpt lat="46.62035" lon="0.18903">
        <ele>194.95</ele>
        <time>2018-09-02T07:09:31.999Z</time>
      </trkpt>
      <trkpt lat="46.62026" lon="0.18894">
        <ele>194.95</ele>
        <time>2018-09-02T07:09:34.999Z</time>
      </trkpt>
      <trkpt lat="46.62013" lon="0.18883">
        <ele>195.66</ele>
        <time>2018-09-02T07:09:38.999Z</time>
      </trkpt>
      <trkpt lat="46.62003" lon="0.18874">
        <ele>195.84</ele>
        <time>2018-09-02T07:09:41.999Z</time>
      </trkpt>
      <trkpt lat="46.61994" lon="0.18866">
        <ele>195.85</ele>
        <time>2018-09-02T07:09:44.999Z</time>
      </trkpt>
      <trkpt lat="46.61985" lon="0.18857">
        <ele>195.95</ele>
        <time>2018-09-02T07:09:47.999Z</time>
      </trkpt>
      <trkpt lat="46.61976" lon="0.18849">
        <ele>196.93</ele>
        <time>2018-09-02T07:09:50.999Z</time>
      </trkpt>
      <trkpt lat="46.61966" lon="0.18839">
        <ele>198.1</ele>
        <time>2018-09-02T07:09:53.999Z</time>
      </trkpt>
      <trkpt lat="46.61957" lon="0.1883">
        <ele>198.6</ele>
        <time>2018-09-02T07:09:56.999Z</time>
      </trkpt>
      <trkpt lat="46.61948" lon="0.1882">
        <ele>198.69</ele>
        <time>2018-09-02T07:09:59.999Z</time>
      </trkpt>
      <trkpt lat="46.61939" lon="0.18811">
        <ele>199.24</ele>
        <time>2018-09-02T07:10:02.999Z</time>
      </trkpt>
      <trkpt lat="46.61929" lon="0.18802">
        <ele>200.24</ele>
        <time>2018-09-02T07:10:05.999Z</time>
      </trkpt>
      <trkpt lat="46.61921" lon="0.18794">
        <ele>200.33</ele>
        <time>2018-09-02T07:10:08.999Z</time>
      </trkpt>
      <trkpt lat="46.61912" lon="0.18785">
        <ele>200.37</ele>
        <time>2018-09-02T07:10:11.999Z</time>
      </trkpt>
      <trkpt lat="46.61909" lon="0.18771">
        <ele>200.48</ele>
        <time>2018-09-02T07:10:14.999Z</time>
      </trkpt>
      <trkpt lat="46.61911" lon="0.18756">
        <ele>200.86</ele>
        <time>2018-09-02T07:10:17.999Z</time>
      </trkpt>
      <trkpt lat="46.61914" lon="0.18739">
        <ele>201.06</ele>
        <time>2018-09-02T07:10:20.999Z</time>
      </trkpt>
      <trkpt lat="46.61916" lon="0.18722">
        <ele>200.85</ele>
        <time>2018-09-02T07:10:23.999Z</time>
      </trkpt>
      <trkpt lat="46.61918" lon="0.18703">
        <ele>199.63</ele>
        <time>2018-09-02T07:10:26.999Z</time>
      </trkpt>
      <trkpt lat="46.61919" lon="0.18689">
        <ele>198.67</ele>
        <time>2018-09-02T07:10:28.999Z</time>
      </trkpt>
      <trkpt lat="46.6192" lon="0.18676">
        <ele>198.04</ele>
        <time>2018-09-02T07:10:30.999Z</time>
      </trkpt>
      <trkpt lat="46.61922" lon="0.18657">
        <ele>198.21</ele>
        <time>2018-09-02T07:10:33.999Z</time>
      </trkpt>
      <trkpt lat="46.61923" lon="0.18644">
        <ele>198.55</ele>
        <time>2018-09-02T07:10:35.999Z</time>
      </trkpt>
      <trkpt lat="46.61924" lon="0.1863">
        <ele>198.98</ele>
        <time>2018-09-02T07:10:37.999Z</time>
      </trkpt>
      <trkpt lat="46.61925" lon="0.18616">
        <ele>199.51</ele>
        <time>2018-09-02T07:10:39.999Z</time>
      </trkpt>
      <trkpt lat="46.61927" lon="0.18601">
        <ele>200.25</ele>
        <time>2018-09-02T07:10:41.999Z</time>
      </trkpt>
      <trkpt lat="46.61927" lon="0.18586">
        <ele>200.63</ele>
        <time>2018-09-02T07:10:43.999Z</time>
      </trkpt>
      <trkpt lat="46.61928" lon="0.18571">
        <ele>200.82</ele>
        <time>2018-09-02T07:10:45.999Z</time>
      </trkpt>
      <trkpt lat="46.61929" lon="0.18557">
        <ele>200.95</ele>
        <time>2018-09-02T07:10:47.999Z</time>
      </trkpt>
      <trkpt lat="46.61929" lon="0.18543">
        <ele>201.09</ele>
        <time>2018-09-02T07:10:49.999Z</time>
      </trkpt>
      <trkpt lat="46.61929" lon="0.1853">
        <ele>201.41</ele>
        <time>2018-09-02T07:10:51.999Z</time>
      </trkpt>
      <trkpt lat="46.6193" lon="0.18511">
        <ele>201.83</ele>
        <time>2018-09-02T07:10:54.999Z</time>
      </trkpt>
      <trkpt lat="46.6193" lon="0.18498">
        <ele>201.93</ele>
        <time>2018-09-02T07:10:56.999Z</time>
      </trkpt>
      <trkpt lat="46.61929" lon="0.18484">
        <ele>201.65</ele>
        <time>2018-09-02T07:10:58.999Z</time>
      </trkpt>
      <trkpt lat="46.61924" lon="0.18474">
        <ele>201.79</ele>
        <time>2018-09-02T07:11:00.999Z</time>
      </trkpt>
      <trkpt lat="46.61914" lon="0.18465">
        <ele>202.37</ele>
        <time>2018-09-02T07:11:02.999Z</time>
      </trkpt>
      <trkpt lat="46.61906" lon="0.18454">
        <ele>202.34</ele>
        <time>2018-09-02T07:11:04.999Z</time>
      </trkpt>
      <trkpt lat="46.61898" lon="0.18446">
        <ele>202.33</ele>
        <time>2018-09-02T07:11:06.999Z</time>
      </trkpt>
      <trkpt lat="46.61889" lon="0.18439">
        <ele>202.23</ele>
        <time>2018-09-02T07:11:08.999Z</time>
      </trkpt>
      <trkpt lat="46.6188" lon="0.18435">
        <ele>202.1</ele>
        <time>2018-09-02T07:11:10.999Z</time>
      </trkpt>
      <trkpt lat="46.61868" lon="0.18433">
        <ele>202.16</ele>
        <time>2018-09-02T07:11:12.999Z</time>
      </trkpt>
      <trkpt lat="46.61857" lon="0.18431">
        <ele>202.08</ele>
        <time>2018-09-02T07:11:14.999Z</time>
      </trkpt>
      <trkpt lat="46.61845" lon="0.18429">
        <ele>201.87</ele>
        <time>2018-09-02T07:11:16.999Z</time>
      </trkpt>
      <trkpt lat="46.61834" lon="0.18427">
        <ele>201.68</ele>
        <time>2018-09-02T07:11:18.999Z</time>
      </trkpt>
      <trkpt lat="46.61822" lon="0.18428">
        <ele>201.42</ele>
        <time>2018-09-02T07:11:20.999Z</time>
      </trkpt>
      <trkpt lat="46.6181" lon="0.18432">
        <ele>201.2</ele>
        <time>2018-09-02T07:11:22.999Z</time>
      </trkpt>
      <trkpt lat="46.61799" lon="0.18437">
        <ele>201.33</ele>
        <time>2018-09-02T07:11:24.999Z</time>
      </trkpt>
      <trkpt lat="46.61788" lon="0.18443">
        <ele>201.5</ele>
        <time>2018-09-02T07:11:26.999Z</time>
      </trkpt>
      <trkpt lat="46.61777" lon="0.18453">
        <ele>201.64</ele>
        <time>2018-09-02T07:11:28.999Z</time>
      </trkpt>
      <trkpt lat="46.61767" lon="0.18462">
        <ele>202.14</ele>
        <time>2018-09-02T07:11:30.999Z</time>
      </trkpt>
      <trkpt lat="46.61756" lon="0.18474">
        <ele>202.36</ele>
        <time>2018-09-02T07:11:32.999Z</time>
      </trkpt>
      <trkpt lat="46.61749" lon="0.18483">
        <ele>202.39</ele>
        <time>2018-09-02T07:11:33.999Z</time>
      </trkpt>
      <trkpt lat="46.61738" lon="0.18494">
        <ele>202.12</ele>
        <time>2018-09-02T07:11:35.999Z</time>
      </trkpt>
      <trkpt lat="46.61728" lon="0.18505">
        <ele>201.41</ele>
        <time>2018-09-02T07:11:37.999Z</time>
      </trkpt>
      <trkpt lat="46.61719" lon="0.18516">
        <ele>201.07</ele>
        <time>2018-09-02T07:11:39.999Z</time>
      </trkpt>
      <trkpt lat="46.6171" lon="0.18528">
        <ele>200.44</ele>
        <time>2018-09-02T07:11:41.999Z</time>
      </trkpt>
      <trkpt lat="46.61696" lon="0.18543">
        <ele>199.61</ele>
        <time>2018-09-02T07:11:44.999Z</time>
      </trkpt>
      <trkpt lat="46.61685" lon="0.18554">
        <ele>199.2</ele>
        <time>2018-09-02T07:11:46.999Z</time>
      </trkpt>
      <trkpt lat="46.61673" lon="0.18562">
        <ele>198.9</ele>
        <time>2018-09-02T07:11:48.999Z</time>
      </trkpt>
      <trkpt lat="46.61662" lon="0.18573">
        <ele>198.49</ele>
        <time>2018-09-02T07:11:50.999Z</time>
      </trkpt>
      <trkpt lat="46.61651" lon="0.18585">
        <ele>198.58</ele>
        <time>2018-09-02T07:11:52.999Z</time>
      </trkpt>
      <trkpt lat="46.61639" lon="0.18597">
        <ele>198.71</ele>
        <time>2018-09-02T07:11:54.999Z</time>
      </trkpt>
      <trkpt lat="46.61627" lon="0.18611">
        <ele>198.7</ele>
        <time>2018-09-02T07:11:56.999Z</time>
      </trkpt>
      <trkpt lat="46.61613" lon="0.18622">
        <ele>198.82</ele>
        <time>2018-09-02T07:11:58.999Z</time>
      </trkpt>
      <trkpt lat="46.616" lon="0.18631">
        <ele>198.79</ele>
        <time>2018-09-02T07:12:00.999Z</time>
      </trkpt>
      <trkpt lat="46.61588" lon="0.18642">
        <ele>198.78</ele>
        <time>2018-09-02T07:12:02.999Z</time>
      </trkpt>
      <trkpt lat="46.61575" lon="0.18651">
        <ele>198.15</ele>
        <time>2018-09-02T07:12:04.999Z</time>
      </trkpt>
      <trkpt lat="46.61563" lon="0.18662">
        <ele>197.21</ele>
        <time>2018-09-02T07:12:06.999Z</time>
      </trkpt>
      <trkpt lat="46.61551" lon="0.1867">
        <ele>196.65</ele>
        <time>2018-09-02T07:12:08.999Z</time>
      </trkpt>
      <trkpt lat="46.61538" lon="0.18679">
        <ele>196.7</ele>
        <time>2018-09-02T07:12:10.999Z</time>
      </trkpt>
      <trkpt lat="46.61524" lon="0.18687">
        <ele>196.61</ele>
        <time>2018-09-02T07:12:12.999Z</time>
      </trkpt>
      <trkpt lat="46.61509" lon="0.18692">
        <ele>197.37</ele>
        <time>2018-09-02T07:12:14.999Z</time>
      </trkpt>
      <trkpt lat="46.61494" lon="0.18697">
        <ele>197.96</ele>
        <time>2018-09-02T07:12:16.999Z</time>
      </trkpt>
      <trkpt lat="46.61471" lon="0.18702">
        <ele>197.05</ele>
        <time>2018-09-02T07:12:19.999Z</time>
      </trkpt>
      <trkpt lat="46.61455" lon="0.18703">
        <ele>196.07</ele>
        <time>2018-09-02T07:12:21.999Z</time>
      </trkpt>
      <trkpt lat="46.6144" lon="0.18706">
        <ele>195.56</ele>
        <time>2018-09-02T07:12:23.999Z</time>
      </trkpt>
      <trkpt lat="46.61424" lon="0.18714">
        <ele>195.54</ele>
        <time>2018-09-02T07:12:25.999Z</time>
      </trkpt>
      <trkpt lat="46.61415" lon="0.18717">
        <ele>195.03</ele>
        <time>2018-09-02T07:12:26.999Z</time>
      </trkpt>
      <trkpt lat="46.614" lon="0.18719">
        <ele>193.59</ele>
        <time>2018-09-02T07:12:28.999Z</time>
      </trkpt>
      <trkpt lat="46.6139" lon="0.18721">
        <ele>193.07</ele>
        <time>2018-09-02T07:12:29.999Z</time>
      </trkpt>
      <trkpt lat="46.61381" lon="0.18723">
        <ele>192.47</ele>
        <time>2018-09-02T07:12:30.999Z</time>
      </trkpt>
      <trkpt lat="46.61363" lon="0.18725">
        <ele>191.12</ele>
        <time>2018-09-02T07:12:32.999Z</time>
      </trkpt>
      <trkpt lat="46.61348" lon="0.18727">
        <ele>189.69</ele>
        <time>2018-09-02T07:12:34.999Z</time>
      </trkpt>
      <trkpt lat="46.61334" lon="0.18732">
        <ele>188.61</ele>
        <time>2018-09-02T07:12:36.999Z</time>
      </trkpt>
      <trkpt lat="46.61321" lon="0.18742">
        <ele>187.91</ele>
        <time>2018-09-02T07:12:38.999Z</time>
      </trkpt>
      <trkpt lat="46.61308" lon="0.1875">
        <ele>186.85</ele>
        <time>2018-09-02T07:12:40.999Z</time>
      </trkpt>
      <trkpt lat="46.61295" lon="0.18757">
        <ele>186.2</ele>
        <time>2018-09-02T07:12:42.999Z</time>
      </trkpt>
      <trkpt lat="46.61282" lon="0.18768">
        <ele>186.52</ele>
        <time>2018-09-02T07:12:44.999Z</time>
      </trkpt>
      <trkpt lat="46.61271" lon="0.18782">
        <ele>186.42</ele>
        <time>2018-09-02T07:12:46.999Z</time>
      </trkpt>
      <trkpt lat="46.6126" lon="0.18792">
        <ele>186.01</ele>
        <time>2018-09-02T07:12:48.999Z</time>
      </trkpt>
      <trkpt lat="46.61248" lon="0.18796">
        <ele>185.71</ele>
        <time>2018-09-02T07:12:51.999Z</time>
      </trkpt>
      <trkpt lat="46.6124" lon="0.18788">
        <ele>186.01</ele>
        <time>2018-09-02T07:12:53.999Z</time>
      </trkpt>
      <trkpt lat="46.61232" lon="0.18777">
        <ele>186.52</ele>
        <time>2018-09-02T07:12:55.999Z</time>
      </trkpt>
      <trkpt lat="46.61225" lon="0.18765">
        <ele>186.94</ele>
        <time>2018-09-02T07:12:57.999Z</time>
      </trkpt>
      <trkpt lat="46.6122" lon="0.18754">
        <ele>187.42</ele>
        <time>2018-09-02T07:12:59.999Z</time>
      </trkpt>
      <trkpt lat="46.61212" lon="0.18742">
        <ele>188.23</ele>
        <time>2018-09-02T07:13:01.999Z</time>
      </trkpt>
      <trkpt lat="46.61205" lon="0.1873">
        <ele>189.14</ele>
        <time>2018-09-02T07:13:03.999Z</time>
      </trkpt>
      <trkpt lat="46.61197" lon="0.18717">
        <ele>189.55</ele>
        <time>2018-09-02T07:13:05.999Z</time>
      </trkpt>
      <trkpt lat="46.6119" lon="0.18705">
        <ele>189.39</ele>
        <time>2018-09-02T07:13:07.999Z</time>
      </trkpt>
      <trkpt lat="46.61182" lon="0.1869">
        <ele>188.52</ele>
        <time>2018-09-02T07:13:09.999Z</time>
      </trkpt>
      <trkpt lat="46.61174" lon="0.18676">
        <ele>187.93</ele>
        <time>2018-09-02T07:13:11.999Z</time>
      </trkpt>
      <trkpt lat="46.61167" lon="0.18662">
        <ele>187.32</ele>
        <time>2018-09-02T07:13:13.999Z</time>
      </trkpt>
      <trkpt lat="46.61161" lon="0.18651">
        <ele>186.96</ele>
        <time>2018-09-02T07:13:15.999Z</time>
      </trkpt>
      <trkpt lat="46.61152" lon="0.18651">
        <ele>186.83</ele>
        <time>2018-09-02T07:13:19.999Z</time>
      </trkpt>
      <trkpt lat="46.61149" lon="0.18665">
        <ele>186.7</ele>
        <time>2018-09-02T07:13:25.999Z</time>
      </trkpt>
      <trkpt lat="46.61147" lon="0.18679">
        <ele>186.56</ele>
        <time>2018-09-02T07:13:31.999Z</time>
      </trkpt>
      <trkpt lat="46.61144" lon="0.18692">
        <ele>186.2</ele>
        <time>2018-09-02T07:13:36.999Z</time>
      </trkpt>
      <trkpt lat="46.61143" lon="0.18706">
        <ele>185.86</ele>
        <time>2018-09-02T07:13:42.999Z</time>
      </trkpt>
      <trkpt lat="46.61143" lon="0.18724">
        <ele>186</ele>
        <time>2018-09-02T07:13:46.999Z</time>
      </trkpt>
      <trkpt lat="46.61141" lon="0.18739">
        <ele>186.15</ele>
        <time>2018-09-02T07:13:50.999Z</time>
      </trkpt>
      <trkpt lat="46.61138" lon="0.18752">
        <ele>186.34</ele>
        <time>2018-09-02T07:13:54.999Z</time>
      </trkpt>
      <trkpt lat="46.61134" lon="0.18765">
        <ele>186.81</ele>
        <time>2018-09-02T07:13:59.999Z</time>
      </trkpt>
      <trkpt lat="46.6113" lon="0.18778">
        <ele>187.25</ele>
        <time>2018-09-02T07:14:03.999Z</time>
      </trkpt>
      <trkpt lat="46.61124" lon="0.18789">
        <ele>187.81</ele>
        <time>2018-09-02T07:14:07.999Z</time>
      </trkpt>
      <trkpt lat="46.6112" lon="0.188">
        <ele>188.52</ele>
        <time>2018-09-02T07:14:11.999Z</time>
      </trkpt>
      <trkpt lat="46.61112" lon="0.1881">
        <ele>189.64</ele>
        <time>2018-09-02T07:14:16.999Z</time>
      </trkpt>
      <trkpt lat="46.61103" lon="0.18816">
        <ele>190.61</ele>
        <time>2018-09-02T07:14:20.999Z</time>
      </trkpt>
      <trkpt lat="46.61092" lon="0.18816">
        <ele>191.38</ele>
        <time>2018-09-02T07:14:24.999Z</time>
      </trkpt>
      <trkpt lat="46.61083" lon="0.18808">
        <ele>192.08</ele>
        <time>2018-09-02T07:14:28.999Z</time>
      </trkpt>
      <trkpt lat="46.61074" lon="0.18801">
        <ele>192.69</ele>
        <time>2018-09-02T07:14:31.999Z</time>
      </trkpt>
      <trkpt lat="46.61066" lon="0.18791">
        <ele>193.15</ele>
        <time>2018-09-02T07:14:33.999Z</time>
      </trkpt>
      <trkpt lat="46.61058" lon="0.18782">
        <ele>193.89</ele>
        <time>2018-09-02T07:14:36.999Z</time>
      </trkpt>
      <trkpt lat="46.61049" lon="0.18769">
        <ele>195.05</ele>
        <time>2018-09-02T07:14:40.999Z</time>
      </trkpt>
      <trkpt lat="46.61039" lon="0.18759">
        <ele>195.96</ele>
        <time>2018-09-02T07:14:43.999Z</time>
      </trkpt>
      <trkpt lat="46.6103" lon="0.18747">
        <ele>196.94</ele>
        <time>2018-09-02T07:14:46.999Z</time>
      </trkpt>
      <trkpt lat="46.61019" lon="0.18741">
        <ele>197.88</ele>
        <time>2018-09-02T07:14:49.999Z</time>
      </trkpt>
      <trkpt lat="46.61007" lon="0.18734">
        <ele>198.85</ele>
        <time>2018-09-02T07:14:52.999Z</time>
      </trkpt>
      <trkpt lat="46.60996" lon="0.18733">
        <ele>199.42</ele>
        <time>2018-09-02T07:14:54.999Z</time>
      </trkpt>
      <trkpt lat="46.60986" lon="0.18727">
        <ele>203.69</ele>
        <time>2018-09-02T07:14:56.999Z</time>
      </trkpt>
      <trkpt lat="46.60975" lon="0.18719">
        <ele>204.7</ele>
        <time>2018-09-02T07:14:58.999Z</time>
      </trkpt>
      <trkpt lat="46.60967" lon="0.18713">
        <ele>204.82</ele>
        <time>2018-09-02T07:15:00.999Z</time>
      </trkpt>
      <trkpt lat="46.60957" lon="0.18708">
        <ele>205.82</ele>
        <time>2018-09-02T07:15:02.999Z</time>
      </trkpt>
      <trkpt lat="46.60947" lon="0.18703">
        <ele>205.81</ele>
        <time>2018-09-02T07:15:04.999Z</time>
      </trkpt>
      <trkpt lat="46.60938" lon="0.18697">
        <ele>205.75</ele>
        <time>2018-09-02T07:15:06.999Z</time>
      </trkpt>
      <trkpt lat="46.6093" lon="0.18689">
        <ele>205.69</ele>
        <time>2018-09-02T07:15:08.999Z</time>
      </trkpt>
      <trkpt lat="46.60921" lon="0.18685">
        <ele>205.6</ele>
        <time>2018-09-02T07:15:10.999Z</time>
      </trkpt>
      <trkpt lat="46.60911" lon="0.18682">
        <ele>204.9</ele>
        <time>2018-09-02T07:15:12.999Z</time>
      </trkpt>
      <trkpt lat="46.60898" lon="0.1868">
        <ele>204.78</ele>
        <time>2018-09-02T07:15:15.999Z</time>
      </trkpt>
      <trkpt lat="46.60886" lon="0.18678">
        <ele>204.61</ele>
        <time>2018-09-02T07:15:18.999Z</time>
      </trkpt>
      <trkpt lat="46.60876" lon="0.18676">
        <ele>202.91</ele>
        <time>2018-09-02T07:15:20.999Z</time>
      </trkpt>
      <trkpt lat="46.60866" lon="0.18671">
        <ele>202.76</ele>
        <time>2018-09-02T07:15:22.999Z</time>
      </trkpt>
      <trkpt lat="46.60857" lon="0.18667">
        <ele>201.1</ele>
        <time>2018-09-02T07:15:24.999Z</time>
      </trkpt>
      <trkpt lat="46.60846" lon="0.1866">
        <ele>200.82</ele>
        <time>2018-09-02T07:15:27.999Z</time>
      </trkpt>
      <trkpt lat="46.60837" lon="0.18655">
        <ele>199.45</ele>
        <time>2018-09-02T07:15:29.999Z</time>
      </trkpt>
      <trkpt lat="46.60825" lon="0.1865">
        <ele>197.57</ele>
        <time>2018-09-02T07:15:31.999Z</time>
      </trkpt>
      <trkpt lat="46.60813" lon="0.18646">
        <ele>196.19</ele>
        <time>2018-09-02T07:15:33.999Z</time>
      </trkpt>
      <trkpt lat="46.60803" lon="0.18643">
        <ele>195.25</ele>
        <time>2018-09-02T07:15:35.999Z</time>
      </trkpt>
      <trkpt lat="46.60792" lon="0.1864">
        <ele>195.19</ele>
        <time>2018-09-02T07:15:37.999Z</time>
      </trkpt>
      <trkpt lat="46.60782" lon="0.1864">
        <ele>195.06</ele>
        <time>2018-09-02T07:15:39.999Z</time>
      </trkpt>
      <trkpt lat="46.60771" lon="0.18641">
        <ele>195.51</ele>
        <time>2018-09-02T07:15:41.999Z</time>
      </trkpt>
      <trkpt lat="46.60761" lon="0.18643">
        <ele>196</ele>
        <time>2018-09-02T07:15:43.999Z</time>
      </trkpt>
      <trkpt lat="46.60752" lon="0.18646">
        <ele>196.94</ele>
        <time>2018-09-02T07:15:45.999Z</time>
      </trkpt>
      <trkpt lat="46.60743" lon="0.18649">
        <ele>198.19</ele>
        <time>2018-09-02T07:15:47.999Z</time>
      </trkpt>
      <trkpt lat="46.60733" lon="0.18653">
        <ele>199.5</ele>
        <time>2018-09-02T07:15:49.999Z</time>
      </trkpt>
      <trkpt lat="46.60722" lon="0.18654">
        <ele>200.13</ele>
        <time>2018-09-02T07:15:51.999Z</time>
      </trkpt>
      <trkpt lat="46.60712" lon="0.18652">
        <ele>200.22</ele>
        <time>2018-09-02T07:15:53.999Z</time>
      </trkpt>
      <trkpt lat="46.60702" lon="0.18651">
        <ele>199.68</ele>
        <time>2018-09-02T07:15:55.999Z</time>
      </trkpt>
      <trkpt lat="46.6069" lon="0.18652">
        <ele>199.36</ele>
        <time>2018-09-02T07:15:57.999Z</time>
      </trkpt>
      <trkpt lat="46.6068" lon="0.18655">
        <ele>199.48</ele>
        <time>2018-09-02T07:15:59.999Z</time>
      </trkpt>
      <trkpt lat="46.60671" lon="0.18657">
        <ele>199.79</ele>
        <time>2018-09-02T07:16:01.999Z</time>
      </trkpt>
      <trkpt lat="46.60659" lon="0.1866">
        <ele>200.78</ele>
        <time>2018-09-02T07:16:03.999Z</time>
      </trkpt>
      <trkpt lat="46.60646" lon="0.18664">
        <ele>201.65</ele>
        <time>2018-09-02T07:16:05.999Z</time>
      </trkpt>
      <trkpt lat="46.60635" lon="0.18666">
        <ele>202.42</ele>
        <time>2018-09-02T07:16:07.999Z</time>
      </trkpt>
      <trkpt lat="46.60625" lon="0.18666">
        <ele>202.81</ele>
        <time>2018-09-02T07:16:09.999Z</time>
      </trkpt>
      <trkpt lat="46.60612" lon="0.18665">
        <ele>202.6</ele>
        <time>2018-09-02T07:16:11.999Z</time>
      </trkpt>
      <trkpt lat="46.60602" lon="0.18662">
        <ele>202.45</ele>
        <time>2018-09-02T07:16:13.999Z</time>
      </trkpt>
      <trkpt lat="46.6059" lon="0.18657">
        <ele>202.36</ele>
        <time>2018-09-02T07:16:15.999Z</time>
      </trkpt>
      <trkpt lat="46.60579" lon="0.18654">
        <ele>202.06</ele>
        <time>2018-09-02T07:16:17.999Z</time>
      </trkpt>
      <trkpt lat="46.60566" lon="0.18649">
        <ele>201.26</ele>
        <time>2018-09-02T07:16:19.999Z</time>
      </trkpt>
      <trkpt lat="46.60553" lon="0.18645">
        <ele>200.72</ele>
        <time>2018-09-02T07:16:21.999Z</time>
      </trkpt>
      <trkpt lat="46.6054" lon="0.18642">
        <ele>199.98</ele>
        <time>2018-09-02T07:16:23.999Z</time>
      </trkpt>
      <trkpt lat="46.60531" lon="0.18641">
        <ele>199.73</ele>
        <time>2018-09-02T07:16:25.999Z</time>
      </trkpt>
      <trkpt lat="46.60519" lon="0.18641">
        <ele>199.56</ele>
        <time>2018-09-02T07:16:27.999Z</time>
      </trkpt>
      <trkpt lat="46.60508" lon="0.18645">
        <ele>199.93</ele>
        <time>2018-09-02T07:16:29.999Z</time>
      </trkpt>
      <trkpt lat="46.60498" lon="0.18644">
        <ele>200.91</ele>
        <time>2018-09-02T07:16:31.999Z</time>
      </trkpt>
      <trkpt lat="46.60489" lon="0.18643">
        <ele>201.92</ele>
        <time>2018-09-02T07:16:33.999Z</time>
      </trkpt>
      <trkpt lat="46.60478" lon="0.18643">
        <ele>202.04</ele>
        <time>2018-09-02T07:16:35.999Z</time>
      </trkpt>
      <trkpt lat="46.60469" lon="0.18639">
        <ele>202.25</ele>
        <time>2018-09-02T07:16:37.999Z</time>
      </trkpt>
      <trkpt lat="46.60458" lon="0.18634">
        <ele>202.3</ele>
        <time>2018-09-02T07:16:39.999Z</time>
      </trkpt>
      <trkpt lat="46.60449" lon="0.18634">
        <ele>201.98</ele>
        <time>2018-09-02T07:16:41.999Z</time>
      </trkpt>
      <trkpt lat="46.60439" lon="0.18632">
        <ele>201.8</ele>
        <time>2018-09-02T07:16:43.999Z</time>
      </trkpt>
      <trkpt lat="46.60428" lon="0.1863">
        <ele>201.76</ele>
        <time>2018-09-02T07:16:45.999Z</time>
      </trkpt>
      <trkpt lat="46.60418" lon="0.18631">
        <ele>202.26</ele>
        <time>2018-09-02T07:16:47.999Z</time>
      </trkpt>
      <trkpt lat="46.60407" lon="0.18627">
        <ele>203.1</ele>
        <time>2018-09-02T07:16:49.999Z</time>
      </trkpt>
      <trkpt lat="46.60397" lon="0.18624">
        <ele>203.77</ele>
        <time>2018-09-02T07:16:51.999Z</time>
      </trkpt>
      <trkpt lat="46.60388" lon="0.18621">
        <ele>204.67</ele>
        <time>2018-09-02T07:16:53.999Z</time>
      </trkpt>
      <trkpt lat="46.60376" lon="0.18621">
        <ele>204.78</ele>
        <time>2018-09-02T07:16:56.999Z</time>
      </trkpt>
      <trkpt lat="46.60365" lon="0.18625">
        <ele>205.03</ele>
        <time>2018-09-02T07:17:00.999Z</time>
      </trkpt>
      <trkpt lat="46.60356" lon="0.18626">
        <ele>205.25</ele>
        <time>2018-09-02T07:17:03.999Z</time>
      </trkpt>
      <trkpt lat="46.60349" lon="0.18634">
        <ele>205.46</ele>
        <time>2018-09-02T07:17:06.999Z</time>
      </trkpt>
      <trkpt lat="46.6034" lon="0.18649">
        <ele>206.21</ele>
        <time>2018-09-02T07:17:09.999Z</time>
      </trkpt>
      <trkpt lat="46.60334" lon="0.1866">
        <ele>206.32</ele>
        <time>2018-09-02T07:17:11.999Z</time>
      </trkpt>
      <trkpt lat="46.60328" lon="0.18673">
        <ele>207.26</ele>
        <time>2018-09-02T07:17:14.999Z</time>
      </trkpt>
      <trkpt lat="46.60322" lon="0.18683">
        <ele>207.98</ele>
        <time>2018-09-02T07:17:16.999Z</time>
      </trkpt>
      <trkpt lat="46.60311" lon="0.18686">
        <ele>208.55</ele>
        <time>2018-09-02T07:17:18.999Z</time>
      </trkpt>
      <trkpt lat="46.60299" lon="0.18688">
        <ele>207.86</ele>
        <time>2018-09-02T07:17:20.999Z</time>
      </trkpt>
      <trkpt lat="46.60286" lon="0.18695">
        <ele>207.4</ele>
        <time>2018-09-02T07:17:23.999Z</time>
      </trkpt>
      <trkpt lat="46.60276" lon="0.18698">
        <ele>205.74</ele>
        <time>2018-09-02T07:17:25.999Z</time>
      </trkpt>
      <trkpt lat="46.60267" lon="0.18701">
        <ele>205.2</ele>
        <time>2018-09-02T07:17:27.999Z</time>
      </trkpt>
      <trkpt lat="46.60256" lon="0.18702">
        <ele>205</ele>
        <time>2018-09-02T07:17:30.999Z</time>
      </trkpt>
      <trkpt lat="46.60246" lon="0.18705">
        <ele>205.01</ele>
        <time>2018-09-02T07:17:32.999Z</time>
      </trkpt>
      <trkpt lat="46.60235" lon="0.1871">
        <ele>205.1</ele>
        <time>2018-09-02T07:17:34.999Z</time>
      </trkpt>
      <trkpt lat="46.60225" lon="0.18716">
        <ele>205.48</ele>
        <time>2018-09-02T07:17:36.999Z</time>
      </trkpt>
      <trkpt lat="46.60214" lon="0.18721">
        <ele>205.97</ele>
        <time>2018-09-02T07:17:38.999Z</time>
      </trkpt>
      <trkpt lat="46.60202" lon="0.18725">
        <ele>206.46</ele>
        <time>2018-09-02T07:17:40.999Z</time>
      </trkpt>
      <trkpt lat="46.60193" lon="0.18728">
        <ele>205.88</ele>
        <time>2018-09-02T07:17:42.999Z</time>
      </trkpt>
      <trkpt lat="46.60181" lon="0.18731">
        <ele>204.47</ele>
        <time>2018-09-02T07:17:44.999Z</time>
      </trkpt>
      <trkpt lat="46.60169" lon="0.18733">
        <ele>203.62</ele>
        <time>2018-09-02T07:17:46.999Z</time>
      </trkpt>
      <trkpt lat="46.60157" lon="0.18739">
        <ele>203.18</ele>
        <time>2018-09-02T07:17:48.999Z</time>
      </trkpt>
      <trkpt lat="46.60147" lon="0.18739">
        <ele>202.94</ele>
        <time>2018-09-02T07:17:50.999Z</time>
      </trkpt>
      <trkpt lat="46.60137" lon="0.18738">
        <ele>202.76</ele>
        <time>2018-09-02T07:17:52.999Z</time>
      </trkpt>
      <trkpt lat="46.60125" lon="0.1874">
        <ele>202.71</ele>
        <time>2018-09-02T07:17:54.999Z</time>
      </trkpt>
      <trkpt lat="46.60113" lon="0.1874">
        <ele>201.82</ele>
        <time>2018-09-02T07:17:56.999Z</time>
      </trkpt>
      <trkpt lat="46.60105" lon="0.18747">
        <ele>201.6</ele>
        <time>2018-09-02T07:17:58.999Z</time>
      </trkpt>
      <trkpt lat="46.601" lon="0.18765">
        <ele>201.89</ele>
        <time>2018-09-02T07:18:00.999Z</time>
      </trkpt>
      <trkpt lat="46.60095" lon="0.18781">
        <ele>202.98</ele>
        <time>2018-09-02T07:18:02.999Z</time>
      </trkpt>
      <trkpt lat="46.6009" lon="0.18795">
        <ele>204.16</ele>
        <time>2018-09-02T07:18:04.999Z</time>
      </trkpt>
      <trkpt lat="46.60082" lon="0.1881">
        <ele>205.59</ele>
        <time>2018-09-02T07:18:06.999Z</time>
      </trkpt>
      <trkpt lat="46.60075" lon="0.18818">
        <ele>206.25</ele>
        <time>2018-09-02T07:18:08.999Z</time>
      </trkpt>
      <trkpt lat="46.6007" lon="0.18835">
        <ele>206.25</ele>
        <time>2018-09-02T07:18:11.999Z</time>
      </trkpt>
      <trkpt lat="46.60077" lon="0.18845">
        <ele>206.33</ele>
        <time>2018-09-02T07:18:15.999Z</time>
      </trkpt>
      <trkpt lat="46.60086" lon="0.18855">
        <ele>206.32</ele>
        <time>2018-09-02T07:18:19.999Z</time>
      </trkpt>
      <trkpt lat="46.60092" lon="0.18865">
        <ele>206.35</ele>
        <time>2018-09-02T07:18:25.999Z</time>
      </trkpt>
      <trkpt lat="46.60101" lon="0.18875">
        <ele>206.07</ele>
        <time>2018-09-02T07:18:35.999Z</time>
      </trkpt>
      <trkpt lat="46.60108" lon="0.18885">
        <ele>205.91</ele>
        <time>2018-09-02T07:18:38.999Z</time>
      </trkpt>
      <trkpt lat="46.60119" lon="0.18898">
        <ele>205.71</ele>
        <time>2018-09-02T07:18:41.999Z</time>
      </trkpt>
      <trkpt lat="46.6013" lon="0.18907">
        <ele>205.45</ele>
        <time>2018-09-02T07:18:44.999Z</time>
      </trkpt>
      <trkpt lat="46.6014" lon="0.18917">
        <ele>204.2</ele>
        <time>2018-09-02T07:18:47.999Z</time>
      </trkpt>
      <trkpt lat="46.60152" lon="0.18927">
        <ele>203.76</ele>
        <time>2018-09-02T07:18:50.999Z</time>
      </trkpt>
      <trkpt lat="46.6016" lon="0.18937">
        <ele>202.98</ele>
        <time>2018-09-02T07:18:52.999Z</time>
      </trkpt>
      <trkpt lat="46.60171" lon="0.18946">
        <ele>203.01</ele>
        <time>2018-09-02T07:18:56.999Z</time>
      </trkpt>
      <trkpt lat="46.60179" lon="0.18954">
        <ele>203.12</ele>
        <time>2018-09-02T07:18:59.999Z</time>
      </trkpt>
      <trkpt lat="46.60175" lon="0.18966">
        <ele>203.3</ele>
        <time>2018-09-02T07:19:03.999Z</time>
      </trkpt>
      <trkpt lat="46.60169" lon="0.18983">
        <ele>203.26</ele>
        <time>2018-09-02T07:19:06.999Z</time>
      </trkpt>
      <trkpt lat="46.60163" lon="0.18995">
        <ele>202.02</ele>
        <time>2018-09-02T07:19:08.999Z</time>
      </trkpt>
      <trkpt lat="46.60157" lon="0.19007">
        <ele>201.02</ele>
        <time>2018-09-02T07:19:10.999Z</time>
      </trkpt>
      <trkpt lat="46.60148" lon="0.19021">
        <ele>200.17</ele>
        <time>2018-09-02T07:19:13.999Z</time>
      </trkpt>
      <trkpt lat="46.60141" lon="0.19033">
        <ele>199.65</ele>
        <time>2018-09-02T07:19:15.999Z</time>
      </trkpt>
      <trkpt lat="46.60135" lon="0.19044">
        <ele>199.73</ele>
        <time>2018-09-02T07:19:17.999Z</time>
      </trkpt>
      <trkpt lat="46.60127" lon="0.19056">
        <ele>200.19</ele>
        <time>2018-09-02T07:19:19.999Z</time>
      </trkpt>
      <trkpt lat="46.60119" lon="0.19067">
        <ele>200.29</ele>
        <time>2018-09-02T07:19:21.999Z</time>
      </trkpt>
      <trkpt lat="46.60112" lon="0.19077">
        <ele>200.07</ele>
        <time>2018-09-02T07:19:23.999Z</time>
      </trkpt>
      <trkpt lat="46.60105" lon="0.1909">
        <ele>199.73</ele>
        <time>2018-09-02T07:19:25.999Z</time>
      </trkpt>
      <trkpt lat="46.60096" lon="0.19103">
        <ele>199.61</ele>
        <time>2018-09-02T07:19:27.999Z</time>
      </trkpt>
      <trkpt lat="46.60087" lon="0.19117">
        <ele>199.1</ele>
        <time>2018-09-02T07:19:29.999Z</time>
      </trkpt>
      <trkpt lat="46.6008" lon="0.19129">
        <ele>199.16</ele>
        <time>2018-09-02T07:19:31.999Z</time>
      </trkpt>
      <trkpt lat="46.60072" lon="0.19141">
        <ele>199.9</ele>
        <time>2018-09-02T07:19:33.999Z</time>
      </trkpt>
      <trkpt lat="46.60066" lon="0.19152">
        <ele>200.37</ele>
        <time>2018-09-02T07:19:35.999Z</time>
      </trkpt>
      <trkpt lat="46.60057" lon="0.19165">
        <ele>201.51</ele>
        <time>2018-09-02T07:19:38.999Z</time>
      </trkpt>
      <trkpt lat="46.60049" lon="0.19179">
        <ele>201.74</ele>
        <time>2018-09-02T07:19:41.999Z</time>
      </trkpt>
      <trkpt lat="46.60039" lon="0.19191">
        <ele>202.67</ele>
        <time>2018-09-02T07:19:44.999Z</time>
      </trkpt>
      <trkpt lat="46.60029" lon="0.19203">
        <ele>203.44</ele>
        <time>2018-09-02T07:19:47.999Z</time>
      </trkpt>
      <trkpt lat="46.60022" lon="0.19212">
        <ele>203.8</ele>
        <time>2018-09-02T07:19:49.999Z</time>
      </trkpt>
      <trkpt lat="46.60015" lon="0.19221">
        <ele>204.18</ele>
        <time>2018-09-02T07:19:51.999Z</time>
      </trkpt>
      <trkpt lat="46.60008" lon="0.19231">
        <ele>204.39</ele>
        <time>2018-09-02T07:19:53.999Z</time>
      </trkpt>
      <trkpt lat="46.6" lon="0.19244">
        <ele>204.26</ele>
        <time>2018-09-02T07:19:56.999Z</time>
      </trkpt>
      <trkpt lat="46.5999" lon="0.19257">
        <ele>204.21</ele>
        <time>2018-09-02T07:19:59.999Z</time>
      </trkpt>
      <trkpt lat="46.59982" lon="0.19269">
        <ele>204.19</ele>
        <time>2018-09-02T07:20:02.999Z</time>
      </trkpt>
      <trkpt lat="46.59976" lon="0.19279">
        <ele>204.02</ele>
        <time>2018-09-02T07:20:04.999Z</time>
      </trkpt>
      <trkpt lat="46.59969" lon="0.19292">
        <ele>203.9</ele>
        <time>2018-09-02T07:20:06.999Z</time>
      </trkpt>
      <trkpt lat="46.59959" lon="0.19306">
        <ele>204.43</ele>
        <time>2018-09-02T07:20:08.999Z</time>
      </trkpt>
      <trkpt lat="46.59952" lon="0.19317">
        <ele>204.74</ele>
        <time>2018-09-02T07:20:10.999Z</time>
      </trkpt>
      <trkpt lat="46.59944" lon="0.19332">
        <ele>205.59</ele>
        <time>2018-09-02T07:20:13.999Z</time>
      </trkpt>
      <trkpt lat="46.59938" lon="0.19343">
        <ele>206.22</ele>
        <time>2018-09-02T07:20:15.999Z</time>
      </trkpt>
      <trkpt lat="46.59931" lon="0.19353">
        <ele>206.5</ele>
        <time>2018-09-02T07:20:17.999Z</time>
      </trkpt>
      <trkpt lat="46.59923" lon="0.19364">
        <ele>206.61</ele>
        <time>2018-09-02T07:20:19.999Z</time>
      </trkpt>
      <trkpt lat="46.59915" lon="0.19373">
        <ele>206.31</ele>
        <time>2018-09-02T07:20:21.999Z</time>
      </trkpt>
      <trkpt lat="46.59906" lon="0.19383">
        <ele>205.96</ele>
        <time>2018-09-02T07:20:23.999Z</time>
      </trkpt>
      <trkpt lat="46.59896" lon="0.1939">
        <ele>205.73</ele>
        <time>2018-09-02T07:20:25.999Z</time>
      </trkpt>
      <trkpt lat="46.59887" lon="0.19399">
        <ele>205.62</ele>
        <time>2018-09-02T07:20:27.999Z</time>
      </trkpt>
      <trkpt lat="46.59879" lon="0.1941">
        <ele>206.01</ele>
        <time>2018-09-02T07:20:29.999Z</time>
      </trkpt>
      <trkpt lat="46.59871" lon="0.1942">
        <ele>206.66</ele>
        <time>2018-09-02T07:20:31.999Z</time>
      </trkpt>
      <trkpt lat="46.59864" lon="0.19431">
        <ele>206.69</ele>
        <time>2018-09-02T07:20:33.999Z</time>
      </trkpt>
      <trkpt lat="46.59854" lon="0.19443">
        <ele>206.63</ele>
        <time>2018-09-02T07:20:35.999Z</time>
      </trkpt>
      <trkpt lat="46.59848" lon="0.19456">
        <ele>206.81</ele>
        <time>2018-09-02T07:20:37.999Z</time>
      </trkpt>
      <trkpt lat="46.59841" lon="0.1947">
        <ele>206.72</ele>
        <time>2018-09-02T07:20:39.999Z</time>
      </trkpt>
      <trkpt lat="46.59834" lon="0.19486">
        <ele>206.2</ele>
        <time>2018-09-02T07:20:41.999Z</time>
      </trkpt>
      <trkpt lat="46.5983" lon="0.19502">
        <ele>205.48</ele>
        <time>2018-09-02T07:20:43.999Z</time>
      </trkpt>
      <trkpt lat="46.59823" lon="0.19522">
        <ele>204.59</ele>
        <time>2018-09-02T07:20:45.999Z</time>
      </trkpt>
      <trkpt lat="46.59817" lon="0.19541">
        <ele>204.14</ele>
        <time>2018-09-02T07:20:47.999Z</time>
      </trkpt>
      <trkpt lat="46.59811" lon="0.19557">
        <ele>203.89</ele>
        <time>2018-09-02T07:20:49.999Z</time>
      </trkpt>
      <trkpt lat="46.59805" lon="0.19574">
        <ele>203.58</ele>
        <time>2018-09-02T07:20:51.999Z</time>
      </trkpt>
      <trkpt lat="46.59795" lon="0.19589">
        <ele>203.53</ele>
        <time>2018-09-02T07:20:53.999Z</time>
      </trkpt>
      <trkpt lat="46.59789" lon="0.19605">
        <ele>204.12</ele>
        <time>2018-09-02T07:20:55.999Z</time>
      </trkpt>
      <trkpt lat="46.59784" lon="0.19623">
        <ele>204.97</ele>
        <time>2018-09-02T07:20:57.999Z</time>
      </trkpt>
      <trkpt lat="46.59779" lon="0.1964">
        <ele>205.7</ele>
        <time>2018-09-02T07:20:59.999Z</time>
      </trkpt>
      <trkpt lat="46.59774" lon="0.1966">
        <ele>206.78</ele>
        <time>2018-09-02T07:21:01.999Z</time>
      </trkpt>
      <trkpt lat="46.59771" lon="0.1968">
        <ele>206.84</ele>
        <time>2018-09-02T07:21:03.999Z</time>
      </trkpt>
      <trkpt lat="46.59767" lon="0.19699">
        <ele>206.58</ele>
        <time>2018-09-02T07:21:05.999Z</time>
      </trkpt>
      <trkpt lat="46.59763" lon="0.19719">
        <ele>206.32</ele>
        <time>2018-09-02T07:21:07.999Z</time>
      </trkpt>
      <trkpt lat="46.5976" lon="0.19731">
        <ele>206.36</ele>
        <time>2018-09-02T07:21:08.999Z</time>
      </trkpt>
      <trkpt lat="46.59753" lon="0.19752">
        <ele>206.95</ele>
        <time>2018-09-02T07:21:10.999Z</time>
      </trkpt>
      <trkpt lat="46.59745" lon="0.19773">
        <ele>207.29</ele>
        <time>2018-09-02T07:21:12.999Z</time>
      </trkpt>
      <trkpt lat="46.59737" lon="0.19793">
        <ele>207.73</ele>
        <time>2018-09-02T07:21:14.999Z</time>
      </trkpt>
      <trkpt lat="46.59732" lon="0.19812">
        <ele>207.95</ele>
        <time>2018-09-02T07:21:16.999Z</time>
      </trkpt>
      <trkpt lat="46.59726" lon="0.19832">
        <ele>207.75</ele>
        <time>2018-09-02T07:21:18.999Z</time>
      </trkpt>
      <trkpt lat="46.5972" lon="0.19851">
        <ele>207.43</ele>
        <time>2018-09-02T07:21:20.999Z</time>
      </trkpt>
      <trkpt lat="46.59715" lon="0.19869">
        <ele>207.03</ele>
        <time>2018-09-02T07:21:22.999Z</time>
      </trkpt>
      <trkpt lat="46.59709" lon="0.19889">
        <ele>206.14</ele>
        <time>2018-09-02T07:21:24.999Z</time>
      </trkpt>
      <trkpt lat="46.59706" lon="0.1991">
        <ele>205.39</ele>
        <time>2018-09-02T07:21:26.999Z</time>
      </trkpt>
      <trkpt lat="46.59702" lon="0.19927">
        <ele>204.49</ele>
        <time>2018-09-02T07:21:28.999Z</time>
      </trkpt>
      <trkpt lat="46.59693" lon="0.19945">
        <ele>204.21</ele>
        <time>2018-09-02T07:21:30.999Z</time>
      </trkpt>
      <trkpt lat="46.59683" lon="0.19963">
        <ele>204.04</ele>
        <time>2018-09-02T07:21:32.999Z</time>
      </trkpt>
      <trkpt lat="46.59675" lon="0.19983">
        <ele>203.53</ele>
        <time>2018-09-02T07:21:34.999Z</time>
      </trkpt>
      <trkpt lat="46.59665" lon="0.20002">
        <ele>202.9</ele>
        <time>2018-09-02T07:21:36.999Z</time>
      </trkpt>
      <trkpt lat="46.59657" lon="0.20021">
        <ele>202.08</ele>
        <time>2018-09-02T07:21:38.999Z</time>
      </trkpt>
      <trkpt lat="46.59651" lon="0.20041">
        <ele>201.31</ele>
        <time>2018-09-02T07:21:40.999Z</time>
      </trkpt>
      <trkpt lat="46.59642" lon="0.20061">
        <ele>201.36</ele>
        <time>2018-09-02T07:21:42.999Z</time>
      </trkpt>
      <trkpt lat="46.59636" lon="0.2008">
        <ele>201.49</ele>
        <time>2018-09-02T07:21:44.999Z</time>
      </trkpt>
      <trkpt lat="46.5963" lon="0.20099">
        <ele>201.47</ele>
        <time>2018-09-02T07:21:46.999Z</time>
      </trkpt>
      <trkpt lat="46.59623" lon="0.20116">
        <ele>201.93</ele>
        <time>2018-09-02T07:21:48.999Z</time>
      </trkpt>
      <trkpt lat="46.59615" lon="0.20133">
        <ele>202.32</ele>
        <time>2018-09-02T07:21:50.999Z</time>
      </trkpt>
      <trkpt lat="46.59607" lon="0.20147">
        <ele>202.32</ele>
        <time>2018-09-02T07:21:52.999Z</time>
      </trkpt>
      <trkpt lat="46.59599" lon="0.20164">
        <ele>202.18</ele>
        <time>2018-09-02T07:21:54.999Z</time>
      </trkpt>
      <trkpt lat="46.59593" lon="0.20182">
        <ele>201.81</ele>
        <time>2018-09-02T07:21:56.999Z</time>
      </trkpt>
      <trkpt lat="46.59584" lon="0.20197">
        <ele>201.29</ele>
        <time>2018-09-02T07:21:58.999Z</time>
      </trkpt>
      <trkpt lat="46.59577" lon="0.20212">
        <ele>201.05</ele>
        <time>2018-09-02T07:22:00.999Z</time>
      </trkpt>
      <trkpt lat="46.5957" lon="0.20225">
        <ele>200.67</ele>
        <time>2018-09-02T07:22:02.999Z</time>
      </trkpt>
      <trkpt lat="46.59562" lon="0.20238">
        <ele>200.86</ele>
        <time>2018-09-02T07:22:04.999Z</time>
      </trkpt>
      <trkpt lat="46.59554" lon="0.2025">
        <ele>201.45</ele>
        <time>2018-09-02T07:22:06.999Z</time>
      </trkpt>
      <trkpt lat="46.59547" lon="0.20259">
        <ele>201.79</ele>
        <time>2018-09-02T07:22:08.999Z</time>
      </trkpt>
      <trkpt lat="46.59536" lon="0.20265">
        <ele>201.92</ele>
        <time>2018-09-02T07:22:11.999Z</time>
      </trkpt>
      <trkpt lat="46.59526" lon="0.20268">
        <ele>201.91</ele>
        <time>2018-09-02T07:22:14.999Z</time>
      </trkpt>
      <trkpt lat="46.59515" lon="0.20273">
        <ele>201.84</ele>
        <time>2018-09-02T07:22:17.999Z</time>
      </trkpt>
      <trkpt lat="46.59507" lon="0.20261">
        <ele>201.43</ele>
        <time>2018-09-02T07:22:21.999Z</time>
      </trkpt>
      <trkpt lat="46.59499" lon="0.2025">
        <ele>200.48</ele>
        <time>2018-09-02T07:22:23.999Z</time>
      </trkpt>
      <trkpt lat="46.59488" lon="0.20244">
        <ele>199.89</ele>
        <time>2018-09-02T07:22:25.999Z</time>
      </trkpt>
      <trkpt lat="46.5948" lon="0.20232">
        <ele>199.78</ele>
        <time>2018-09-02T07:22:27.999Z</time>
      </trkpt>
      <trkpt lat="46.5947" lon="0.20212">
        <ele>198.82</ele>
        <time>2018-09-02T07:22:29.999Z</time>
      </trkpt>
      <trkpt lat="46.59463" lon="0.20197">
        <ele>197.48</ele>
        <time>2018-09-02T07:22:31.999Z</time>
      </trkpt>
      <trkpt lat="46.59457" lon="0.20182">
        <ele>196.39</ele>
        <time>2018-09-02T07:22:33.999Z</time>
      </trkpt>
      <trkpt lat="46.59451" lon="0.2017">
        <ele>195.78</ele>
        <time>2018-09-02T07:22:35.999Z</time>
      </trkpt>
      <trkpt lat="46.59443" lon="0.20155">
        <ele>195.25</ele>
        <time>2018-09-02T07:22:37.999Z</time>
      </trkpt>
      <trkpt lat="46.59438" lon="0.20142">
        <ele>194.91</ele>
        <time>2018-09-02T07:22:39.999Z</time>
      </trkpt>
      <trkpt lat="46.59431" lon="0.20128">
        <ele>194.63</ele>
        <time>2018-09-02T07:22:41.999Z</time>
      </trkpt>
      <trkpt lat="46.59424" lon="0.20111">
        <ele>194.25</ele>
        <time>2018-09-02T07:22:43.999Z</time>
      </trkpt>
      <trkpt lat="46.59417" lon="0.20095">
        <ele>193.3</ele>
        <time>2018-09-02T07:22:45.999Z</time>
      </trkpt>
      <trkpt lat="46.59411" lon="0.20083">
        <ele>192.55</ele>
        <time>2018-09-02T07:22:47.999Z</time>
      </trkpt>
      <trkpt lat="46.59407" lon="0.20071">
        <ele>192.49</ele>
        <time>2018-09-02T07:22:49.999Z</time>
      </trkpt>
      <trkpt lat="46.59401" lon="0.2006">
        <ele>192.72</ele>
        <time>2018-09-02T07:22:51.999Z</time>
      </trkpt>
      <trkpt lat="46.59395" lon="0.20047">
        <ele>193.53</ele>
        <time>2018-09-02T07:22:53.999Z</time>
      </trkpt>
      <trkpt lat="46.59387" lon="0.20031">
        <ele>194.34</ele>
        <time>2018-09-02T07:22:56.999Z</time>
      </trkpt>
      <trkpt lat="46.59379" lon="0.20018">
        <ele>194.86</ele>
        <time>2018-09-02T07:22:59.999Z</time>
      </trkpt>
      <trkpt lat="46.59372" lon="0.20003">
        <ele>195.1</ele>
        <time>2018-09-02T07:23:02.999Z</time>
      </trkpt>
      <trkpt lat="46.59367" lon="0.19991">
        <ele>196.05</ele>
        <time>2018-09-02T07:23:04.999Z</time>
      </trkpt>
      <trkpt lat="46.59359" lon="0.19975">
        <ele>196.19</ele>
        <time>2018-09-02T07:23:07.999Z</time>
      </trkpt>
      <trkpt lat="46.59353" lon="0.1996">
        <ele>197.06</ele>
        <time>2018-09-02T07:23:10.999Z</time>
      </trkpt>
      <trkpt lat="46.59346" lon="0.19945">
        <ele>198.07</ele>
        <time>2018-09-02T07:23:13.999Z</time>
      </trkpt>
      <trkpt lat="46.59339" lon="0.19932">
        <ele>198.31</ele>
        <time>2018-09-02T07:23:16.999Z</time>
      </trkpt>
      <trkpt lat="46.59333" lon="0.1992">
        <ele>198.46</ele>
        <time>2018-09-02T07:23:18.999Z</time>
      </trkpt>
      <trkpt lat="46.59326" lon="0.19905">
        <ele>199.48</ele>
        <time>2018-09-02T07:23:21.999Z</time>
      </trkpt>
      <trkpt lat="46.5932" lon="0.19895">
        <ele>199.48</ele>
        <time>2018-09-02T07:23:23.999Z</time>
      </trkpt>
      <trkpt lat="46.59313" lon="0.19881">
        <ele>199.49</ele>
        <time>2018-09-02T07:23:26.999Z</time>
      </trkpt>
      <trkpt lat="46.59306" lon="0.19866">
        <ele>199.58</ele>
        <time>2018-09-02T07:23:29.999Z</time>
      </trkpt>
      <trkpt lat="46.59299" lon="0.19855">
        <ele>199.87</ele>
        <time>2018-09-02T07:23:32.999Z</time>
      </trkpt>
      <trkpt lat="46.59293" lon="0.19845">
        <ele>200.12</ele>
        <time>2018-09-02T07:23:34.999Z</time>
      </trkpt>
      <trkpt lat="46.59287" lon="0.1983">
        <ele>200.54</ele>
        <time>2018-09-02T07:23:37.999Z</time>
      </trkpt>
      <trkpt lat="46.59283" lon="0.19815">
        <ele>200.85</ele>
        <time>2018-09-02T07:23:39.999Z</time>
      </trkpt>
      <trkpt lat="46.59277" lon="0.198">
        <ele>201.36</ele>
        <time>2018-09-02T07:23:42.999Z</time>
      </trkpt>
      <trkpt lat="46.5927" lon="0.19785">
        <ele>201.87</ele>
        <time>2018-09-02T07:23:45.999Z</time>
      </trkpt>
      <trkpt lat="46.59264" lon="0.19769">
        <ele>202.23</ele>
        <time>2018-09-02T07:23:48.999Z</time>
      </trkpt>
      <trkpt lat="46.59259" lon="0.19756">
        <ele>202.37</ele>
        <time>2018-09-02T07:23:50.999Z</time>
      </trkpt>
      <trkpt lat="46.59253" lon="0.19745">
        <ele>202.44</ele>
        <time>2018-09-02T07:23:52.999Z</time>
      </trkpt>
      <trkpt lat="46.59248" lon="0.19732">
        <ele>202.47</ele>
        <time>2018-09-02T07:23:54.999Z</time>
      </trkpt>
      <trkpt lat="46.5924" lon="0.19717">
        <ele>202.13</ele>
        <time>2018-09-02T07:23:57.999Z</time>
      </trkpt>
      <trkpt lat="46.59233" lon="0.19708">
        <ele>202.06</ele>
        <time>2018-09-02T07:23:59.999Z</time>
      </trkpt>
      <trkpt lat="46.59225" lon="0.19695">
        <ele>201.95</ele>
        <time>2018-09-02T07:24:02.999Z</time>
      </trkpt>
      <trkpt lat="46.59217" lon="0.19678">
        <ele>201.78</ele>
        <time>2018-09-02T07:24:05.999Z</time>
      </trkpt>
      <trkpt lat="46.59212" lon="0.19664">
        <ele>202.11</ele>
        <time>2018-09-02T07:24:07.999Z</time>
      </trkpt>
      <trkpt lat="46.59206" lon="0.19652">
        <ele>202.44</ele>
        <time>2018-09-02T07:24:09.999Z</time>
      </trkpt>
      <trkpt lat="46.592" lon="0.19641">
        <ele>202.5</ele>
        <time>2018-09-02T07:24:11.999Z</time>
      </trkpt>
      <trkpt lat="46.59196" lon="0.19628">
        <ele>202.56</ele>
        <time>2018-09-02T07:24:13.999Z</time>
      </trkpt>
      <trkpt lat="46.59191" lon="0.19612">
        <ele>202.68</ele>
        <time>2018-09-02T07:24:16.999Z</time>
      </trkpt>
      <trkpt lat="46.59185" lon="0.19599">
        <ele>203.09</ele>
        <time>2018-09-02T07:24:18.999Z</time>
      </trkpt>
      <trkpt lat="46.59179" lon="0.19587">
        <ele>203.08</ele>
        <time>2018-09-02T07:24:20.999Z</time>
      </trkpt>
      <trkpt lat="46.59173" lon="0.19573">
        <ele>202.92</ele>
        <time>2018-09-02T07:24:22.999Z</time>
      </trkpt>
      <trkpt lat="46.59167" lon="0.19559">
        <ele>202.8</ele>
        <time>2018-09-02T07:24:24.999Z</time>
      </trkpt>
      <trkpt lat="46.59162" lon="0.19548">
        <ele>202.78</ele>
        <time>2018-09-02T07:24:26.999Z</time>
      </trkpt>
      <trkpt lat="46.59154" lon="0.19535">
        <ele>202.22</ele>
        <time>2018-09-02T07:24:28.999Z</time>
      </trkpt>
      <trkpt lat="46.59147" lon="0.19525">
        <ele>202.14</ele>
        <time>2018-09-02T07:24:30.999Z</time>
      </trkpt>
      <trkpt lat="46.59139" lon="0.19509">
        <ele>201.69</ele>
        <time>2018-09-02T07:24:33.999Z</time>
      </trkpt>
      <trkpt lat="46.59133" lon="0.19495">
        <ele>201.11</ele>
        <time>2018-09-02T07:24:35.999Z</time>
      </trkpt>
      <trkpt lat="46.59127" lon="0.19481">
        <ele>200.14</ele>
        <time>2018-09-02T07:24:37.999Z</time>
      </trkpt>
      <trkpt lat="46.59121" lon="0.19466">
        <ele>199.26</ele>
        <time>2018-09-02T07:24:39.999Z</time>
      </trkpt>
      <trkpt lat="46.59115" lon="0.19449">
        <ele>199.09</ele>
        <time>2018-09-02T07:24:41.999Z</time>
      </trkpt>
      <trkpt lat="46.59111" lon="0.19434">
        <ele>199.09</ele>
        <time>2018-09-02T07:24:43.999Z</time>
      </trkpt>
      <trkpt lat="46.5911" lon="0.19418">
        <ele>199.08</ele>
        <time>2018-09-02T07:24:45.999Z</time>
      </trkpt>
      <trkpt lat="46.59108" lon="0.19404">
        <ele>199.26</ele>
        <time>2018-09-02T07:24:47.999Z</time>
      </trkpt>
      <trkpt lat="46.59106" lon="0.1939">
        <ele>199.32</ele>
        <time>2018-09-02T07:24:49.999Z</time>
      </trkpt>
      <trkpt lat="46.59104" lon="0.19369">
        <ele>199.7</ele>
        <time>2018-09-02T07:24:52.999Z</time>
      </trkpt>
      <trkpt lat="46.59104" lon="0.19355">
        <ele>199.76</ele>
        <time>2018-09-02T07:24:54.999Z</time>
      </trkpt>
      <trkpt lat="46.59103" lon="0.19339">
        <ele>199.66</ele>
        <time>2018-09-02T07:24:56.999Z</time>
      </trkpt>
      <trkpt lat="46.59103" lon="0.19323">
        <ele>199.14</ele>
        <time>2018-09-02T07:24:58.999Z</time>
      </trkpt>
      <trkpt lat="46.59101" lon="0.19309">
        <ele>198.74</ele>
        <time>2018-09-02T07:25:00.999Z</time>
      </trkpt>
      <trkpt lat="46.59098" lon="0.19295">
        <ele>198.4</ele>
        <time>2018-09-02T07:25:02.999Z</time>
      </trkpt>
      <trkpt lat="46.59096" lon="0.19278">
        <ele>198.15</ele>
        <time>2018-09-02T07:25:04.999Z</time>
      </trkpt>
      <trkpt lat="46.59095" lon="0.19263">
        <ele>198.17</ele>
        <time>2018-09-02T07:25:06.999Z</time>
      </trkpt>
      <trkpt lat="46.59094" lon="0.19248">
        <ele>198.22</ele>
        <time>2018-09-02T07:25:08.999Z</time>
      </trkpt>
      <trkpt lat="46.59094" lon="0.1923">
        <ele>198.91</ele>
        <time>2018-09-02T07:25:11.999Z</time>
      </trkpt>
      <trkpt lat="46.59093" lon="0.19217">
        <ele>199.63</ele>
        <time>2018-09-02T07:25:13.999Z</time>
      </trkpt>
      <trkpt lat="46.59092" lon="0.19204">
        <ele>200.38</ele>
        <time>2018-09-02T07:25:15.999Z</time>
      </trkpt>
      <trkpt lat="46.59091" lon="0.1919">
        <ele>201.55</ele>
        <time>2018-09-02T07:25:17.999Z</time>
      </trkpt>
      <trkpt lat="46.59091" lon="0.19176">
        <ele>202.12</ele>
        <time>2018-09-02T07:25:19.999Z</time>
      </trkpt>
      <trkpt lat="46.59089" lon="0.19162">
        <ele>203.01</ele>
        <time>2018-09-02T07:25:21.999Z</time>
      </trkpt>
      <trkpt lat="46.59085" lon="0.19147">
        <ele>203.22</ele>
        <time>2018-09-02T07:25:24.999Z</time>
      </trkpt>
      <trkpt lat="46.59073" lon="0.19147">
        <ele>203.91</ele>
        <time>2018-09-02T07:25:29.999Z</time>
      </trkpt>
      <trkpt lat="46.5906" lon="0.1915">
        <ele>204.36</ele>
        <time>2018-09-02T07:25:32.999Z</time>
      </trkpt>
      <trkpt lat="46.59047" lon="0.19153">
        <ele>204.73</ele>
        <time>2018-09-02T07:25:35.999Z</time>
      </trkpt>
      <trkpt lat="46.59035" lon="0.19156">
        <ele>205</ele>
        <time>2018-09-02T07:25:38.999Z</time>
      </trkpt>
      <trkpt lat="46.59028" lon="0.1914">
        <ele>205.04</ele>
        <time>2018-09-02T07:25:41.999Z</time>
      </trkpt>
      <trkpt lat="46.59023" lon="0.19127">
        <ele>204.7</ele>
        <time>2018-09-02T07:25:43.999Z</time>
      </trkpt>
      <trkpt lat="46.59017" lon="0.19115">
        <ele>204.13</ele>
        <time>2018-09-02T07:25:45.999Z</time>
      </trkpt>
      <trkpt lat="46.59012" lon="0.191">
        <ele>202.71</ele>
        <time>2018-09-02T07:25:47.999Z</time>
      </trkpt>
      <trkpt lat="46.59007" lon="0.19087">
        <ele>201.92</ele>
        <time>2018-09-02T07:25:49.999Z</time>
      </trkpt>
      <trkpt lat="46.59002" lon="0.19075">
        <ele>200.72</ele>
        <time>2018-09-02T07:25:51.999Z</time>
      </trkpt>
      <trkpt lat="46.58997" lon="0.19061">
        <ele>198.95</ele>
        <time>2018-09-02T07:25:53.999Z</time>
      </trkpt>
      <trkpt lat="46.58992" lon="0.1905">
        <ele>198.16</ele>
        <time>2018-09-02T07:25:55.999Z</time>
      </trkpt>
      <trkpt lat="46.58985" lon="0.19034">
        <ele>197.96</ele>
        <time>2018-09-02T07:25:58.999Z</time>
      </trkpt>
      <trkpt lat="46.58979" lon="0.1902">
        <ele>197.85</ele>
        <time>2018-09-02T07:26:01.999Z</time>
      </trkpt>
      <trkpt lat="46.58972" lon="0.19006">
        <ele>197.8</ele>
        <time>2018-09-02T07:26:04.999Z</time>
      </trkpt>
      <trkpt lat="46.58966" lon="0.18992">
        <ele>197.79</ele>
        <time>2018-09-02T07:26:07.999Z</time>
      </trkpt>
      <trkpt lat="46.58959" lon="0.18978">
        <ele>197.8</ele>
        <time>2018-09-02T07:26:10.999Z</time>
      </trkpt>
      <trkpt lat="46.58954" lon="0.18963">
        <ele>197.8</ele>
        <time>2018-09-02T07:26:13.999Z</time>
      </trkpt>
      <trkpt lat="46.58949" lon="0.18949">
        <ele>197.84</ele>
        <time>2018-09-02T07:26:16.999Z</time>
      </trkpt>
      <trkpt lat="46.58944" lon="0.18937">
        <ele>197.92</ele>
        <time>2018-09-02T07:26:19.999Z</time>
      </trkpt>
      <trkpt lat="46.58942" lon="0.18923">
        <ele>198.07</ele>
        <time>2018-09-02T07:26:22.999Z</time>
      </trkpt>
      <trkpt lat="46.5894" lon="0.18904">
        <ele>198.27</ele>
        <time>2018-09-02T07:26:25.999Z</time>
      </trkpt>
      <trkpt lat="46.58939" lon="0.18885">
        <ele>198.57</ele>
        <time>2018-09-02T07:26:28.999Z</time>
      </trkpt>
      <trkpt lat="46.58939" lon="0.1887">
        <ele>199.67</ele>
        <time>2018-09-02T07:26:30.999Z</time>
      </trkpt>
      <trkpt lat="46.58937" lon="0.18854">
        <ele>199.97</ele>
        <time>2018-09-02T07:26:33.999Z</time>
      </trkpt>
      <trkpt lat="46.58935" lon="0.18839">
        <ele>200.38</ele>
        <time>2018-09-02T07:26:36.999Z</time>
      </trkpt>
      <trkpt lat="46.58932" lon="0.18826">
        <ele>200.94</ele>
        <time>2018-09-02T07:26:39.999Z</time>
      </trkpt>
      <trkpt lat="46.58928" lon="0.1881">
        <ele>201.67</ele>
        <time>2018-09-02T07:26:43.999Z</time>
      </trkpt>
      <trkpt lat="46.58923" lon="0.18795">
        <ele>202.26</ele>
        <time>2018-09-02T07:26:46.999Z</time>
      </trkpt>
      <trkpt lat="46.58915" lon="0.18782">
        <ele>202.79</ele>
        <time>2018-09-02T07:26:49.999Z</time>
      </trkpt>
      <trkpt lat="46.58908" lon="0.18771">
        <ele>203.1</ele>
        <time>2018-09-02T07:26:51.999Z</time>
      </trkpt>
      <trkpt lat="46.58901" lon="0.18762">
        <ele>203.37</ele>
        <time>2018-09-02T07:26:53.999Z</time>
      </trkpt>
      <trkpt lat="46.58892" lon="0.1875">
        <ele>203.58</ele>
        <time>2018-09-02T07:26:55.999Z</time>
      </trkpt>
      <trkpt lat="46.58886" lon="0.1874">
        <ele>203.76</ele>
        <time>2018-09-02T07:26:57.999Z</time>
      </trkpt>
      <trkpt lat="46.58878" lon="0.18732">
        <ele>203.89</ele>
        <time>2018-09-02T07:26:59.999Z</time>
      </trkpt>
      <trkpt lat="46.5887" lon="0.18722">
        <ele>204.04</ele>
        <time>2018-09-02T07:27:02.999Z</time>
      </trkpt>
      <trkpt lat="46.58863" lon="0.18706">
        <ele>204.16</ele>
        <time>2018-09-02T07:27:05.999Z</time>
      </trkpt>
      <trkpt lat="46.58859" lon="0.18694">
        <ele>204.19</ele>
        <time>2018-09-02T07:27:07.999Z</time>
      </trkpt>
      <trkpt lat="46.58854" lon="0.18682">
        <ele>204.18</ele>
        <time>2018-09-02T07:27:09.999Z</time>
      </trkpt>
      <trkpt lat="46.58846" lon="0.18668">
        <ele>204.16</ele>
        <time>2018-09-02T07:27:11.999Z</time>
      </trkpt>
      <trkpt lat="46.58839" lon="0.18652">
        <ele>204.14</ele>
        <time>2018-09-02T07:27:14.999Z</time>
      </trkpt>
      <trkpt lat="46.58833" lon="0.18638">
        <ele>204.14</ele>
        <time>2018-09-02T07:27:17.999Z</time>
      </trkpt>
      <trkpt lat="46.58824" lon="0.18624">
        <ele>204.19</ele>
        <time>2018-09-02T07:27:20.999Z</time>
      </trkpt>
      <trkpt lat="46.58816" lon="0.18609">
        <ele>204.28</ele>
        <time>2018-09-02T07:27:23.999Z</time>
      </trkpt>
      <trkpt lat="46.58807" lon="0.18599">
        <ele>204.37</ele>
        <time>2018-09-02T07:27:26.999Z</time>
      </trkpt>
      <trkpt lat="46.58799" lon="0.1859">
        <ele>204.55</ele>
        <time>2018-09-02T07:27:29.999Z</time>
      </trkpt>
      <trkpt lat="46.58789" lon="0.18579">
        <ele>204.73</ele>
        <time>2018-09-02T07:27:32.999Z</time>
      </trkpt>
      <trkpt lat="46.58784" lon="0.18568">
        <ele>204.66</ele>
        <time>2018-09-02T07:27:35.999Z</time>
      </trkpt>
      <trkpt lat="46.58775" lon="0.18576">
        <ele>203.65</ele>
        <time>2018-09-02T07:27:47.999Z</time>
      </trkpt>
      <trkpt lat="46.58768" lon="0.1859">
        <ele>202.12</ele>
        <time>2018-09-02T07:27:50.999Z</time>
      </trkpt>
      <trkpt lat="46.58762" lon="0.18605">
        <ele>201.26</ele>
        <time>2018-09-02T07:27:53.999Z</time>
      </trkpt>
      <trkpt lat="46.58754" lon="0.18621">
        <ele>201.2</ele>
        <time>2018-09-02T07:27:56.999Z</time>
      </trkpt>
      <trkpt lat="46.58748" lon="0.18637">
        <ele>201.58</ele>
        <time>2018-09-02T07:27:59.999Z</time>
      </trkpt>
      <trkpt lat="46.58741" lon="0.18655">
        <ele>202.12</ele>
        <time>2018-09-02T07:28:02.999Z</time>
      </trkpt>
      <trkpt lat="46.58735" lon="0.18669">
        <ele>202.3</ele>
        <time>2018-09-02T07:28:04.999Z</time>
      </trkpt>
      <trkpt lat="46.5873" lon="0.18685">
        <ele>202.4</ele>
        <time>2018-09-02T07:28:06.999Z</time>
      </trkpt>
      <trkpt lat="46.58725" lon="0.187">
        <ele>202.6</ele>
        <time>2018-09-02T07:28:08.999Z</time>
      </trkpt>
      <trkpt lat="46.58721" lon="0.18716">
        <ele>202.64</ele>
        <time>2018-09-02T07:28:10.999Z</time>
      </trkpt>
      <trkpt lat="46.58718" lon="0.18732">
        <ele>202.87</ele>
        <time>2018-09-02T07:28:12.999Z</time>
      </trkpt>
      <trkpt lat="46.58715" lon="0.18748">
        <ele>203.04</ele>
        <time>2018-09-02T07:28:14.999Z</time>
      </trkpt>
      <trkpt lat="46.58711" lon="0.18763">
        <ele>203.15</ele>
        <time>2018-09-02T07:28:16.999Z</time>
      </trkpt>
      <trkpt lat="46.58706" lon="0.18778">
        <ele>203.35</ele>
        <time>2018-09-02T07:28:18.999Z</time>
      </trkpt>
      <trkpt lat="46.58704" lon="0.18793">
        <ele>203.34</ele>
        <time>2018-09-02T07:28:20.999Z</time>
      </trkpt>
      <trkpt lat="46.587" lon="0.18809">
        <ele>203.53</ele>
        <time>2018-09-02T07:28:22.999Z</time>
      </trkpt>
      <trkpt lat="46.58696" lon="0.18825">
        <ele>203.49</ele>
        <time>2018-09-02T07:28:24.999Z</time>
      </trkpt>
      <trkpt lat="46.58691" lon="0.18838">
        <ele>203.39</ele>
        <time>2018-09-02T07:28:26.999Z</time>
      </trkpt>
      <trkpt lat="46.58686" lon="0.18852">
        <ele>203.33</ele>
        <time>2018-09-02T07:28:28.999Z</time>
      </trkpt>
      <trkpt lat="46.58681" lon="0.18867">
        <ele>203.15</ele>
        <time>2018-09-02T07:28:30.999Z</time>
      </trkpt>
      <trkpt lat="46.58676" lon="0.1888">
        <ele>202.79</ele>
        <time>2018-09-02T07:28:32.999Z</time>
      </trkpt>
      <trkpt lat="46.5867" lon="0.18894">
        <ele>202.33</ele>
        <time>2018-09-02T07:28:34.999Z</time>
      </trkpt>
      <trkpt lat="46.58666" lon="0.18906">
        <ele>201.97</ele>
        <time>2018-09-02T07:28:36.999Z</time>
      </trkpt>
      <trkpt lat="46.58661" lon="0.18921">
        <ele>201.74</ele>
        <time>2018-09-02T07:28:38.999Z</time>
      </trkpt>
      <trkpt lat="46.58656" lon="0.18935">
        <ele>201.63</ele>
        <time>2018-09-02T07:28:40.999Z</time>
      </trkpt>
      <trkpt lat="46.58652" lon="0.18949">
        <ele>201.55</ele>
        <time>2018-09-02T07:28:42.999Z</time>
      </trkpt>
      <trkpt lat="46.58646" lon="0.18965">
        <ele>201.67</ele>
        <time>2018-09-02T07:28:44.999Z</time>
      </trkpt>
      <trkpt lat="46.58641" lon="0.18977">
        <ele>201.69</ele>
        <time>2018-09-02T07:28:46.999Z</time>
      </trkpt>
      <trkpt lat="46.58633" lon="0.18986">
        <ele>201.41</ele>
        <time>2018-09-02T07:28:48.999Z</time>
      </trkpt>
      <trkpt lat="46.58621" lon="0.18988">
        <ele>201.25</ele>
        <time>2018-09-02T07:28:50.999Z</time>
      </trkpt>
      <trkpt lat="46.5861" lon="0.18989">
        <ele>201</ele>
        <time>2018-09-02T07:28:52.999Z</time>
      </trkpt>
      <trkpt lat="46.58599" lon="0.18991">
        <ele>201.02</ele>
        <time>2018-09-02T07:28:54.999Z</time>
      </trkpt>
      <trkpt lat="46.58588" lon="0.18993">
        <ele>201.18</ele>
        <time>2018-09-02T07:28:56.999Z</time>
      </trkpt>
      <trkpt lat="46.58579" lon="0.18995">
        <ele>201.41</ele>
        <time>2018-09-02T07:28:58.999Z</time>
      </trkpt>
      <trkpt lat="46.58569" lon="0.18998">
        <ele>201.58</ele>
        <time>2018-09-02T07:29:00.999Z</time>
      </trkpt>
      <trkpt lat="46.58559" lon="0.19004">
        <ele>201.82</ele>
        <time>2018-09-02T07:29:02.999Z</time>
      </trkpt>
      <trkpt lat="46.58549" lon="0.1901">
        <ele>201.88</ele>
        <time>2018-09-02T07:29:04.999Z</time>
      </trkpt>
      <trkpt lat="46.5854" lon="0.19016">
        <ele>201.65</ele>
        <time>2018-09-02T07:29:06.999Z</time>
      </trkpt>
      <trkpt lat="46.58531" lon="0.19023">
        <ele>201.2</ele>
        <time>2018-09-02T07:29:08.999Z</time>
      </trkpt>
      <trkpt lat="46.58523" lon="0.1903">
        <ele>201.13</ele>
        <time>2018-09-02T07:29:10.999Z</time>
      </trkpt>
      <trkpt lat="46.58516" lon="0.19041">
        <ele>201.54</ele>
        <time>2018-09-02T07:29:12.999Z</time>
      </trkpt>
      <trkpt lat="46.58508" lon="0.19049">
        <ele>201.84</ele>
        <time>2018-09-02T07:29:14.999Z</time>
      </trkpt>
      <trkpt lat="46.58499" lon="0.19056">
        <ele>202.08</ele>
        <time>2018-09-02T07:29:16.999Z</time>
      </trkpt>
      <trkpt lat="46.58491" lon="0.19063">
        <ele>202.25</ele>
        <time>2018-09-02T07:29:18.999Z</time>
      </trkpt>
      <trkpt lat="46.58484" lon="0.19071">
        <ele>202.4</ele>
        <time>2018-09-02T07:29:20.999Z</time>
      </trkpt>
      <trkpt lat="46.58473" lon="0.19075">
        <ele>202.44</ele>
        <time>2018-09-02T07:29:23.999Z</time>
      </trkpt>
      <trkpt lat="46.58464" lon="0.19084">
        <ele>202.06</ele>
        <time>2018-09-02T07:29:26.999Z</time>
      </trkpt>
      <trkpt lat="46.58458" lon="0.19102">
        <ele>201.48</ele>
        <time>2018-09-02T07:29:29.999Z</time>
      </trkpt>
      <trkpt lat="46.58458" lon="0.19118">
        <ele>201.32</ele>
        <time>2018-09-02T07:29:31.999Z</time>
      </trkpt>
      <trkpt lat="46.58456" lon="0.19136">
        <ele>201.22</ele>
        <time>2018-09-02T07:29:33.999Z</time>
      </trkpt>
      <trkpt lat="46.58454" lon="0.19152">
        <ele>201.53</ele>
        <time>2018-09-02T07:29:35.999Z</time>
      </trkpt>
      <trkpt lat="46.58448" lon="0.19164">
        <ele>201.92</ele>
        <time>2018-09-02T07:29:37.999Z</time>
      </trkpt>
      <trkpt lat="46.58442" lon="0.19174">
        <ele>201.77</ele>
        <time>2018-09-02T07:29:39.999Z</time>
      </trkpt>
      <trkpt lat="46.58436" lon="0.19186">
        <ele>201.87</ele>
        <time>2018-09-02T07:29:41.999Z</time>
      </trkpt>
      <trkpt lat="46.58429" lon="0.19198">
        <ele>201.82</ele>
        <time>2018-09-02T07:29:44.999Z</time>
      </trkpt>
      <trkpt lat="46.58423" lon="0.19209">
        <ele>202.15</ele>
        <time>2018-09-02T07:29:46.999Z</time>
      </trkpt>
      <trkpt lat="46.58418" lon="0.19221">
        <ele>202.19</ele>
        <time>2018-09-02T07:29:48.999Z</time>
      </trkpt>
      <trkpt lat="46.58411" lon="0.19235">
        <ele>202.2</ele>
        <time>2018-09-02T07:29:50.999Z</time>
      </trkpt>
      <trkpt lat="46.58406" lon="0.19246">
        <ele>202.21</ele>
        <time>2018-09-02T07:29:52.999Z</time>
      </trkpt>
      <trkpt lat="46.58402" lon="0.19259">
        <ele>202.26</ele>
        <time>2018-09-02T07:29:54.999Z</time>
      </trkpt>
      <trkpt lat="46.58397" lon="0.19272">
        <ele>202.53</ele>
        <time>2018-09-02T07:29:56.999Z</time>
      </trkpt>
      <trkpt lat="46.58393" lon="0.19284">
        <ele>202.82</ele>
        <time>2018-09-02T07:29:58.999Z</time>
      </trkpt>
      <trkpt lat="46.58385" lon="0.19299">
        <ele>203.88</ele>
        <time>2018-09-02T07:30:01.999Z</time>
      </trkpt>
      <trkpt lat="46.58381" lon="0.19311">
        <ele>205.38</ele>
        <time>2018-09-02T07:30:03.999Z</time>
      </trkpt>
      <trkpt lat="46.58375" lon="0.19324">
        <ele>206.57</ele>
        <time>2018-09-02T07:30:05.999Z</time>
      </trkpt>
      <trkpt lat="46.58371" lon="0.19336">
        <ele>207.83</ele>
        <time>2018-09-02T07:30:07.999Z</time>
      </trkpt>
      <trkpt lat="46.58363" lon="0.19351">
        <ele>208.55</ele>
        <time>2018-09-02T07:30:10.999Z</time>
      </trkpt>
      <trkpt lat="46.58358" lon="0.19363">
        <ele>208.7</ele>
        <time>2018-09-02T07:30:13.999Z</time>
      </trkpt>
      <trkpt lat="46.58351" lon="0.19374">
        <ele>208.96</ele>
        <time>2018-09-02T07:30:16.999Z</time>
      </trkpt>
      <trkpt lat="46.58342" lon="0.19387">
        <ele>209.31</ele>
        <time>2018-09-02T07:30:19.999Z</time>
      </trkpt>
      <trkpt lat="46.58337" lon="0.19399">
        <ele>209.75</ele>
        <time>2018-09-02T07:30:22.999Z</time>
      </trkpt>
      <trkpt lat="46.58331" lon="0.19412">
        <ele>210.13</ele>
        <time>2018-09-02T07:30:25.999Z</time>
      </trkpt>
      <trkpt lat="46.58324" lon="0.19424">
        <ele>210.55</ele>
        <time>2018-09-02T07:30:28.999Z</time>
      </trkpt>
      <trkpt lat="46.58318" lon="0.19434">
        <ele>211.06</ele>
        <time>2018-09-02T07:30:32.999Z</time>
      </trkpt>
      <trkpt lat="46.58312" lon="0.19446">
        <ele>211.69</ele>
        <time>2018-09-02T07:30:36.999Z</time>
      </trkpt>
      <trkpt lat="46.5831" lon="0.19459">
        <ele>211.96</ele>
        <time>2018-09-02T07:30:51.999Z</time>
      </trkpt>
      <trkpt lat="46.58301" lon="0.19464">
        <ele>212.2</ele>
        <time>2018-09-02T07:31:19.999Z</time>
      </trkpt>
      <trkpt lat="46.58304" lon="0.19477">
        <ele>214.39</ele>
        <time>2018-09-02T07:31:48.999Z</time>
      </trkpt>
      <trkpt lat="46.58313" lon="0.19477">
        <ele>210.46</ele>
        <time>2018-09-02T07:33:19.999Z</time>
      </trkpt>
      <trkpt lat="46.58307" lon="0.19467">
        <ele>201.28</ele>
        <time>2018-09-02T07:35:47.999Z</time>
      </trkpt>
      <trkpt lat="46.58305" lon="0.19454">
        <ele>200.44</ele>
        <time>2018-09-02T07:36:06.999Z</time>
      </trkpt>
      <trkpt lat="46.58301" lon="0.19466">
        <ele>199.67</ele>
        <time>2018-09-02T07:36:43.999Z</time>
      </trkpt>
      <trkpt lat="46.58309" lon="0.19459">
        <ele>200.67</ele>
        <time>2018-09-02T07:38:01.999Z</time>
      </trkpt>
      <trkpt lat="46.58302" lon="0.19468">
        <ele>201.76</ele>
        <time>2018-09-02T07:39:40.999Z</time>
      </trkpt>
      <trkpt lat="46.58295" lon="0.19479">
        <ele>201.72</ele>
        <time>2018-09-02T07:39:46.999Z</time>
      </trkpt>
      <trkpt lat="46.58289" lon="0.19489">
        <ele>201.59</ele>
        <time>2018-09-02T07:39:51.999Z</time>
      </trkpt>
      <trkpt lat="46.58281" lon="0.19501">
        <ele>201.46</ele>
        <time>2018-09-02T07:39:56.999Z</time>
      </trkpt>
      <trkpt lat="46.58274" lon="0.19511">
        <ele>201.24</ele>
        <time>2018-09-02T07:40:00.999Z</time>
      </trkpt>
      <trkpt lat="46.58265" lon="0.19517">
        <ele>201</ele>
        <time>2018-09-02T07:40:05.999Z</time>
      </trkpt>
      <trkpt lat="46.58256" lon="0.19523">
        <ele>200.88</ele>
        <time>2018-09-02T07:40:08.999Z</time>
      </trkpt>
      <trkpt lat="46.58247" lon="0.19534">
        <ele>200.83</ele>
        <time>2018-09-02T07:40:11.999Z</time>
      </trkpt>
      <trkpt lat="46.58238" lon="0.19544">
        <ele>200.85</ele>
        <time>2018-09-02T07:40:14.999Z</time>
      </trkpt>
      <trkpt lat="46.58229" lon="0.19553">
        <ele>200.89</ele>
        <time>2018-09-02T07:40:17.999Z</time>
      </trkpt>
      <trkpt lat="46.58221" lon="0.19561">
        <ele>200.94</ele>
        <time>2018-09-02T07:40:20.999Z</time>
      </trkpt>
      <trkpt lat="46.58213" lon="0.19569">
        <ele>201.1</ele>
        <time>2018-09-02T07:40:23.999Z</time>
      </trkpt>
      <trkpt lat="46.58205" lon="0.19578">
        <ele>201.3</ele>
        <time>2018-09-02T07:40:26.999Z</time>
      </trkpt>
      <trkpt lat="46.58196" lon="0.19588">
        <ele>201.48</ele>
        <time>2018-09-02T07:40:29.999Z</time>
      </trkpt>
      <trkpt lat="46.58185" lon="0.19597">
        <ele>201.67</ele>
        <time>2018-09-02T07:40:32.999Z</time>
      </trkpt>
      <trkpt lat="46.58175" lon="0.19605">
        <ele>201.94</ele>
        <time>2018-09-02T07:40:35.999Z</time>
      </trkpt>
      <trkpt lat="46.58167" lon="0.19614">
        <ele>202.26</ele>
        <time>2018-09-02T07:40:38.999Z</time>
      </trkpt>
      <trkpt lat="46.58159" lon="0.19624">
        <ele>202.63</ele>
        <time>2018-09-02T07:40:41.999Z</time>
      </trkpt>
      <trkpt lat="46.58152" lon="0.19634">
        <ele>203.01</ele>
        <time>2018-09-02T07:40:44.999Z</time>
      </trkpt>
      <trkpt lat="46.58143" lon="0.19645">
        <ele>203.42</ele>
        <time>2018-09-02T07:40:47.999Z</time>
      </trkpt>
      <trkpt lat="46.58136" lon="0.19657">
        <ele>203.86</ele>
        <time>2018-09-02T07:40:50.999Z</time>
      </trkpt>
      <trkpt lat="46.58133" lon="0.19669">
        <ele>204.32</ele>
        <time>2018-09-02T07:40:53.999Z</time>
      </trkpt>
      <trkpt lat="46.58129" lon="0.19687">
        <ele>206.11</ele>
        <time>2018-09-02T07:40:56.999Z</time>
      </trkpt>
      <trkpt lat="46.58125" lon="0.19707">
        <ele>209.19</ele>
        <time>2018-09-02T07:40:59.999Z</time>
      </trkpt>
      <trkpt lat="46.58121" lon="0.19724">
        <ele>210.17</ele>
        <time>2018-09-02T07:41:01.999Z</time>
      </trkpt>
      <trkpt lat="46.58115" lon="0.19742">
        <ele>210.18</ele>
        <time>2018-09-02T07:41:03.999Z</time>
      </trkpt>
      <trkpt lat="46.58109" lon="0.19757">
        <ele>209.5</ele>
        <time>2018-09-02T07:41:05.999Z</time>
      </trkpt>
      <trkpt lat="46.58101" lon="0.19771">
        <ele>208.91</ele>
        <time>2018-09-02T07:41:07.999Z</time>
      </trkpt>
      <trkpt lat="46.58093" lon="0.19785">
        <ele>208.04</ele>
        <time>2018-09-02T07:41:09.999Z</time>
      </trkpt>
      <trkpt lat="46.58083" lon="0.19795">
        <ele>207.07</ele>
        <time>2018-09-02T07:41:11.999Z</time>
      </trkpt>
      <trkpt lat="46.58072" lon="0.19806">
        <ele>206.36</ele>
        <time>2018-09-02T07:41:13.999Z</time>
      </trkpt>
      <trkpt lat="46.58063" lon="0.19816">
        <ele>205.78</ele>
        <time>2018-09-02T07:41:15.999Z</time>
      </trkpt>
      <trkpt lat="46.58051" lon="0.19828">
        <ele>205.13</ele>
        <time>2018-09-02T07:41:17.999Z</time>
      </trkpt>
      <trkpt lat="46.58041" lon="0.19839">
        <ele>204.72</ele>
        <time>2018-09-02T07:41:19.999Z</time>
      </trkpt>
      <trkpt lat="46.58032" lon="0.1985">
        <ele>204.49</ele>
        <time>2018-09-02T07:41:21.999Z</time>
      </trkpt>
      <trkpt lat="46.58022" lon="0.19859">
        <ele>204.57</ele>
        <time>2018-09-02T07:41:23.999Z</time>
      </trkpt>
      <trkpt lat="46.58011" lon="0.19863">
        <ele>204.86</ele>
        <time>2018-09-02T07:41:25.999Z</time>
      </trkpt>
      <trkpt lat="46.58" lon="0.19867">
        <ele>205.11</ele>
        <time>2018-09-02T07:41:27.999Z</time>
      </trkpt>
      <trkpt lat="46.5799" lon="0.1987">
        <ele>205.35</ele>
        <time>2018-09-02T07:41:31.999Z</time>
      </trkpt>
      <trkpt lat="46.57982" lon="0.19877">
        <ele>205.44</ele>
        <time>2018-09-02T07:41:36.999Z</time>
      </trkpt>
      <trkpt lat="46.57979" lon="0.1989">
        <ele>204.88</ele>
        <time>2018-09-02T07:41:39.999Z</time>
      </trkpt>
      <trkpt lat="46.57978" lon="0.19909">
        <ele>203</ele>
        <time>2018-09-02T07:41:42.999Z</time>
      </trkpt>
      <trkpt lat="46.57974" lon="0.19924">
        <ele>201.6</ele>
        <time>2018-09-02T07:41:44.999Z</time>
      </trkpt>
      <trkpt lat="46.57972" lon="0.19939">
        <ele>200.42</ele>
        <time>2018-09-02T07:41:46.999Z</time>
      </trkpt>
      <trkpt lat="46.5797" lon="0.19952">
        <ele>199.77</ele>
        <time>2018-09-02T07:41:48.999Z</time>
      </trkpt>
      <trkpt lat="46.5797" lon="0.19965">
        <ele>199.45</ele>
        <time>2018-09-02T07:41:50.999Z</time>
      </trkpt>
      <trkpt lat="46.57967" lon="0.1998">
        <ele>199.22</ele>
        <time>2018-09-02T07:41:52.999Z</time>
      </trkpt>
      <trkpt lat="46.57963" lon="0.19999">
        <ele>198.8</ele>
        <time>2018-09-02T07:41:55.999Z</time>
      </trkpt>
      <trkpt lat="46.57961" lon="0.20012">
        <ele>198.74</ele>
        <time>2018-09-02T07:41:57.999Z</time>
      </trkpt>
      <trkpt lat="46.57959" lon="0.20025">
        <ele>198.1</ele>
        <time>2018-09-02T07:41:59.999Z</time>
      </trkpt>
      <trkpt lat="46.57956" lon="0.20039">
        <ele>197.96</ele>
        <time>2018-09-02T07:42:01.999Z</time>
      </trkpt>
      <trkpt lat="46.57954" lon="0.20059">
        <ele>198.6</ele>
        <time>2018-09-02T07:42:04.999Z</time>
      </trkpt>
      <trkpt lat="46.57954" lon="0.20076">
        <ele>199.24</ele>
        <time>2018-09-02T07:42:06.999Z</time>
      </trkpt>
      <trkpt lat="46.57953" lon="0.20094">
        <ele>199.36</ele>
        <time>2018-09-02T07:42:08.999Z</time>
      </trkpt>
      <trkpt lat="46.57954" lon="0.20109">
        <ele>199.64</ele>
        <time>2018-09-02T07:42:10.999Z</time>
      </trkpt>
      <trkpt lat="46.57953" lon="0.20123">
        <ele>200.31</ele>
        <time>2018-09-02T07:42:12.999Z</time>
      </trkpt>
      <trkpt lat="46.57951" lon="0.20139">
        <ele>200.54</ele>
        <time>2018-09-02T07:42:14.999Z</time>
      </trkpt>
      <trkpt lat="46.57949" lon="0.20154">
        <ele>200.91</ele>
        <time>2018-09-02T07:42:16.999Z</time>
      </trkpt>
      <trkpt lat="46.57945" lon="0.20168">
        <ele>201.34</ele>
        <time>2018-09-02T07:42:18.999Z</time>
      </trkpt>
      <trkpt lat="46.57941" lon="0.20184">
        <ele>201.63</ele>
        <time>2018-09-02T07:42:20.999Z</time>
      </trkpt>
      <trkpt lat="46.57937" lon="0.20198">
        <ele>202.43</ele>
        <time>2018-09-02T07:42:22.999Z</time>
      </trkpt>
      <trkpt lat="46.57932" lon="0.2021">
        <ele>203.14</ele>
        <time>2018-09-02T07:42:24.999Z</time>
      </trkpt>
      <trkpt lat="46.57927" lon="0.20224">
        <ele>203.16</ele>
        <time>2018-09-02T07:42:26.999Z</time>
      </trkpt>
      <trkpt lat="46.57923" lon="0.20239">
        <ele>202.9</ele>
        <time>2018-09-02T07:42:28.999Z</time>
      </trkpt>
      <trkpt lat="46.5792" lon="0.20253">
        <ele>202.78</ele>
        <time>2018-09-02T07:42:30.999Z</time>
      </trkpt>
      <trkpt lat="46.57915" lon="0.20268">
        <ele>202.62</ele>
        <time>2018-09-02T07:42:32.999Z</time>
      </trkpt>
      <trkpt lat="46.57911" lon="0.20283">
        <ele>202.27</ele>
        <time>2018-09-02T07:42:34.999Z</time>
      </trkpt>
      <trkpt lat="46.57906" lon="0.20299">
        <ele>201.6</ele>
        <time>2018-09-02T07:42:36.999Z</time>
      </trkpt>
      <trkpt lat="46.57901" lon="0.20316">
        <ele>201.25</ele>
        <time>2018-09-02T07:42:38.999Z</time>
      </trkpt>
      <trkpt lat="46.57896" lon="0.20331">
        <ele>201.06</ele>
        <time>2018-09-02T07:42:40.999Z</time>
      </trkpt>
      <trkpt lat="46.57892" lon="0.20348">
        <ele>200.91</ele>
        <time>2018-09-02T07:42:42.999Z</time>
      </trkpt>
      <trkpt lat="46.57888" lon="0.20367">
        <ele>200.56</ele>
        <time>2018-09-02T07:42:44.999Z</time>
      </trkpt>
      <trkpt lat="46.57885" lon="0.20385">
        <ele>200.33</ele>
        <time>2018-09-02T07:42:46.999Z</time>
      </trkpt>
      <trkpt lat="46.57879" lon="0.20402">
        <ele>200.29</ele>
        <time>2018-09-02T07:42:48.999Z</time>
      </trkpt>
      <trkpt lat="46.57873" lon="0.20419">
        <ele>200.31</ele>
        <time>2018-09-02T07:42:50.999Z</time>
      </trkpt>
      <trkpt lat="46.57867" lon="0.20436">
        <ele>200.69</ele>
        <time>2018-09-02T07:42:52.999Z</time>
      </trkpt>
      <trkpt lat="46.57858" lon="0.20452">
        <ele>201.01</ele>
        <time>2018-09-02T07:42:54.999Z</time>
      </trkpt>
      <trkpt lat="46.57848" lon="0.20468">
        <ele>201.6</ele>
        <time>2018-09-02T07:42:56.999Z</time>
      </trkpt>
      <trkpt lat="46.57837" lon="0.20485">
        <ele>201.62</ele>
        <time>2018-09-02T07:42:58.999Z</time>
      </trkpt>
      <trkpt lat="46.57827" lon="0.20499">
        <ele>201.32</ele>
        <time>2018-09-02T07:43:00.999Z</time>
      </trkpt>
      <trkpt lat="46.57821" lon="0.20515">
        <ele>201.29</ele>
        <time>2018-09-02T07:43:02.999Z</time>
      </trkpt>
      <trkpt lat="46.57812" lon="0.20528">
        <ele>201.34</ele>
        <time>2018-09-02T07:43:04.999Z</time>
      </trkpt>
      <trkpt lat="46.57804" lon="0.20539">
        <ele>200.89</ele>
        <time>2018-09-02T07:43:06.999Z</time>
      </trkpt>
      <trkpt lat="46.57797" lon="0.2055">
        <ele>200.42</ele>
        <time>2018-09-02T07:43:08.999Z</time>
      </trkpt>
      <trkpt lat="46.57791" lon="0.20562">
        <ele>199.76</ele>
        <time>2018-09-02T07:43:10.999Z</time>
      </trkpt>
      <trkpt lat="46.57785" lon="0.20572">
        <ele>199.69</ele>
        <time>2018-09-02T07:43:12.999Z</time>
      </trkpt>
      <trkpt lat="46.57777" lon="0.2058">
        <ele>199.17</ele>
        <time>2018-09-02T07:43:14.999Z</time>
      </trkpt>
      <trkpt lat="46.5777" lon="0.2059">
        <ele>198.75</ele>
        <time>2018-09-02T07:43:16.999Z</time>
      </trkpt>
      <trkpt lat="46.57763" lon="0.20606">
        <ele>198.74</ele>
        <time>2018-09-02T07:43:19.999Z</time>
      </trkpt>
      <trkpt lat="46.57759" lon="0.20621">
        <ele>198.82</ele>
        <time>2018-09-02T07:43:22.999Z</time>
      </trkpt>
      <trkpt lat="46.57756" lon="0.20639">
        <ele>199.16</ele>
        <time>2018-09-02T07:43:25.999Z</time>
      </trkpt>
      <trkpt lat="46.57753" lon="0.20652">
        <ele>199.19</ele>
        <time>2018-09-02T07:43:27.999Z</time>
      </trkpt>
      <trkpt lat="46.57751" lon="0.2067">
        <ele>199.19</ele>
        <time>2018-09-02T07:43:30.999Z</time>
      </trkpt>
      <trkpt lat="46.57749" lon="0.20684">
        <ele>199.05</ele>
        <time>2018-09-02T07:43:32.999Z</time>
      </trkpt>
      <trkpt lat="46.57747" lon="0.20697">
        <ele>199.07</ele>
        <time>2018-09-02T07:43:34.999Z</time>
      </trkpt>
      <trkpt lat="46.57745" lon="0.20712">
        <ele>199.11</ele>
        <time>2018-09-02T07:43:36.999Z</time>
      </trkpt>
      <trkpt lat="46.57742" lon="0.20729">
        <ele>199.12</ele>
        <time>2018-09-02T07:43:38.999Z</time>
      </trkpt>
      <trkpt lat="46.57739" lon="0.20745">
        <ele>199.18</ele>
        <time>2018-09-02T07:43:41.999Z</time>
      </trkpt>
      <trkpt lat="46.57736" lon="0.20765">
        <ele>199.33</ele>
        <time>2018-09-02T07:43:44.999Z</time>
      </trkpt>
      <trkpt lat="46.57733" lon="0.20781">
        <ele>199.7</ele>
        <time>2018-09-02T07:43:46.999Z</time>
      </trkpt>
      <trkpt lat="46.57732" lon="0.20796">
        <ele>199.73</ele>
        <time>2018-09-02T07:43:48.999Z</time>
      </trkpt>
      <trkpt lat="46.57731" lon="0.20814">
        <ele>199.79</ele>
        <time>2018-09-02T07:43:51.999Z</time>
      </trkpt>
      <trkpt lat="46.57729" lon="0.20828">
        <ele>199.89</ele>
        <time>2018-09-02T07:43:53.999Z</time>
      </trkpt>
      <trkpt lat="46.57729" lon="0.20844">
        <ele>200.01</ele>
        <time>2018-09-02T07:43:55.999Z</time>
      </trkpt>
      <trkpt lat="46.57728" lon="0.20859">
        <ele>199.99</ele>
        <time>2018-09-02T07:43:57.999Z</time>
      </trkpt>
      <trkpt lat="46.57727" lon="0.20875">
        <ele>199.74</ele>
        <time>2018-09-02T07:43:59.999Z</time>
      </trkpt>
      <trkpt lat="46.57726" lon="0.20892">
        <ele>199.03</ele>
        <time>2018-09-02T07:44:01.999Z</time>
      </trkpt>
      <trkpt lat="46.57725" lon="0.20908">
        <ele>197.94</ele>
        <time>2018-09-02T07:44:03.999Z</time>
      </trkpt>
      <trkpt lat="46.57724" lon="0.20924">
        <ele>196.75</ele>
        <time>2018-09-02T07:44:05.999Z</time>
      </trkpt>
      <trkpt lat="46.57722" lon="0.2094">
        <ele>195.82</ele>
        <time>2018-09-02T07:44:07.999Z</time>
      </trkpt>
      <trkpt lat="46.5772" lon="0.20956">
        <ele>195.28</ele>
        <time>2018-09-02T07:44:09.999Z</time>
      </trkpt>
      <trkpt lat="46.57718" lon="0.20971">
        <ele>195.08</ele>
        <time>2018-09-02T07:44:11.999Z</time>
      </trkpt>
      <trkpt lat="46.57715" lon="0.20985">
        <ele>195.14</ele>
        <time>2018-09-02T07:44:13.999Z</time>
      </trkpt>
      <trkpt lat="46.57712" lon="0.21003">
        <ele>195.24</ele>
        <time>2018-09-02T07:44:16.999Z</time>
      </trkpt>
      <trkpt lat="46.57711" lon="0.21017">
        <ele>195.4</ele>
        <time>2018-09-02T07:44:18.999Z</time>
      </trkpt>
      <trkpt lat="46.57709" lon="0.2103">
        <ele>195.51</ele>
        <time>2018-09-02T07:44:20.999Z</time>
      </trkpt>
      <trkpt lat="46.57707" lon="0.21044">
        <ele>195.74</ele>
        <time>2018-09-02T07:44:22.999Z</time>
      </trkpt>
      <trkpt lat="46.57706" lon="0.21058">
        <ele>196.14</ele>
        <time>2018-09-02T07:44:24.999Z</time>
      </trkpt>
      <trkpt lat="46.57705" lon="0.21071">
        <ele>196.75</ele>
        <time>2018-09-02T07:44:26.999Z</time>
      </trkpt>
      <trkpt lat="46.57702" lon="0.2109">
        <ele>197.75</ele>
        <time>2018-09-02T07:44:29.999Z</time>
      </trkpt>
      <trkpt lat="46.57698" lon="0.21108">
        <ele>198.63</ele>
        <time>2018-09-02T07:44:32.999Z</time>
      </trkpt>
      <trkpt lat="46.57695" lon="0.21126">
        <ele>199.74</ele>
        <time>2018-09-02T07:44:35.999Z</time>
      </trkpt>
      <trkpt lat="46.57691" lon="0.21142">
        <ele>199.82</ele>
        <time>2018-09-02T07:44:38.999Z</time>
      </trkpt>
      <trkpt lat="46.57688" lon="0.21159">
        <ele>200.36</ele>
        <time>2018-09-02T07:44:41.999Z</time>
      </trkpt>
      <trkpt lat="46.57685" lon="0.21175">
        <ele>200.65</ele>
        <time>2018-09-02T07:44:44.999Z</time>
      </trkpt>
      <trkpt lat="46.57682" lon="0.21193">
        <ele>201.07</ele>
        <time>2018-09-02T07:44:47.999Z</time>
      </trkpt>
      <trkpt lat="46.57679" lon="0.21206">
        <ele>201.15</ele>
        <time>2018-09-02T07:44:49.999Z</time>
      </trkpt>
      <trkpt lat="46.57676" lon="0.21219">
        <ele>201.16</ele>
        <time>2018-09-02T07:44:51.999Z</time>
      </trkpt>
      <trkpt lat="46.57671" lon="0.21238">
        <ele>201.66</ele>
        <time>2018-09-02T07:44:54.999Z</time>
      </trkpt>
      <trkpt lat="46.57666" lon="0.21249">
        <ele>202.25</ele>
        <time>2018-09-02T07:44:56.999Z</time>
      </trkpt>
      <trkpt lat="46.5766" lon="0.21265">
        <ele>202.87</ele>
        <time>2018-09-02T07:44:59.999Z</time>
      </trkpt>
      <trkpt lat="46.57656" lon="0.21278">
        <ele>203.18</ele>
        <time>2018-09-02T07:45:01.999Z</time>
      </trkpt>
      <trkpt lat="46.57653" lon="0.21293">
        <ele>203.01</ele>
        <time>2018-09-02T07:45:03.999Z</time>
      </trkpt>
      <trkpt lat="46.5765" lon="0.21308">
        <ele>202.74</ele>
        <time>2018-09-02T07:45:05.999Z</time>
      </trkpt>
      <trkpt lat="46.57646" lon="0.21322">
        <ele>202.75</ele>
        <time>2018-09-02T07:45:07.999Z</time>
      </trkpt>
      <trkpt lat="46.57643" lon="0.21335">
        <ele>202.71</ele>
        <time>2018-09-02T07:45:09.999Z</time>
      </trkpt>
      <trkpt lat="46.57639" lon="0.21352">
        <ele>202.66</ele>
        <time>2018-09-02T07:45:11.999Z</time>
      </trkpt>
      <trkpt lat="46.57636" lon="0.2137">
        <ele>202.48</ele>
        <time>2018-09-02T07:45:13.999Z</time>
      </trkpt>
      <trkpt lat="46.57631" lon="0.21388">
        <ele>202.18</ele>
        <time>2018-09-02T07:45:15.999Z</time>
      </trkpt>
      <trkpt lat="46.57626" lon="0.21404">
        <ele>202.2</ele>
        <time>2018-09-02T07:45:17.999Z</time>
      </trkpt>
      <trkpt lat="46.57621" lon="0.21419">
        <ele>202.23</ele>
        <time>2018-09-02T07:45:19.999Z</time>
      </trkpt>
      <trkpt lat="46.57616" lon="0.21433">
        <ele>202.42</ele>
        <time>2018-09-02T07:45:21.999Z</time>
      </trkpt>
      <trkpt lat="46.57611" lon="0.21447">
        <ele>202.53</ele>
        <time>2018-09-02T07:45:23.999Z</time>
      </trkpt>
      <trkpt lat="46.57606" lon="0.21462">
        <ele>202.68</ele>
        <time>2018-09-02T07:45:25.999Z</time>
      </trkpt>
      <trkpt lat="46.57602" lon="0.21476">
        <ele>202.9</ele>
        <time>2018-09-02T07:45:27.999Z</time>
      </trkpt>
      <trkpt lat="46.57597" lon="0.2149">
        <ele>203.23</ele>
        <time>2018-09-02T07:45:29.999Z</time>
      </trkpt>
      <trkpt lat="46.57594" lon="0.21505">
        <ele>203.92</ele>
        <time>2018-09-02T07:45:31.999Z</time>
      </trkpt>
      <trkpt lat="46.57591" lon="0.2152">
        <ele>204.7</ele>
        <time>2018-09-02T07:45:33.999Z</time>
      </trkpt>
      <trkpt lat="46.57589" lon="0.21537">
        <ele>205.18</ele>
        <time>2018-09-02T07:45:35.999Z</time>
      </trkpt>
      <trkpt lat="46.57587" lon="0.21552">
        <ele>205.69</ele>
        <time>2018-09-02T07:45:37.999Z</time>
      </trkpt>
      <trkpt lat="46.57584" lon="0.21567">
        <ele>205.95</ele>
        <time>2018-09-02T07:45:39.999Z</time>
      </trkpt>
      <trkpt lat="46.57581" lon="0.21583">
        <ele>205.95</ele>
        <time>2018-09-02T07:45:41.999Z</time>
      </trkpt>
      <trkpt lat="46.57578" lon="0.21595">
        <ele>205.91</ele>
        <time>2018-09-02T07:45:43.999Z</time>
      </trkpt>
      <trkpt lat="46.57569" lon="0.21607">
        <ele>205.59</ele>
        <time>2018-09-02T07:45:45.999Z</time>
      </trkpt>
      <trkpt lat="46.57559" lon="0.2161">
        <ele>205.39</ele>
        <time>2018-09-02T07:45:47.999Z</time>
      </trkpt>
      <trkpt lat="46.57549" lon="0.21612">
        <ele>205.16</ele>
        <time>2018-09-02T07:45:49.999Z</time>
      </trkpt>
      <trkpt lat="46.57537" lon="0.21612">
        <ele>205.15</ele>
        <time>2018-09-02T07:45:51.999Z</time>
      </trkpt>
      <trkpt lat="46.57526" lon="0.21612">
        <ele>204.91</ele>
        <time>2018-09-02T07:45:53.999Z</time>
      </trkpt>
      <trkpt lat="46.57514" lon="0.21608">
        <ele>205.14</ele>
        <time>2018-09-02T07:45:55.999Z</time>
      </trkpt>
      <trkpt lat="46.57501" lon="0.21603">
        <ele>205.21</ele>
        <time>2018-09-02T07:45:57.999Z</time>
      </trkpt>
      <trkpt lat="46.57489" lon="0.21596">
        <ele>205.2</ele>
        <time>2018-09-02T07:45:59.999Z</time>
      </trkpt>
      <trkpt lat="46.57479" lon="0.2159">
        <ele>205.45</ele>
        <time>2018-09-02T07:46:01.999Z</time>
      </trkpt>
      <trkpt lat="46.57469" lon="0.21583">
        <ele>204.99</ele>
        <time>2018-09-02T07:46:03.999Z</time>
      </trkpt>
      <trkpt lat="46.57458" lon="0.21574">
        <ele>204.5</ele>
        <time>2018-09-02T07:46:05.999Z</time>
      </trkpt>
      <trkpt lat="46.57446" lon="0.21568">
        <ele>204.1</ele>
        <time>2018-09-02T07:46:07.999Z</time>
      </trkpt>
      <trkpt lat="46.57434" lon="0.21561">
        <ele>203.29</ele>
        <time>2018-09-02T07:46:09.999Z</time>
      </trkpt>
      <trkpt lat="46.57422" lon="0.21554">
        <ele>202.78</ele>
        <time>2018-09-02T07:46:11.999Z</time>
      </trkpt>
      <trkpt lat="46.5741" lon="0.21546">
        <ele>202.3</ele>
        <time>2018-09-02T07:46:13.999Z</time>
      </trkpt>
      <trkpt lat="46.57399" lon="0.21538">
        <ele>201.69</ele>
        <time>2018-09-02T07:46:15.999Z</time>
      </trkpt>
      <trkpt lat="46.57387" lon="0.2153">
        <ele>201.51</ele>
        <time>2018-09-02T07:46:17.999Z</time>
      </trkpt>
      <trkpt lat="46.57376" lon="0.2152">
        <ele>200.87</ele>
        <time>2018-09-02T07:46:19.999Z</time>
      </trkpt>
      <trkpt lat="46.57365" lon="0.21512">
        <ele>200.16</ele>
        <time>2018-09-02T07:46:21.999Z</time>
      </trkpt>
      <trkpt lat="46.57354" lon="0.21504">
        <ele>199.34</ele>
        <time>2018-09-02T07:46:23.999Z</time>
      </trkpt>
      <trkpt lat="46.57345" lon="0.21496">
        <ele>198.54</ele>
        <time>2018-09-02T07:46:25.999Z</time>
      </trkpt>
      <trkpt lat="46.57335" lon="0.21491">
        <ele>197.87</ele>
        <time>2018-09-02T07:46:27.999Z</time>
      </trkpt>
      <trkpt lat="46.57327" lon="0.21482">
        <ele>197.22</ele>
        <time>2018-09-02T07:46:29.999Z</time>
      </trkpt>
      <trkpt lat="46.57318" lon="0.21474">
        <ele>196.98</ele>
        <time>2018-09-02T07:46:31.999Z</time>
      </trkpt>
      <trkpt lat="46.57311" lon="0.21464">
        <ele>196.84</ele>
        <time>2018-09-02T07:46:33.999Z</time>
      </trkpt>
      <trkpt lat="46.57303" lon="0.21456">
        <ele>196.82</ele>
        <time>2018-09-02T07:46:35.999Z</time>
      </trkpt>
      <trkpt lat="46.57293" lon="0.21466">
        <ele>196.79</ele>
        <time>2018-09-02T07:46:38.999Z</time>
      </trkpt>
      <trkpt lat="46.57288" lon="0.21479">
        <ele>196.67</ele>
        <time>2018-09-02T07:46:40.999Z</time>
      </trkpt>
      <trkpt lat="46.57282" lon="0.21494">
        <ele>196.47</ele>
        <time>2018-09-02T07:46:42.999Z</time>
      </trkpt>
      <trkpt lat="46.57273" lon="0.21507">
        <ele>196.48</ele>
        <time>2018-09-02T07:46:44.999Z</time>
      </trkpt>
      <trkpt lat="46.57266" lon="0.21521">
        <ele>196.52</ele>
        <time>2018-09-02T07:46:46.999Z</time>
      </trkpt>
      <trkpt lat="46.5726" lon="0.21537">
        <ele>196.4</ele>
        <time>2018-09-02T07:46:48.999Z</time>
      </trkpt>
      <trkpt lat="46.57253" lon="0.21552">
        <ele>196.36</ele>
        <time>2018-09-02T07:46:50.999Z</time>
      </trkpt>
      <trkpt lat="46.57245" lon="0.21569">
        <ele>196.2</ele>
        <time>2018-09-02T07:46:52.999Z</time>
      </trkpt>
      <trkpt lat="46.57238" lon="0.21582">
        <ele>195.93</ele>
        <time>2018-09-02T07:46:54.999Z</time>
      </trkpt>
      <trkpt lat="46.5723" lon="0.21594">
        <ele>195.66</ele>
        <time>2018-09-02T07:46:57.999Z</time>
      </trkpt>
      <trkpt lat="46.57222" lon="0.21605">
        <ele>195.38</ele>
        <time>2018-09-02T07:47:00.999Z</time>
      </trkpt>
      <trkpt lat="46.5722" lon="0.21618">
        <ele>195.35</ele>
        <time>2018-09-02T07:47:04.999Z</time>
      </trkpt>
      <trkpt lat="46.57224" lon="0.21634">
        <ele>196.37</ele>
        <time>2018-09-02T07:47:08.999Z</time>
      </trkpt>
      <trkpt lat="46.57224" lon="0.21652">
        <ele>198.26</ele>
        <time>2018-09-02T07:47:11.999Z</time>
      </trkpt>
      <trkpt lat="46.57224" lon="0.21667">
        <ele>199.85</ele>
        <time>2018-09-02T07:47:13.999Z</time>
      </trkpt>
      <trkpt lat="46.57225" lon="0.21681">
        <ele>200.75</ele>
        <time>2018-09-02T07:47:15.999Z</time>
      </trkpt>
      <trkpt lat="46.57227" lon="0.21696">
        <ele>202.1</ele>
        <time>2018-09-02T07:47:17.999Z</time>
      </trkpt>
      <trkpt lat="46.57228" lon="0.21715">
        <ele>203.33</ele>
        <time>2018-09-02T07:47:19.999Z</time>
      </trkpt>
      <trkpt lat="46.57228" lon="0.21729">
        <ele>204.61</ele>
        <time>2018-09-02T07:47:21.999Z</time>
      </trkpt>
      <trkpt lat="46.57227" lon="0.21746">
        <ele>206</ele>
        <time>2018-09-02T07:47:23.999Z</time>
      </trkpt>
      <trkpt lat="46.57226" lon="0.2177">
        <ele>207.34</ele>
        <time>2018-09-02T07:47:25.999Z</time>
      </trkpt>
      <trkpt lat="46.57224" lon="0.21791">
        <ele>207.53</ele>
        <time>2018-09-02T07:47:27.999Z</time>
      </trkpt>
      <trkpt lat="46.57224" lon="0.21815">
        <ele>205.93</ele>
        <time>2018-09-02T07:47:29.999Z</time>
      </trkpt>
      <trkpt lat="46.57222" lon="0.21831">
        <ele>204.32</ele>
        <time>2018-09-02T07:47:31.999Z</time>
      </trkpt>
      <trkpt lat="46.57222" lon="0.21849">
        <ele>204.15</ele>
        <time>2018-09-02T07:47:33.999Z</time>
      </trkpt>
      <trkpt lat="46.57219" lon="0.21864">
        <ele>202.43</ele>
        <time>2018-09-02T07:47:35.999Z</time>
      </trkpt>
      <trkpt lat="46.57216" lon="0.21882">
        <ele>202.09</ele>
        <time>2018-09-02T07:47:38.999Z</time>
      </trkpt>
      <trkpt lat="46.57214" lon="0.21899">
        <ele>200.19</ele>
        <time>2018-09-02T07:47:40.999Z</time>
      </trkpt>
      <trkpt lat="46.57212" lon="0.21914">
        <ele>199.26</ele>
        <time>2018-09-02T07:47:42.999Z</time>
      </trkpt>
      <trkpt lat="46.57211" lon="0.2193">
        <ele>199.19</ele>
        <time>2018-09-02T07:47:44.999Z</time>
      </trkpt>
      <trkpt lat="46.57207" lon="0.21945">
        <ele>198.04</ele>
        <time>2018-09-02T07:47:46.999Z</time>
      </trkpt>
      <trkpt lat="46.57203" lon="0.21963">
        <ele>196.97</ele>
        <time>2018-09-02T07:47:48.999Z</time>
      </trkpt>
      <trkpt lat="46.572" lon="0.21978">
        <ele>196.47</ele>
        <time>2018-09-02T07:47:50.999Z</time>
      </trkpt>
      <trkpt lat="46.57196" lon="0.2199">
        <ele>196.14</ele>
        <time>2018-09-02T07:47:52.999Z</time>
      </trkpt>
      <trkpt lat="46.57193" lon="0.22009">
        <ele>195.59</ele>
        <time>2018-09-02T07:47:54.999Z</time>
      </trkpt>
      <trkpt lat="46.57187" lon="0.22023">
        <ele>194.39</ele>
        <time>2018-09-02T07:47:56.999Z</time>
      </trkpt>
      <trkpt lat="46.5718" lon="0.22039">
        <ele>193.03</ele>
        <time>2018-09-02T07:47:58.999Z</time>
      </trkpt>
      <trkpt lat="46.57174" lon="0.22054">
        <ele>191.47</ele>
        <time>2018-09-02T07:48:00.999Z</time>
      </trkpt>
      <trkpt lat="46.57169" lon="0.22066">
        <ele>190.22</ele>
        <time>2018-09-02T07:48:02.999Z</time>
      </trkpt>
      <trkpt lat="46.57164" lon="0.22078">
        <ele>188.91</ele>
        <time>2018-09-02T07:48:04.999Z</time>
      </trkpt>
      <trkpt lat="46.57158" lon="0.22089">
        <ele>187.56</ele>
        <time>2018-09-02T07:48:06.999Z</time>
      </trkpt>
      <trkpt lat="46.57152" lon="0.22101">
        <ele>186.79</ele>
        <time>2018-09-02T07:48:08.999Z</time>
      </trkpt>
      <trkpt lat="46.5714" lon="0.22112">
        <ele>186.34</ele>
        <time>2018-09-02T07:48:10.999Z</time>
      </trkpt>
      <trkpt lat="46.57134" lon="0.22129">
        <ele>185.69</ele>
        <time>2018-09-02T07:48:12.999Z</time>
      </trkpt>
      <trkpt lat="46.57127" lon="0.22141">
        <ele>185.19</ele>
        <time>2018-09-02T07:48:14.999Z</time>
      </trkpt>
      <trkpt lat="46.5712" lon="0.22152">
        <ele>184.89</ele>
        <time>2018-09-02T07:48:16.999Z</time>
      </trkpt>
      <trkpt lat="46.57115" lon="0.22168">
        <ele>184.5</ele>
        <time>2018-09-02T07:48:18.999Z</time>
      </trkpt>
      <trkpt lat="46.57108" lon="0.22188">
        <ele>184.4</ele>
        <time>2018-09-02T07:48:20.999Z</time>
      </trkpt>
      <trkpt lat="46.57105" lon="0.22205">
        <ele>184.6</ele>
        <time>2018-09-02T07:48:22.999Z</time>
      </trkpt>
      <trkpt lat="46.57101" lon="0.22223">
        <ele>184.48</ele>
        <time>2018-09-02T07:48:24.999Z</time>
      </trkpt>
      <trkpt lat="46.57095" lon="0.22238">
        <ele>183.62</ele>
        <time>2018-09-02T07:48:26.999Z</time>
      </trkpt>
      <trkpt lat="46.57094" lon="0.22255">
        <ele>183.34</ele>
        <time>2018-09-02T07:48:30.999Z</time>
      </trkpt>
      <trkpt lat="46.57093" lon="0.2227">
        <ele>183.07</ele>
        <time>2018-09-02T07:48:34.999Z</time>
      </trkpt>
      <trkpt lat="46.57084" lon="0.22274">
        <ele>182.26</ele>
        <time>2018-09-02T07:48:43.999Z</time>
      </trkpt>
      <trkpt lat="46.57082" lon="0.22289">
        <ele>182.13</ele>
        <time>2018-09-02T07:48:47.999Z</time>
      </trkpt>
      <trkpt lat="46.57075" lon="0.22305">
        <ele>181.95</ele>
        <time>2018-09-02T07:48:51.999Z</time>
      </trkpt>
      <trkpt lat="46.57074" lon="0.2232">
        <ele>181.7</ele>
        <time>2018-09-02T07:48:54.999Z</time>
      </trkpt>
      <trkpt lat="46.57075" lon="0.22337">
        <ele>181.44</ele>
        <time>2018-09-02T07:48:58.999Z</time>
      </trkpt>
      <trkpt lat="46.57071" lon="0.22353">
        <ele>179.78</ele>
        <time>2018-09-02T07:49:01.999Z</time>
      </trkpt>
      <trkpt lat="46.57068" lon="0.22367">
        <ele>178.93</ele>
        <time>2018-09-02T07:49:03.999Z</time>
      </trkpt>
      <trkpt lat="46.57063" lon="0.22379">
        <ele>178.64</ele>
        <time>2018-09-02T07:49:06.999Z</time>
      </trkpt>
      <trkpt lat="46.57053" lon="0.22392">
        <ele>176</ele>
        <time>2018-09-02T07:49:09.999Z</time>
      </trkpt>
      <trkpt lat="46.57047" lon="0.22405">
        <ele>174.61</ele>
        <time>2018-09-02T07:49:12.999Z</time>
      </trkpt>
      <trkpt lat="46.57042" lon="0.22416">
        <ele>174.05</ele>
        <time>2018-09-02T07:49:17.999Z</time>
      </trkpt>
      <trkpt lat="46.57032" lon="0.22416">
        <ele>173.45</ele>
        <time>2018-09-02T07:49:22.999Z</time>
      </trkpt>
      <trkpt lat="46.57023" lon="0.2241">
        <ele>172.93</ele>
        <time>2018-09-02T07:49:26.999Z</time>
      </trkpt>
      <trkpt lat="46.57016" lon="0.22397">
        <ele>170.75</ele>
        <time>2018-09-02T07:49:56.999Z</time>
      </trkpt>
      <trkpt lat="46.57014" lon="0.22383">
        <ele>169.82</ele>
        <time>2018-09-02T07:50:00.999Z</time>
      </trkpt>
      <trkpt lat="46.57008" lon="0.22373">
        <ele>168.63</ele>
        <time>2018-09-02T07:50:06.999Z</time>
      </trkpt>
      <trkpt lat="46.57" lon="0.22381">
        <ele>168.33</ele>
        <time>2018-09-02T07:50:09.999Z</time>
      </trkpt>
      <trkpt lat="46.56993" lon="0.22396">
        <ele>168.22</ele>
        <time>2018-09-02T07:50:12.999Z</time>
      </trkpt>
      <trkpt lat="46.56988" lon="0.22409">
        <ele>168.39</ele>
        <time>2018-09-02T07:50:14.999Z</time>
      </trkpt>
      <trkpt lat="46.56984" lon="0.22427">
        <ele>168.49</ele>
        <time>2018-09-02T07:50:16.999Z</time>
      </trkpt>
      <trkpt lat="46.56982" lon="0.22444">
        <ele>168.17</ele>
        <time>2018-09-02T07:50:18.999Z</time>
      </trkpt>
      <trkpt lat="46.5698" lon="0.22458">
        <ele>168.3</ele>
        <time>2018-09-02T07:50:20.999Z</time>
      </trkpt>
      <trkpt lat="46.56978" lon="0.22474">
        <ele>168.3</ele>
        <time>2018-09-02T07:50:23.999Z</time>
      </trkpt>
      <trkpt lat="46.56976" lon="0.22488">
        <ele>168.33</ele>
        <time>2018-09-02T07:50:25.999Z</time>
      </trkpt>
      <trkpt lat="46.56974" lon="0.22502">
        <ele>167.42</ele>
        <time>2018-09-02T07:50:27.999Z</time>
      </trkpt>
      <trkpt lat="46.56973" lon="0.22516">
        <ele>165.6</ele>
        <time>2018-09-02T07:50:29.999Z</time>
      </trkpt>
      <trkpt lat="46.56972" lon="0.22531">
        <ele>164.63</ele>
        <time>2018-09-02T07:50:31.999Z</time>
      </trkpt>
      <trkpt lat="46.56972" lon="0.22546">
        <ele>163.12</ele>
        <time>2018-09-02T07:50:33.999Z</time>
      </trkpt>
      <trkpt lat="46.56973" lon="0.22562">
        <ele>161.77</ele>
        <time>2018-09-02T07:50:35.999Z</time>
      </trkpt>
      <trkpt lat="46.56973" lon="0.22577">
        <ele>161.65</ele>
        <time>2018-09-02T07:50:37.999Z</time>
      </trkpt>
      <trkpt lat="46.56973" lon="0.22592">
        <ele>161.53</ele>
        <time>2018-09-02T07:50:39.999Z</time>
      </trkpt>
      <trkpt lat="46.56975" lon="0.22608">
        <ele>160.57</ele>
        <time>2018-09-02T07:50:41.999Z</time>
      </trkpt>
      <trkpt lat="46.56978" lon="0.22623">
        <ele>160.04</ele>
        <time>2018-09-02T07:50:43.999Z</time>
      </trkpt>
      <trkpt lat="46.56982" lon="0.22635">
        <ele>159.97</ele>
        <time>2018-09-02T07:50:45.999Z</time>
      </trkpt>
      <trkpt lat="46.56987" lon="0.22647">
        <ele>160.02</ele>
        <time>2018-09-02T07:50:47.999Z</time>
      </trkpt>
      <trkpt lat="46.56994" lon="0.22661">
        <ele>160.7</ele>
        <time>2018-09-02T07:50:49.999Z</time>
      </trkpt>
      <trkpt lat="46.57" lon="0.22676">
        <ele>160.95</ele>
        <time>2018-09-02T07:50:51.999Z</time>
      </trkpt>
      <trkpt lat="46.57007" lon="0.22687">
        <ele>161.11</ele>
        <time>2018-09-02T07:50:54.999Z</time>
      </trkpt>
      <trkpt lat="46.57016" lon="0.22695">
        <ele>161.43</ele>
        <time>2018-09-02T07:50:57.999Z</time>
      </trkpt>
      <trkpt lat="46.57026" lon="0.22704">
        <ele>161.81</ele>
        <time>2018-09-02T07:51:00.999Z</time>
      </trkpt>
      <trkpt lat="46.57036" lon="0.22711">
        <ele>162.31</ele>
        <time>2018-09-02T07:51:04.999Z</time>
      </trkpt>
      <trkpt lat="46.57044" lon="0.22717">
        <ele>162.76</ele>
        <time>2018-09-02T07:51:07.999Z</time>
      </trkpt>
      <trkpt lat="46.57054" lon="0.22725">
        <ele>163.43</ele>
        <time>2018-09-02T07:51:11.999Z</time>
      </trkpt>
      <trkpt lat="46.57063" lon="0.22731">
        <ele>164.14</ele>
        <time>2018-09-02T07:51:15.999Z</time>
      </trkpt>
      <trkpt lat="46.57072" lon="0.22742">
        <ele>164.92</ele>
        <time>2018-09-02T07:51:19.999Z</time>
      </trkpt>
      <trkpt lat="46.5708" lon="0.2275">
        <ele>165.51</ele>
        <time>2018-09-02T07:51:22.999Z</time>
      </trkpt>
      <trkpt lat="46.57088" lon="0.22761">
        <ele>166.2</ele>
        <time>2018-09-02T07:51:26.999Z</time>
      </trkpt>
      <trkpt lat="46.57098" lon="0.22768">
        <ele>166.75</ele>
        <time>2018-09-02T07:51:30.999Z</time>
      </trkpt>
      <trkpt lat="46.57106" lon="0.2277">
        <ele>166.91</ele>
        <time>2018-09-02T07:51:34.999Z</time>
      </trkpt>
      <trkpt lat="46.57117" lon="0.2277">
        <ele>166.82</ele>
        <time>2018-09-02T07:51:38.999Z</time>
      </trkpt>
      <trkpt lat="46.57127" lon="0.22768">
        <ele>166.68</ele>
        <time>2018-09-02T07:51:43.999Z</time>
      </trkpt>
      <trkpt lat="46.57138" lon="0.22767">
        <ele>166.78</ele>
        <time>2018-09-02T07:51:47.999Z</time>
      </trkpt>
      <trkpt lat="46.57146" lon="0.22774">
        <ele>167.19</ele>
        <time>2018-09-02T07:51:51.999Z</time>
      </trkpt>
      <trkpt lat="46.57148" lon="0.22793">
        <ele>167.67</ele>
        <time>2018-09-02T07:51:54.999Z</time>
      </trkpt>
      <trkpt lat="46.57145" lon="0.22808">
        <ele>167.89</ele>
        <time>2018-09-02T07:51:56.999Z</time>
      </trkpt>
      <trkpt lat="46.57145" lon="0.22822">
        <ele>168.33</ele>
        <time>2018-09-02T07:52:02.999Z</time>
      </trkpt>
      <trkpt lat="46.57149" lon="0.22835">
        <ele>169.61</ele>
        <time>2018-09-02T07:52:12.999Z</time>
      </trkpt>
      <trkpt lat="46.57148" lon="0.22849">
        <ele>170.11</ele>
        <time>2018-09-02T07:52:15.999Z</time>
      </trkpt>
      <trkpt lat="46.57147" lon="0.22866">
        <ele>170.3</ele>
        <time>2018-09-02T07:52:19.999Z</time>
      </trkpt>
      <trkpt lat="46.57145" lon="0.2288">
        <ele>170.14</ele>
        <time>2018-09-02T07:52:21.999Z</time>
      </trkpt>
      <trkpt lat="46.57142" lon="0.22895">
        <ele>170.08</ele>
        <time>2018-09-02T07:52:24.999Z</time>
      </trkpt>
      <trkpt lat="46.57144" lon="0.22911">
        <ele>169.95</ele>
        <time>2018-09-02T07:52:27.999Z</time>
      </trkpt>
      <trkpt lat="46.57143" lon="0.22929">
        <ele>169.47</ele>
        <time>2018-09-02T07:52:31.999Z</time>
      </trkpt>
      <trkpt lat="46.57145" lon="0.22946">
        <ele>168.77</ele>
        <time>2018-09-02T07:52:35.999Z</time>
      </trkpt>
      <trkpt lat="46.57154" lon="0.22954">
        <ele>168.02</ele>
        <time>2018-09-02T07:52:39.999Z</time>
      </trkpt>
      <trkpt lat="46.57164" lon="0.22963">
        <ele>165.44</ele>
        <time>2018-09-02T07:52:42.999Z</time>
      </trkpt>
      <trkpt lat="46.57171" lon="0.2297">
        <ele>165.25</ele>
        <time>2018-09-02T07:52:44.999Z</time>
      </trkpt>
      <trkpt lat="46.57182" lon="0.22976">
        <ele>165.02</ele>
        <time>2018-09-02T07:52:47.999Z</time>
      </trkpt>
      <trkpt lat="46.57192" lon="0.2298">
        <ele>164.99</ele>
        <time>2018-09-02T07:52:50.999Z</time>
      </trkpt>
      <trkpt lat="46.57203" lon="0.22985">
        <ele>165.04</ele>
        <time>2018-09-02T07:52:53.999Z</time>
      </trkpt>
      <trkpt lat="46.57214" lon="0.2299">
        <ele>165.22</ele>
        <time>2018-09-02T07:52:56.999Z</time>
      </trkpt>
      <trkpt lat="46.57224" lon="0.22998">
        <ele>166.49</ele>
        <time>2018-09-02T07:52:58.999Z</time>
      </trkpt>
      <trkpt lat="46.57236" lon="0.23008">
        <ele>167.48</ele>
        <time>2018-09-02T07:53:01.999Z</time>
      </trkpt>
      <trkpt lat="46.57243" lon="0.23016">
        <ele>168.39</ele>
        <time>2018-09-02T07:53:03.999Z</time>
      </trkpt>
      <trkpt lat="46.57251" lon="0.23024">
        <ele>169.88</ele>
        <time>2018-09-02T07:53:05.999Z</time>
      </trkpt>
      <trkpt lat="46.57259" lon="0.23032">
        <ele>170.91</ele>
        <time>2018-09-02T07:53:07.999Z</time>
      </trkpt>
      <trkpt lat="46.57267" lon="0.23039">
        <ele>171.05</ele>
        <time>2018-09-02T07:53:09.999Z</time>
      </trkpt>
      <trkpt lat="46.57278" lon="0.23048">
        <ele>171.23</ele>
        <time>2018-09-02T07:53:12.999Z</time>
      </trkpt>
      <trkpt lat="46.57287" lon="0.23052">
        <ele>171.4</ele>
        <time>2018-09-02T07:53:14.999Z</time>
      </trkpt>
      <trkpt lat="46.57299" lon="0.23061">
        <ele>171.67</ele>
        <time>2018-09-02T07:53:17.999Z</time>
      </trkpt>
      <trkpt lat="46.57307" lon="0.23068">
        <ele>171.85</ele>
        <time>2018-09-02T07:53:19.999Z</time>
      </trkpt>
      <trkpt lat="46.57316" lon="0.23075">
        <ele>172.01</ele>
        <time>2018-09-02T07:53:21.999Z</time>
      </trkpt>
      <trkpt lat="46.57325" lon="0.23084">
        <ele>172.28</ele>
        <time>2018-09-02T07:53:24.999Z</time>
      </trkpt>
      <trkpt lat="46.57334" lon="0.23093">
        <ele>173</ele>
        <time>2018-09-02T07:53:26.999Z</time>
      </trkpt>
      <trkpt lat="46.57346" lon="0.23101">
        <ele>172.94</ele>
        <time>2018-09-02T07:53:28.999Z</time>
      </trkpt>
      <trkpt lat="46.57356" lon="0.23105">
        <ele>172.36</ele>
        <time>2018-09-02T07:53:31.999Z</time>
      </trkpt>
      <trkpt lat="46.57366" lon="0.23102">
        <ele>171.54</ele>
        <time>2018-09-02T07:53:34.999Z</time>
      </trkpt>
      <trkpt lat="46.57374" lon="0.23096">
        <ele>170.58</ele>
        <time>2018-09-02T07:53:38.999Z</time>
      </trkpt>
      <trkpt lat="46.57381" lon="0.23108">
        <ele>169.7</ele>
        <time>2018-09-02T07:53:45.999Z</time>
      </trkpt>
      <trkpt lat="46.57385" lon="0.23124">
        <ele>169.41</ele>
        <time>2018-09-02T07:53:48.999Z</time>
      </trkpt>
      <trkpt lat="46.57391" lon="0.23135">
        <ele>169.34</ele>
        <time>2018-09-02T07:53:50.999Z</time>
      </trkpt>
      <trkpt lat="46.57398" lon="0.23146">
        <ele>169.3</ele>
        <time>2018-09-02T07:53:52.999Z</time>
      </trkpt>
      <trkpt lat="46.57404" lon="0.23159">
        <ele>169.06</ele>
        <time>2018-09-02T07:53:54.999Z</time>
      </trkpt>
      <trkpt lat="46.57412" lon="0.23172">
        <ele>168.79</ele>
        <time>2018-09-02T07:53:56.999Z</time>
      </trkpt>
      <trkpt lat="46.57418" lon="0.23185">
        <ele>168.73</ele>
        <time>2018-09-02T07:53:58.999Z</time>
      </trkpt>
      <trkpt lat="46.57425" lon="0.23198">
        <ele>168.42</ele>
        <time>2018-09-02T07:54:00.999Z</time>
      </trkpt>
      <trkpt lat="46.57431" lon="0.2321">
        <ele>168.32</ele>
        <time>2018-09-02T07:54:02.999Z</time>
      </trkpt>
      <trkpt lat="46.57438" lon="0.23223">
        <ele>167.64</ele>
        <time>2018-09-02T07:54:04.999Z</time>
      </trkpt>
      <trkpt lat="46.57443" lon="0.23236">
        <ele>167.18</ele>
        <time>2018-09-02T07:54:06.999Z</time>
      </trkpt>
      <trkpt lat="46.57449" lon="0.2325">
        <ele>166.5</ele>
        <time>2018-09-02T07:54:08.999Z</time>
      </trkpt>
      <trkpt lat="46.57454" lon="0.23262">
        <ele>166.55</ele>
        <time>2018-09-02T07:54:10.999Z</time>
      </trkpt>
      <trkpt lat="46.57459" lon="0.23276">
        <ele>166.6</ele>
        <time>2018-09-02T07:54:12.999Z</time>
      </trkpt>
      <trkpt lat="46.57464" lon="0.23294">
        <ele>165.7</ele>
        <time>2018-09-02T07:54:14.999Z</time>
      </trkpt>
      <trkpt lat="46.57469" lon="0.23312">
        <ele>164.8</ele>
        <time>2018-09-02T07:54:16.999Z</time>
      </trkpt>
      <trkpt lat="46.57476" lon="0.23331">
        <ele>162.62</ele>
        <time>2018-09-02T07:54:18.999Z</time>
      </trkpt>
      <trkpt lat="46.57481" lon="0.23347">
        <ele>161.03</ele>
        <time>2018-09-02T07:54:20.999Z</time>
      </trkpt>
      <trkpt lat="46.57487" lon="0.23364">
        <ele>159.36</ele>
        <time>2018-09-02T07:54:22.999Z</time>
      </trkpt>
      <trkpt lat="46.57491" lon="0.23379">
        <ele>158.57</ele>
        <time>2018-09-02T07:54:24.999Z</time>
      </trkpt>
      <trkpt lat="46.57494" lon="0.23395">
        <ele>158.17</ele>
        <time>2018-09-02T07:54:26.999Z</time>
      </trkpt>
      <trkpt lat="46.57497" lon="0.2341">
        <ele>157.9</ele>
        <time>2018-09-02T07:54:28.999Z</time>
      </trkpt>
      <trkpt lat="46.575" lon="0.23423">
        <ele>158</ele>
        <time>2018-09-02T07:54:30.999Z</time>
      </trkpt>
      <trkpt lat="46.57503" lon="0.23436">
        <ele>158.13</ele>
        <time>2018-09-02T07:54:32.999Z</time>
      </trkpt>
      <trkpt lat="46.57506" lon="0.23453">
        <ele>158.14</ele>
        <time>2018-09-02T07:54:35.999Z</time>
      </trkpt>
      <trkpt lat="46.57508" lon="0.23467">
        <ele>157.96</ele>
        <time>2018-09-02T07:54:37.999Z</time>
      </trkpt>
      <trkpt lat="46.5751" lon="0.23481">
        <ele>157.88</ele>
        <time>2018-09-02T07:54:39.999Z</time>
      </trkpt>
      <trkpt lat="46.57513" lon="0.23498">
        <ele>156.8</ele>
        <time>2018-09-02T07:54:41.999Z</time>
      </trkpt>
      <trkpt lat="46.57515" lon="0.23516">
        <ele>155.81</ele>
        <time>2018-09-02T07:54:43.999Z</time>
      </trkpt>
      <trkpt lat="46.57517" lon="0.23533">
        <ele>155.04</ele>
        <time>2018-09-02T07:54:45.999Z</time>
      </trkpt>
      <trkpt lat="46.57518" lon="0.23547">
        <ele>154.69</ele>
        <time>2018-09-02T07:54:47.999Z</time>
      </trkpt>
      <trkpt lat="46.57519" lon="0.23561">
        <ele>154.76</ele>
        <time>2018-09-02T07:54:50.999Z</time>
      </trkpt>
      <trkpt lat="46.5752" lon="0.23577">
        <ele>155.48</ele>
        <time>2018-09-02T07:54:52.999Z</time>
      </trkpt>
      <trkpt lat="46.57521" lon="0.23594">
        <ele>155.66</ele>
        <time>2018-09-02T07:54:54.999Z</time>
      </trkpt>
      <trkpt lat="46.57523" lon="0.23614">
        <ele>155.32</ele>
        <time>2018-09-02T07:54:56.999Z</time>
      </trkpt>
      <trkpt lat="46.57524" lon="0.23635">
        <ele>155.5</ele>
        <time>2018-09-02T07:54:58.999Z</time>
      </trkpt>
      <trkpt lat="46.57525" lon="0.23658">
        <ele>155.96</ele>
        <time>2018-09-02T07:55:00.999Z</time>
      </trkpt>
      <trkpt lat="46.57526" lon="0.23679">
        <ele>156.19</ele>
        <time>2018-09-02T07:55:02.999Z</time>
      </trkpt>
      <trkpt lat="46.57526" lon="0.23699">
        <ele>156.15</ele>
        <time>2018-09-02T07:55:04.999Z</time>
      </trkpt>
      <trkpt lat="46.57526" lon="0.23716">
        <ele>155.71</ele>
        <time>2018-09-02T07:55:06.999Z</time>
      </trkpt>
      <trkpt lat="46.57525" lon="0.23737">
        <ele>154.91</ele>
        <time>2018-09-02T07:55:08.999Z</time>
      </trkpt>
      <trkpt lat="46.57523" lon="0.23751">
        <ele>154.49</ele>
        <time>2018-09-02T07:55:10.999Z</time>
      </trkpt>
      <trkpt lat="46.5752" lon="0.23769">
        <ele>154.45</ele>
        <time>2018-09-02T07:55:12.999Z</time>
      </trkpt>
      <trkpt lat="46.57518" lon="0.2379">
        <ele>154.26</ele>
        <time>2018-09-02T07:55:14.999Z</time>
      </trkpt>
      <trkpt lat="46.57515" lon="0.2381">
        <ele>154.48</ele>
        <time>2018-09-02T07:55:16.999Z</time>
      </trkpt>
      <trkpt lat="46.57511" lon="0.23834">
        <ele>154.97</ele>
        <time>2018-09-02T07:55:18.999Z</time>
      </trkpt>
      <trkpt lat="46.57507" lon="0.23857">
        <ele>154.88</ele>
        <time>2018-09-02T07:55:20.999Z</time>
      </trkpt>
      <trkpt lat="46.57497" lon="0.23878">
        <ele>153.69</ele>
        <time>2018-09-02T07:55:22.999Z</time>
      </trkpt>
      <trkpt lat="46.57489" lon="0.23897">
        <ele>151.52</ele>
        <time>2018-09-02T07:55:24.999Z</time>
      </trkpt>
      <trkpt lat="46.57478" lon="0.23916">
        <ele>150.6</ele>
        <time>2018-09-02T07:55:26.999Z</time>
      </trkpt>
      <trkpt lat="46.57467" lon="0.23932">
        <ele>149.25</ele>
        <time>2018-09-02T07:55:28.999Z</time>
      </trkpt>
      <trkpt lat="46.57455" lon="0.23947">
        <ele>147.51</ele>
        <time>2018-09-02T07:55:30.999Z</time>
      </trkpt>
      <trkpt lat="46.57444" lon="0.23962">
        <ele>146.58</ele>
        <time>2018-09-02T07:55:32.999Z</time>
      </trkpt>
      <trkpt lat="46.57434" lon="0.23976">
        <ele>145.79</ele>
        <time>2018-09-02T07:55:34.999Z</time>
      </trkpt>
      <trkpt lat="46.57425" lon="0.23991">
        <ele>145.02</ele>
        <time>2018-09-02T07:55:36.999Z</time>
      </trkpt>
      <trkpt lat="46.57414" lon="0.24003">
        <ele>144.72</ele>
        <time>2018-09-02T07:55:38.999Z</time>
      </trkpt>
      <trkpt lat="46.57404" lon="0.24015">
        <ele>143.39</ele>
        <time>2018-09-02T07:55:40.999Z</time>
      </trkpt>
      <trkpt lat="46.57394" lon="0.24027">
        <ele>142.64</ele>
        <time>2018-09-02T07:55:42.999Z</time>
      </trkpt>
      <trkpt lat="46.57385" lon="0.24035">
        <ele>142.35</ele>
        <time>2018-09-02T07:55:44.999Z</time>
      </trkpt>
      <trkpt lat="46.57376" lon="0.24044">
        <ele>141.63</ele>
        <time>2018-09-02T07:55:46.999Z</time>
      </trkpt>
      <trkpt lat="46.57366" lon="0.24052">
        <ele>141.3</ele>
        <time>2018-09-02T07:55:48.999Z</time>
      </trkpt>
      <trkpt lat="46.57357" lon="0.24058">
        <ele>140.75</ele>
        <time>2018-09-02T07:55:50.999Z</time>
      </trkpt>
      <trkpt lat="46.57349" lon="0.24065">
        <ele>140.93</ele>
        <time>2018-09-02T07:55:52.999Z</time>
      </trkpt>
      <trkpt lat="46.57338" lon="0.24073">
        <ele>140.92</ele>
        <time>2018-09-02T07:55:55.999Z</time>
      </trkpt>
      <trkpt lat="46.57328" lon="0.24079">
        <ele>140.04</ele>
        <time>2018-09-02T07:55:57.999Z</time>
      </trkpt>
      <trkpt lat="46.57317" lon="0.24084">
        <ele>139.37</ele>
        <time>2018-09-02T07:55:59.999Z</time>
      </trkpt>
      <trkpt lat="46.57305" lon="0.24084">
        <ele>139.1</ele>
        <time>2018-09-02T07:56:01.999Z</time>
      </trkpt>
      <trkpt lat="46.57296" lon="0.24081">
        <ele>138.83</ele>
        <time>2018-09-02T07:56:06.999Z</time>
      </trkpt>
      <trkpt lat="46.57297" lon="0.24068">
        <ele>138.68</ele>
        <time>2018-09-02T07:56:12.999Z</time>
      </trkpt>
      <trkpt lat="46.57293" lon="0.24054">
        <ele>138.7</ele>
        <time>2018-09-02T07:56:16.999Z</time>
      </trkpt>
      <trkpt lat="46.57288" lon="0.24043">
        <ele>138.82</ele>
        <time>2018-09-02T07:56:18.999Z</time>
      </trkpt>
      <trkpt lat="46.57283" lon="0.24028">
        <ele>140.66</ele>
        <time>2018-09-02T07:56:20.999Z</time>
      </trkpt>
      <trkpt lat="46.57278" lon="0.24012">
        <ele>142.46</ele>
        <time>2018-09-02T07:56:22.999Z</time>
      </trkpt>
      <trkpt lat="46.57273" lon="0.23999">
        <ele>143.92</ele>
        <time>2018-09-02T07:56:24.999Z</time>
      </trkpt>
      <trkpt lat="46.57266" lon="0.23986">
        <ele>145.2</ele>
        <time>2018-09-02T07:56:26.999Z</time>
      </trkpt>
      <trkpt lat="46.57261" lon="0.23974">
        <ele>146.15</ele>
        <time>2018-09-02T07:56:28.999Z</time>
      </trkpt>
      <trkpt lat="46.57258" lon="0.23961">
        <ele>146.92</ele>
        <time>2018-09-02T07:56:30.999Z</time>
      </trkpt>
      <trkpt lat="46.57248" lon="0.23953">
        <ele>147.87</ele>
        <time>2018-09-02T07:56:33.999Z</time>
      </trkpt>
      <trkpt lat="46.57235" lon="0.23952">
        <ele>148.6</ele>
        <time>2018-09-02T07:56:36.999Z</time>
      </trkpt>
      <trkpt lat="46.57223" lon="0.2395">
        <ele>148.76</ele>
        <time>2018-09-02T07:56:39.999Z</time>
      </trkpt>
      <trkpt lat="46.57213" lon="0.23949">
        <ele>149</ele>
        <time>2018-09-02T07:56:43.999Z</time>
      </trkpt>
      <trkpt lat="46.57201" lon="0.23948">
        <ele>149.31</ele>
        <time>2018-09-02T07:56:47.999Z</time>
      </trkpt>
      <trkpt lat="46.57192" lon="0.23947">
        <ele>150.07</ele>
        <time>2018-09-02T07:56:53.999Z</time>
      </trkpt>
      <trkpt lat="46.57182" lon="0.23948">
        <ele>151.26</ele>
        <time>2018-09-02T07:57:00.999Z</time>
      </trkpt>
      <trkpt lat="46.57174" lon="0.23937">
        <ele>151.94</ele>
        <time>2018-09-02T07:57:04.999Z</time>
      </trkpt>
      <trkpt lat="46.57166" lon="0.23929">
        <ele>152.37</ele>
        <time>2018-09-02T07:57:07.999Z</time>
      </trkpt>
      <trkpt lat="46.57159" lon="0.23921">
        <ele>152.99</ele>
        <time>2018-09-02T07:57:11.999Z</time>
      </trkpt>
      <trkpt lat="46.57151" lon="0.2391">
        <ele>153.77</ele>
        <time>2018-09-02T07:57:15.999Z</time>
      </trkpt>
      <trkpt lat="46.57145" lon="0.23901">
        <ele>154.44</ele>
        <time>2018-09-02T07:57:18.999Z</time>
      </trkpt>
      <trkpt lat="46.57138" lon="0.23892">
        <ele>155.43</ele>
        <time>2018-09-02T07:57:22.999Z</time>
      </trkpt>
      <trkpt lat="46.57129" lon="0.23884">
        <ele>156.17</ele>
        <time>2018-09-02T07:57:25.999Z</time>
      </trkpt>
      <trkpt lat="46.57119" lon="0.23874">
        <ele>157.29</ele>
        <time>2018-09-02T07:57:29.999Z</time>
      </trkpt>
      <trkpt lat="46.5711" lon="0.23865">
        <ele>158.16</ele>
        <time>2018-09-02T07:57:32.999Z</time>
      </trkpt>
      <trkpt lat="46.57102" lon="0.23858">
        <ele>158.74</ele>
        <time>2018-09-02T07:57:34.999Z</time>
      </trkpt>
      <trkpt lat="46.57093" lon="0.23851">
        <ele>159.6</ele>
        <time>2018-09-02T07:57:37.999Z</time>
      </trkpt>
      <trkpt lat="46.57085" lon="0.23843">
        <ele>160.45</ele>
        <time>2018-09-02T07:57:40.999Z</time>
      </trkpt>
      <trkpt lat="46.57075" lon="0.23834">
        <ele>161.32</ele>
        <time>2018-09-02T07:57:43.999Z</time>
      </trkpt>
      <trkpt lat="46.57066" lon="0.23826">
        <ele>162.04</ele>
        <time>2018-09-02T07:57:46.999Z</time>
      </trkpt>
      <trkpt lat="46.57056" lon="0.2382">
        <ele>163.1</ele>
        <time>2018-09-02T07:57:50.999Z</time>
      </trkpt>
      <trkpt lat="46.57047" lon="0.23815">
        <ele>164.16</ele>
        <time>2018-09-02T07:57:54.999Z</time>
      </trkpt>
      <trkpt lat="46.57037" lon="0.2381">
        <ele>165.42</ele>
        <time>2018-09-02T07:57:59.999Z</time>
      </trkpt>
      <trkpt lat="46.57027" lon="0.2381">
        <ele>166.07</ele>
        <time>2018-09-02T07:58:02.999Z</time>
      </trkpt>
      <trkpt lat="46.57017" lon="0.23808">
        <ele>166.87</ele>
        <time>2018-09-02T07:58:06.999Z</time>
      </trkpt>
      <trkpt lat="46.57005" lon="0.23807">
        <ele>167.67</ele>
        <time>2018-09-02T07:58:11.999Z</time>
      </trkpt>
      <trkpt lat="46.56996" lon="0.23809">
        <ele>168.9</ele>
        <time>2018-09-02T07:58:18.999Z</time>
      </trkpt>
      <trkpt lat="46.56986" lon="0.2381">
        <ele>170.14</ele>
        <time>2018-09-02T07:58:24.999Z</time>
      </trkpt>
      <trkpt lat="46.56976" lon="0.23813">
        <ele>171.69</ele>
        <time>2018-09-02T07:58:31.999Z</time>
      </trkpt>
      <trkpt lat="46.56968" lon="0.2382">
        <ele>173.2</ele>
        <time>2018-09-02T07:58:39.999Z</time>
      </trkpt>
      <trkpt lat="46.5696" lon="0.2383">
        <ele>174.38</ele>
        <time>2018-09-02T07:58:46.999Z</time>
      </trkpt>
      <trkpt lat="46.56953" lon="0.23838">
        <ele>175.63</ele>
        <time>2018-09-02T07:58:53.999Z</time>
      </trkpt>
      <trkpt lat="46.56946" lon="0.23848">
        <ele>176.8</ele>
        <time>2018-09-02T07:59:01.999Z</time>
      </trkpt>
      <trkpt lat="46.56939" lon="0.23858">
        <ele>178.07</ele>
        <time>2018-09-02T07:59:11.999Z</time>
      </trkpt>
      <trkpt lat="46.56932" lon="0.23867">
        <ele>179.09</ele>
        <time>2018-09-02T07:59:20.999Z</time>
      </trkpt>
      <trkpt lat="46.56924" lon="0.2386">
        <ele>180.82</ele>
        <time>2018-09-02T07:59:32.999Z</time>
      </trkpt>
      <trkpt lat="46.5692" lon="0.23846">
        <ele>181.69</ele>
        <time>2018-09-02T07:59:37.999Z</time>
      </trkpt>
      <trkpt lat="46.56919" lon="0.23833">
        <ele>182.46</ele>
        <time>2018-09-02T07:59:41.999Z</time>
      </trkpt>
      <trkpt lat="46.56916" lon="0.2382">
        <ele>183.33</ele>
        <time>2018-09-02T07:59:46.999Z</time>
      </trkpt>
      <trkpt lat="46.56912" lon="0.23808">
        <ele>183.97</ele>
        <time>2018-09-02T07:59:51.999Z</time>
      </trkpt>
      <trkpt lat="46.56908" lon="0.23795">
        <ele>184.43</ele>
        <time>2018-09-02T07:59:55.999Z</time>
      </trkpt>
      <trkpt lat="46.56907" lon="0.23779">
        <ele>184.98</ele>
        <time>2018-09-02T08:00:00.999Z</time>
      </trkpt>
      <trkpt lat="46.56904" lon="0.23767">
        <ele>185.37</ele>
        <time>2018-09-02T08:00:04.999Z</time>
      </trkpt>
      <trkpt lat="46.56896" lon="0.23757">
        <ele>185.8</ele>
        <time>2018-09-02T08:00:09.999Z</time>
      </trkpt>
      <trkpt lat="46.56888" lon="0.23749">
        <ele>186.11</ele>
        <time>2018-09-02T08:00:13.999Z</time>
      </trkpt>
      <trkpt lat="46.5688" lon="0.2374">
        <ele>186.47</ele>
        <time>2018-09-02T08:00:17.999Z</time>
      </trkpt>
      <trkpt lat="46.56871" lon="0.2373">
        <ele>187.03</ele>
        <time>2018-09-02T08:00:22.999Z</time>
      </trkpt>
      <trkpt lat="46.56863" lon="0.2372">
        <ele>187.48</ele>
        <time>2018-09-02T08:00:26.999Z</time>
      </trkpt>
      <trkpt lat="46.56856" lon="0.23711">
        <ele>187.97</ele>
        <time>2018-09-02T08:00:30.999Z</time>
      </trkpt>
      <trkpt lat="46.56849" lon="0.23702">
        <ele>188.38</ele>
        <time>2018-09-02T08:00:33.999Z</time>
      </trkpt>
      <trkpt lat="46.56842" lon="0.23693">
        <ele>188.83</ele>
        <time>2018-09-02T08:00:36.999Z</time>
      </trkpt>
      <trkpt lat="46.56834" lon="0.23685">
        <ele>189.27</ele>
        <time>2018-09-02T08:00:39.999Z</time>
      </trkpt>
      <trkpt lat="46.56825" lon="0.2368">
        <ele>189.86</ele>
        <time>2018-09-02T08:00:43.999Z</time>
      </trkpt>
      <trkpt lat="46.56816" lon="0.23679">
        <ele>190.51</ele>
        <time>2018-09-02T08:00:47.999Z</time>
      </trkpt>
      <trkpt lat="46.56805" lon="0.23677">
        <ele>191.3</ele>
        <time>2018-09-02T08:00:51.999Z</time>
      </trkpt>
      <trkpt lat="46.56795" lon="0.23675">
        <ele>191.94</ele>
        <time>2018-09-02T08:00:54.999Z</time>
      </trkpt>
      <trkpt lat="46.56784" lon="0.23671">
        <ele>192.62</ele>
        <time>2018-09-02T08:00:57.999Z</time>
      </trkpt>
      <trkpt lat="46.56775" lon="0.23668">
        <ele>193.32</ele>
        <time>2018-09-02T08:01:00.999Z</time>
      </trkpt>
      <trkpt lat="46.56764" lon="0.23666">
        <ele>193.94</ele>
        <time>2018-09-02T08:01:03.999Z</time>
      </trkpt>
      <trkpt lat="46.5675" lon="0.23666">
        <ele>194.49</ele>
        <time>2018-09-02T08:01:06.999Z</time>
      </trkpt>
      <trkpt lat="46.56741" lon="0.23666">
        <ele>194.81</ele>
        <time>2018-09-02T08:01:08.999Z</time>
      </trkpt>
      <trkpt lat="46.56728" lon="0.23665">
        <ele>197.43</ele>
        <time>2018-09-02T08:01:11.999Z</time>
      </trkpt>
      <trkpt lat="46.56718" lon="0.23665">
        <ele>198.59</ele>
        <time>2018-09-02T08:01:13.999Z</time>
      </trkpt>
      <trkpt lat="46.56704" lon="0.23664">
        <ele>199.04</ele>
        <time>2018-09-02T08:01:16.999Z</time>
      </trkpt>
      <trkpt lat="46.56695" lon="0.2366">
        <ele>199.15</ele>
        <time>2018-09-02T08:01:18.999Z</time>
      </trkpt>
      <trkpt lat="46.56685" lon="0.23653">
        <ele>199.23</ele>
        <time>2018-09-02T08:01:21.999Z</time>
      </trkpt>
      <trkpt lat="46.56677" lon="0.23645">
        <ele>199.64</ele>
        <time>2018-09-02T08:01:23.999Z</time>
      </trkpt>
      <trkpt lat="46.56668" lon="0.23635">
        <ele>200.15</ele>
        <time>2018-09-02T08:01:25.999Z</time>
      </trkpt>
      <trkpt lat="46.5666" lon="0.23626">
        <ele>200.2</ele>
        <time>2018-09-02T08:01:27.999Z</time>
      </trkpt>
      <trkpt lat="46.56652" lon="0.23616">
        <ele>200.18</ele>
        <time>2018-09-02T08:01:29.999Z</time>
      </trkpt>
      <trkpt lat="46.56645" lon="0.23604">
        <ele>199.73</ele>
        <time>2018-09-02T08:01:31.999Z</time>
      </trkpt>
      <trkpt lat="46.56636" lon="0.2359">
        <ele>199.66</ele>
        <time>2018-09-02T08:01:33.999Z</time>
      </trkpt>
      <trkpt lat="46.5663" lon="0.23577">
        <ele>199.48</ele>
        <time>2018-09-02T08:01:35.999Z</time>
      </trkpt>
      <trkpt lat="46.56625" lon="0.23566">
        <ele>198.95</ele>
        <time>2018-09-02T08:01:37.999Z</time>
      </trkpt>
      <trkpt lat="46.56619" lon="0.23557">
        <ele>198.92</ele>
        <time>2018-09-02T08:01:39.999Z</time>
      </trkpt>
      <trkpt lat="46.56612" lon="0.23544">
        <ele>198.88</ele>
        <time>2018-09-02T08:01:42.999Z</time>
      </trkpt>
      <trkpt lat="46.56605" lon="0.23532">
        <ele>198.91</ele>
        <time>2018-09-02T08:01:45.999Z</time>
      </trkpt>
      <trkpt lat="46.56598" lon="0.23518">
        <ele>199.31</ele>
        <time>2018-09-02T08:01:48.999Z</time>
      </trkpt>
      <trkpt lat="46.56593" lon="0.23503">
        <ele>200.05</ele>
        <time>2018-09-02T08:01:50.999Z</time>
      </trkpt>
      <trkpt lat="46.56591" lon="0.23486">
        <ele>201.09</ele>
        <time>2018-09-02T08:01:52.999Z</time>
      </trkpt>
      <trkpt lat="46.56589" lon="0.23472">
        <ele>201.85</ele>
        <time>2018-09-02T08:01:54.999Z</time>
      </trkpt>
      <trkpt lat="46.56587" lon="0.23458">
        <ele>202.26</ele>
        <time>2018-09-02T08:01:56.999Z</time>
      </trkpt>
      <trkpt lat="46.56586" lon="0.23443">
        <ele>202.61</ele>
        <time>2018-09-02T08:01:58.999Z</time>
      </trkpt>
      <trkpt lat="46.56585" lon="0.23429">
        <ele>202.41</ele>
        <time>2018-09-02T08:02:00.999Z</time>
      </trkpt>
      <trkpt lat="46.56583" lon="0.23412">
        <ele>202.41</ele>
        <time>2018-09-02T08:02:02.999Z</time>
      </trkpt>
      <trkpt lat="46.56581" lon="0.23395">
        <ele>202.81</ele>
        <time>2018-09-02T08:02:04.999Z</time>
      </trkpt>
      <trkpt lat="46.56579" lon="0.2338">
        <ele>202.99</ele>
        <time>2018-09-02T08:02:06.999Z</time>
      </trkpt>
      <trkpt lat="46.56578" lon="0.23364">
        <ele>202.93</ele>
        <time>2018-09-02T08:02:08.999Z</time>
      </trkpt>
      <trkpt lat="46.56575" lon="0.23348">
        <ele>202.99</ele>
        <time>2018-09-02T08:02:10.999Z</time>
      </trkpt>
      <trkpt lat="46.56572" lon="0.23333">
        <ele>203.41</ele>
        <time>2018-09-02T08:02:12.999Z</time>
      </trkpt>
      <trkpt lat="46.56569" lon="0.23318">
        <ele>203.72</ele>
        <time>2018-09-02T08:02:14.999Z</time>
      </trkpt>
      <trkpt lat="46.56566" lon="0.23302">
        <ele>204.04</ele>
        <time>2018-09-02T08:02:16.999Z</time>
      </trkpt>
      <trkpt lat="46.56562" lon="0.2329">
        <ele>204.42</ele>
        <time>2018-09-02T08:02:18.999Z</time>
      </trkpt>
      <trkpt lat="46.56556" lon="0.2328">
        <ele>204.72</ele>
        <time>2018-09-02T08:02:20.999Z</time>
      </trkpt>
      <trkpt lat="46.56547" lon="0.2327">
        <ele>204.4</ele>
        <time>2018-09-02T08:02:22.999Z</time>
      </trkpt>
      <trkpt lat="46.5654" lon="0.23261">
        <ele>204.16</ele>
        <time>2018-09-02T08:02:24.999Z</time>
      </trkpt>
      <trkpt lat="46.56533" lon="0.23253">
        <ele>203.85</ele>
        <time>2018-09-02T08:02:26.999Z</time>
      </trkpt>
      <trkpt lat="46.56524" lon="0.23244">
        <ele>203.27</ele>
        <time>2018-09-02T08:02:28.999Z</time>
      </trkpt>
      <trkpt lat="46.56515" lon="0.23237">
        <ele>202.5</ele>
        <time>2018-09-02T08:02:30.999Z</time>
      </trkpt>
      <trkpt lat="46.56506" lon="0.23231">
        <ele>201.99</ele>
        <time>2018-09-02T08:02:32.999Z</time>
      </trkpt>
      <trkpt lat="46.56496" lon="0.23225">
        <ele>201.3</ele>
        <time>2018-09-02T08:02:34.999Z</time>
      </trkpt>
      <trkpt lat="46.56487" lon="0.2322">
        <ele>200.92</ele>
        <time>2018-09-02T08:02:36.999Z</time>
      </trkpt>
      <trkpt lat="46.56477" lon="0.23215">
        <ele>200.57</ele>
        <time>2018-09-02T08:02:38.999Z</time>
      </trkpt>
      <trkpt lat="46.56466" lon="0.23212">
        <ele>200.01</ele>
        <time>2018-09-02T08:02:40.999Z</time>
      </trkpt>
      <trkpt lat="46.56456" lon="0.23211">
        <ele>199.47</ele>
        <time>2018-09-02T08:02:42.999Z</time>
      </trkpt>
      <trkpt lat="46.56447" lon="0.23211">
        <ele>198.96</ele>
        <time>2018-09-02T08:02:44.999Z</time>
      </trkpt>
      <trkpt lat="46.56436" lon="0.23212">
        <ele>198.53</ele>
        <time>2018-09-02T08:02:46.999Z</time>
      </trkpt>
      <trkpt lat="46.56426" lon="0.23214">
        <ele>198.23</ele>
        <time>2018-09-02T08:02:48.999Z</time>
      </trkpt>
      <trkpt lat="46.56416" lon="0.23215">
        <ele>197.91</ele>
        <time>2018-09-02T08:02:50.999Z</time>
      </trkpt>
      <trkpt lat="46.56406" lon="0.23216">
        <ele>197.69</ele>
        <time>2018-09-02T08:02:52.999Z</time>
      </trkpt>
      <trkpt lat="46.56397" lon="0.23217">
        <ele>197.73</ele>
        <time>2018-09-02T08:02:54.999Z</time>
      </trkpt>
      <trkpt lat="46.56386" lon="0.23216">
        <ele>197.95</ele>
        <time>2018-09-02T08:02:56.999Z</time>
      </trkpt>
      <trkpt lat="46.56376" lon="0.23214">
        <ele>197.9</ele>
        <time>2018-09-02T08:02:58.999Z</time>
      </trkpt>
      <trkpt lat="46.56363" lon="0.23212">
        <ele>197.81</ele>
        <time>2018-09-02T08:03:00.999Z</time>
      </trkpt>
      <trkpt lat="46.56352" lon="0.23208">
        <ele>197.73</ele>
        <time>2018-09-02T08:03:03.999Z</time>
      </trkpt>
      <trkpt lat="46.56342" lon="0.23205">
        <ele>197.7</ele>
        <time>2018-09-02T08:03:07.999Z</time>
      </trkpt>
      <trkpt lat="46.56332" lon="0.23202">
        <ele>197.5</ele>
        <time>2018-09-02T08:03:18.999Z</time>
      </trkpt>
      <trkpt lat="46.56323" lon="0.23196">
        <ele>197.37</ele>
        <time>2018-09-02T08:03:43.999Z</time>
      </trkpt>
      <trkpt lat="46.56311" lon="0.23193">
        <ele>197.48</ele>
        <time>2018-09-02T08:03:48.999Z</time>
      </trkpt>
      <trkpt lat="46.56301" lon="0.23193">
        <ele>197.54</ele>
        <time>2018-09-02T08:03:51.999Z</time>
      </trkpt>
      <trkpt lat="46.56289" lon="0.23196">
        <ele>197.83</ele>
        <time>2018-09-02T08:03:54.999Z</time>
      </trkpt>
      <trkpt lat="46.56276" lon="0.23201">
        <ele>197.95</ele>
        <time>2018-09-02T08:03:57.999Z</time>
      </trkpt>
      <trkpt lat="46.56267" lon="0.23207">
        <ele>198.01</ele>
        <time>2018-09-02T08:03:59.999Z</time>
      </trkpt>
      <trkpt lat="46.56258" lon="0.23212">
        <ele>198.14</ele>
        <time>2018-09-02T08:04:01.999Z</time>
      </trkpt>
      <trkpt lat="46.56245" lon="0.23213">
        <ele>197.96</ele>
        <time>2018-09-02T08:04:04.999Z</time>
      </trkpt>
      <trkpt lat="46.56234" lon="0.23212">
        <ele>198.57</ele>
        <time>2018-09-02T08:04:06.999Z</time>
      </trkpt>
      <trkpt lat="46.56221" lon="0.23212">
        <ele>199.38</ele>
        <time>2018-09-02T08:04:09.999Z</time>
      </trkpt>
      <trkpt lat="46.56209" lon="0.23212">
        <ele>199.38</ele>
        <time>2018-09-02T08:04:12.999Z</time>
      </trkpt>
      <trkpt lat="46.56197" lon="0.23211">
        <ele>199.26</ele>
        <time>2018-09-02T08:04:14.999Z</time>
      </trkpt>
      <trkpt lat="46.56186" lon="0.2321">
        <ele>199.26</ele>
        <time>2018-09-02T08:04:16.999Z</time>
      </trkpt>
      <trkpt lat="46.56176" lon="0.2321">
        <ele>199.38</ele>
        <time>2018-09-02T08:04:18.999Z</time>
      </trkpt>
      <trkpt lat="46.56164" lon="0.23207">
        <ele>199.37</ele>
        <time>2018-09-02T08:04:20.999Z</time>
      </trkpt>
      <trkpt lat="46.56154" lon="0.23206">
        <ele>199.21</ele>
        <time>2018-09-02T08:04:22.999Z</time>
      </trkpt>
      <trkpt lat="46.56141" lon="0.23204">
        <ele>199.11</ele>
        <time>2018-09-02T08:04:25.999Z</time>
      </trkpt>
      <trkpt lat="46.56129" lon="0.23201">
        <ele>198.42</ele>
        <time>2018-09-02T08:04:28.999Z</time>
      </trkpt>
      <trkpt lat="46.5612" lon="0.23199">
        <ele>198.06</ele>
        <time>2018-09-02T08:04:30.999Z</time>
      </trkpt>
      <trkpt lat="46.56108" lon="0.23196">
        <ele>198.06</ele>
        <time>2018-09-02T08:04:33.999Z</time>
      </trkpt>
      <trkpt lat="46.56099" lon="0.23193">
        <ele>198.09</ele>
        <time>2018-09-02T08:04:36.999Z</time>
      </trkpt>
      <trkpt lat="46.56091" lon="0.23186">
        <ele>198.1</ele>
        <time>2018-09-02T08:04:38.999Z</time>
      </trkpt>
      <trkpt lat="46.56095" lon="0.23171">
        <ele>197.56</ele>
        <time>2018-09-02T08:04:41.999Z</time>
      </trkpt>
      <trkpt lat="46.56102" lon="0.23158">
        <ele>197.35</ele>
        <time>2018-09-02T08:04:44.999Z</time>
      </trkpt>
      <trkpt lat="46.5611" lon="0.23143">
        <ele>197.82</ele>
        <time>2018-09-02T08:04:47.999Z</time>
      </trkpt>
      <trkpt lat="46.56115" lon="0.23133">
        <ele>198.06</ele>
        <time>2018-09-02T08:04:49.999Z</time>
      </trkpt>
      <trkpt lat="46.56121" lon="0.23121">
        <ele>197.59</ele>
        <time>2018-09-02T08:04:51.999Z</time>
      </trkpt>
      <trkpt lat="46.56127" lon="0.23109">
        <ele>197.56</ele>
        <time>2018-09-02T08:04:54.999Z</time>
      </trkpt>
      <trkpt lat="46.56135" lon="0.23094">
        <ele>197.1</ele>
        <time>2018-09-02T08:04:57.999Z</time>
      </trkpt>
      <trkpt lat="46.56141" lon="0.23082">
        <ele>196.83</ele>
        <time>2018-09-02T08:04:59.999Z</time>
      </trkpt>
      <trkpt lat="46.56148" lon="0.2307">
        <ele>196.41</ele>
        <time>2018-09-02T08:05:01.999Z</time>
      </trkpt>
      <trkpt lat="46.56154" lon="0.23058">
        <ele>196.02</ele>
        <time>2018-09-02T08:05:03.999Z</time>
      </trkpt>
      <trkpt lat="46.5616" lon="0.23048">
        <ele>195.92</ele>
        <time>2018-09-02T08:05:05.999Z</time>
      </trkpt>
      <trkpt lat="46.56168" lon="0.23035">
        <ele>195.87</ele>
        <time>2018-09-02T08:05:07.999Z</time>
      </trkpt>
      <trkpt lat="46.56175" lon="0.23024">
        <ele>195.54</ele>
        <time>2018-09-02T08:05:09.999Z</time>
      </trkpt>
      <trkpt lat="46.5618" lon="0.23013">
        <ele>195.48</ele>
        <time>2018-09-02T08:05:11.999Z</time>
      </trkpt>
      <trkpt lat="46.56187" lon="0.22998">
        <ele>195.34</ele>
        <time>2018-09-02T08:05:14.999Z</time>
      </trkpt>
      <trkpt lat="46.56193" lon="0.22986">
        <ele>195.37</ele>
        <time>2018-09-02T08:05:16.999Z</time>
      </trkpt>
      <trkpt lat="46.56199" lon="0.22975">
        <ele>195.47</ele>
        <time>2018-09-02T08:05:18.999Z</time>
      </trkpt>
      <trkpt lat="46.56206" lon="0.22963">
        <ele>195.51</ele>
        <time>2018-09-02T08:05:20.999Z</time>
      </trkpt>
      <trkpt lat="46.56213" lon="0.22951">
        <ele>195.28</ele>
        <time>2018-09-02T08:05:22.999Z</time>
      </trkpt>
      <trkpt lat="46.56219" lon="0.22939">
        <ele>195.11</ele>
        <time>2018-09-02T08:05:24.999Z</time>
      </trkpt>
      <trkpt lat="46.56225" lon="0.22929">
        <ele>195.36</ele>
        <time>2018-09-02T08:05:26.999Z</time>
      </trkpt>
      <trkpt lat="46.56234" lon="0.22914">
        <ele>196.21</ele>
        <time>2018-09-02T08:05:29.999Z</time>
      </trkpt>
      <trkpt lat="46.56239" lon="0.22901">
        <ele>196.9</ele>
        <time>2018-09-02T08:05:31.999Z</time>
      </trkpt>
      <trkpt lat="46.56245" lon="0.22889">
        <ele>196.97</ele>
        <time>2018-09-02T08:05:33.999Z</time>
      </trkpt>
      <trkpt lat="46.56254" lon="0.22875">
        <ele>197.26</ele>
        <time>2018-09-02T08:05:36.999Z</time>
      </trkpt>
      <trkpt lat="46.5626" lon="0.22863">
        <ele>197.33</ele>
        <time>2018-09-02T08:05:38.999Z</time>
      </trkpt>
      <trkpt lat="46.56268" lon="0.22851">
        <ele>197.77</ele>
        <time>2018-09-02T08:05:40.999Z</time>
      </trkpt>
      <trkpt lat="46.56275" lon="0.2284">
        <ele>198.1</ele>
        <time>2018-09-02T08:05:42.999Z</time>
      </trkpt>
      <trkpt lat="46.56281" lon="0.22826">
        <ele>198.08</ele>
        <time>2018-09-02T08:05:44.999Z</time>
      </trkpt>
      <trkpt lat="46.56287" lon="0.22814">
        <ele>198.17</ele>
        <time>2018-09-02T08:05:46.999Z</time>
      </trkpt>
      <trkpt lat="46.56293" lon="0.22801">
        <ele>198.46</ele>
        <time>2018-09-02T08:05:48.999Z</time>
      </trkpt>
      <trkpt lat="46.56304" lon="0.2278">
        <ele>198.72</ele>
        <time>2018-09-02T08:05:51.999Z</time>
      </trkpt>
      <trkpt lat="46.56312" lon="0.22766">
        <ele>198.7</ele>
        <time>2018-09-02T08:05:53.999Z</time>
      </trkpt>
      <trkpt lat="46.56322" lon="0.22747">
        <ele>199.23</ele>
        <time>2018-09-02T08:05:56.999Z</time>
      </trkpt>
      <trkpt lat="46.56331" lon="0.22732">
        <ele>199.54</ele>
        <time>2018-09-02T08:05:58.999Z</time>
      </trkpt>
      <trkpt lat="46.56343" lon="0.22711">
        <ele>200.17</ele>
        <time>2018-09-02T08:06:01.999Z</time>
      </trkpt>
      <trkpt lat="46.56352" lon="0.22697">
        <ele>200.38</ele>
        <time>2018-09-02T08:06:03.999Z</time>
      </trkpt>
      <trkpt lat="46.56359" lon="0.22683">
        <ele>200.3</ele>
        <time>2018-09-02T08:06:05.999Z</time>
      </trkpt>
      <trkpt lat="46.56367" lon="0.22669">
        <ele>199.79</ele>
        <time>2018-09-02T08:06:07.999Z</time>
      </trkpt>
      <trkpt lat="46.56375" lon="0.22653">
        <ele>199.42</ele>
        <time>2018-09-02T08:06:09.999Z</time>
      </trkpt>
      <trkpt lat="46.56384" lon="0.22637">
        <ele>198.72</ele>
        <time>2018-09-02T08:06:11.999Z</time>
      </trkpt>
      <trkpt lat="46.56393" lon="0.22623">
        <ele>198.13</ele>
        <time>2018-09-02T08:06:13.999Z</time>
      </trkpt>
      <trkpt lat="46.56401" lon="0.22606">
        <ele>197.44</ele>
        <time>2018-09-02T08:06:15.999Z</time>
      </trkpt>
      <trkpt lat="46.5641" lon="0.2259">
        <ele>196.99</ele>
        <time>2018-09-02T08:06:17.999Z</time>
      </trkpt>
      <trkpt lat="46.56417" lon="0.22577">
        <ele>197.03</ele>
        <time>2018-09-02T08:06:19.999Z</time>
      </trkpt>
      <trkpt lat="46.56426" lon="0.22549">
        <ele>197.04</ele>
        <time>2018-09-02T08:06:22.999Z</time>
      </trkpt>
      <trkpt lat="46.56428" lon="0.22518">
        <ele>196.98</ele>
        <time>2018-09-02T08:06:25.999Z</time>
      </trkpt>
      <trkpt lat="46.56426" lon="0.22497">
        <ele>196.85</ele>
        <time>2018-09-02T08:06:27.999Z</time>
      </trkpt>
      <trkpt lat="46.56424" lon="0.22463">
        <ele>196.14</ele>
        <time>2018-09-02T08:06:30.999Z</time>
      </trkpt>
      <trkpt lat="46.56422" lon="0.2244">
        <ele>195.69</ele>
        <time>2018-09-02T08:06:32.999Z</time>
      </trkpt>
      <trkpt lat="46.56426" lon="0.22408">
        <ele>195.21</ele>
        <time>2018-09-02T08:06:35.999Z</time>
      </trkpt>
      <trkpt lat="46.56433" lon="0.22389">
        <ele>194.88</ele>
        <time>2018-09-02T08:06:37.999Z</time>
      </trkpt>
      <trkpt lat="46.5644" lon="0.22372">
        <ele>194.46</ele>
        <time>2018-09-02T08:06:39.999Z</time>
      </trkpt>
      <trkpt lat="46.56445" lon="0.22356">
        <ele>194.33</ele>
        <time>2018-09-02T08:06:41.999Z</time>
      </trkpt>
      <trkpt lat="46.56451" lon="0.22342">
        <ele>194.26</ele>
        <time>2018-09-02T08:06:43.999Z</time>
      </trkpt>
      <trkpt lat="46.56456" lon="0.22329">
        <ele>194.23</ele>
        <time>2018-09-02T08:06:45.999Z</time>
      </trkpt>
      <trkpt lat="46.56462" lon="0.22317">
        <ele>194.29</ele>
        <time>2018-09-02T08:06:47.999Z</time>
      </trkpt>
      <trkpt lat="46.56468" lon="0.22303">
        <ele>194.2</ele>
        <time>2018-09-02T08:06:49.999Z</time>
      </trkpt>
      <trkpt lat="46.56472" lon="0.22286">
        <ele>194.02</ele>
        <time>2018-09-02T08:06:51.999Z</time>
      </trkpt>
      <trkpt lat="46.56476" lon="0.22272">
        <ele>193.84</ele>
        <time>2018-09-02T08:06:53.999Z</time>
      </trkpt>
      <trkpt lat="46.56478" lon="0.22257">
        <ele>193.67</ele>
        <time>2018-09-02T08:06:55.999Z</time>
      </trkpt>
      <trkpt lat="46.56479" lon="0.22243">
        <ele>193.8</ele>
        <time>2018-09-02T08:06:57.999Z</time>
      </trkpt>
      <trkpt lat="46.56477" lon="0.22226">
        <ele>194.49</ele>
        <time>2018-09-02T08:06:59.999Z</time>
      </trkpt>
      <trkpt lat="46.56475" lon="0.2221">
        <ele>195.18</ele>
        <time>2018-09-02T08:07:01.999Z</time>
      </trkpt>
      <trkpt lat="46.56473" lon="0.22194">
        <ele>195.92</ele>
        <time>2018-09-02T08:07:03.999Z</time>
      </trkpt>
      <trkpt lat="46.5647" lon="0.22177">
        <ele>196.92</ele>
        <time>2018-09-02T08:07:05.999Z</time>
      </trkpt>
      <trkpt lat="46.56469" lon="0.22159">
        <ele>197.84</ele>
        <time>2018-09-02T08:07:07.999Z</time>
      </trkpt>
      <trkpt lat="46.56467" lon="0.2214">
        <ele>198.41</ele>
        <time>2018-09-02T08:07:09.999Z</time>
      </trkpt>
      <trkpt lat="46.56463" lon="0.22121">
        <ele>199</ele>
        <time>2018-09-02T08:07:11.999Z</time>
      </trkpt>
      <trkpt lat="46.56461" lon="0.22101">
        <ele>199.16</ele>
        <time>2018-09-02T08:07:13.999Z</time>
      </trkpt>
      <trkpt lat="46.56461" lon="0.22082">
        <ele>199.56</ele>
        <time>2018-09-02T08:07:15.999Z</time>
      </trkpt>
      <trkpt lat="46.5646" lon="0.2206">
        <ele>200.23</ele>
        <time>2018-09-02T08:07:17.999Z</time>
      </trkpt>
      <trkpt lat="46.56457" lon="0.2204">
        <ele>200.93</ele>
        <time>2018-09-02T08:07:19.999Z</time>
      </trkpt>
      <trkpt lat="46.56455" lon="0.22024">
        <ele>201.8</ele>
        <time>2018-09-02T08:07:21.999Z</time>
      </trkpt>
      <trkpt lat="46.56454" lon="0.2201">
        <ele>201.84</ele>
        <time>2018-09-02T08:07:23.999Z</time>
      </trkpt>
      <trkpt lat="46.56453" lon="0.21995">
        <ele>201.94</ele>
        <time>2018-09-02T08:07:26.999Z</time>
      </trkpt>
      <trkpt lat="46.56453" lon="0.21982">
        <ele>202.05</ele>
        <time>2018-09-02T08:07:29.999Z</time>
      </trkpt>
      <trkpt lat="46.56453" lon="0.21964">
        <ele>202.28</ele>
        <time>2018-09-02T08:07:33.999Z</time>
      </trkpt>
      <trkpt lat="46.56453" lon="0.2195">
        <ele>202.51</ele>
        <time>2018-09-02T08:07:36.999Z</time>
      </trkpt>
      <trkpt lat="46.56453" lon="0.21933">
        <ele>202.77</ele>
        <time>2018-09-02T08:07:40.999Z</time>
      </trkpt>
      <trkpt lat="46.56455" lon="0.21916">
        <ele>202.93</ele>
        <time>2018-09-02T08:07:43.999Z</time>
      </trkpt>
      <trkpt lat="46.56456" lon="0.21898">
        <ele>203.4</ele>
        <time>2018-09-02T08:07:46.999Z</time>
      </trkpt>
      <trkpt lat="46.56455" lon="0.21882">
        <ele>203.38</ele>
        <time>2018-09-02T08:07:49.999Z</time>
      </trkpt>
      <trkpt lat="46.56455" lon="0.21866">
        <ele>203.36</ele>
        <time>2018-09-02T08:07:52.999Z</time>
      </trkpt>
      <trkpt lat="46.56455" lon="0.21848">
        <ele>203.24</ele>
        <time>2018-09-02T08:07:55.999Z</time>
      </trkpt>
      <trkpt lat="46.56456" lon="0.21828">
        <ele>203.38</ele>
        <time>2018-09-02T08:07:58.999Z</time>
      </trkpt>
      <trkpt lat="46.56458" lon="0.21813">
        <ele>203.69</ele>
        <time>2018-09-02T08:08:00.999Z</time>
      </trkpt>
      <trkpt lat="46.5646" lon="0.21794">
        <ele>204.34</ele>
        <time>2018-09-02T08:08:03.999Z</time>
      </trkpt>
      <trkpt lat="46.56463" lon="0.21776">
        <ele>204.35</ele>
        <time>2018-09-02T08:08:06.999Z</time>
      </trkpt>
      <trkpt lat="46.56468" lon="0.21757">
        <ele>204.35</ele>
        <time>2018-09-02T08:08:09.999Z</time>
      </trkpt>
      <trkpt lat="46.56471" lon="0.21738">
        <ele>204.32</ele>
        <time>2018-09-02T08:08:12.999Z</time>
      </trkpt>
      <trkpt lat="46.56459" lon="0.2173">
        <ele>203.78</ele>
        <time>2018-09-02T08:08:15.999Z</time>
      </trkpt>
      <trkpt lat="46.5645" lon="0.21725">
        <ele>202.75</ele>
        <time>2018-09-02T08:08:17.999Z</time>
      </trkpt>
      <trkpt lat="46.56439" lon="0.21719">
        <ele>201.97</ele>
        <time>2018-09-02T08:08:19.999Z</time>
      </trkpt>
      <trkpt lat="46.56428" lon="0.21714">
        <ele>201.51</ele>
        <time>2018-09-02T08:08:21.999Z</time>
      </trkpt>
      <trkpt lat="46.56418" lon="0.21708">
        <ele>201.08</ele>
        <time>2018-09-02T08:08:23.999Z</time>
      </trkpt>
      <trkpt lat="46.56408" lon="0.21702">
        <ele>200.58</ele>
        <time>2018-09-02T08:08:25.999Z</time>
      </trkpt>
      <trkpt lat="46.56395" lon="0.21696">
        <ele>200.11</ele>
        <time>2018-09-02T08:08:27.999Z</time>
      </trkpt>
      <trkpt lat="46.56384" lon="0.2169">
        <ele>199.5</ele>
        <time>2018-09-02T08:08:29.999Z</time>
      </trkpt>
      <trkpt lat="46.5637" lon="0.21683">
        <ele>199.22</ele>
        <time>2018-09-02T08:08:31.999Z</time>
      </trkpt>
      <trkpt lat="46.5636" lon="0.21679">
        <ele>199.23</ele>
        <time>2018-09-02T08:08:33.999Z</time>
      </trkpt>
      <trkpt lat="46.56349" lon="0.21673">
        <ele>198.97</ele>
        <time>2018-09-02T08:08:35.999Z</time>
      </trkpt>
      <trkpt lat="46.56338" lon="0.21667">
        <ele>198.38</ele>
        <time>2018-09-02T08:08:37.999Z</time>
      </trkpt>
      <trkpt lat="46.56327" lon="0.21662">
        <ele>197.56</ele>
        <time>2018-09-02T08:08:39.999Z</time>
      </trkpt>
      <trkpt lat="46.56318" lon="0.21656">
        <ele>196.63</ele>
        <time>2018-09-02T08:08:41.999Z</time>
      </trkpt>
      <trkpt lat="46.56308" lon="0.21662">
        <ele>195.87</ele>
        <time>2018-09-02T08:08:43.999Z</time>
      </trkpt>
      <trkpt lat="46.56299" lon="0.21674">
        <ele>195.13</ele>
        <time>2018-09-02T08:08:45.999Z</time>
      </trkpt>
      <trkpt lat="46.5629" lon="0.21683">
        <ele>194.51</ele>
        <time>2018-09-02T08:08:47.999Z</time>
      </trkpt>
      <trkpt lat="46.5628" lon="0.21691">
        <ele>194.19</ele>
        <time>2018-09-02T08:08:49.999Z</time>
      </trkpt>
      <trkpt lat="46.56272" lon="0.21697">
        <ele>194.26</ele>
        <time>2018-09-02T08:08:51.999Z</time>
      </trkpt>
      <trkpt lat="46.56263" lon="0.21704">
        <ele>194.19</ele>
        <time>2018-09-02T08:08:53.999Z</time>
      </trkpt>
      <trkpt lat="46.56255" lon="0.21711">
        <ele>193.95</ele>
        <time>2018-09-02T08:08:55.999Z</time>
      </trkpt>
      <trkpt lat="46.56247" lon="0.21719">
        <ele>193.75</ele>
        <time>2018-09-02T08:08:57.999Z</time>
      </trkpt>
      <trkpt lat="46.56239" lon="0.21728">
        <ele>193.57</ele>
        <time>2018-09-02T08:08:59.999Z</time>
      </trkpt>
      <trkpt lat="46.56232" lon="0.21736">
        <ele>193.53</ele>
        <time>2018-09-02T08:09:01.999Z</time>
      </trkpt>
      <trkpt lat="46.56224" lon="0.21745">
        <ele>193.34</ele>
        <time>2018-09-02T08:09:03.999Z</time>
      </trkpt>
      <trkpt lat="46.56217" lon="0.21754">
        <ele>193.32</ele>
        <time>2018-09-02T08:09:05.999Z</time>
      </trkpt>
      <trkpt lat="46.56207" lon="0.21764">
        <ele>193.19</ele>
        <time>2018-09-02T08:09:07.999Z</time>
      </trkpt>
      <trkpt lat="46.56197" lon="0.21772">
        <ele>192.98</ele>
        <time>2018-09-02T08:09:09.999Z</time>
      </trkpt>
      <trkpt lat="46.56187" lon="0.21783">
        <ele>192.82</ele>
        <time>2018-09-02T08:09:11.999Z</time>
      </trkpt>
      <trkpt lat="46.56176" lon="0.21795">
        <ele>193.31</ele>
        <time>2018-09-02T08:09:14.999Z</time>
      </trkpt>
      <trkpt lat="46.56168" lon="0.21805">
        <ele>193.84</ele>
        <time>2018-09-02T08:09:16.999Z</time>
      </trkpt>
      <trkpt lat="46.5616" lon="0.21814">
        <ele>194.72</ele>
        <time>2018-09-02T08:09:18.999Z</time>
      </trkpt>
      <trkpt lat="46.56152" lon="0.21822">
        <ele>196</ele>
        <time>2018-09-02T08:09:20.999Z</time>
      </trkpt>
      <trkpt lat="46.56144" lon="0.21829">
        <ele>197.3</ele>
        <time>2018-09-02T08:09:22.999Z</time>
      </trkpt>
      <trkpt lat="46.56134" lon="0.21841">
        <ele>197.91</ele>
        <time>2018-09-02T08:09:24.999Z</time>
      </trkpt>
      <trkpt lat="46.56123" lon="0.21852">
        <ele>198.31</ele>
        <time>2018-09-02T08:09:26.999Z</time>
      </trkpt>
      <trkpt lat="46.56115" lon="0.21861">
        <ele>198.71</ele>
        <time>2018-09-02T08:09:28.999Z</time>
      </trkpt>
      <trkpt lat="46.56107" lon="0.21869">
        <ele>198.75</ele>
        <time>2018-09-02T08:09:30.999Z</time>
      </trkpt>
      <trkpt lat="46.56097" lon="0.21878">
        <ele>198.78</ele>
        <time>2018-09-02T08:09:32.999Z</time>
      </trkpt>
      <trkpt lat="46.56088" lon="0.21885">
        <ele>198.62</ele>
        <time>2018-09-02T08:09:34.999Z</time>
      </trkpt>
      <trkpt lat="46.56075" lon="0.2189">
        <ele>198.06</ele>
        <time>2018-09-02T08:09:37.999Z</time>
      </trkpt>
      <trkpt lat="46.56065" lon="0.21892">
        <ele>197.68</ele>
        <time>2018-09-02T08:09:40.999Z</time>
      </trkpt>
      <trkpt lat="46.56053" lon="0.21892">
        <ele>197.62</ele>
        <time>2018-09-02T08:09:43.999Z</time>
      </trkpt>
      <trkpt lat="46.56044" lon="0.21897">
        <ele>197.63</ele>
        <time>2018-09-02T08:09:46.999Z</time>
      </trkpt>
      <trkpt lat="46.56033" lon="0.21902">
        <ele>198.32</ele>
        <time>2018-09-02T08:09:49.999Z</time>
      </trkpt>
      <trkpt lat="46.56023" lon="0.21906">
        <ele>198.58</ele>
        <time>2018-09-02T08:09:51.999Z</time>
      </trkpt>
      <trkpt lat="46.56014" lon="0.21896">
        <ele>198.69</ele>
        <time>2018-09-02T08:09:55.999Z</time>
      </trkpt>
      <trkpt lat="46.56013" lon="0.21881">
        <ele>199.11</ele>
        <time>2018-09-02T08:09:57.999Z</time>
      </trkpt>
      <trkpt lat="46.56012" lon="0.2186">
        <ele>199.02</ele>
        <time>2018-09-02T08:10:00.999Z</time>
      </trkpt>
      <trkpt lat="46.56015" lon="0.21848">
        <ele>198.03</ele>
        <time>2018-09-02T08:10:02.999Z</time>
      </trkpt>
      <trkpt lat="46.56022" lon="0.21834">
        <ele>196.71</ele>
        <time>2018-09-02T08:10:04.999Z</time>
      </trkpt>
      <trkpt lat="46.56032" lon="0.21819">
        <ele>195.75</ele>
        <time>2018-09-02T08:10:06.999Z</time>
      </trkpt>
      <trkpt lat="46.56038" lon="0.21801">
        <ele>195.82</ele>
        <time>2018-09-02T08:10:08.999Z</time>
      </trkpt>
      <trkpt lat="46.56046" lon="0.2178">
        <ele>195.52</ele>
        <time>2018-09-02T08:10:10.999Z</time>
      </trkpt>
      <trkpt lat="46.56053" lon="0.21772">
        <ele>195.24</ele>
        <time>2018-09-02T08:10:12.999Z</time>
      </trkpt>
      <trkpt lat="46.56059" lon="0.21761">
        <ele>195.2</ele>
        <time>2018-09-02T08:10:21.999Z</time>
      </trkpt>
      <trkpt lat="46.56059" lon="0.21745">
        <ele>195.19</ele>
        <time>2018-09-02T08:10:26.999Z</time>
      </trkpt>
      <trkpt lat="46.56057" lon="0.2173">
        <ele>195.21</ele>
        <time>2018-09-02T08:10:30.999Z</time>
      </trkpt>
      <trkpt lat="46.56061" lon="0.21715">
        <ele>195.28</ele>
        <time>2018-09-02T08:10:35.999Z</time>
      </trkpt>
      <trkpt lat="46.56062" lon="0.21699">
        <ele>195.74</ele>
        <time>2018-09-02T08:10:41.999Z</time>
      </trkpt>
      <trkpt lat="46.56059" lon="0.21686">
        <ele>196.27</ele>
        <time>2018-09-02T08:10:46.999Z</time>
      </trkpt>
      <trkpt lat="46.56057" lon="0.21672">
        <ele>196.84</ele>
        <time>2018-09-02T08:10:51.999Z</time>
      </trkpt>
      <trkpt lat="46.56053" lon="0.2166">
        <ele>197.02</ele>
        <time>2018-09-02T08:10:54.999Z</time>
      </trkpt>
      <trkpt lat="46.56047" lon="0.21648">
        <ele>197.21</ele>
        <time>2018-09-02T08:10:58.999Z</time>
      </trkpt>
      <trkpt lat="46.56043" lon="0.21635">
        <ele>197.67</ele>
        <time>2018-09-02T08:11:02.999Z</time>
      </trkpt>
      <trkpt lat="46.56037" lon="0.21622">
        <ele>198.11</ele>
        <time>2018-09-02T08:11:06.999Z</time>
      </trkpt>
      <trkpt lat="46.56034" lon="0.21609">
        <ele>198.53</ele>
        <time>2018-09-02T08:11:10.999Z</time>
      </trkpt>
      <trkpt lat="46.56028" lon="0.21595">
        <ele>198.89</ele>
        <time>2018-09-02T08:11:14.999Z</time>
      </trkpt>
      <trkpt lat="46.56022" lon="0.21581">
        <ele>199.17</ele>
        <time>2018-09-02T08:11:18.999Z</time>
      </trkpt>
      <trkpt lat="46.56016" lon="0.21568">
        <ele>199.45</ele>
        <time>2018-09-02T08:11:22.999Z</time>
      </trkpt>
      <trkpt lat="46.56008" lon="0.2156">
        <ele>199.67</ele>
        <time>2018-09-02T08:11:26.999Z</time>
      </trkpt>
      <trkpt lat="46.55999" lon="0.21556">
        <ele>200</ele>
        <time>2018-09-02T08:11:30.999Z</time>
      </trkpt>
      <trkpt lat="46.5599" lon="0.21546">
        <ele>200.44</ele>
        <time>2018-09-02T08:11:34.999Z</time>
      </trkpt>
      <trkpt lat="46.5598" lon="0.21538">
        <ele>200.87</ele>
        <time>2018-09-02T08:11:38.999Z</time>
      </trkpt>
      <trkpt lat="46.55969" lon="0.21532">
        <ele>201.17</ele>
        <time>2018-09-02T08:11:41.999Z</time>
      </trkpt>
      <trkpt lat="46.55958" lon="0.21529">
        <ele>201.36</ele>
        <time>2018-09-02T08:11:44.999Z</time>
      </trkpt>
      <trkpt lat="46.55949" lon="0.21516">
        <ele>201.53</ele>
        <time>2018-09-02T08:11:47.999Z</time>
      </trkpt>
      <trkpt lat="46.55941" lon="0.21506">
        <ele>201.75</ele>
        <time>2018-09-02T08:11:51.999Z</time>
      </trkpt>
      <trkpt lat="46.55941" lon="0.21492">
        <ele>202.13</ele>
        <time>2018-09-02T08:11:57.999Z</time>
      </trkpt>
      <trkpt lat="46.5595" lon="0.2149">
        <ele>202.35</ele>
        <time>2018-09-02T08:12:00.999Z</time>
      </trkpt>
      <trkpt lat="46.55964" lon="0.21488">
        <ele>203.6</ele>
        <time>2018-09-02T08:12:03.999Z</time>
      </trkpt>
      <trkpt lat="46.55977" lon="0.21487">
        <ele>203.32</ele>
        <time>2018-09-02T08:12:06.999Z</time>
      </trkpt>
      <trkpt lat="46.55986" lon="0.21487">
        <ele>203.53</ele>
        <time>2018-09-02T08:12:08.999Z</time>
      </trkpt>
      <trkpt lat="46.55996" lon="0.21487">
        <ele>203.39</ele>
        <time>2018-09-02T08:12:10.999Z</time>
      </trkpt>
      <trkpt lat="46.56005" lon="0.21488">
        <ele>203.59</ele>
        <time>2018-09-02T08:12:12.999Z</time>
      </trkpt>
      <trkpt lat="46.56014" lon="0.21488">
        <ele>203.67</ele>
        <time>2018-09-02T08:12:14.999Z</time>
      </trkpt>
      <trkpt lat="46.56023" lon="0.21488">
        <ele>203.76</ele>
        <time>2018-09-02T08:12:16.999Z</time>
      </trkpt>
      <trkpt lat="46.56037" lon="0.21488">
        <ele>204.01</ele>
        <time>2018-09-02T08:12:19.999Z</time>
      </trkpt>
      <trkpt lat="46.56046" lon="0.21488">
        <ele>204.3</ele>
        <time>2018-09-02T08:12:21.999Z</time>
      </trkpt>
      <trkpt lat="46.56056" lon="0.21491">
        <ele>204.9</ele>
        <time>2018-09-02T08:12:23.999Z</time>
      </trkpt>
      <trkpt lat="46.56066" lon="0.21493">
        <ele>205.54</ele>
        <time>2018-09-02T08:12:25.999Z</time>
      </trkpt>
      <trkpt lat="46.56075" lon="0.21496">
        <ele>206.21</ele>
        <time>2018-09-02T08:12:27.999Z</time>
      </trkpt>
      <trkpt lat="46.56084" lon="0.21498">
        <ele>205.86</ele>
        <time>2018-09-02T08:12:29.999Z</time>
      </trkpt>
      <trkpt lat="46.56095" lon="0.21494">
        <ele>205.27</ele>
        <time>2018-09-02T08:12:31.999Z</time>
      </trkpt>
      <trkpt lat="46.56105" lon="0.21488">
        <ele>204.2</ele>
        <time>2018-09-02T08:12:33.999Z</time>
      </trkpt>
      <trkpt lat="46.56115" lon="0.2148">
        <ele>202.72</ele>
        <time>2018-09-02T08:12:35.999Z</time>
      </trkpt>
      <trkpt lat="46.56125" lon="0.21472">
        <ele>201.13</ele>
        <time>2018-09-02T08:12:37.999Z</time>
      </trkpt>
      <trkpt lat="46.56136" lon="0.21463">
        <ele>199.91</ele>
        <time>2018-09-02T08:12:39.999Z</time>
      </trkpt>
      <trkpt lat="46.56147" lon="0.21455">
        <ele>198.67</ele>
        <time>2018-09-02T08:12:41.999Z</time>
      </trkpt>
      <trkpt lat="46.56157" lon="0.21448">
        <ele>197.6</ele>
        <time>2018-09-02T08:12:43.999Z</time>
      </trkpt>
      <trkpt lat="46.56168" lon="0.21441">
        <ele>196.87</ele>
        <time>2018-09-02T08:12:45.999Z</time>
      </trkpt>
      <trkpt lat="46.56181" lon="0.21439">
        <ele>196.08</ele>
        <time>2018-09-02T08:12:47.999Z</time>
      </trkpt>
      <trkpt lat="46.56191" lon="0.21441">
        <ele>195.65</ele>
        <time>2018-09-02T08:12:48.999Z</time>
      </trkpt>
      <trkpt lat="46.56207" lon="0.21446">
        <ele>194.18</ele>
        <time>2018-09-02T08:12:50.999Z</time>
      </trkpt>
      <trkpt lat="46.56221" lon="0.21452">
        <ele>193.65</ele>
        <time>2018-09-02T08:12:52.999Z</time>
      </trkpt>
      <trkpt lat="46.56235" lon="0.21458">
        <ele>193.75</ele>
        <time>2018-09-02T08:12:54.999Z</time>
      </trkpt>
      <trkpt lat="46.56245" lon="0.21456">
        <ele>193.76</ele>
        <time>2018-09-02T08:12:56.999Z</time>
      </trkpt>
      <trkpt lat="46.56257" lon="0.21447">
        <ele>193.88</ele>
        <time>2018-09-02T08:12:59.999Z</time>
      </trkpt>
      <trkpt lat="46.56266" lon="0.21443">
        <ele>194.3</ele>
        <time>2018-09-02T08:13:01.999Z</time>
      </trkpt>
      <trkpt lat="46.56274" lon="0.21433">
        <ele>194.43</ele>
        <time>2018-09-02T08:13:05.999Z</time>
      </trkpt>
      <trkpt lat="46.56279" lon="0.21419">
        <ele>194.7</ele>
        <time>2018-09-02T08:13:10.999Z</time>
      </trkpt>
      <trkpt lat="46.56282" lon="0.21406">
        <ele>195.25</ele>
        <time>2018-09-02T08:13:15.999Z</time>
      </trkpt>
      <trkpt lat="46.56279" lon="0.21392">
        <ele>195.86</ele>
        <time>2018-09-02T08:13:19.999Z</time>
      </trkpt>
      <trkpt lat="46.56285" lon="0.21379">
        <ele>196.47</ele>
        <time>2018-09-02T08:13:23.999Z</time>
      </trkpt>
      <trkpt lat="46.56292" lon="0.2137">
        <ele>196.88</ele>
        <time>2018-09-02T08:13:26.999Z</time>
      </trkpt>
      <trkpt lat="46.563" lon="0.21357">
        <ele>197.88</ele>
        <time>2018-09-02T08:13:28.999Z</time>
      </trkpt>
      <trkpt lat="46.56303" lon="0.21342">
        <ele>198.15</ele>
        <time>2018-09-02T08:13:31.999Z</time>
      </trkpt>
      <trkpt lat="46.56305" lon="0.21326">
        <ele>198.36</ele>
        <time>2018-09-02T08:13:34.999Z</time>
      </trkpt>
      <trkpt lat="46.56307" lon="0.21313">
        <ele>198.47</ele>
        <time>2018-09-02T08:13:36.999Z</time>
      </trkpt>
      <trkpt lat="46.56309" lon="0.21299">
        <ele>198.59</ele>
        <time>2018-09-02T08:13:38.999Z</time>
      </trkpt>
      <trkpt lat="46.5631" lon="0.21281">
        <ele>198.72</ele>
        <time>2018-09-02T08:13:41.999Z</time>
      </trkpt>
      <trkpt lat="46.56313" lon="0.21266">
        <ele>198.68</ele>
        <time>2018-09-02T08:13:43.999Z</time>
      </trkpt>
      <trkpt lat="46.56318" lon="0.21252">
        <ele>198.58</ele>
        <time>2018-09-02T08:13:45.999Z</time>
      </trkpt>
      <trkpt lat="46.56324" lon="0.21238">
        <ele>198.35</ele>
        <time>2018-09-02T08:13:47.999Z</time>
      </trkpt>
      <trkpt lat="46.56331" lon="0.21227">
        <ele>196.34</ele>
        <time>2018-09-02T08:13:49.999Z</time>
      </trkpt>
      <trkpt lat="46.56337" lon="0.21216">
        <ele>194.74</ele>
        <time>2018-09-02T08:13:51.999Z</time>
      </trkpt>
      <trkpt lat="46.56344" lon="0.21207">
        <ele>194.45</ele>
        <time>2018-09-02T08:13:54.999Z</time>
      </trkpt>
      <trkpt lat="46.56353" lon="0.21196">
        <ele>194.18</ele>
        <time>2018-09-02T08:13:57.999Z</time>
      </trkpt>
      <trkpt lat="46.56357" lon="0.21184">
        <ele>193.78</ele>
        <time>2018-09-02T08:14:02.999Z</time>
      </trkpt>
      <trkpt lat="46.56357" lon="0.21167">
        <ele>193.43</ele>
        <time>2018-09-02T08:14:06.999Z</time>
      </trkpt>
      <trkpt lat="46.56359" lon="0.21152">
        <ele>192.64</ele>
        <time>2018-09-02T08:14:12.999Z</time>
      </trkpt>
      <trkpt lat="46.5635" lon="0.21146">
        <ele>191.94</ele>
        <time>2018-09-02T08:14:19.999Z</time>
      </trkpt>
      <trkpt lat="46.56343" lon="0.21153">
        <ele>191.25</ele>
        <time>2018-09-02T08:14:24.999Z</time>
      </trkpt>
      <trkpt lat="46.56331" lon="0.2115">
        <ele>190.5</ele>
        <time>2018-09-02T08:14:31.999Z</time>
      </trkpt>
      <trkpt lat="46.56323" lon="0.21141">
        <ele>190.14</ele>
        <time>2018-09-02T08:14:34.999Z</time>
      </trkpt>
      <trkpt lat="46.56314" lon="0.21129">
        <ele>189.65</ele>
        <time>2018-09-02T08:14:38.999Z</time>
      </trkpt>
      <trkpt lat="46.56306" lon="0.21119">
        <ele>189.13</ele>
        <time>2018-09-02T08:14:42.999Z</time>
      </trkpt>
      <trkpt lat="46.56297" lon="0.21115">
        <ele>188.74</ele>
        <time>2018-09-02T08:14:45.999Z</time>
      </trkpt>
      <trkpt lat="46.56287" lon="0.21109">
        <ele>188.44</ele>
        <time>2018-09-02T08:14:48.999Z</time>
      </trkpt>
      <trkpt lat="46.56276" lon="0.21105">
        <ele>188.1</ele>
        <time>2018-09-02T08:14:51.999Z</time>
      </trkpt>
      <trkpt lat="46.56267" lon="0.21101">
        <ele>187.9</ele>
        <time>2018-09-02T08:14:54.999Z</time>
      </trkpt>
      <trkpt lat="46.56259" lon="0.21095">
        <ele>187.71</ele>
        <time>2018-09-02T08:14:57.999Z</time>
      </trkpt>
      <trkpt lat="46.56249" lon="0.21099">
        <ele>187.37</ele>
        <time>2018-09-02T08:15:02.999Z</time>
      </trkpt>
      <trkpt lat="46.56239" lon="0.21097">
        <ele>187.05</ele>
        <time>2018-09-02T08:15:06.999Z</time>
      </trkpt>
      <trkpt lat="46.5623" lon="0.21088">
        <ele>186.83</ele>
        <time>2018-09-02T08:15:11.999Z</time>
      </trkpt>
      <trkpt lat="46.56226" lon="0.21075">
        <ele>186.67</ele>
        <time>2018-09-02T08:15:16.999Z</time>
      </trkpt>
      <trkpt lat="46.56216" lon="0.21067">
        <ele>186.5</ele>
        <time>2018-09-02T08:15:20.999Z</time>
      </trkpt>
      <trkpt lat="46.56206" lon="0.21058">
        <ele>186.25</ele>
        <time>2018-09-02T08:15:24.999Z</time>
      </trkpt>
      <trkpt lat="46.56196" lon="0.21055">
        <ele>186.18</ele>
        <time>2018-09-02T08:15:26.999Z</time>
      </trkpt>
      <trkpt lat="46.56186" lon="0.21053">
        <ele>185.92</ele>
        <time>2018-09-02T08:15:30.999Z</time>
      </trkpt>
      <trkpt lat="46.56173" lon="0.21047">
        <ele>185.62</ele>
        <time>2018-09-02T08:15:33.999Z</time>
      </trkpt>
      <trkpt lat="46.5616" lon="0.21043">
        <ele>185.28</ele>
        <time>2018-09-02T08:15:36.999Z</time>
      </trkpt>
      <trkpt lat="46.56149" lon="0.21037">
        <ele>184.94</ele>
        <time>2018-09-02T08:15:39.999Z</time>
      </trkpt>
      <trkpt lat="46.56138" lon="0.21042">
        <ele>184.75</ele>
        <time>2018-09-02T08:15:43.999Z</time>
      </trkpt>
      <trkpt lat="46.56128" lon="0.21041">
        <ele>184.61</ele>
        <time>2018-09-02T08:15:47.999Z</time>
      </trkpt>
      <trkpt lat="46.56118" lon="0.21035">
        <ele>184.39</ele>
        <time>2018-09-02T08:15:51.999Z</time>
      </trkpt>
      <trkpt lat="46.56105" lon="0.21038">
        <ele>184.09</ele>
        <time>2018-09-02T08:15:55.999Z</time>
      </trkpt>
      <trkpt lat="46.56094" lon="0.21045">
        <ele>183.82</ele>
        <time>2018-09-02T08:15:58.999Z</time>
      </trkpt>
      <trkpt lat="46.56086" lon="0.21053">
        <ele>183.56</ele>
        <time>2018-09-02T08:16:03.999Z</time>
      </trkpt>
      <trkpt lat="46.56079" lon="0.21063">
        <ele>183.5</ele>
        <time>2018-09-02T08:16:08.999Z</time>
      </trkpt>
      <trkpt lat="46.56077" lon="0.21077">
        <ele>183.06</ele>
        <time>2018-09-02T08:16:22.999Z</time>
      </trkpt>
      <trkpt lat="46.56072" lon="0.2109">
        <ele>182.58</ele>
        <time>2018-09-02T08:16:27.999Z</time>
      </trkpt>
      <trkpt lat="46.56065" lon="0.21104">
        <ele>181.91</ele>
        <time>2018-09-02T08:16:32.999Z</time>
      </trkpt>
      <trkpt lat="46.56058" lon="0.21116">
        <ele>181.46</ele>
        <time>2018-09-02T08:16:36.999Z</time>
      </trkpt>
      <trkpt lat="46.56052" lon="0.21128">
        <ele>181.12</ele>
        <time>2018-09-02T08:16:41.999Z</time>
      </trkpt>
      <trkpt lat="46.56046" lon="0.21138">
        <ele>180.99</ele>
        <time>2018-09-02T08:16:46.999Z</time>
      </trkpt>
      <trkpt lat="46.5604" lon="0.21148">
        <ele>180.73</ele>
        <time>2018-09-02T08:16:53.999Z</time>
      </trkpt>
      <trkpt lat="46.56036" lon="0.21162">
        <ele>180.66</ele>
        <time>2018-09-02T08:17:00.999Z</time>
      </trkpt>
      <trkpt lat="46.56031" lon="0.21175">
        <ele>180.92</ele>
        <time>2018-09-02T08:17:06.999Z</time>
      </trkpt>
      <trkpt lat="46.56024" lon="0.21185">
        <ele>180.98</ele>
        <time>2018-09-02T08:17:10.999Z</time>
      </trkpt>
      <trkpt lat="46.56017" lon="0.21196">
        <ele>180.91</ele>
        <time>2018-09-02T08:17:14.999Z</time>
      </trkpt>
      <trkpt lat="46.56012" lon="0.21209">
        <ele>181.03</ele>
        <time>2018-09-02T08:17:18.999Z</time>
      </trkpt>
      <trkpt lat="46.56009" lon="0.21222">
        <ele>181.27</ele>
        <time>2018-09-02T08:17:23.999Z</time>
      </trkpt>
      <trkpt lat="46.56006" lon="0.21234">
        <ele>181.33</ele>
        <time>2018-09-02T08:17:27.999Z</time>
      </trkpt>
      <trkpt lat="46.56003" lon="0.21248">
        <ele>181.09</ele>
        <time>2018-09-02T08:17:32.999Z</time>
      </trkpt>
      <trkpt lat="46.55998" lon="0.21263">
        <ele>180.75</ele>
        <time>2018-09-02T08:17:37.999Z</time>
      </trkpt>
      <trkpt lat="46.55993" lon="0.21274">
        <ele>180.33</ele>
        <time>2018-09-02T08:17:42.999Z</time>
      </trkpt>
      <trkpt lat="46.55987" lon="0.21286">
        <ele>179.77</ele>
        <time>2018-09-02T08:17:46.999Z</time>
      </trkpt>
      <trkpt lat="46.5598" lon="0.21299">
        <ele>179.31</ele>
        <time>2018-09-02T08:17:51.999Z</time>
      </trkpt>
      <trkpt lat="46.55973" lon="0.21309">
        <ele>178.95</ele>
        <time>2018-09-02T08:17:54.999Z</time>
      </trkpt>
      <trkpt lat="46.55968" lon="0.2132">
        <ele>178.65</ele>
        <time>2018-09-02T08:17:59.999Z</time>
      </trkpt>
      <trkpt lat="46.55962" lon="0.2133">
        <ele>178.74</ele>
        <time>2018-09-02T08:18:04.999Z</time>
      </trkpt>
      <trkpt lat="46.5596" lon="0.21343">
        <ele>179.37</ele>
        <time>2018-09-02T08:18:10.999Z</time>
      </trkpt>
      <trkpt lat="46.55953" lon="0.21354">
        <ele>180.12</ele>
        <time>2018-09-02T08:18:15.999Z</time>
      </trkpt>
      <trkpt lat="46.55946" lon="0.21364">
        <ele>180.59</ele>
        <time>2018-09-02T08:18:18.999Z</time>
      </trkpt>
      <trkpt lat="46.5594" lon="0.21376">
        <ele>181.25</ele>
        <time>2018-09-02T08:18:22.999Z</time>
      </trkpt>
      <trkpt lat="46.55935" lon="0.21386">
        <ele>182.03</ele>
        <time>2018-09-02T08:18:28.999Z</time>
      </trkpt>
      <trkpt lat="46.5594" lon="0.21398">
        <ele>183.1</ele>
        <time>2018-09-02T08:18:34.999Z</time>
      </trkpt>
      <trkpt lat="46.55939" lon="0.21413">
        <ele>184.14</ele>
        <time>2018-09-02T08:18:38.999Z</time>
      </trkpt>
      <trkpt lat="46.55935" lon="0.21425">
        <ele>185.11</ele>
        <time>2018-09-02T08:18:42.999Z</time>
      </trkpt>
      <trkpt lat="46.5593" lon="0.2144">
        <ele>186.22</ele>
        <time>2018-09-02T08:18:46.999Z</time>
      </trkpt>
      <trkpt lat="46.55925" lon="0.21455">
        <ele>187.19</ele>
        <time>2018-09-02T08:18:50.999Z</time>
      </trkpt>
      <trkpt lat="46.5592" lon="0.21468">
        <ele>187.71</ele>
        <time>2018-09-02T08:18:53.999Z</time>
      </trkpt>
      <trkpt lat="46.55913" lon="0.21477">
        <ele>188.51</ele>
        <time>2018-09-02T08:18:57.999Z</time>
      </trkpt>
      <trkpt lat="46.55903" lon="0.21477">
        <ele>189.22</ele>
        <time>2018-09-02T08:19:00.999Z</time>
      </trkpt>
      <trkpt lat="46.55891" lon="0.21472">
        <ele>189.96</ele>
        <time>2018-09-02T08:19:03.999Z</time>
      </trkpt>
      <trkpt lat="46.55879" lon="0.21466">
        <ele>194.33</ele>
        <time>2018-09-02T08:19:05.999Z</time>
      </trkpt>
      <trkpt lat="46.55869" lon="0.21464">
        <ele>196.11</ele>
        <time>2018-09-02T08:19:07.999Z</time>
      </trkpt>
      <trkpt lat="46.5586" lon="0.21459">
        <ele>196.38</ele>
        <time>2018-09-02T08:19:09.999Z</time>
      </trkpt>
      <trkpt lat="46.55849" lon="0.21454">
        <ele>198.31</ele>
        <time>2018-09-02T08:19:11.999Z</time>
      </trkpt>
      <trkpt lat="46.55838" lon="0.21447">
        <ele>200.8</ele>
        <time>2018-09-02T08:19:13.999Z</time>
      </trkpt>
      <trkpt lat="46.55824" lon="0.2144">
        <ele>201.86</ele>
        <time>2018-09-02T08:19:15.999Z</time>
      </trkpt>
      <trkpt lat="46.55809" lon="0.21429">
        <ele>202.18</ele>
        <time>2018-09-02T08:19:17.999Z</time>
      </trkpt>
      <trkpt lat="46.55796" lon="0.21423">
        <ele>200.8</ele>
        <time>2018-09-02T08:19:19.999Z</time>
      </trkpt>
      <trkpt lat="46.55784" lon="0.21411">
        <ele>198.88</ele>
        <time>2018-09-02T08:19:21.999Z</time>
      </trkpt>
      <trkpt lat="46.55775" lon="0.21395">
        <ele>199.09</ele>
        <time>2018-09-02T08:19:25.999Z</time>
      </trkpt>
      <trkpt lat="46.55766" lon="0.21398">
        <ele>199.29</ele>
        <time>2018-09-02T08:19:29.999Z</time>
      </trkpt>
      <trkpt lat="46.55756" lon="0.21396">
        <ele>199.75</ele>
        <time>2018-09-02T08:19:34.999Z</time>
      </trkpt>
      <trkpt lat="46.55746" lon="0.21401">
        <ele>200.94</ele>
        <time>2018-09-02T08:19:40.999Z</time>
      </trkpt>
      <trkpt lat="46.55736" lon="0.21401">
        <ele>201.74</ele>
        <time>2018-09-02T08:19:43.999Z</time>
      </trkpt>
      <trkpt lat="46.55727" lon="0.21395">
        <ele>202.85</ele>
        <time>2018-09-02T08:19:48.999Z</time>
      </trkpt>
      <trkpt lat="46.55718" lon="0.2139">
        <ele>203.71</ele>
        <time>2018-09-02T08:19:52.999Z</time>
      </trkpt>
      <trkpt lat="46.55709" lon="0.21387">
        <ele>204.86</ele>
        <time>2018-09-02T08:19:57.999Z</time>
      </trkpt>
      <trkpt lat="46.557" lon="0.21379">
        <ele>205.61</ele>
        <time>2018-09-02T08:20:01.999Z</time>
      </trkpt>
      <trkpt lat="46.5569" lon="0.21379">
        <ele>206.26</ele>
        <time>2018-09-02T08:20:06.999Z</time>
      </trkpt>
      <trkpt lat="46.5568" lon="0.21379">
        <ele>206.67</ele>
        <time>2018-09-02T08:20:11.999Z</time>
      </trkpt>
      <trkpt lat="46.55671" lon="0.21382">
        <ele>206.57</ele>
        <time>2018-09-02T08:20:14.999Z</time>
      </trkpt>
      <trkpt lat="46.55662" lon="0.21385">
        <ele>206.39</ele>
        <time>2018-09-02T08:20:16.999Z</time>
      </trkpt>
      <trkpt lat="46.5565" lon="0.21384">
        <ele>205.85</ele>
        <time>2018-09-02T08:20:21.999Z</time>
      </trkpt>
      <trkpt lat="46.55637" lon="0.21385">
        <ele>205.55</ele>
        <time>2018-09-02T08:20:23.999Z</time>
      </trkpt>
      <trkpt lat="46.55627" lon="0.21394">
        <ele>204.65</ele>
        <time>2018-09-02T08:20:29.999Z</time>
      </trkpt>
      <trkpt lat="46.55618" lon="0.21404">
        <ele>204.12</ele>
        <time>2018-09-02T08:20:33.999Z</time>
      </trkpt>
      <trkpt lat="46.55612" lon="0.21416">
        <ele>203.79</ele>
        <time>2018-09-02T08:20:36.999Z</time>
      </trkpt>
      <trkpt lat="46.55606" lon="0.2143">
        <ele>203.5</ele>
        <time>2018-09-02T08:20:39.999Z</time>
      </trkpt>
      <trkpt lat="46.55601" lon="0.21441">
        <ele>203.31</ele>
        <time>2018-09-02T08:20:44.999Z</time>
      </trkpt>
      <trkpt lat="46.55592" lon="0.21449">
        <ele>203.38</ele>
        <time>2018-09-02T08:20:49.999Z</time>
      </trkpt>
      <trkpt lat="46.55583" lon="0.21446">
        <ele>203.45</ele>
        <time>2018-09-02T08:20:52.999Z</time>
      </trkpt>
      <trkpt lat="46.55574" lon="0.21437">
        <ele>203.46</ele>
        <time>2018-09-02T08:20:55.999Z</time>
      </trkpt>
      <trkpt lat="46.55563" lon="0.21429">
        <ele>203.34</ele>
        <time>2018-09-02T08:20:58.999Z</time>
      </trkpt>
      <trkpt lat="46.55555" lon="0.21418">
        <ele>203.17</ele>
        <time>2018-09-02T08:21:01.999Z</time>
      </trkpt>
      <trkpt lat="46.55548" lon="0.21408">
        <ele>203.05</ele>
        <time>2018-09-02T08:21:03.999Z</time>
      </trkpt>
      <trkpt lat="46.55539" lon="0.21399">
        <ele>202.78</ele>
        <time>2018-09-02T08:21:06.999Z</time>
      </trkpt>
      <trkpt lat="46.55534" lon="0.21386">
        <ele>202.47</ele>
        <time>2018-09-02T08:21:09.999Z</time>
      </trkpt>
      <trkpt lat="46.55524" lon="0.21373">
        <ele>202.26</ele>
        <time>2018-09-02T08:21:12.999Z</time>
      </trkpt>
      <trkpt lat="46.5552" lon="0.21362">
        <ele>202.25</ele>
        <time>2018-09-02T08:21:14.999Z</time>
      </trkpt>
      <trkpt lat="46.55512" lon="0.21355">
        <ele>202.21</ele>
        <time>2018-09-02T08:21:16.999Z</time>
      </trkpt>
      <trkpt lat="46.55504" lon="0.21344">
        <ele>202.2</ele>
        <time>2018-09-02T08:21:19.999Z</time>
      </trkpt>
      <trkpt lat="46.55502" lon="0.21325">
        <ele>202.21</ele>
        <time>2018-09-02T08:21:22.999Z</time>
      </trkpt>
      <trkpt lat="46.55506" lon="0.21309">
        <ele>202.31</ele>
        <time>2018-09-02T08:21:26.999Z</time>
      </trkpt>
      <trkpt lat="46.55512" lon="0.21292">
        <ele>202.37</ele>
        <time>2018-09-02T08:21:30.999Z</time>
      </trkpt>
      <trkpt lat="46.5552" lon="0.21277">
        <ele>202.17</ele>
        <time>2018-09-02T08:21:33.999Z</time>
      </trkpt>
      <trkpt lat="46.55524" lon="0.21264">
        <ele>201.75</ele>
        <time>2018-09-02T08:21:38.999Z</time>
      </trkpt>
      <trkpt lat="46.5552" lon="0.2125">
        <ele>201.27</ele>
        <time>2018-09-02T08:21:44.999Z</time>
      </trkpt>
      <trkpt lat="46.55515" lon="0.21239">
        <ele>200.7</ele>
        <time>2018-09-02T08:21:54.999Z</time>
      </trkpt>
      <trkpt lat="46.55509" lon="0.21228">
        <ele>200.52</ele>
        <time>2018-09-02T08:21:57.999Z</time>
      </trkpt>
      <trkpt lat="46.55505" lon="0.21212">
        <ele>200.51</ele>
        <time>2018-09-02T08:22:00.999Z</time>
      </trkpt>
      <trkpt lat="46.55497" lon="0.21204">
        <ele>200.34</ele>
        <time>2018-09-02T08:22:03.999Z</time>
      </trkpt>
      <trkpt lat="46.55489" lon="0.21188">
        <ele>200.21</ele>
        <time>2018-09-02T08:22:06.999Z</time>
      </trkpt>
      <trkpt lat="46.55481" lon="0.21174">
        <ele>200.03</ele>
        <time>2018-09-02T08:22:09.999Z</time>
      </trkpt>
      <trkpt lat="46.55473" lon="0.21164">
        <ele>199.87</ele>
        <time>2018-09-02T08:22:12.999Z</time>
      </trkpt>
      <trkpt lat="46.55464" lon="0.21155">
        <ele>199.77</ele>
        <time>2018-09-02T08:22:16.999Z</time>
      </trkpt>
      <trkpt lat="46.55457" lon="0.21146">
        <ele>199.75</ele>
        <time>2018-09-02T08:22:19.999Z</time>
      </trkpt>
      <trkpt lat="46.55451" lon="0.21133">
        <ele>199.9</ele>
        <time>2018-09-02T08:22:22.999Z</time>
      </trkpt>
      <trkpt lat="46.55439" lon="0.21129">
        <ele>200.24</ele>
        <time>2018-09-02T08:22:26.999Z</time>
      </trkpt>
      <trkpt lat="46.5543" lon="0.21127">
        <ele>201.04</ele>
        <time>2018-09-02T08:22:32.999Z</time>
      </trkpt>
      <trkpt lat="46.55423" lon="0.21135">
        <ele>201.58</ele>
        <time>2018-09-02T08:22:37.999Z</time>
      </trkpt>
      <trkpt lat="46.55413" lon="0.21142">
        <ele>202.05</ele>
        <time>2018-09-02T08:22:42.999Z</time>
      </trkpt>
      <trkpt lat="46.5541" lon="0.21155">
        <ele>202.31</ele>
        <time>2018-09-02T08:22:45.999Z</time>
      </trkpt>
      <trkpt lat="46.55401" lon="0.21158">
        <ele>202.42</ele>
        <time>2018-09-02T08:22:48.999Z</time>
      </trkpt>
      <trkpt lat="46.55391" lon="0.2116">
        <ele>202.37</ele>
        <time>2018-09-02T08:22:51.999Z</time>
      </trkpt>
      <trkpt lat="46.55376" lon="0.2116">
        <ele>202.08</ele>
        <time>2018-09-02T08:22:54.999Z</time>
      </trkpt>
      <trkpt lat="46.55365" lon="0.21155">
        <ele>201.73</ele>
        <time>2018-09-02T08:22:57.999Z</time>
      </trkpt>
      <trkpt lat="46.55355" lon="0.2115">
        <ele>199.7</ele>
        <time>2018-09-02T08:22:59.999Z</time>
      </trkpt>
      <trkpt lat="46.55345" lon="0.21147">
        <ele>199.41</ele>
        <time>2018-09-02T08:23:01.999Z</time>
      </trkpt>
      <trkpt lat="46.55336" lon="0.21143">
        <ele>199.08</ele>
        <time>2018-09-02T08:23:04.999Z</time>
      </trkpt>
      <trkpt lat="46.55325" lon="0.21138">
        <ele>197.02</ele>
        <time>2018-09-02T08:23:06.999Z</time>
      </trkpt>
      <trkpt lat="46.5531" lon="0.2113">
        <ele>194.99</ele>
        <time>2018-09-02T08:23:08.999Z</time>
      </trkpt>
      <trkpt lat="46.55299" lon="0.21125">
        <ele>193.86</ele>
        <time>2018-09-02T08:23:09.999Z</time>
      </trkpt>
      <trkpt lat="46.55289" lon="0.21121">
        <ele>192.68</ele>
        <time>2018-09-02T08:23:10.999Z</time>
      </trkpt>
      <trkpt lat="46.5527" lon="0.21115">
        <ele>190.41</ele>
        <time>2018-09-02T08:23:12.999Z</time>
      </trkpt>
      <trkpt lat="46.5526" lon="0.2111">
        <ele>189.27</ele>
        <time>2018-09-02T08:23:13.999Z</time>
      </trkpt>
      <trkpt lat="46.55245" lon="0.21106">
        <ele>187.19</ele>
        <time>2018-09-02T08:23:15.999Z</time>
      </trkpt>
      <trkpt lat="46.55232" lon="0.21111">
        <ele>186.35</ele>
        <time>2018-09-02T08:23:17.999Z</time>
      </trkpt>
      <trkpt lat="46.55218" lon="0.21119">
        <ele>185.98</ele>
        <time>2018-09-02T08:23:19.999Z</time>
      </trkpt>
      <trkpt lat="46.55208" lon="0.21108">
        <ele>185.78</ele>
        <time>2018-09-02T08:23:28.999Z</time>
      </trkpt>
      <trkpt lat="46.552" lon="0.21089">
        <ele>184.87</ele>
        <time>2018-09-02T08:23:30.999Z</time>
      </trkpt>
      <trkpt lat="46.55193" lon="0.21075">
        <ele>184.86</ele>
        <time>2018-09-02T08:23:32.999Z</time>
      </trkpt>
      <trkpt lat="46.5519" lon="0.21062">
        <ele>184.8</ele>
        <time>2018-09-02T08:23:34.999Z</time>
      </trkpt>
      <trkpt lat="46.55185" lon="0.21051">
        <ele>184.9</ele>
        <time>2018-09-02T08:23:37.999Z</time>
      </trkpt>
      <trkpt lat="46.55191" lon="0.21037">
        <ele>185.04</ele>
        <time>2018-09-02T08:23:41.999Z</time>
      </trkpt>
      <trkpt lat="46.55198" lon="0.21027">
        <ele>185.15</ele>
        <time>2018-09-02T08:23:44.999Z</time>
      </trkpt>
      <trkpt lat="46.55206" lon="0.21017">
        <ele>185.26</ele>
        <time>2018-09-02T08:23:47.999Z</time>
      </trkpt>
      <trkpt lat="46.55214" lon="0.2101">
        <ele>185.44</ele>
        <time>2018-09-02T08:23:50.999Z</time>
      </trkpt>
      <trkpt lat="46.55225" lon="0.21007">
        <ele>185.76</ele>
        <time>2018-09-02T08:23:56.999Z</time>
      </trkpt>
      <trkpt lat="46.55237" lon="0.21004">
        <ele>185.8</ele>
        <time>2018-09-02T08:24:00.999Z</time>
      </trkpt>
      <trkpt lat="46.55246" lon="0.21001">
        <ele>185.74</ele>
        <time>2018-09-02T08:24:03.999Z</time>
      </trkpt>
      <trkpt lat="46.55255" lon="0.20995">
        <ele>185.68</ele>
        <time>2018-09-02T08:24:06.999Z</time>
      </trkpt>
      <trkpt lat="46.55265" lon="0.20987">
        <ele>185.62</ele>
        <time>2018-09-02T08:24:10.999Z</time>
      </trkpt>
      <trkpt lat="46.55274" lon="0.20992">
        <ele>185.41</ele>
        <time>2018-09-02T08:24:13.999Z</time>
      </trkpt>
      <trkpt lat="46.55286" lon="0.2099">
        <ele>184.79</ele>
        <time>2018-09-02T08:24:15.999Z</time>
      </trkpt>
      <trkpt lat="46.553" lon="0.20986">
        <ele>184.08</ele>
        <time>2018-09-02T08:24:17.999Z</time>
      </trkpt>
      <trkpt lat="46.55312" lon="0.20983">
        <ele>183.31</ele>
        <time>2018-09-02T08:24:19.999Z</time>
      </trkpt>
      <trkpt lat="46.55324" lon="0.20974">
        <ele>182.25</ele>
        <time>2018-09-02T08:24:21.999Z</time>
      </trkpt>
      <trkpt lat="46.55336" lon="0.20967">
        <ele>180.64</ele>
        <time>2018-09-02T08:24:23.999Z</time>
      </trkpt>
      <trkpt lat="46.55345" lon="0.20956">
        <ele>179.82</ele>
        <time>2018-09-02T08:24:25.999Z</time>
      </trkpt>
      <trkpt lat="46.55352" lon="0.20943">
        <ele>179.12</ele>
        <time>2018-09-02T08:24:27.999Z</time>
      </trkpt>
      <trkpt lat="46.55352" lon="0.20926">
        <ele>178.75</ele>
        <time>2018-09-02T08:24:30.999Z</time>
      </trkpt>
      <trkpt lat="46.5535" lon="0.20913">
        <ele>178.81</ele>
        <time>2018-09-02T08:24:32.999Z</time>
      </trkpt>
      <trkpt lat="46.55344" lon="0.20902">
        <ele>180.33</ele>
        <time>2018-09-02T08:24:34.999Z</time>
      </trkpt>
      <trkpt lat="46.55338" lon="0.20886">
        <ele>181.39</ele>
        <time>2018-09-02T08:24:36.999Z</time>
      </trkpt>
      <trkpt lat="46.55336" lon="0.20867">
        <ele>182.07</ele>
        <time>2018-09-02T08:24:38.999Z</time>
      </trkpt>
      <trkpt lat="46.55335" lon="0.20849">
        <ele>182.48</ele>
        <time>2018-09-02T08:24:40.999Z</time>
      </trkpt>
      <trkpt lat="46.55332" lon="0.20832">
        <ele>182.9</ele>
        <time>2018-09-02T08:24:42.999Z</time>
      </trkpt>
      <trkpt lat="46.55329" lon="0.20815">
        <ele>182.79</ele>
        <time>2018-09-02T08:24:44.999Z</time>
      </trkpt>
      <trkpt lat="46.55327" lon="0.20796">
        <ele>182.69</ele>
        <time>2018-09-02T08:24:46.999Z</time>
      </trkpt>
      <trkpt lat="46.55328" lon="0.2078">
        <ele>182.67</ele>
        <time>2018-09-02T08:24:48.999Z</time>
      </trkpt>
      <trkpt lat="46.55327" lon="0.20765">
        <ele>182.7</ele>
        <time>2018-09-02T08:24:51.999Z</time>
      </trkpt>
      <trkpt lat="46.55329" lon="0.20752">
        <ele>182.68</ele>
        <time>2018-09-02T08:24:53.999Z</time>
      </trkpt>
      <trkpt lat="46.55331" lon="0.20734">
        <ele>182.13</ele>
        <time>2018-09-02T08:24:55.999Z</time>
      </trkpt>
      <trkpt lat="46.55336" lon="0.20718">
        <ele>180.71</ele>
        <time>2018-09-02T08:24:57.999Z</time>
      </trkpt>
      <trkpt lat="46.55344" lon="0.20703">
        <ele>178.85</ele>
        <time>2018-09-02T08:24:59.999Z</time>
      </trkpt>
      <trkpt lat="46.55351" lon="0.20687">
        <ele>176.6</ele>
        <time>2018-09-02T08:25:01.999Z</time>
      </trkpt>
      <trkpt lat="46.55358" lon="0.20675">
        <ele>175.68</ele>
        <time>2018-09-02T08:25:03.999Z</time>
      </trkpt>
      <trkpt lat="46.55365" lon="0.20666">
        <ele>173.43</ele>
        <time>2018-09-02T08:25:05.999Z</time>
      </trkpt>
      <trkpt lat="46.55375" lon="0.2065">
        <ele>170.63</ele>
        <time>2018-09-02T08:25:08.999Z</time>
      </trkpt>
      <trkpt lat="46.55383" lon="0.20638">
        <ele>169.4</ele>
        <time>2018-09-02T08:25:10.999Z</time>
      </trkpt>
      <trkpt lat="46.55391" lon="0.20629">
        <ele>168.79</ele>
        <time>2018-09-02T08:25:12.999Z</time>
      </trkpt>
      <trkpt lat="46.554" lon="0.2062">
        <ele>168.85</ele>
        <time>2018-09-02T08:25:15.999Z</time>
      </trkpt>
      <trkpt lat="46.55408" lon="0.20612">
        <ele>168.98</ele>
        <time>2018-09-02T08:25:18.999Z</time>
      </trkpt>
      <trkpt lat="46.55416" lon="0.20604">
        <ele>169.16</ele>
        <time>2018-09-02T08:25:21.999Z</time>
      </trkpt>
      <trkpt lat="46.55415" lon="0.2059">
        <ele>170.3</ele>
        <time>2018-09-02T08:25:30.999Z</time>
      </trkpt>
      <trkpt lat="46.55412" lon="0.20575">
        <ele>170.68</ele>
        <time>2018-09-02T08:25:33.999Z</time>
      </trkpt>
      <trkpt lat="46.55405" lon="0.20565">
        <ele>170.96</ele>
        <time>2018-09-02T08:25:36.999Z</time>
      </trkpt>
      <trkpt lat="46.554" lon="0.20554">
        <ele>171.05</ele>
        <time>2018-09-02T08:25:38.999Z</time>
      </trkpt>
      <trkpt lat="46.55393" lon="0.20545">
        <ele>171.2</ele>
        <time>2018-09-02T08:25:41.999Z</time>
      </trkpt>
      <trkpt lat="46.55382" lon="0.20535">
        <ele>171.33</ele>
        <time>2018-09-02T08:25:45.999Z</time>
      </trkpt>
      <trkpt lat="46.55375" lon="0.20525">
        <ele>171.52</ele>
        <time>2018-09-02T08:25:49.999Z</time>
      </trkpt>
      <trkpt lat="46.55369" lon="0.20513">
        <ele>171.69</ele>
        <time>2018-09-02T08:25:52.999Z</time>
      </trkpt>
      <trkpt lat="46.55363" lon="0.20502">
        <ele>171.8</ele>
        <time>2018-09-02T08:25:55.999Z</time>
      </trkpt>
      <trkpt lat="46.55358" lon="0.20488">
        <ele>172.04</ele>
        <time>2018-09-02T08:25:59.999Z</time>
      </trkpt>
      <trkpt lat="46.55351" lon="0.20479">
        <ele>172.37</ele>
        <time>2018-09-02T08:26:04.999Z</time>
      </trkpt>
      <trkpt lat="46.55343" lon="0.2047">
        <ele>173.2</ele>
        <time>2018-09-02T08:26:09.999Z</time>
      </trkpt>
      <trkpt lat="46.55336" lon="0.20458">
        <ele>174.09</ele>
        <time>2018-09-02T08:26:13.999Z</time>
      </trkpt>
      <trkpt lat="46.5533" lon="0.20448">
        <ele>175.44</ele>
        <time>2018-09-02T08:26:18.999Z</time>
      </trkpt>
      <trkpt lat="46.55322" lon="0.20428">
        <ele>176.97</ele>
        <time>2018-09-02T08:26:23.999Z</time>
      </trkpt>
      <trkpt lat="46.55322" lon="0.20413">
        <ele>177.68</ele>
        <time>2018-09-02T08:26:25.999Z</time>
      </trkpt>
      <trkpt lat="46.55319" lon="0.20399">
        <ele>178.67</ele>
        <time>2018-09-02T08:26:28.999Z</time>
      </trkpt>
      <trkpt lat="46.5532" lon="0.20383">
        <ele>179.86</ele>
        <time>2018-09-02T08:26:32.999Z</time>
      </trkpt>
      <trkpt lat="46.55314" lon="0.20371">
        <ele>180.75</ele>
        <time>2018-09-02T08:26:37.999Z</time>
      </trkpt>
      <trkpt lat="46.55306" lon="0.20363">
        <ele>181.16</ele>
        <time>2018-09-02T08:26:41.999Z</time>
      </trkpt>
      <trkpt lat="46.55297" lon="0.20355">
        <ele>181.53</ele>
        <time>2018-09-02T08:26:45.999Z</time>
      </trkpt>
      <trkpt lat="46.55288" lon="0.20346">
        <ele>182.01</ele>
        <time>2018-09-02T08:26:50.999Z</time>
      </trkpt>
      <trkpt lat="46.5528" lon="0.20336">
        <ele>182.42</ele>
        <time>2018-09-02T08:26:56.999Z</time>
      </trkpt>
      <trkpt lat="46.55273" lon="0.20327">
        <ele>182.83</ele>
        <time>2018-09-02T08:27:02.999Z</time>
      </trkpt>
      <trkpt lat="46.55265" lon="0.20319">
        <ele>183.38</ele>
        <time>2018-09-02T08:27:08.999Z</time>
      </trkpt>
      <trkpt lat="46.55257" lon="0.20309">
        <ele>184.24</ele>
        <time>2018-09-02T08:27:15.999Z</time>
      </trkpt>
      <trkpt lat="46.55249" lon="0.20301">
        <ele>185.38</ele>
        <time>2018-09-02T08:27:23.999Z</time>
      </trkpt>
      <trkpt lat="46.55242" lon="0.20292">
        <ele>186.43</ele>
        <time>2018-09-02T08:27:30.999Z</time>
      </trkpt>
      <trkpt lat="46.55234" lon="0.20282">
        <ele>187.47</ele>
        <time>2018-09-02T08:27:37.999Z</time>
      </trkpt>
      <trkpt lat="46.55227" lon="0.20271">
        <ele>188.57</ele>
        <time>2018-09-02T08:27:44.999Z</time>
      </trkpt>
      <trkpt lat="46.5522" lon="0.20262">
        <ele>189.37</ele>
        <time>2018-09-02T08:27:49.999Z</time>
      </trkpt>
      <trkpt lat="46.55213" lon="0.20251">
        <ele>190.33</ele>
        <time>2018-09-02T08:27:55.999Z</time>
      </trkpt>
      <trkpt lat="46.55206" lon="0.20239">
        <ele>191.31</ele>
        <time>2018-09-02T08:28:01.999Z</time>
      </trkpt>
      <trkpt lat="46.55202" lon="0.20228">
        <ele>192.13</ele>
        <time>2018-09-02T08:28:06.999Z</time>
      </trkpt>
      <trkpt lat="46.55196" lon="0.20217">
        <ele>192.92</ele>
        <time>2018-09-02T08:28:11.999Z</time>
      </trkpt>
      <trkpt lat="46.5519" lon="0.20205">
        <ele>193.76</ele>
        <time>2018-09-02T08:28:16.999Z</time>
      </trkpt>
      <trkpt lat="46.55185" lon="0.20193">
        <ele>194.62</ele>
        <time>2018-09-02T08:28:21.999Z</time>
      </trkpt>
      <trkpt lat="46.55184" lon="0.20179">
        <ele>194.95</ele>
        <time>2018-09-02T08:30:18.999Z</time>
      </trkpt>
      <trkpt lat="46.55178" lon="0.20165">
        <ele>195.11</ele>
        <time>2018-09-02T08:30:24.999Z</time>
      </trkpt>
      <trkpt lat="46.55172" lon="0.20153">
        <ele>195.25</ele>
        <time>2018-09-02T08:30:28.999Z</time>
      </trkpt>
      <trkpt lat="46.55164" lon="0.20141">
        <ele>195.46</ele>
        <time>2018-09-02T08:30:32.999Z</time>
      </trkpt>
      <trkpt lat="46.55157" lon="0.20132">
        <ele>195.61</ele>
        <time>2018-09-02T08:30:35.999Z</time>
      </trkpt>
      <trkpt lat="46.55149" lon="0.20124">
        <ele>195.76</ele>
        <time>2018-09-02T08:30:38.999Z</time>
      </trkpt>
      <trkpt lat="46.5514" lon="0.20117">
        <ele>195.92</ele>
        <time>2018-09-02T08:30:41.999Z</time>
      </trkpt>
      <trkpt lat="46.55132" lon="0.20108">
        <ele>196.07</ele>
        <time>2018-09-02T08:30:44.999Z</time>
      </trkpt>
      <trkpt lat="46.55122" lon="0.20099">
        <ele>196.21</ele>
        <time>2018-09-02T08:30:47.999Z</time>
      </trkpt>
      <trkpt lat="46.55111" lon="0.20091">
        <ele>196.3</ele>
        <time>2018-09-02T08:30:50.999Z</time>
      </trkpt>
      <trkpt lat="46.55102" lon="0.20083">
        <ele>196.43</ele>
        <time>2018-09-02T08:30:53.999Z</time>
      </trkpt>
      <trkpt lat="46.55093" lon="0.20075">
        <ele>196.62</ele>
        <time>2018-09-02T08:30:56.999Z</time>
      </trkpt>
      <trkpt lat="46.55085" lon="0.20066">
        <ele>197.49</ele>
        <time>2018-09-02T08:30:59.999Z</time>
      </trkpt>
      <trkpt lat="46.55082" lon="0.20049">
        <ele>199.35</ele>
        <time>2018-09-02T08:31:02.999Z</time>
      </trkpt>
      <trkpt lat="46.5509" lon="0.20036">
        <ele>200.31</ele>
        <time>2018-09-02T08:31:05.999Z</time>
      </trkpt>
      <trkpt lat="46.55099" lon="0.20027">
        <ele>200.56</ele>
        <time>2018-09-02T08:31:08.999Z</time>
      </trkpt>
      <trkpt lat="46.55109" lon="0.20017">
        <ele>200.49</ele>
        <time>2018-09-02T08:31:11.999Z</time>
      </trkpt>
      <trkpt lat="46.55121" lon="0.20008">
        <ele>200.49</ele>
        <time>2018-09-02T08:31:14.999Z</time>
      </trkpt>
      <trkpt lat="46.5513" lon="0.2">
        <ele>200.31</ele>
        <time>2018-09-02T08:31:16.999Z</time>
      </trkpt>
      <trkpt lat="46.55138" lon="0.19993">
        <ele>200.03</ele>
        <time>2018-09-02T08:31:18.999Z</time>
      </trkpt>
      <trkpt lat="46.55147" lon="0.19984">
        <ele>199.42</ele>
        <time>2018-09-02T08:31:20.999Z</time>
      </trkpt>
      <trkpt lat="46.55157" lon="0.19975">
        <ele>198.78</ele>
        <time>2018-09-02T08:31:22.999Z</time>
      </trkpt>
      <trkpt lat="46.55167" lon="0.19968">
        <ele>198.27</ele>
        <time>2018-09-02T08:31:24.999Z</time>
      </trkpt>
      <trkpt lat="46.55177" lon="0.19961">
        <ele>197.64</ele>
        <time>2018-09-02T08:31:26.999Z</time>
      </trkpt>
      <trkpt lat="46.55186" lon="0.19953">
        <ele>197.33</ele>
        <time>2018-09-02T08:31:28.999Z</time>
      </trkpt>
      <trkpt lat="46.55197" lon="0.19943">
        <ele>197.24</ele>
        <time>2018-09-02T08:31:31.999Z</time>
      </trkpt>
      <trkpt lat="46.55208" lon="0.19933">
        <ele>196.88</ele>
        <time>2018-09-02T08:31:34.999Z</time>
      </trkpt>
      <trkpt lat="46.55218" lon="0.19922">
        <ele>196.36</ele>
        <time>2018-09-02T08:31:37.999Z</time>
      </trkpt>
      <trkpt lat="46.55228" lon="0.19912">
        <ele>195.87</ele>
        <time>2018-09-02T08:31:40.999Z</time>
      </trkpt>
      <trkpt lat="46.55238" lon="0.199">
        <ele>195.5</ele>
        <time>2018-09-02T08:31:43.999Z</time>
      </trkpt>
      <trkpt lat="46.55248" lon="0.19889">
        <ele>195.12</ele>
        <time>2018-09-02T08:31:46.999Z</time>
      </trkpt>
      <trkpt lat="46.55255" lon="0.19881">
        <ele>194.95</ele>
        <time>2018-09-02T08:31:48.999Z</time>
      </trkpt>
      <trkpt lat="46.55266" lon="0.1987">
        <ele>194.78</ele>
        <time>2018-09-02T08:31:51.999Z</time>
      </trkpt>
      <trkpt lat="46.55273" lon="0.19862">
        <ele>194.67</ele>
        <time>2018-09-02T08:31:53.999Z</time>
      </trkpt>
      <trkpt lat="46.55282" lon="0.19853">
        <ele>194.5</ele>
        <time>2018-09-02T08:31:55.999Z</time>
      </trkpt>
      <trkpt lat="46.55291" lon="0.19843">
        <ele>194.33</ele>
        <time>2018-09-02T08:31:57.999Z</time>
      </trkpt>
      <trkpt lat="46.55301" lon="0.19832">
        <ele>194.19</ele>
        <time>2018-09-02T08:31:59.999Z</time>
      </trkpt>
      <trkpt lat="46.55313" lon="0.1982">
        <ele>194.01</ele>
        <time>2018-09-02T08:32:01.999Z</time>
      </trkpt>
      <trkpt lat="46.55325" lon="0.19807">
        <ele>193.54</ele>
        <time>2018-09-02T08:32:03.999Z</time>
      </trkpt>
      <trkpt lat="46.55338" lon="0.19795">
        <ele>193.39</ele>
        <time>2018-09-02T08:32:05.999Z</time>
      </trkpt>
      <trkpt lat="46.55351" lon="0.19789">
        <ele>193.2</ele>
        <time>2018-09-02T08:32:07.999Z</time>
      </trkpt>
      <trkpt lat="46.5536" lon="0.19783">
        <ele>193.22</ele>
        <time>2018-09-02T08:32:09.999Z</time>
      </trkpt>
      <trkpt lat="46.5537" lon="0.19778">
        <ele>193.48</ele>
        <time>2018-09-02T08:32:12.999Z</time>
      </trkpt>
      <trkpt lat="46.55381" lon="0.19771">
        <ele>193.67</ele>
        <time>2018-09-02T08:32:16.999Z</time>
      </trkpt>
      <trkpt lat="46.5539" lon="0.19766">
        <ele>193.9</ele>
        <time>2018-09-02T08:32:19.999Z</time>
      </trkpt>
      <trkpt lat="46.554" lon="0.19761">
        <ele>194.32</ele>
        <time>2018-09-02T08:32:23.999Z</time>
      </trkpt>
      <trkpt lat="46.55411" lon="0.19754">
        <ele>194.87</ele>
        <time>2018-09-02T08:32:27.999Z</time>
      </trkpt>
      <trkpt lat="46.55421" lon="0.19749">
        <ele>195.49</ele>
        <time>2018-09-02T08:32:31.999Z</time>
      </trkpt>
      <trkpt lat="46.5543" lon="0.19742">
        <ele>195.97</ele>
        <time>2018-09-02T08:32:34.999Z</time>
      </trkpt>
      <trkpt lat="46.55437" lon="0.19735">
        <ele>196.44</ele>
        <time>2018-09-02T08:32:37.999Z</time>
      </trkpt>
      <trkpt lat="46.55447" lon="0.19729">
        <ele>196.89</ele>
        <time>2018-09-02T08:32:40.999Z</time>
      </trkpt>
      <trkpt lat="46.55459" lon="0.19724">
        <ele>197.51</ele>
        <time>2018-09-02T08:32:44.999Z</time>
      </trkpt>
      <trkpt lat="46.55469" lon="0.1972">
        <ele>198.12</ele>
        <time>2018-09-02T08:32:48.999Z</time>
      </trkpt>
      <trkpt lat="46.55478" lon="0.19714">
        <ele>198.6</ele>
        <time>2018-09-02T08:32:51.999Z</time>
      </trkpt>
      <trkpt lat="46.55488" lon="0.19708">
        <ele>199.19</ele>
        <time>2018-09-02T08:32:55.999Z</time>
      </trkpt>
      <trkpt lat="46.55496" lon="0.19703">
        <ele>199.46</ele>
        <time>2018-09-02T08:32:58.999Z</time>
      </trkpt>
      <trkpt lat="46.55507" lon="0.19698">
        <ele>199.6</ele>
        <time>2018-09-02T08:33:01.999Z</time>
      </trkpt>
      <trkpt lat="46.55516" lon="0.19692">
        <ele>199.73</ele>
        <time>2018-09-02T08:33:04.999Z</time>
      </trkpt>
      <trkpt lat="46.55526" lon="0.19686">
        <ele>199.9</ele>
        <time>2018-09-02T08:33:07.999Z</time>
      </trkpt>
      <trkpt lat="46.55535" lon="0.19682">
        <ele>200.13</ele>
        <time>2018-09-02T08:33:10.999Z</time>
      </trkpt>
      <trkpt lat="46.55544" lon="0.1968">
        <ele>200.43</ele>
        <time>2018-09-02T08:33:13.999Z</time>
      </trkpt>
      <trkpt lat="46.55554" lon="0.19676">
        <ele>201.85</ele>
        <time>2018-09-02T08:33:16.999Z</time>
      </trkpt>
      <trkpt lat="46.55566" lon="0.19673">
        <ele>203.72</ele>
        <time>2018-09-02T08:33:19.999Z</time>
      </trkpt>
      <trkpt lat="46.55578" lon="0.1967">
        <ele>203.63</ele>
        <time>2018-09-02T08:33:22.999Z</time>
      </trkpt>
      <trkpt lat="46.55589" lon="0.19664">
        <ele>203.47</ele>
        <time>2018-09-02T08:33:25.999Z</time>
      </trkpt>
      <trkpt lat="46.556" lon="0.19656">
        <ele>203.3</ele>
        <time>2018-09-02T08:33:29.999Z</time>
      </trkpt>
      <trkpt lat="46.55608" lon="0.19642">
        <ele>203.02</ele>
        <time>2018-09-02T08:33:32.999Z</time>
      </trkpt>
      <trkpt lat="46.5561" lon="0.19623">
        <ele>204.2</ele>
        <time>2018-09-02T08:33:35.999Z</time>
      </trkpt>
      <trkpt lat="46.55611" lon="0.19608">
        <ele>205.32</ele>
        <time>2018-09-02T08:33:37.999Z</time>
      </trkpt>
      <trkpt lat="46.55611" lon="0.19594">
        <ele>206.23</ele>
        <time>2018-09-02T08:33:39.999Z</time>
      </trkpt>
      <trkpt lat="46.55612" lon="0.19575">
        <ele>207.78</ele>
        <time>2018-09-02T08:33:42.999Z</time>
      </trkpt>
      <trkpt lat="46.55612" lon="0.19556">
        <ele>209.04</ele>
        <time>2018-09-02T08:33:45.999Z</time>
      </trkpt>
      <trkpt lat="46.5561" lon="0.19536">
        <ele>209.7</ele>
        <time>2018-09-02T08:33:48.999Z</time>
      </trkpt>
      <trkpt lat="46.55603" lon="0.19526">
        <ele>209.23</ele>
        <time>2018-09-02T08:33:50.999Z</time>
      </trkpt>
      <trkpt lat="46.55593" lon="0.19518">
        <ele>207.84</ele>
        <time>2018-09-02T08:33:52.999Z</time>
      </trkpt>
      <trkpt lat="46.55585" lon="0.1951">
        <ele>206.88</ele>
        <time>2018-09-02T08:33:54.999Z</time>
      </trkpt>
      <trkpt lat="46.55575" lon="0.19501">
        <ele>206.78</ele>
        <time>2018-09-02T08:33:57.999Z</time>
      </trkpt>
      <trkpt lat="46.55564" lon="0.19491">
        <ele>206.55</ele>
        <time>2018-09-02T08:34:00.999Z</time>
      </trkpt>
      <trkpt lat="46.55557" lon="0.19483">
        <ele>206.63</ele>
        <time>2018-09-02T08:34:02.999Z</time>
      </trkpt>
      <trkpt lat="46.55549" lon="0.19476">
        <ele>206.77</ele>
        <time>2018-09-02T08:34:04.999Z</time>
      </trkpt>
      <trkpt lat="46.55541" lon="0.19467">
        <ele>206.92</ele>
        <time>2018-09-02T08:34:06.999Z</time>
      </trkpt>
      <trkpt lat="46.55534" lon="0.19457">
        <ele>206.98</ele>
        <time>2018-09-02T08:34:08.999Z</time>
      </trkpt>
      <trkpt lat="46.55526" lon="0.19444">
        <ele>207.29</ele>
        <time>2018-09-02T08:34:11.999Z</time>
      </trkpt>
      <trkpt lat="46.55518" lon="0.19431">
        <ele>207.95</ele>
        <time>2018-09-02T08:34:14.999Z</time>
      </trkpt>
      <trkpt lat="46.55509" lon="0.19415">
        <ele>208.1</ele>
        <time>2018-09-02T08:34:17.999Z</time>
      </trkpt>
      <trkpt lat="46.55502" lon="0.19402">
        <ele>207.6</ele>
        <time>2018-09-02T08:34:19.999Z</time>
      </trkpt>
      <trkpt lat="46.55495" lon="0.19386">
        <ele>207.45</ele>
        <time>2018-09-02T08:34:22.999Z</time>
      </trkpt>
      <trkpt lat="46.55487" lon="0.19374">
        <ele>207.29</ele>
        <time>2018-09-02T08:34:25.999Z</time>
      </trkpt>
      <trkpt lat="46.55481" lon="0.19366">
        <ele>207.01</ele>
        <time>2018-09-02T08:34:28.999Z</time>
      </trkpt>
      <trkpt lat="46.55474" lon="0.19354">
        <ele>204.89</ele>
        <time>2018-09-02T08:34:30.999Z</time>
      </trkpt>
      <trkpt lat="46.55465" lon="0.19337">
        <ele>203.1</ele>
        <time>2018-09-02T08:34:33.999Z</time>
      </trkpt>
      <trkpt lat="46.55459" lon="0.19325">
        <ele>203.1</ele>
        <time>2018-09-02T08:34:35.999Z</time>
      </trkpt>
      <trkpt lat="46.55451" lon="0.19312">
        <ele>202.8</ele>
        <time>2018-09-02T08:34:37.999Z</time>
      </trkpt>
      <trkpt lat="46.55445" lon="0.19301">
        <ele>202.68</ele>
        <time>2018-09-02T08:34:39.999Z</time>
      </trkpt>
      <trkpt lat="46.55438" lon="0.19285">
        <ele>203.18</ele>
        <time>2018-09-02T08:34:42.999Z</time>
      </trkpt>
      <trkpt lat="46.55431" lon="0.19274">
        <ele>203.86</ele>
        <time>2018-09-02T08:34:44.999Z</time>
      </trkpt>
      <trkpt lat="46.5543" lon="0.1926">
        <ele>204.52</ele>
        <time>2018-09-02T08:34:47.999Z</time>
      </trkpt>
      <trkpt lat="46.55436" lon="0.19248">
        <ele>205.24</ele>
        <time>2018-09-02T08:34:49.999Z</time>
      </trkpt>
      <trkpt lat="46.55442" lon="0.19233">
        <ele>204.98</ele>
        <time>2018-09-02T08:34:51.999Z</time>
      </trkpt>
      <trkpt lat="46.5545" lon="0.19219">
        <ele>204.51</ele>
        <time>2018-09-02T08:34:53.999Z</time>
      </trkpt>
      <trkpt lat="46.55459" lon="0.19208">
        <ele>204.24</ele>
        <time>2018-09-02T08:34:55.999Z</time>
      </trkpt>
      <trkpt lat="46.5547" lon="0.19198">
        <ele>204.07</ele>
        <time>2018-09-02T08:34:57.999Z</time>
      </trkpt>
      <trkpt lat="46.55482" lon="0.19188">
        <ele>203.9</ele>
        <time>2018-09-02T08:34:59.999Z</time>
      </trkpt>
      <trkpt lat="46.55493" lon="0.19177">
        <ele>203.82</ele>
        <time>2018-09-02T08:35:01.999Z</time>
      </trkpt>
      <trkpt lat="46.55504" lon="0.19166">
        <ele>203.88</ele>
        <time>2018-09-02T08:35:03.999Z</time>
      </trkpt>
      <trkpt lat="46.55515" lon="0.19154">
        <ele>204.05</ele>
        <time>2018-09-02T08:35:05.999Z</time>
      </trkpt>
      <trkpt lat="46.55526" lon="0.1914">
        <ele>204.28</ele>
        <time>2018-09-02T08:35:07.999Z</time>
      </trkpt>
      <trkpt lat="46.55537" lon="0.1913">
        <ele>204.9</ele>
        <time>2018-09-02T08:35:09.999Z</time>
      </trkpt>
      <trkpt lat="46.55547" lon="0.19123">
        <ele>205.04</ele>
        <time>2018-09-02T08:35:11.999Z</time>
      </trkpt>
      <trkpt lat="46.5556" lon="0.19126">
        <ele>205.32</ele>
        <time>2018-09-02T08:35:14.999Z</time>
      </trkpt>
      <trkpt lat="46.55571" lon="0.19128">
        <ele>204.65</ele>
        <time>2018-09-02T08:35:17.999Z</time>
      </trkpt>
      <trkpt lat="46.55581" lon="0.19125">
        <ele>203.55</ele>
        <time>2018-09-02T08:35:19.999Z</time>
      </trkpt>
      <trkpt lat="46.5559" lon="0.19125">
        <ele>203.13</ele>
        <time>2018-09-02T08:35:21.999Z</time>
      </trkpt>
      <trkpt lat="46.55602" lon="0.19128">
        <ele>201.99</ele>
        <time>2018-09-02T08:35:24.999Z</time>
      </trkpt>
      <trkpt lat="46.55611" lon="0.19128">
        <ele>201.35</ele>
        <time>2018-09-02T08:35:26.999Z</time>
      </trkpt>
      <trkpt lat="46.55623" lon="0.19129">
        <ele>201.1</ele>
        <time>2018-09-02T08:35:28.999Z</time>
      </trkpt>
      <trkpt lat="46.55634" lon="0.19129">
        <ele>201.07</ele>
        <time>2018-09-02T08:35:30.999Z</time>
      </trkpt>
      <trkpt lat="46.55646" lon="0.19127">
        <ele>201.16</ele>
        <time>2018-09-02T08:35:32.999Z</time>
      </trkpt>
      <trkpt lat="46.55658" lon="0.19125">
        <ele>201.47</ele>
        <time>2018-09-02T08:35:34.999Z</time>
      </trkpt>
      <trkpt lat="46.55668" lon="0.19123">
        <ele>201.7</ele>
        <time>2018-09-02T08:35:36.999Z</time>
      </trkpt>
      <trkpt lat="46.55678" lon="0.1912">
        <ele>201.9</ele>
        <time>2018-09-02T08:35:38.999Z</time>
      </trkpt>
      <trkpt lat="46.55688" lon="0.19117">
        <ele>202.23</ele>
        <time>2018-09-02T08:35:40.999Z</time>
      </trkpt>
      <trkpt lat="46.55699" lon="0.19113">
        <ele>202.63</ele>
        <time>2018-09-02T08:35:42.999Z</time>
      </trkpt>
      <trkpt lat="46.5571" lon="0.1911">
        <ele>202.64</ele>
        <time>2018-09-02T08:35:44.999Z</time>
      </trkpt>
      <trkpt lat="46.55721" lon="0.19106">
        <ele>202.22</ele>
        <time>2018-09-02T08:35:46.999Z</time>
      </trkpt>
      <trkpt lat="46.55732" lon="0.19104">
        <ele>201.85</ele>
        <time>2018-09-02T08:35:48.999Z</time>
      </trkpt>
      <trkpt lat="46.55742" lon="0.19103">
        <ele>201.51</ele>
        <time>2018-09-02T08:35:50.999Z</time>
      </trkpt>
      <trkpt lat="46.55752" lon="0.191">
        <ele>201.21</ele>
        <time>2018-09-02T08:35:52.999Z</time>
      </trkpt>
      <trkpt lat="46.55762" lon="0.191">
        <ele>201.02</ele>
        <time>2018-09-02T08:35:54.999Z</time>
      </trkpt>
      <trkpt lat="46.55773" lon="0.19097">
        <ele>200.95</ele>
        <time>2018-09-02T08:35:56.999Z</time>
      </trkpt>
      <trkpt lat="46.55782" lon="0.19095">
        <ele>200.99</ele>
        <time>2018-09-02T08:35:58.999Z</time>
      </trkpt>
      <trkpt lat="46.55793" lon="0.19093">
        <ele>200.4</ele>
        <time>2018-09-02T08:36:00.999Z</time>
      </trkpt>
      <trkpt lat="46.55811" lon="0.19086">
        <ele>199.98</ele>
        <time>2018-09-02T08:36:03.999Z</time>
      </trkpt>
      <trkpt lat="46.55824" lon="0.19083">
        <ele>199.74</ele>
        <time>2018-09-02T08:36:05.999Z</time>
      </trkpt>
      <trkpt lat="46.55837" lon="0.19083">
        <ele>199.86</ele>
        <time>2018-09-02T08:36:07.999Z</time>
      </trkpt>
      <trkpt lat="46.55846" lon="0.19087">
        <ele>199.8</ele>
        <time>2018-09-02T08:36:09.999Z</time>
      </trkpt>
      <trkpt lat="46.55856" lon="0.19093">
        <ele>199.68</ele>
        <time>2018-09-02T08:36:11.999Z</time>
      </trkpt>
      <trkpt lat="46.55865" lon="0.19098">
        <ele>199.72</ele>
        <time>2018-09-02T08:36:13.999Z</time>
      </trkpt>
      <trkpt lat="46.55874" lon="0.19102">
        <ele>200.19</ele>
        <time>2018-09-02T08:36:15.999Z</time>
      </trkpt>
      <trkpt lat="46.55887" lon="0.19102">
        <ele>200.67</ele>
        <time>2018-09-02T08:36:18.999Z</time>
      </trkpt>
      <trkpt lat="46.559" lon="0.19102">
        <ele>201.74</ele>
        <time>2018-09-02T08:36:21.999Z</time>
      </trkpt>
      <trkpt lat="46.55914" lon="0.19095">
        <ele>202.3</ele>
        <time>2018-09-02T08:36:24.999Z</time>
      </trkpt>
      <trkpt lat="46.55926" lon="0.19089">
        <ele>203</ele>
        <time>2018-09-02T08:36:27.999Z</time>
      </trkpt>
      <trkpt lat="46.55935" lon="0.19096">
        <ele>202.31</ele>
        <time>2018-09-02T08:36:31.999Z</time>
      </trkpt>
      <trkpt lat="46.55938" lon="0.19108">
        <ele>201.41</ele>
        <time>2018-09-02T08:36:33.999Z</time>
      </trkpt>
      <trkpt lat="46.55941" lon="0.19122">
        <ele>200.57</ele>
        <time>2018-09-02T08:36:35.999Z</time>
      </trkpt>
      <trkpt lat="46.55945" lon="0.19137">
        <ele>199.74</ele>
        <time>2018-09-02T08:36:37.999Z</time>
      </trkpt>
      <trkpt lat="46.55949" lon="0.19152">
        <ele>199.09</ele>
        <time>2018-09-02T08:36:39.999Z</time>
      </trkpt>
      <trkpt lat="46.55953" lon="0.19167">
        <ele>198.61</ele>
        <time>2018-09-02T08:36:41.999Z</time>
      </trkpt>
      <trkpt lat="46.55957" lon="0.19181">
        <ele>198.14</ele>
        <time>2018-09-02T08:36:43.999Z</time>
      </trkpt>
      <trkpt lat="46.55961" lon="0.19195">
        <ele>197.74</ele>
        <time>2018-09-02T08:36:45.999Z</time>
      </trkpt>
      <trkpt lat="46.55964" lon="0.19212">
        <ele>197.23</ele>
        <time>2018-09-02T08:36:47.999Z</time>
      </trkpt>
      <trkpt lat="46.55966" lon="0.19229">
        <ele>196.16</ele>
        <time>2018-09-02T08:36:49.999Z</time>
      </trkpt>
      <trkpt lat="46.55968" lon="0.19242">
        <ele>195.34</ele>
        <time>2018-09-02T08:36:51.999Z</time>
      </trkpt>
      <trkpt lat="46.55968" lon="0.19256">
        <ele>195</ele>
        <time>2018-09-02T08:36:53.999Z</time>
      </trkpt>
      <trkpt lat="46.55962" lon="0.19271">
        <ele>195.23</ele>
        <time>2018-09-02T08:36:55.999Z</time>
      </trkpt>
      <trkpt lat="46.55955" lon="0.19284">
        <ele>195.72</ele>
        <time>2018-09-02T08:36:57.999Z</time>
      </trkpt>
      <trkpt lat="46.5595" lon="0.19301">
        <ele>196.78</ele>
        <time>2018-09-02T08:36:59.999Z</time>
      </trkpt>
      <trkpt lat="46.55946" lon="0.19318">
        <ele>197.64</ele>
        <time>2018-09-02T08:37:01.999Z</time>
      </trkpt>
      <trkpt lat="46.55941" lon="0.19332">
        <ele>198.8</ele>
        <time>2018-09-02T08:37:03.999Z</time>
      </trkpt>
      <trkpt lat="46.55938" lon="0.19348">
        <ele>198.86</ele>
        <time>2018-09-02T08:37:05.999Z</time>
      </trkpt>
      <trkpt lat="46.55935" lon="0.19364">
        <ele>198.37</ele>
        <time>2018-09-02T08:37:07.999Z</time>
      </trkpt>
      <trkpt lat="46.55933" lon="0.19379">
        <ele>198.22</ele>
        <time>2018-09-02T08:37:09.999Z</time>
      </trkpt>
      <trkpt lat="46.55929" lon="0.19393">
        <ele>197.8</ele>
        <time>2018-09-02T08:37:11.999Z</time>
      </trkpt>
      <trkpt lat="46.55924" lon="0.1941">
        <ele>197.43</ele>
        <time>2018-09-02T08:37:14.999Z</time>
      </trkpt>
      <trkpt lat="46.55919" lon="0.19424">
        <ele>197.46</ele>
        <time>2018-09-02T08:37:17.999Z</time>
      </trkpt>
      <trkpt lat="46.55917" lon="0.19439">
        <ele>197.42</ele>
        <time>2018-09-02T08:37:20.999Z</time>
      </trkpt>
      <trkpt lat="46.55916" lon="0.19454">
        <ele>197.41</ele>
        <time>2018-09-02T08:37:24.999Z</time>
      </trkpt>
      <trkpt lat="46.55914" lon="0.19471">
        <ele>197.31</ele>
        <time>2018-09-02T08:37:27.999Z</time>
      </trkpt>
      <trkpt lat="46.55912" lon="0.1949">
        <ele>196</ele>
        <time>2018-09-02T08:37:30.999Z</time>
      </trkpt>
      <trkpt lat="46.55913" lon="0.19504">
        <ele>195.59</ele>
        <time>2018-09-02T08:37:32.999Z</time>
      </trkpt>
      <trkpt lat="46.55914" lon="0.19517">
        <ele>195.62</ele>
        <time>2018-09-02T08:37:34.999Z</time>
      </trkpt>
      <trkpt lat="46.55917" lon="0.19531">
        <ele>195.99</ele>
        <time>2018-09-02T08:37:36.999Z</time>
      </trkpt>
      <trkpt lat="46.55918" lon="0.19544">
        <ele>195.82</ele>
        <time>2018-09-02T08:37:38.999Z</time>
      </trkpt>
      <trkpt lat="46.5592" lon="0.19559">
        <ele>195.33</ele>
        <time>2018-09-02T08:37:40.999Z</time>
      </trkpt>
      <trkpt lat="46.55923" lon="0.19573">
        <ele>195.11</ele>
        <time>2018-09-02T08:37:42.999Z</time>
      </trkpt>
      <trkpt lat="46.55925" lon="0.19587">
        <ele>194.89</ele>
        <time>2018-09-02T08:37:44.999Z</time>
      </trkpt>
      <trkpt lat="46.5593" lon="0.19602">
        <ele>194.72</ele>
        <time>2018-09-02T08:37:46.999Z</time>
      </trkpt>
      <trkpt lat="46.55933" lon="0.19617">
        <ele>194.5</ele>
        <time>2018-09-02T08:37:48.999Z</time>
      </trkpt>
      <trkpt lat="46.55938" lon="0.1963">
        <ele>194.5</ele>
        <time>2018-09-02T08:37:50.999Z</time>
      </trkpt>
      <trkpt lat="46.55942" lon="0.19643">
        <ele>194.53</ele>
        <time>2018-09-02T08:37:52.999Z</time>
      </trkpt>
      <trkpt lat="46.55947" lon="0.19657">
        <ele>194.61</ele>
        <time>2018-09-02T08:37:54.999Z</time>
      </trkpt>
      <trkpt lat="46.55954" lon="0.1967">
        <ele>194.81</ele>
        <time>2018-09-02T08:37:56.999Z</time>
      </trkpt>
      <trkpt lat="46.5596" lon="0.19683">
        <ele>194.4</ele>
        <time>2018-09-02T08:37:58.999Z</time>
      </trkpt>
      <trkpt lat="46.55965" lon="0.19697">
        <ele>193.99</ele>
        <time>2018-09-02T08:38:00.999Z</time>
      </trkpt>
      <trkpt lat="46.55968" lon="0.19713">
        <ele>193.62</ele>
        <time>2018-09-02T08:38:02.999Z</time>
      </trkpt>
      <trkpt lat="46.55969" lon="0.19727">
        <ele>193.22</ele>
        <time>2018-09-02T08:38:04.999Z</time>
      </trkpt>
      <trkpt lat="46.55969" lon="0.1974">
        <ele>192.8</ele>
        <time>2018-09-02T08:38:06.999Z</time>
      </trkpt>
      <trkpt lat="46.55969" lon="0.19754">
        <ele>192.27</ele>
        <time>2018-09-02T08:38:08.999Z</time>
      </trkpt>
      <trkpt lat="46.5597" lon="0.19771">
        <ele>192.28</ele>
        <time>2018-09-02T08:38:11.999Z</time>
      </trkpt>
      <trkpt lat="46.55973" lon="0.19783">
        <ele>192.16</ele>
        <time>2018-09-02T08:38:13.999Z</time>
      </trkpt>
      <trkpt lat="46.55978" lon="0.19794">
        <ele>191.92</ele>
        <time>2018-09-02T08:38:15.999Z</time>
      </trkpt>
      <trkpt lat="46.55987" lon="0.19803">
        <ele>191.89</ele>
        <time>2018-09-02T08:38:17.999Z</time>
      </trkpt>
      <trkpt lat="46.55994" lon="0.19813">
        <ele>192.06</ele>
        <time>2018-09-02T08:38:19.999Z</time>
      </trkpt>
      <trkpt lat="46.56005" lon="0.19822">
        <ele>191.93</ele>
        <time>2018-09-02T08:38:21.999Z</time>
      </trkpt>
      <trkpt lat="46.56015" lon="0.19829">
        <ele>192.12</ele>
        <time>2018-09-02T08:38:23.999Z</time>
      </trkpt>
      <trkpt lat="46.56025" lon="0.19835">
        <ele>192.26</ele>
        <time>2018-09-02T08:38:25.999Z</time>
      </trkpt>
      <trkpt lat="46.56035" lon="0.19839">
        <ele>192.43</ele>
        <time>2018-09-02T08:38:27.999Z</time>
      </trkpt>
      <trkpt lat="46.56045" lon="0.19842">
        <ele>192.6</ele>
        <time>2018-09-02T08:38:29.999Z</time>
      </trkpt>
      <trkpt lat="46.56056" lon="0.19846">
        <ele>193</ele>
        <time>2018-09-02T08:38:31.999Z</time>
      </trkpt>
      <trkpt lat="46.56066" lon="0.19847">
        <ele>193.43</ele>
        <time>2018-09-02T08:38:33.999Z</time>
      </trkpt>
      <trkpt lat="46.56076" lon="0.19851">
        <ele>193.63</ele>
        <time>2018-09-02T08:38:35.999Z</time>
      </trkpt>
      <trkpt lat="46.56087" lon="0.19852">
        <ele>194</ele>
        <time>2018-09-02T08:38:37.999Z</time>
      </trkpt>
      <trkpt lat="46.56098" lon="0.19851">
        <ele>194.63</ele>
        <time>2018-09-02T08:38:39.999Z</time>
      </trkpt>
      <trkpt lat="46.56112" lon="0.19849">
        <ele>195.72</ele>
        <time>2018-09-02T08:38:42.999Z</time>
      </trkpt>
      <trkpt lat="46.56121" lon="0.19846">
        <ele>196.47</ele>
        <time>2018-09-02T08:38:44.999Z</time>
      </trkpt>
      <trkpt lat="46.56132" lon="0.19841">
        <ele>196.91</ele>
        <time>2018-09-02T08:38:46.999Z</time>
      </trkpt>
      <trkpt lat="46.56142" lon="0.19838">
        <ele>197.48</ele>
        <time>2018-09-02T08:38:48.999Z</time>
      </trkpt>
      <trkpt lat="46.56153" lon="0.19835">
        <ele>197.9</ele>
        <time>2018-09-02T08:38:50.999Z</time>
      </trkpt>
      <trkpt lat="46.56162" lon="0.19834">
        <ele>198.22</ele>
        <time>2018-09-02T08:38:52.999Z</time>
      </trkpt>
      <trkpt lat="46.56172" lon="0.19833">
        <ele>198.41</ele>
        <time>2018-09-02T08:38:54.999Z</time>
      </trkpt>
      <trkpt lat="46.56183" lon="0.19836">
        <ele>198.07</ele>
        <time>2018-09-02T08:38:56.999Z</time>
      </trkpt>
      <trkpt lat="46.56194" lon="0.19841">
        <ele>196.96</ele>
        <time>2018-09-02T08:38:58.999Z</time>
      </trkpt>
      <trkpt lat="46.56206" lon="0.19846">
        <ele>195.75</ele>
        <time>2018-09-02T08:39:00.999Z</time>
      </trkpt>
      <trkpt lat="46.56218" lon="0.19851">
        <ele>194.73</ele>
        <time>2018-09-02T08:39:02.999Z</time>
      </trkpt>
      <trkpt lat="46.5623" lon="0.19858">
        <ele>193.97</ele>
        <time>2018-09-02T08:39:04.999Z</time>
      </trkpt>
      <trkpt lat="46.56242" lon="0.19866">
        <ele>193.61</ele>
        <time>2018-09-02T08:39:06.999Z</time>
      </trkpt>
      <trkpt lat="46.56255" lon="0.19873">
        <ele>193.52</ele>
        <time>2018-09-02T08:39:08.999Z</time>
      </trkpt>
      <trkpt lat="46.56267" lon="0.1988">
        <ele>193.58</ele>
        <time>2018-09-02T08:39:10.999Z</time>
      </trkpt>
      <trkpt lat="46.56279" lon="0.19887">
        <ele>193.53</ele>
        <time>2018-09-02T08:39:12.999Z</time>
      </trkpt>
      <trkpt lat="46.56289" lon="0.19892">
        <ele>193.37</ele>
        <time>2018-09-02T08:39:14.999Z</time>
      </trkpt>
      <trkpt lat="46.56302" lon="0.19898">
        <ele>193.08</ele>
        <time>2018-09-02T08:39:16.999Z</time>
      </trkpt>
      <trkpt lat="46.56313" lon="0.19906">
        <ele>192.91</ele>
        <time>2018-09-02T08:39:18.999Z</time>
      </trkpt>
      <trkpt lat="46.56324" lon="0.19912">
        <ele>192.6</ele>
        <time>2018-09-02T08:39:20.999Z</time>
      </trkpt>
      <trkpt lat="46.56337" lon="0.19918">
        <ele>192.36</ele>
        <time>2018-09-02T08:39:22.999Z</time>
      </trkpt>
      <trkpt lat="46.56351" lon="0.19922">
        <ele>192.1</ele>
        <time>2018-09-02T08:39:24.999Z</time>
      </trkpt>
      <trkpt lat="46.56364" lon="0.19927">
        <ele>191.76</ele>
        <time>2018-09-02T08:39:26.999Z</time>
      </trkpt>
      <trkpt lat="46.56377" lon="0.19934">
        <ele>191.4</ele>
        <time>2018-09-02T08:39:28.999Z</time>
      </trkpt>
      <trkpt lat="46.56391" lon="0.1994">
        <ele>190.94</ele>
        <time>2018-09-02T08:39:30.999Z</time>
      </trkpt>
      <trkpt lat="46.56406" lon="0.19945">
        <ele>190.49</ele>
        <time>2018-09-02T08:39:32.999Z</time>
      </trkpt>
      <trkpt lat="46.56419" lon="0.19949">
        <ele>190.24</ele>
        <time>2018-09-02T08:39:34.999Z</time>
      </trkpt>
      <trkpt lat="46.56434" lon="0.19954">
        <ele>189.74</ele>
        <time>2018-09-02T08:39:36.999Z</time>
      </trkpt>
      <trkpt lat="46.5645" lon="0.19958">
        <ele>189.25</ele>
        <time>2018-09-02T08:39:38.999Z</time>
      </trkpt>
      <trkpt lat="46.56465" lon="0.19963">
        <ele>189.05</ele>
        <time>2018-09-02T08:39:40.999Z</time>
      </trkpt>
      <trkpt lat="46.56482" lon="0.19968">
        <ele>188.59</ele>
        <time>2018-09-02T08:39:42.999Z</time>
      </trkpt>
      <trkpt lat="46.56499" lon="0.19975">
        <ele>188.15</ele>
        <time>2018-09-02T08:39:44.999Z</time>
      </trkpt>
      <trkpt lat="46.56516" lon="0.19979">
        <ele>187.79</ele>
        <time>2018-09-02T08:39:46.999Z</time>
      </trkpt>
      <trkpt lat="46.56532" lon="0.19982">
        <ele>187.61</ele>
        <time>2018-09-02T08:39:48.999Z</time>
      </trkpt>
      <trkpt lat="46.56544" lon="0.19982">
        <ele>187.29</ele>
        <time>2018-09-02T08:39:50.999Z</time>
      </trkpt>
      <trkpt lat="46.56554" lon="0.19982">
        <ele>187.08</ele>
        <time>2018-09-02T08:39:52.999Z</time>
      </trkpt>
      <trkpt lat="46.56564" lon="0.19985">
        <ele>186.81</ele>
        <time>2018-09-02T08:39:54.999Z</time>
      </trkpt>
      <trkpt lat="46.56571" lon="0.19997">
        <ele>186.58</ele>
        <time>2018-09-02T08:39:56.999Z</time>
      </trkpt>
      <trkpt lat="46.56576" lon="0.20012">
        <ele>186.47</ele>
        <time>2018-09-02T08:39:58.999Z</time>
      </trkpt>
      <trkpt lat="46.56581" lon="0.20029">
        <ele>185.85</ele>
        <time>2018-09-02T08:40:00.999Z</time>
      </trkpt>
      <trkpt lat="46.56587" lon="0.20046">
        <ele>185.39</ele>
        <time>2018-09-02T08:40:02.999Z</time>
      </trkpt>
      <trkpt lat="46.56593" lon="0.20064">
        <ele>184.92</ele>
        <time>2018-09-02T08:40:04.999Z</time>
      </trkpt>
      <trkpt lat="46.56599" lon="0.20082">
        <ele>184.37</ele>
        <time>2018-09-02T08:40:06.999Z</time>
      </trkpt>
      <trkpt lat="46.56604" lon="0.201">
        <ele>183.68</ele>
        <time>2018-09-02T08:40:08.999Z</time>
      </trkpt>
      <trkpt lat="46.5661" lon="0.20119">
        <ele>182.99</ele>
        <time>2018-09-02T08:40:10.999Z</time>
      </trkpt>
      <trkpt lat="46.56616" lon="0.20139">
        <ele>182.59</ele>
        <time>2018-09-02T08:40:12.999Z</time>
      </trkpt>
      <trkpt lat="46.56623" lon="0.2016">
        <ele>182.1</ele>
        <time>2018-09-02T08:40:14.999Z</time>
      </trkpt>
      <trkpt lat="46.56628" lon="0.20181">
        <ele>181.85</ele>
        <time>2018-09-02T08:40:16.999Z</time>
      </trkpt>
      <trkpt lat="46.56631" lon="0.20203">
        <ele>181.35</ele>
        <time>2018-09-02T08:40:18.999Z</time>
      </trkpt>
      <trkpt lat="46.56633" lon="0.20224">
        <ele>180.61</ele>
        <time>2018-09-02T08:40:20.999Z</time>
      </trkpt>
      <trkpt lat="46.56634" lon="0.20244">
        <ele>179.56</ele>
        <time>2018-09-02T08:40:22.999Z</time>
      </trkpt>
      <trkpt lat="46.56631" lon="0.20261">
        <ele>178.61</ele>
        <time>2018-09-02T08:40:24.999Z</time>
      </trkpt>
      <trkpt lat="46.56632" lon="0.20275">
        <ele>178.01</ele>
        <time>2018-09-02T08:40:26.999Z</time>
      </trkpt>
      <trkpt lat="46.56639" lon="0.20291">
        <ele>177.68</ele>
        <time>2018-09-02T08:40:28.999Z</time>
      </trkpt>
      <trkpt lat="46.56643" lon="0.20313">
        <ele>177.52</ele>
        <time>2018-09-02T08:40:30.999Z</time>
      </trkpt>
      <trkpt lat="46.5664" lon="0.20336">
        <ele>177.93</ele>
        <time>2018-09-02T08:40:32.999Z</time>
      </trkpt>
      <trkpt lat="46.56639" lon="0.20359">
        <ele>177.91</ele>
        <time>2018-09-02T08:40:34.999Z</time>
      </trkpt>
      <trkpt lat="46.56638" lon="0.20374">
        <ele>177.6</ele>
        <time>2018-09-02T08:40:35.999Z</time>
      </trkpt>
      <trkpt lat="46.56641" lon="0.20388">
        <ele>177.02</ele>
        <time>2018-09-02T08:40:36.999Z</time>
      </trkpt>
      <trkpt lat="46.56644" lon="0.20403">
        <ele>176.36</ele>
        <time>2018-09-02T08:40:37.999Z</time>
      </trkpt>
      <trkpt lat="46.56647" lon="0.20418">
        <ele>175.41</ele>
        <time>2018-09-02T08:40:38.999Z</time>
      </trkpt>
      <trkpt lat="46.56649" lon="0.20432">
        <ele>174.47</ele>
        <time>2018-09-02T08:40:39.999Z</time>
      </trkpt>
      <trkpt lat="46.56652" lon="0.20445">
        <ele>173.55</ele>
        <time>2018-09-02T08:40:40.999Z</time>
      </trkpt>
      <trkpt lat="46.56653" lon="0.20465">
        <ele>171.65</ele>
        <time>2018-09-02T08:40:42.999Z</time>
      </trkpt>
      <trkpt lat="46.56658" lon="0.20477">
        <ele>171.32</ele>
        <time>2018-09-02T08:40:45.999Z</time>
      </trkpt>
      <trkpt lat="46.56667" lon="0.2048">
        <ele>170.07</ele>
        <time>2018-09-02T08:40:48.999Z</time>
      </trkpt>
      <trkpt lat="46.56679" lon="0.20481">
        <ele>169.2</ele>
        <time>2018-09-02T08:40:51.999Z</time>
      </trkpt>
      <trkpt lat="46.56691" lon="0.20479">
        <ele>168.66</ele>
        <time>2018-09-02T08:40:54.999Z</time>
      </trkpt>
      <trkpt lat="46.56701" lon="0.20478">
        <ele>168.7</ele>
        <time>2018-09-02T08:40:57.999Z</time>
      </trkpt>
      <trkpt lat="46.56714" lon="0.20476">
        <ele>168.82</ele>
        <time>2018-09-02T08:41:00.999Z</time>
      </trkpt>
      <trkpt lat="46.56726" lon="0.20474">
        <ele>169.04</ele>
        <time>2018-09-02T08:41:03.999Z</time>
      </trkpt>
      <trkpt lat="46.56737" lon="0.20472">
        <ele>169.3</ele>
        <time>2018-09-02T08:41:06.999Z</time>
      </trkpt>
      <trkpt lat="46.56747" lon="0.20469">
        <ele>169.72</ele>
        <time>2018-09-02T08:41:09.999Z</time>
      </trkpt>
      <trkpt lat="46.56757" lon="0.20463">
        <ele>170.29</ele>
        <time>2018-09-02T08:41:12.999Z</time>
      </trkpt>
      <trkpt lat="46.56767" lon="0.20455">
        <ele>170.84</ele>
        <time>2018-09-02T08:41:15.999Z</time>
      </trkpt>
      <trkpt lat="46.56777" lon="0.20443">
        <ele>171.56</ele>
        <time>2018-09-02T08:41:18.999Z</time>
      </trkpt>
      <trkpt lat="46.56784" lon="0.20431">
        <ele>171.71</ele>
        <time>2018-09-02T08:41:20.999Z</time>
      </trkpt>
      <trkpt lat="46.56791" lon="0.20418">
        <ele>171.61</ele>
        <time>2018-09-02T08:41:22.999Z</time>
      </trkpt>
      <trkpt lat="46.56797" lon="0.20404">
        <ele>170.91</ele>
        <time>2018-09-02T08:41:24.999Z</time>
      </trkpt>
      <trkpt lat="46.56802" lon="0.2039">
        <ele>169.8</ele>
        <time>2018-09-02T08:41:26.999Z</time>
      </trkpt>
      <trkpt lat="46.5681" lon="0.20376">
        <ele>168.63</ele>
        <time>2018-09-02T08:41:28.999Z</time>
      </trkpt>
      <trkpt lat="46.56817" lon="0.2036">
        <ele>167.83</ele>
        <time>2018-09-02T08:41:30.999Z</time>
      </trkpt>
      <trkpt lat="46.56824" lon="0.20346">
        <ele>167.33</ele>
        <time>2018-09-02T08:41:32.999Z</time>
      </trkpt>
      <trkpt lat="46.56829" lon="0.20334">
        <ele>166.38</ele>
        <time>2018-09-02T08:41:34.999Z</time>
      </trkpt>
      <trkpt lat="46.56833" lon="0.20316">
        <ele>166.31</ele>
        <time>2018-09-02T08:41:37.999Z</time>
      </trkpt>
      <trkpt lat="46.56836" lon="0.20303">
        <ele>166.17</ele>
        <time>2018-09-02T08:41:39.999Z</time>
      </trkpt>
      <trkpt lat="46.56838" lon="0.20289">
        <ele>164.89</ele>
        <time>2018-09-02T08:41:41.999Z</time>
      </trkpt>
      <trkpt lat="46.56838" lon="0.20273">
        <ele>164.45</ele>
        <time>2018-09-02T08:41:43.999Z</time>
      </trkpt>
      <trkpt lat="46.56838" lon="0.20257">
        <ele>165.06</ele>
        <time>2018-09-02T08:41:45.999Z</time>
      </trkpt>
      <trkpt lat="46.56838" lon="0.2024">
        <ele>165.92</ele>
        <time>2018-09-02T08:41:47.999Z</time>
      </trkpt>
      <trkpt lat="46.5684" lon="0.20221">
        <ele>165.97</ele>
        <time>2018-09-02T08:41:49.999Z</time>
      </trkpt>
      <trkpt lat="46.5684" lon="0.20203">
        <ele>165.53</ele>
        <time>2018-09-02T08:41:51.999Z</time>
      </trkpt>
      <trkpt lat="46.5684" lon="0.20187">
        <ele>165.35</ele>
        <time>2018-09-02T08:41:53.999Z</time>
      </trkpt>
      <trkpt lat="46.5684" lon="0.20169">
        <ele>164.69</ele>
        <time>2018-09-02T08:41:55.999Z</time>
      </trkpt>
      <trkpt lat="46.56839" lon="0.20149">
        <ele>163.46</ele>
        <time>2018-09-02T08:41:57.999Z</time>
      </trkpt>
      <trkpt lat="46.56838" lon="0.20131">
        <ele>162.6</ele>
        <time>2018-09-02T08:41:59.999Z</time>
      </trkpt>
      <trkpt lat="46.56836" lon="0.20115">
        <ele>161.6</ele>
        <time>2018-09-02T08:42:01.999Z</time>
      </trkpt>
      <trkpt lat="46.56836" lon="0.20099">
        <ele>160.81</ele>
        <time>2018-09-02T08:42:03.999Z</time>
      </trkpt>
      <trkpt lat="46.56837" lon="0.20085">
        <ele>160.07</ele>
        <time>2018-09-02T08:42:05.999Z</time>
      </trkpt>
      <trkpt lat="46.56835" lon="0.20069">
        <ele>159.54</ele>
        <time>2018-09-02T08:42:07.999Z</time>
      </trkpt>
      <trkpt lat="46.56832" lon="0.20054">
        <ele>158.36</ele>
        <time>2018-09-02T08:42:09.999Z</time>
      </trkpt>
      <trkpt lat="46.56829" lon="0.20042">
        <ele>157.69</ele>
        <time>2018-09-02T08:42:11.999Z</time>
      </trkpt>
      <trkpt lat="46.56826" lon="0.20024">
        <ele>157.45</ele>
        <time>2018-09-02T08:42:14.999Z</time>
      </trkpt>
      <trkpt lat="46.56823" lon="0.20008">
        <ele>157.53</ele>
        <time>2018-09-02T08:42:17.999Z</time>
      </trkpt>
      <trkpt lat="46.56819" lon="0.19991">
        <ele>157.61</ele>
        <time>2018-09-02T08:42:20.999Z</time>
      </trkpt>
      <trkpt lat="46.56815" lon="0.19974">
        <ele>157.53</ele>
        <time>2018-09-02T08:42:23.999Z</time>
      </trkpt>
      <trkpt lat="46.56807" lon="0.19959">
        <ele>156.41</ele>
        <time>2018-09-02T08:42:26.999Z</time>
      </trkpt>
      <trkpt lat="46.56802" lon="0.19948">
        <ele>156.16</ele>
        <time>2018-09-02T08:42:28.999Z</time>
      </trkpt>
      <trkpt lat="46.56797" lon="0.19936">
        <ele>156.33</ele>
        <time>2018-09-02T08:42:30.999Z</time>
      </trkpt>
      <trkpt lat="46.56792" lon="0.1992">
        <ele>156.93</ele>
        <time>2018-09-02T08:42:32.999Z</time>
      </trkpt>
      <trkpt lat="46.56786" lon="0.19905">
        <ele>156.75</ele>
        <time>2018-09-02T08:42:34.999Z</time>
      </trkpt>
      <trkpt lat="46.5678" lon="0.19892">
        <ele>156.62</ele>
        <time>2018-09-02T08:42:36.999Z</time>
      </trkpt>
      <trkpt lat="46.56773" lon="0.1988">
        <ele>157.37</ele>
        <time>2018-09-02T08:42:38.999Z</time>
      </trkpt>
      <trkpt lat="46.56766" lon="0.1987">
        <ele>158</ele>
        <time>2018-09-02T08:42:40.999Z</time>
      </trkpt>
      <trkpt lat="46.56758" lon="0.19855">
        <ele>159.24</ele>
        <time>2018-09-02T08:42:43.999Z</time>
      </trkpt>
      <trkpt lat="46.56751" lon="0.19843">
        <ele>159.11</ele>
        <time>2018-09-02T08:42:45.999Z</time>
      </trkpt>
      <trkpt lat="46.56743" lon="0.19829">
        <ele>158.9</ele>
        <time>2018-09-02T08:42:48.999Z</time>
      </trkpt>
      <trkpt lat="46.56733" lon="0.19814">
        <ele>157.24</ele>
        <time>2018-09-02T08:42:51.999Z</time>
      </trkpt>
      <trkpt lat="46.56725" lon="0.19803">
        <ele>155.72</ele>
        <time>2018-09-02T08:42:53.999Z</time>
      </trkpt>
      <trkpt lat="46.56716" lon="0.19789">
        <ele>155.52</ele>
        <time>2018-09-02T08:42:55.999Z</time>
      </trkpt>
      <trkpt lat="46.56708" lon="0.19777">
        <ele>155.55</ele>
        <time>2018-09-02T08:42:57.999Z</time>
      </trkpt>
      <trkpt lat="46.567" lon="0.19763">
        <ele>155.7</ele>
        <time>2018-09-02T08:43:00.999Z</time>
      </trkpt>
      <trkpt lat="46.56692" lon="0.19752">
        <ele>155.99</ele>
        <time>2018-09-02T08:43:03.999Z</time>
      </trkpt>
      <trkpt lat="46.56683" lon="0.1974">
        <ele>157.47</ele>
        <time>2018-09-02T08:43:06.999Z</time>
      </trkpt>
      <trkpt lat="46.56674" lon="0.19731">
        <ele>158.55</ele>
        <time>2018-09-02T08:43:08.999Z</time>
      </trkpt>
      <trkpt lat="46.56665" lon="0.19722">
        <ele>158.6</ele>
        <time>2018-09-02T08:43:10.999Z</time>
      </trkpt>
      <trkpt lat="46.56656" lon="0.19716">
        <ele>158.71</ele>
        <time>2018-09-02T08:43:14.999Z</time>
      </trkpt>
      <trkpt lat="46.56646" lon="0.19713">
        <ele>158.7</ele>
        <time>2018-09-02T08:43:18.999Z</time>
      </trkpt>
      <trkpt lat="46.56637" lon="0.19706">
        <ele>158.38</ele>
        <time>2018-09-02T08:43:23.999Z</time>
      </trkpt>
      <trkpt lat="46.56636" lon="0.19691">
        <ele>158.19</ele>
        <time>2018-09-02T08:43:29.999Z</time>
      </trkpt>
      <trkpt lat="46.56627" lon="0.19679">
        <ele>158.29</ele>
        <time>2018-09-02T08:43:33.999Z</time>
      </trkpt>
      <trkpt lat="46.56617" lon="0.19666">
        <ele>158.51</ele>
        <time>2018-09-02T08:43:36.999Z</time>
      </trkpt>
      <trkpt lat="46.56611" lon="0.19655">
        <ele>158.6</ele>
        <time>2018-09-02T08:43:38.999Z</time>
      </trkpt>
      <trkpt lat="46.56602" lon="0.19645">
        <ele>158.75</ele>
        <time>2018-09-02T08:43:41.999Z</time>
      </trkpt>
      <trkpt lat="46.56593" lon="0.19632">
        <ele>159.33</ele>
        <time>2018-09-02T08:43:44.999Z</time>
      </trkpt>
      <trkpt lat="46.56586" lon="0.19624">
        <ele>159.42</ele>
        <time>2018-09-02T08:43:46.999Z</time>
      </trkpt>
      <trkpt lat="46.56577" lon="0.19617">
        <ele>159.47</ele>
        <time>2018-09-02T08:43:48.999Z</time>
      </trkpt>
      <trkpt lat="46.56569" lon="0.19609">
        <ele>159.48</ele>
        <time>2018-09-02T08:43:50.999Z</time>
      </trkpt>
      <trkpt lat="46.5656" lon="0.196">
        <ele>159.75</ele>
        <time>2018-09-02T08:43:52.999Z</time>
      </trkpt>
      <trkpt lat="46.56552" lon="0.19593">
        <ele>159.86</ele>
        <time>2018-09-02T08:43:54.999Z</time>
      </trkpt>
      <trkpt lat="46.56543" lon="0.19586">
        <ele>160.24</ele>
        <time>2018-09-02T08:43:57.999Z</time>
      </trkpt>
      <trkpt lat="46.56534" lon="0.19577">
        <ele>160.79</ele>
        <time>2018-09-02T08:44:00.999Z</time>
      </trkpt>
      <trkpt lat="46.56523" lon="0.19567">
        <ele>163.41</ele>
        <time>2018-09-02T08:44:03.999Z</time>
      </trkpt>
      <trkpt lat="46.56516" lon="0.19559">
        <ele>165.94</ele>
        <time>2018-09-02T08:44:05.999Z</time>
      </trkpt>
      <trkpt lat="46.56508" lon="0.1955">
        <ele>166.27</ele>
        <time>2018-09-02T08:44:07.999Z</time>
      </trkpt>
      <trkpt lat="46.56497" lon="0.19539">
        <ele>166.67</ele>
        <time>2018-09-02T08:44:10.999Z</time>
      </trkpt>
      <trkpt lat="46.56486" lon="0.1953">
        <ele>167.03</ele>
        <time>2018-09-02T08:44:13.999Z</time>
      </trkpt>
      <trkpt lat="46.56475" lon="0.1952">
        <ele>167.88</ele>
        <time>2018-09-02T08:44:16.999Z</time>
      </trkpt>
      <trkpt lat="46.56468" lon="0.19513">
        <ele>168.87</ele>
        <time>2018-09-02T08:44:18.999Z</time>
      </trkpt>
      <trkpt lat="46.5646" lon="0.19504">
        <ele>169.94</ele>
        <time>2018-09-02T08:44:20.999Z</time>
      </trkpt>
      <trkpt lat="46.56452" lon="0.19495">
        <ele>171.03</ele>
        <time>2018-09-02T08:44:22.999Z</time>
      </trkpt>
      <trkpt lat="46.56444" lon="0.19487">
        <ele>172.24</ele>
        <time>2018-09-02T08:44:24.999Z</time>
      </trkpt>
      <trkpt lat="46.56434" lon="0.19478">
        <ele>173.1</ele>
        <time>2018-09-02T08:44:26.999Z</time>
      </trkpt>
      <trkpt lat="46.56424" lon="0.19468">
        <ele>173.33</ele>
        <time>2018-09-02T08:44:28.999Z</time>
      </trkpt>
      <trkpt lat="46.56413" lon="0.19457">
        <ele>173.59</ele>
        <time>2018-09-02T08:44:30.999Z</time>
      </trkpt>
      <trkpt lat="46.56404" lon="0.1945">
        <ele>173.79</ele>
        <time>2018-09-02T08:44:32.999Z</time>
      </trkpt>
      <trkpt lat="46.56394" lon="0.19435">
        <ele>174.13</ele>
        <time>2018-09-02T08:44:35.999Z</time>
      </trkpt>
      <trkpt lat="46.56386" lon="0.19425">
        <ele>173.47</ele>
        <time>2018-09-02T08:44:37.999Z</time>
      </trkpt>
      <trkpt lat="46.56382" lon="0.19413">
        <ele>172.3</ele>
        <time>2018-09-02T08:44:39.999Z</time>
      </trkpt>
      <trkpt lat="46.56376" lon="0.19402">
        <ele>171.62</ele>
        <time>2018-09-02T08:44:41.999Z</time>
      </trkpt>
      <trkpt lat="46.56371" lon="0.19389">
        <ele>171.4</ele>
        <time>2018-09-02T08:44:44.999Z</time>
      </trkpt>
      <trkpt lat="46.56367" lon="0.19377">
        <ele>171.23</ele>
        <time>2018-09-02T08:44:48.999Z</time>
      </trkpt>
      <trkpt lat="46.56362" lon="0.19361">
        <ele>170.97</ele>
        <time>2018-09-02T08:44:53.999Z</time>
      </trkpt>
      <trkpt lat="46.56359" lon="0.19348">
        <ele>170.52</ele>
        <time>2018-09-02T08:44:57.999Z</time>
      </trkpt>
      <trkpt lat="46.56356" lon="0.19335">
        <ele>169.94</ele>
        <time>2018-09-02T08:45:02.999Z</time>
      </trkpt>
      <trkpt lat="46.56353" lon="0.19321">
        <ele>169.33</ele>
        <time>2018-09-02T08:45:08.999Z</time>
      </trkpt>
      <trkpt lat="46.5635" lon="0.19307">
        <ele>168.97</ele>
        <time>2018-09-02T08:45:14.999Z</time>
      </trkpt>
      <trkpt lat="46.56348" lon="0.19291">
        <ele>169</ele>
        <time>2018-09-02T08:45:19.999Z</time>
      </trkpt>
      <trkpt lat="46.56346" lon="0.19277">
        <ele>169.52</ele>
        <time>2018-09-02T08:45:25.999Z</time>
      </trkpt>
      <trkpt lat="46.56347" lon="0.19262">
        <ele>170.02</ele>
        <time>2018-09-02T08:45:31.999Z</time>
      </trkpt>
      <trkpt lat="46.56354" lon="0.19254">
        <ele>170.8</ele>
        <time>2018-09-02T08:45:39.999Z</time>
      </trkpt>
      <trkpt lat="46.56362" lon="0.19266">
        <ele>171.12</ele>
        <time>2018-09-02T08:45:45.999Z</time>
      </trkpt>
      <trkpt lat="46.56368" lon="0.19277">
        <ele>171.22</ele>
        <time>2018-09-02T08:45:50.999Z</time>
      </trkpt>
      <trkpt lat="46.56374" lon="0.19287">
        <ele>171.27</ele>
        <time>2018-09-02T08:45:54.999Z</time>
      </trkpt>
      <trkpt lat="46.56382" lon="0.193">
        <ele>171.27</ele>
        <time>2018-09-02T08:45:58.999Z</time>
      </trkpt>
      <trkpt lat="46.56387" lon="0.19311">
        <ele>171.2</ele>
        <time>2018-09-02T08:46:01.999Z</time>
      </trkpt>
      <trkpt lat="46.56393" lon="0.19322">
        <ele>171.11</ele>
        <time>2018-09-02T08:46:04.999Z</time>
      </trkpt>
      <trkpt lat="46.56401" lon="0.19333">
        <ele>171</ele>
        <time>2018-09-02T08:46:08.999Z</time>
      </trkpt>
      <trkpt lat="46.56408" lon="0.19343">
        <ele>170.99</ele>
        <time>2018-09-02T08:46:12.999Z</time>
      </trkpt>
      <trkpt lat="46.56416" lon="0.19352">
        <ele>171.08</ele>
        <time>2018-09-02T08:46:16.999Z</time>
      </trkpt>
      <trkpt lat="46.56424" lon="0.19359">
        <ele>171.3</ele>
        <time>2018-09-02T08:46:20.999Z</time>
      </trkpt>
      <trkpt lat="46.56433" lon="0.19365">
        <ele>171.7</ele>
        <time>2018-09-02T08:46:24.999Z</time>
      </trkpt>
      <trkpt lat="46.56442" lon="0.19372">
        <ele>172.34</ele>
        <time>2018-09-02T08:46:29.999Z</time>
      </trkpt>
      <trkpt lat="46.56452" lon="0.19382">
        <ele>173.1</ele>
        <time>2018-09-02T08:46:34.999Z</time>
      </trkpt>
      <trkpt lat="46.56459" lon="0.1939">
        <ele>173.75</ele>
        <time>2018-09-02T08:46:38.999Z</time>
      </trkpt>
      <trkpt lat="46.56467" lon="0.19398">
        <ele>174.38</ele>
        <time>2018-09-02T08:46:42.999Z</time>
      </trkpt>
      <trkpt lat="46.56475" lon="0.19406">
        <ele>174.99</ele>
        <time>2018-09-02T08:46:46.999Z</time>
      </trkpt>
      <trkpt lat="46.56484" lon="0.19411">
        <ele>175.53</ele>
        <time>2018-09-02T08:46:50.999Z</time>
      </trkpt>
      <trkpt lat="46.56492" lon="0.19418">
        <ele>176.03</ele>
        <time>2018-09-02T08:46:54.999Z</time>
      </trkpt>
      <trkpt lat="46.56502" lon="0.19425">
        <ele>176.72</ele>
        <time>2018-09-02T08:46:59.999Z</time>
      </trkpt>
      <trkpt lat="46.56511" lon="0.1943">
        <ele>177.31</ele>
        <time>2018-09-02T08:47:04.999Z</time>
      </trkpt>
      <trkpt lat="46.5652" lon="0.19434">
        <ele>177.88</ele>
        <time>2018-09-02T08:47:09.999Z</time>
      </trkpt>
      <trkpt lat="46.5653" lon="0.19438">
        <ele>178.6</ele>
        <time>2018-09-02T08:47:15.999Z</time>
      </trkpt>
      <trkpt lat="46.56538" lon="0.19442">
        <ele>179.43</ele>
        <time>2018-09-02T08:47:21.999Z</time>
      </trkpt>
      <trkpt lat="46.56548" lon="0.19446">
        <ele>180.27</ele>
        <time>2018-09-02T08:47:27.999Z</time>
      </trkpt>
      <trkpt lat="46.56558" lon="0.19448">
        <ele>181.13</ele>
        <time>2018-09-02T08:47:33.999Z</time>
      </trkpt>
      <trkpt lat="46.56566" lon="0.19445">
        <ele>181.84</ele>
        <time>2018-09-02T08:47:38.999Z</time>
      </trkpt>
      <trkpt lat="46.56575" lon="0.19441">
        <ele>182.65</ele>
        <time>2018-09-02T08:47:44.999Z</time>
      </trkpt>
      <trkpt lat="46.56583" lon="0.19435">
        <ele>183.56</ele>
        <time>2018-09-02T08:47:51.999Z</time>
      </trkpt>
      <trkpt lat="46.56593" lon="0.19433">
        <ele>184.13</ele>
        <time>2018-09-02T08:47:56.999Z</time>
      </trkpt>
      <trkpt lat="46.56602" lon="0.19433">
        <ele>184.6</ele>
        <time>2018-09-02T08:48:00.999Z</time>
      </trkpt>
      <trkpt lat="46.56613" lon="0.19433">
        <ele>185.72</ele>
        <time>2018-09-02T08:48:06.999Z</time>
      </trkpt>
      <trkpt lat="46.56623" lon="0.19435">
        <ele>186.79</ele>
        <time>2018-09-02T08:48:11.999Z</time>
      </trkpt>
      <trkpt lat="46.56632" lon="0.19439">
        <ele>187.75</ele>
        <time>2018-09-02T08:48:16.999Z</time>
      </trkpt>
      <trkpt lat="46.56643" lon="0.19445">
        <ele>188.66</ele>
        <time>2018-09-02T08:48:21.999Z</time>
      </trkpt>
      <trkpt lat="46.56653" lon="0.19448">
        <ele>189.33</ele>
        <time>2018-09-02T08:48:25.999Z</time>
      </trkpt>
      <trkpt lat="46.56664" lon="0.1945">
        <ele>190.05</ele>
        <time>2018-09-02T08:48:30.999Z</time>
      </trkpt>
      <trkpt lat="46.56678" lon="0.1945">
        <ele>190.67</ele>
        <time>2018-09-02T08:48:34.999Z</time>
      </trkpt>
      <trkpt lat="46.56688" lon="0.1945">
        <ele>191.53</ele>
        <time>2018-09-02T08:48:38.999Z</time>
      </trkpt>
      <trkpt lat="46.56691" lon="0.19464">
        <ele>193.22</ele>
        <time>2018-09-02T08:48:46.999Z</time>
      </trkpt>
      <trkpt lat="46.56688" lon="0.19478">
        <ele>193.88</ele>
        <time>2018-09-02T08:48:49.999Z</time>
      </trkpt>
      <trkpt lat="46.56682" lon="0.19494">
        <ele>194.66</ele>
        <time>2018-09-02T08:48:53.999Z</time>
      </trkpt>
      <trkpt lat="46.56677" lon="0.19509">
        <ele>195.18</ele>
        <time>2018-09-02T08:48:56.999Z</time>
      </trkpt>
      <trkpt lat="46.56672" lon="0.19522">
        <ele>195.49</ele>
        <time>2018-09-02T08:48:58.999Z</time>
      </trkpt>
      <trkpt lat="46.56667" lon="0.19535">
        <ele>198.29</ele>
        <time>2018-09-02T08:49:00.999Z</time>
      </trkpt>
      <trkpt lat="46.56662" lon="0.19548">
        <ele>198.43</ele>
        <time>2018-09-02T08:49:02.999Z</time>
      </trkpt>
      <trkpt lat="46.56659" lon="0.19564">
        <ele>198.61</ele>
        <time>2018-09-02T08:49:06.999Z</time>
      </trkpt>
      <trkpt lat="46.56667" lon="0.19575">
        <ele>198.62</ele>
        <time>2018-09-02T08:49:09.999Z</time>
      </trkpt>
      <trkpt lat="46.56674" lon="0.19588">
        <ele>198.64</ele>
        <time>2018-09-02T08:49:12.999Z</time>
      </trkpt>
      <trkpt lat="46.5668" lon="0.19598">
        <ele>198.2</ele>
        <time>2018-09-02T08:49:14.999Z</time>
      </trkpt>
      <trkpt lat="46.56688" lon="0.19607">
        <ele>197.71</ele>
        <time>2018-09-02T08:49:16.999Z</time>
      </trkpt>
      <trkpt lat="46.56697" lon="0.19614">
        <ele>197.07</ele>
        <time>2018-09-02T08:49:18.999Z</time>
      </trkpt>
      <trkpt lat="46.56706" lon="0.19626">
        <ele>196.25</ele>
        <time>2018-09-02T08:49:21.999Z</time>
      </trkpt>
      <trkpt lat="46.56713" lon="0.19639">
        <ele>195.91</ele>
        <time>2018-09-02T08:49:24.999Z</time>
      </trkpt>
      <trkpt lat="46.56724" lon="0.19649">
        <ele>195.63</ele>
        <time>2018-09-02T08:49:27.999Z</time>
      </trkpt>
      <trkpt lat="46.56734" lon="0.19659">
        <ele>195.35</ele>
        <time>2018-09-02T08:49:31.999Z</time>
      </trkpt>
      <trkpt lat="46.5674" lon="0.19676">
        <ele>195.23</ele>
        <time>2018-09-02T08:49:34.999Z</time>
      </trkpt>
      <trkpt lat="46.5675" lon="0.19681">
        <ele>195.17</ele>
        <time>2018-09-02T08:49:37.999Z</time>
      </trkpt>
      <trkpt lat="46.56757" lon="0.19689">
        <ele>195.21</ele>
        <time>2018-09-02T08:49:40.999Z</time>
      </trkpt>
      <trkpt lat="46.56763" lon="0.19699">
        <ele>195.19</ele>
        <time>2018-09-02T08:49:43.999Z</time>
      </trkpt>
      <trkpt lat="46.56772" lon="0.19702">
        <ele>195.14</ele>
        <time>2018-09-02T08:49:46.999Z</time>
      </trkpt>
      <trkpt lat="46.56782" lon="0.19703">
        <ele>195.02</ele>
        <time>2018-09-02T08:49:51.999Z</time>
      </trkpt>
      <trkpt lat="46.56786" lon="0.19715">
        <ele>195.18</ele>
        <time>2018-09-02T08:49:57.999Z</time>
      </trkpt>
      <trkpt lat="46.56789" lon="0.19728">
        <ele>195.32</ele>
        <time>2018-09-02T08:50:01.999Z</time>
      </trkpt>
      <trkpt lat="46.56794" lon="0.19741">
        <ele>195.38</ele>
        <time>2018-09-02T08:50:05.999Z</time>
      </trkpt>
      <trkpt lat="46.56802" lon="0.19751">
        <ele>195.43</ele>
        <time>2018-09-02T08:50:08.999Z</time>
      </trkpt>
      <trkpt lat="46.56814" lon="0.19757">
        <ele>195.52</ele>
        <time>2018-09-02T08:50:11.999Z</time>
      </trkpt>
      <trkpt lat="46.56826" lon="0.19754">
        <ele>195.66</ele>
        <time>2018-09-02T08:50:15.999Z</time>
      </trkpt>
      <trkpt lat="46.56836" lon="0.1976">
        <ele>195.68</ele>
        <time>2018-09-02T08:50:19.999Z</time>
      </trkpt>
      <trkpt lat="46.56846" lon="0.19762">
        <ele>195.85</ele>
        <time>2018-09-02T08:50:24.999Z</time>
      </trkpt>
      <trkpt lat="46.56857" lon="0.19767">
        <ele>196.16</ele>
        <time>2018-09-02T08:50:28.999Z</time>
      </trkpt>
      <trkpt lat="46.56865" lon="0.19772">
        <ele>196.62</ele>
        <time>2018-09-02T08:50:32.999Z</time>
      </trkpt>
      <trkpt lat="46.56875" lon="0.19779">
        <ele>196.94</ele>
        <time>2018-09-02T08:50:36.999Z</time>
      </trkpt>
      <trkpt lat="46.56884" lon="0.1978">
        <ele>197.25</ele>
        <time>2018-09-02T08:50:40.999Z</time>
      </trkpt>
      <trkpt lat="46.56895" lon="0.19781">
        <ele>197.74</ele>
        <time>2018-09-02T08:50:44.999Z</time>
      </trkpt>
      <trkpt lat="46.56906" lon="0.19782">
        <ele>198.08</ele>
        <time>2018-09-02T08:50:47.999Z</time>
      </trkpt>
      <trkpt lat="46.56918" lon="0.19781">
        <ele>198.35</ele>
        <time>2018-09-02T08:50:51.999Z</time>
      </trkpt>
      <trkpt lat="46.56929" lon="0.19783">
        <ele>198.57</ele>
        <time>2018-09-02T08:50:55.999Z</time>
      </trkpt>
      <trkpt lat="46.56941" lon="0.19786">
        <ele>198.82</ele>
        <time>2018-09-02T08:50:58.999Z</time>
      </trkpt>
      <trkpt lat="46.56951" lon="0.19789">
        <ele>199.97</ele>
        <time>2018-09-02T08:51:01.999Z</time>
      </trkpt>
      <trkpt lat="46.56963" lon="0.19792">
        <ele>200.74</ele>
        <time>2018-09-02T08:51:04.999Z</time>
      </trkpt>
      <trkpt lat="46.56972" lon="0.19794">
        <ele>200.92</ele>
        <time>2018-09-02T08:51:06.999Z</time>
      </trkpt>
      <trkpt lat="46.56981" lon="0.19799">
        <ele>201.31</ele>
        <time>2018-09-02T08:51:08.999Z</time>
      </trkpt>
      <trkpt lat="46.5699" lon="0.19801">
        <ele>201.52</ele>
        <time>2018-09-02T08:51:10.999Z</time>
      </trkpt>
      <trkpt lat="46.57001" lon="0.19803">
        <ele>201.33</ele>
        <time>2018-09-02T08:51:12.999Z</time>
      </trkpt>
      <trkpt lat="46.57012" lon="0.19804">
        <ele>201.05</ele>
        <time>2018-09-02T08:51:14.999Z</time>
      </trkpt>
      <trkpt lat="46.57023" lon="0.19805">
        <ele>200.65</ele>
        <time>2018-09-02T08:51:16.999Z</time>
      </trkpt>
      <trkpt lat="46.57035" lon="0.19806">
        <ele>200.25</ele>
        <time>2018-09-02T08:51:18.999Z</time>
      </trkpt>
      <trkpt lat="46.57048" lon="0.19806">
        <ele>199.93</ele>
        <time>2018-09-02T08:51:20.999Z</time>
      </trkpt>
      <trkpt lat="46.57061" lon="0.19804">
        <ele>199.49</ele>
        <time>2018-09-02T08:51:22.999Z</time>
      </trkpt>
      <trkpt lat="46.57074" lon="0.19802">
        <ele>199.09</ele>
        <time>2018-09-02T08:51:24.999Z</time>
      </trkpt>
      <trkpt lat="46.57087" lon="0.19801">
        <ele>198.79</ele>
        <time>2018-09-02T08:51:26.999Z</time>
      </trkpt>
      <trkpt lat="46.571" lon="0.19799">
        <ele>198.57</ele>
        <time>2018-09-02T08:51:28.999Z</time>
      </trkpt>
      <trkpt lat="46.57113" lon="0.19797">
        <ele>198.39</ele>
        <time>2018-09-02T08:51:30.999Z</time>
      </trkpt>
      <trkpt lat="46.57127" lon="0.19798">
        <ele>198.19</ele>
        <time>2018-09-02T08:51:32.999Z</time>
      </trkpt>
      <trkpt lat="46.57138" lon="0.19794">
        <ele>197.77</ele>
        <time>2018-09-02T08:51:34.999Z</time>
      </trkpt>
      <trkpt lat="46.57146" lon="0.19778">
        <ele>196.75</ele>
        <time>2018-09-02T08:51:37.999Z</time>
      </trkpt>
      <trkpt lat="46.57144" lon="0.19762">
        <ele>196.03</ele>
        <time>2018-09-02T08:51:39.999Z</time>
      </trkpt>
      <trkpt lat="46.57139" lon="0.19747">
        <ele>195.57</ele>
        <time>2018-09-02T08:51:41.999Z</time>
      </trkpt>
      <trkpt lat="46.57136" lon="0.19733">
        <ele>195.5</ele>
        <time>2018-09-02T08:51:44.999Z</time>
      </trkpt>
      <trkpt lat="46.57145" lon="0.19725">
        <ele>195.47</ele>
        <time>2018-09-02T08:51:50.999Z</time>
      </trkpt>
      <trkpt lat="46.57155" lon="0.19725">
        <ele>195.65</ele>
        <time>2018-09-02T08:51:53.999Z</time>
      </trkpt>
      <trkpt lat="46.57169" lon="0.19726">
        <ele>195.36</ele>
        <time>2018-09-02T08:51:56.999Z</time>
      </trkpt>
      <trkpt lat="46.57179" lon="0.19724">
        <ele>195.34</ele>
        <time>2018-09-02T08:52:00.999Z</time>
      </trkpt>
      <trkpt lat="46.57175" lon="0.19703">
        <ele>195.5</ele>
        <time>2018-09-02T08:52:04.999Z</time>
      </trkpt>
      <trkpt lat="46.57172" lon="0.19688">
        <ele>195.2</ele>
        <time>2018-09-02T08:52:06.999Z</time>
      </trkpt>
      <trkpt lat="46.57169" lon="0.19672">
        <ele>193.94</ele>
        <time>2018-09-02T08:52:08.999Z</time>
      </trkpt>
      <trkpt lat="46.57165" lon="0.19658">
        <ele>192.13</ele>
        <time>2018-09-02T08:52:10.999Z</time>
      </trkpt>
      <trkpt lat="46.5716" lon="0.19643">
        <ele>190.65</ele>
        <time>2018-09-02T08:52:12.999Z</time>
      </trkpt>
      <trkpt lat="46.57156" lon="0.19627">
        <ele>189.35</ele>
        <time>2018-09-02T08:52:14.999Z</time>
      </trkpt>
      <trkpt lat="46.57151" lon="0.19612">
        <ele>188.79</ele>
        <time>2018-09-02T08:52:16.999Z</time>
      </trkpt>
      <trkpt lat="46.57147" lon="0.19598">
        <ele>189.34</ele>
        <time>2018-09-02T08:52:18.999Z</time>
      </trkpt>
      <trkpt lat="46.57147" lon="0.1958">
        <ele>189.3</ele>
        <time>2018-09-02T08:52:20.999Z</time>
      </trkpt>
      <trkpt lat="46.57149" lon="0.19562">
        <ele>188.26</ele>
        <time>2018-09-02T08:52:22.999Z</time>
      </trkpt>
      <trkpt lat="46.57151" lon="0.19546">
        <ele>186.72</ele>
        <time>2018-09-02T08:52:24.999Z</time>
      </trkpt>
      <trkpt lat="46.57151" lon="0.19531">
        <ele>186.4</ele>
        <time>2018-09-02T08:52:29.999Z</time>
      </trkpt>
      <trkpt lat="46.5716" lon="0.19526">
        <ele>186.06</ele>
        <time>2018-09-02T08:52:39.999Z</time>
      </trkpt>
      <trkpt lat="46.5717" lon="0.1953">
        <ele>186.67</ele>
        <time>2018-09-02T08:52:41.999Z</time>
      </trkpt>
      <trkpt lat="46.57184" lon="0.19533">
        <ele>187.11</ele>
        <time>2018-09-02T08:52:44.999Z</time>
      </trkpt>
      <trkpt lat="46.57193" lon="0.1954">
        <ele>186.49</ele>
        <time>2018-09-02T08:52:46.999Z</time>
      </trkpt>
      <trkpt lat="46.57204" lon="0.19547">
        <ele>185.62</ele>
        <time>2018-09-02T08:52:48.999Z</time>
      </trkpt>
      <trkpt lat="46.57214" lon="0.19553">
        <ele>184.7</ele>
        <time>2018-09-02T08:52:50.999Z</time>
      </trkpt>
      <trkpt lat="46.57224" lon="0.1956">
        <ele>183.6</ele>
        <time>2018-09-02T08:52:52.999Z</time>
      </trkpt>
      <trkpt lat="46.57231" lon="0.1957">
        <ele>182.75</ele>
        <time>2018-09-02T08:52:54.999Z</time>
      </trkpt>
      <trkpt lat="46.57238" lon="0.19579">
        <ele>182.49</ele>
        <time>2018-09-02T08:52:56.999Z</time>
      </trkpt>
      <trkpt lat="46.57245" lon="0.19588">
        <ele>181.71</ele>
        <time>2018-09-02T08:52:58.999Z</time>
      </trkpt>
      <trkpt lat="46.57251" lon="0.19599">
        <ele>180.46</ele>
        <time>2018-09-02T08:53:00.999Z</time>
      </trkpt>
      <trkpt lat="46.57259" lon="0.19614">
        <ele>180.2</ele>
        <time>2018-09-02T08:53:03.999Z</time>
      </trkpt>
      <trkpt lat="46.57265" lon="0.19626">
        <ele>178.09</ele>
        <time>2018-09-02T08:53:05.999Z</time>
      </trkpt>
      <trkpt lat="46.57272" lon="0.19637">
        <ele>176.23</ele>
        <time>2018-09-02T08:53:07.999Z</time>
      </trkpt>
      <trkpt lat="46.57277" lon="0.19648">
        <ele>175.69</ele>
        <time>2018-09-02T08:53:09.999Z</time>
      </trkpt>
      <trkpt lat="46.57282" lon="0.19661">
        <ele>175.2</ele>
        <time>2018-09-02T08:53:11.999Z</time>
      </trkpt>
      <trkpt lat="46.57288" lon="0.19672">
        <ele>175.27</ele>
        <time>2018-09-02T08:53:13.999Z</time>
      </trkpt>
      <trkpt lat="46.57295" lon="0.19683">
        <ele>174.8</ele>
        <time>2018-09-02T08:53:15.999Z</time>
      </trkpt>
      <trkpt lat="46.57304" lon="0.19703">
        <ele>174.29</ele>
        <time>2018-09-02T08:53:17.999Z</time>
      </trkpt>
      <trkpt lat="46.57311" lon="0.19719">
        <ele>173.45</ele>
        <time>2018-09-02T08:53:19.999Z</time>
      </trkpt>
      <trkpt lat="46.57315" lon="0.19732">
        <ele>173.13</ele>
        <time>2018-09-02T08:53:21.999Z</time>
      </trkpt>
      <trkpt lat="46.5732" lon="0.19746">
        <ele>173.01</ele>
        <time>2018-09-02T08:53:23.999Z</time>
      </trkpt>
      <trkpt lat="46.57325" lon="0.19761">
        <ele>172.67</ele>
        <time>2018-09-02T08:53:25.999Z</time>
      </trkpt>
      <trkpt lat="46.57328" lon="0.19776">
        <ele>171.9</ele>
        <time>2018-09-02T08:53:27.999Z</time>
      </trkpt>
      <trkpt lat="46.57331" lon="0.19792">
        <ele>171.39</ele>
        <time>2018-09-02T08:53:29.999Z</time>
      </trkpt>
      <trkpt lat="46.57334" lon="0.19812">
        <ele>170.64</ele>
        <time>2018-09-02T08:53:31.999Z</time>
      </trkpt>
      <trkpt lat="46.57336" lon="0.19828">
        <ele>169.74</ele>
        <time>2018-09-02T08:53:33.999Z</time>
      </trkpt>
      <trkpt lat="46.57336" lon="0.19844">
        <ele>169.37</ele>
        <time>2018-09-02T08:53:35.999Z</time>
      </trkpt>
      <trkpt lat="46.57336" lon="0.1986">
        <ele>169.25</ele>
        <time>2018-09-02T08:53:37.999Z</time>
      </trkpt>
      <trkpt lat="46.57335" lon="0.19876">
        <ele>170.07</ele>
        <time>2018-09-02T08:53:39.999Z</time>
      </trkpt>
      <trkpt lat="46.57334" lon="0.19891">
        <ele>170.69</ele>
        <time>2018-09-02T08:53:41.999Z</time>
      </trkpt>
      <trkpt lat="46.57334" lon="0.19908">
        <ele>170.44</ele>
        <time>2018-09-02T08:53:43.999Z</time>
      </trkpt>
      <trkpt lat="46.57336" lon="0.19921">
        <ele>170.2</ele>
        <time>2018-09-02T08:53:45.999Z</time>
      </trkpt>
      <trkpt lat="46.5734" lon="0.19937">
        <ele>170.15</ele>
        <time>2018-09-02T08:53:48.999Z</time>
      </trkpt>
      <trkpt lat="46.57348" lon="0.19948">
        <ele>170.18</ele>
        <time>2018-09-02T08:53:51.999Z</time>
      </trkpt>
      <trkpt lat="46.57356" lon="0.19958">
        <ele>170.24</ele>
        <time>2018-09-02T08:53:54.999Z</time>
      </trkpt>
      <trkpt lat="46.57367" lon="0.19965">
        <ele>170.34</ele>
        <time>2018-09-02T08:53:57.999Z</time>
      </trkpt>
      <trkpt lat="46.57378" lon="0.19972">
        <ele>170.48</ele>
        <time>2018-09-02T08:54:00.999Z</time>
      </trkpt>
      <trkpt lat="46.57387" lon="0.19978">
        <ele>170.59</ele>
        <time>2018-09-02T08:54:03.999Z</time>
      </trkpt>
      <trkpt lat="46.57398" lon="0.19987">
        <ele>170.8</ele>
        <time>2018-09-02T08:54:07.999Z</time>
      </trkpt>
      <trkpt lat="46.57409" lon="0.19996">
        <ele>171.1</ele>
        <time>2018-09-02T08:54:10.999Z</time>
      </trkpt>
      <trkpt lat="46.57417" lon="0.20003">
        <ele>171.49</ele>
        <time>2018-09-02T08:54:13.999Z</time>
      </trkpt>
      <trkpt lat="46.57425" lon="0.20012">
        <ele>172.28</ele>
        <time>2018-09-02T08:54:18.999Z</time>
      </trkpt>
      <trkpt lat="46.57431" lon="0.20023">
        <ele>172.72</ele>
        <time>2018-09-02T08:54:22.999Z</time>
      </trkpt>
      <trkpt lat="46.57438" lon="0.20035">
        <ele>173.11</ele>
        <time>2018-09-02T08:54:26.999Z</time>
      </trkpt>
      <trkpt lat="46.57444" lon="0.20049">
        <ele>173.69</ele>
        <time>2018-09-02T08:54:30.999Z</time>
      </trkpt>
      <trkpt lat="46.57451" lon="0.20061">
        <ele>174.69</ele>
        <time>2018-09-02T08:54:35.999Z</time>
      </trkpt>
      <trkpt lat="46.57458" lon="0.20072">
        <ele>175.72</ele>
        <time>2018-09-02T08:54:40.999Z</time>
      </trkpt>
      <trkpt lat="46.57464" lon="0.20084">
        <ele>176.8</ele>
        <time>2018-09-02T08:54:46.999Z</time>
      </trkpt>
      <trkpt lat="46.57471" lon="0.20093">
        <ele>177.39</ele>
        <time>2018-09-02T08:54:49.999Z</time>
      </trkpt>
      <trkpt lat="46.5748" lon="0.20101">
        <ele>178.17</ele>
        <time>2018-09-02T08:54:53.999Z</time>
      </trkpt>
      <trkpt lat="46.57489" lon="0.20108">
        <ele>178.96</ele>
        <time>2018-09-02T08:54:58.999Z</time>
      </trkpt>
      <trkpt lat="46.57498" lon="0.20113">
        <ele>179.58</ele>
        <time>2018-09-02T08:55:02.999Z</time>
      </trkpt>
      <trkpt lat="46.57509" lon="0.20119">
        <ele>180.18</ele>
        <time>2018-09-02T08:55:06.999Z</time>
      </trkpt>
      <trkpt lat="46.57521" lon="0.20123">
        <ele>180.64</ele>
        <time>2018-09-02T08:55:10.999Z</time>
      </trkpt>
      <trkpt lat="46.57532" lon="0.20125">
        <ele>181.14</ele>
        <time>2018-09-02T08:55:14.999Z</time>
      </trkpt>
      <trkpt lat="46.57543" lon="0.20125">
        <ele>181.53</ele>
        <time>2018-09-02T08:55:18.999Z</time>
      </trkpt>
      <trkpt lat="46.57555" lon="0.20122">
        <ele>181.61</ele>
        <time>2018-09-02T08:55:22.999Z</time>
      </trkpt>
      <trkpt lat="46.57565" lon="0.2012">
        <ele>181.79</ele>
        <time>2018-09-02T08:55:26.999Z</time>
      </trkpt>
      <trkpt lat="46.57575" lon="0.20118">
        <ele>182.09</ele>
        <time>2018-09-02T08:55:29.999Z</time>
      </trkpt>
      <trkpt lat="46.57585" lon="0.20116">
        <ele>182.59</ele>
        <time>2018-09-02T08:55:33.999Z</time>
      </trkpt>
      <trkpt lat="46.57597" lon="0.20115">
        <ele>183.19</ele>
        <time>2018-09-02T08:55:37.999Z</time>
      </trkpt>
      <trkpt lat="46.57607" lon="0.20116">
        <ele>184.01</ele>
        <time>2018-09-02T08:55:41.999Z</time>
      </trkpt>
      <trkpt lat="46.57616" lon="0.20117">
        <ele>184.72</ele>
        <time>2018-09-02T08:55:44.999Z</time>
      </trkpt>
      <trkpt lat="46.57627" lon="0.20118">
        <ele>185.38</ele>
        <time>2018-09-02T08:55:47.999Z</time>
      </trkpt>
      <trkpt lat="46.57638" lon="0.2012">
        <ele>186.27</ele>
        <time>2018-09-02T08:55:51.999Z</time>
      </trkpt>
      <trkpt lat="46.5765" lon="0.20119">
        <ele>187.07</ele>
        <time>2018-09-02T08:55:55.999Z</time>
      </trkpt>
      <trkpt lat="46.57661" lon="0.20115">
        <ele>187.46</ele>
        <time>2018-09-02T08:55:58.999Z</time>
      </trkpt>
      <trkpt lat="46.57671" lon="0.20109">
        <ele>187.83</ele>
        <time>2018-09-02T08:56:01.999Z</time>
      </trkpt>
      <trkpt lat="46.57681" lon="0.201">
        <ele>188.21</ele>
        <time>2018-09-02T08:56:05.999Z</time>
      </trkpt>
      <trkpt lat="46.57687" lon="0.20088">
        <ele>188.37</ele>
        <time>2018-09-02T08:56:09.999Z</time>
      </trkpt>
      <trkpt lat="46.57692" lon="0.20077">
        <ele>188.55</ele>
        <time>2018-09-02T08:56:13.999Z</time>
      </trkpt>
      <trkpt lat="46.57698" lon="0.20064">
        <ele>188.86</ele>
        <time>2018-09-02T08:56:18.999Z</time>
      </trkpt>
      <trkpt lat="46.57705" lon="0.20055">
        <ele>188.89</ele>
        <time>2018-09-02T08:56:21.999Z</time>
      </trkpt>
      <trkpt lat="46.57713" lon="0.20045">
        <ele>188.79</ele>
        <time>2018-09-02T08:56:25.999Z</time>
      </trkpt>
      <trkpt lat="46.57721" lon="0.20038">
        <ele>188.57</ele>
        <time>2018-09-02T08:56:29.999Z</time>
      </trkpt>
      <trkpt lat="46.57729" lon="0.20031">
        <ele>188.45</ele>
        <time>2018-09-02T08:56:33.999Z</time>
      </trkpt>
      <trkpt lat="46.57737" lon="0.20025">
        <ele>188.45</ele>
        <time>2018-09-02T08:56:37.999Z</time>
      </trkpt>
      <trkpt lat="46.57747" lon="0.20017">
        <ele>188.5</ele>
        <time>2018-09-02T08:56:41.999Z</time>
      </trkpt>
      <trkpt lat="46.57756" lon="0.20012">
        <ele>188.62</ele>
        <time>2018-09-02T08:56:45.999Z</time>
      </trkpt>
      <trkpt lat="46.57765" lon="0.20005">
        <ele>189</ele>
        <time>2018-09-02T08:56:49.999Z</time>
      </trkpt>
      <trkpt lat="46.57774" lon="0.19999">
        <ele>189.79</ele>
        <time>2018-09-02T08:56:54.999Z</time>
      </trkpt>
      <trkpt lat="46.57786" lon="0.19995">
        <ele>190.76</ele>
        <time>2018-09-02T08:56:59.999Z</time>
      </trkpt>
      <trkpt lat="46.57795" lon="0.19991">
        <ele>191.49</ele>
        <time>2018-09-02T08:57:03.999Z</time>
      </trkpt>
      <trkpt lat="46.57805" lon="0.19987">
        <ele>192.33</ele>
        <time>2018-09-02T08:57:08.999Z</time>
      </trkpt>
      <trkpt lat="46.57816" lon="0.19983">
        <ele>193.01</ele>
        <time>2018-09-02T08:57:12.999Z</time>
      </trkpt>
      <trkpt lat="46.57826" lon="0.19979">
        <ele>193.5</ele>
        <time>2018-09-02T08:57:15.999Z</time>
      </trkpt>
      <trkpt lat="46.57837" lon="0.19976">
        <ele>194.17</ele>
        <time>2018-09-02T08:57:19.999Z</time>
      </trkpt>
      <trkpt lat="46.57848" lon="0.19973">
        <ele>194.73</ele>
        <time>2018-09-02T08:57:23.999Z</time>
      </trkpt>
      <trkpt lat="46.57858" lon="0.19972">
        <ele>195.32</ele>
        <time>2018-09-02T08:57:27.999Z</time>
      </trkpt>
      <trkpt lat="46.57868" lon="0.19968">
        <ele>195.7</ele>
        <time>2018-09-02T08:57:30.999Z</time>
      </trkpt>
      <trkpt lat="46.57877" lon="0.19964">
        <ele>196.07</ele>
        <time>2018-09-02T08:57:33.999Z</time>
      </trkpt>
      <trkpt lat="46.57887" lon="0.19962">
        <ele>196.64</ele>
        <time>2018-09-02T08:57:37.999Z</time>
      </trkpt>
      <trkpt lat="46.57897" lon="0.19961">
        <ele>197.13</ele>
        <time>2018-09-02T08:57:40.999Z</time>
      </trkpt>
      <trkpt lat="46.57909" lon="0.19957">
        <ele>197.71</ele>
        <time>2018-09-02T08:57:44.999Z</time>
      </trkpt>
      <trkpt lat="46.57921" lon="0.19952">
        <ele>198.15</ele>
        <time>2018-09-02T08:57:47.999Z</time>
      </trkpt>
      <trkpt lat="46.57931" lon="0.19948">
        <ele>198.59</ele>
        <time>2018-09-02T08:57:50.999Z</time>
      </trkpt>
      <trkpt lat="46.57941" lon="0.19943">
        <ele>198.86</ele>
        <time>2018-09-02T08:57:53.999Z</time>
      </trkpt>
      <trkpt lat="46.57951" lon="0.19938">
        <ele>199.02</ele>
        <time>2018-09-02T08:57:56.999Z</time>
      </trkpt>
      <trkpt lat="46.57962" lon="0.19933">
        <ele>199.12</ele>
        <time>2018-09-02T08:57:59.999Z</time>
      </trkpt>
      <trkpt lat="46.57972" lon="0.19926">
        <ele>199.27</ele>
        <time>2018-09-02T08:58:03.999Z</time>
      </trkpt>
      <trkpt lat="46.57978" lon="0.19911">
        <ele>199.39</ele>
        <time>2018-09-02T08:58:07.999Z</time>
      </trkpt>
      <trkpt lat="46.57979" lon="0.19897">
        <ele>199.49</ele>
        <time>2018-09-02T08:58:10.999Z</time>
      </trkpt>
      <trkpt lat="46.5798" lon="0.19883">
        <ele>199.63</ele>
        <time>2018-09-02T08:58:13.999Z</time>
      </trkpt>
      <trkpt lat="46.57989" lon="0.19876">
        <ele>199.81</ele>
        <time>2018-09-02T08:58:16.999Z</time>
      </trkpt>
      <trkpt lat="46.58" lon="0.19872">
        <ele>200.12</ele>
        <time>2018-09-02T08:58:20.999Z</time>
      </trkpt>
      <trkpt lat="46.58012" lon="0.19865">
        <ele>201.37</ele>
        <time>2018-09-02T08:58:23.999Z</time>
      </trkpt>
      <trkpt lat="46.58022" lon="0.19861">
        <ele>201.96</ele>
        <time>2018-09-02T08:58:25.999Z</time>
      </trkpt>
      <trkpt lat="46.5803" lon="0.19854">
        <ele>202</ele>
        <time>2018-09-02T08:58:27.999Z</time>
      </trkpt>
      <trkpt lat="46.58038" lon="0.19847">
        <ele>201.95</ele>
        <time>2018-09-02T08:58:29.999Z</time>
      </trkpt>
      <trkpt lat="46.58046" lon="0.19838">
        <ele>201.75</ele>
        <time>2018-09-02T08:58:31.999Z</time>
      </trkpt>
      <trkpt lat="46.58054" lon="0.19828">
        <ele>201.36</ele>
        <time>2018-09-02T08:58:33.999Z</time>
      </trkpt>
      <trkpt lat="46.58063" lon="0.19817">
        <ele>201.33</ele>
        <time>2018-09-02T08:58:36.999Z</time>
      </trkpt>
      <trkpt lat="46.58071" lon="0.1981">
        <ele>201.32</ele>
        <time>2018-09-02T08:58:38.999Z</time>
      </trkpt>
      <trkpt lat="46.5808" lon="0.19803">
        <ele>201.27</ele>
        <time>2018-09-02T08:58:40.999Z</time>
      </trkpt>
      <trkpt lat="46.58088" lon="0.19794">
        <ele>201.11</ele>
        <time>2018-09-02T08:58:42.999Z</time>
      </trkpt>
      <trkpt lat="46.58098" lon="0.19784">
        <ele>201.2</ele>
        <time>2018-09-02T08:58:45.999Z</time>
      </trkpt>
      <trkpt lat="46.58106" lon="0.1977">
        <ele>201.42</ele>
        <time>2018-09-02T08:58:48.999Z</time>
      </trkpt>
      <trkpt lat="46.58112" lon="0.19758">
        <ele>202.63</ele>
        <time>2018-09-02T08:58:50.999Z</time>
      </trkpt>
      <trkpt lat="46.58118" lon="0.19744">
        <ele>203.13</ele>
        <time>2018-09-02T08:58:52.999Z</time>
      </trkpt>
      <trkpt lat="46.58122" lon="0.19732">
        <ele>203.26</ele>
        <time>2018-09-02T08:58:54.999Z</time>
      </trkpt>
      <trkpt lat="46.58124" lon="0.19719">
        <ele>203.84</ele>
        <time>2018-09-02T08:58:56.999Z</time>
      </trkpt>
      <trkpt lat="46.58127" lon="0.19706">
        <ele>204.23</ele>
        <time>2018-09-02T08:58:58.999Z</time>
      </trkpt>
      <trkpt lat="46.58131" lon="0.19691">
        <ele>203.92</ele>
        <time>2018-09-02T08:59:00.999Z</time>
      </trkpt>
      <trkpt lat="46.58135" lon="0.19677">
        <ele>203.38</ele>
        <time>2018-09-02T08:59:02.999Z</time>
      </trkpt>
      <trkpt lat="46.58139" lon="0.19663">
        <ele>202.57</ele>
        <time>2018-09-02T08:59:04.999Z</time>
      </trkpt>
      <trkpt lat="46.58146" lon="0.19651">
        <ele>201.65</ele>
        <time>2018-09-02T08:59:06.999Z</time>
      </trkpt>
      <trkpt lat="46.58155" lon="0.1964">
        <ele>200.7</ele>
        <time>2018-09-02T08:59:08.999Z</time>
      </trkpt>
      <trkpt lat="46.58165" lon="0.19629">
        <ele>199.98</ele>
        <time>2018-09-02T08:59:10.999Z</time>
      </trkpt>
      <trkpt lat="46.58174" lon="0.19618">
        <ele>199.42</ele>
        <time>2018-09-02T08:59:12.999Z</time>
      </trkpt>
      <trkpt lat="46.58184" lon="0.1961">
        <ele>198.98</ele>
        <time>2018-09-02T08:59:14.999Z</time>
      </trkpt>
      <trkpt lat="46.58193" lon="0.19603">
        <ele>198.69</ele>
        <time>2018-09-02T08:59:16.999Z</time>
      </trkpt>
      <trkpt lat="46.58202" lon="0.19593">
        <ele>198.31</ele>
        <time>2018-09-02T08:59:18.999Z</time>
      </trkpt>
      <trkpt lat="46.5821" lon="0.19585">
        <ele>198.38</ele>
        <time>2018-09-02T08:59:20.999Z</time>
      </trkpt>
      <trkpt lat="46.58218" lon="0.19577">
        <ele>199</ele>
        <time>2018-09-02T08:59:22.999Z</time>
      </trkpt>
      <trkpt lat="46.58227" lon="0.19569">
        <ele>199.58</ele>
        <time>2018-09-02T08:59:24.999Z</time>
      </trkpt>
      <trkpt lat="46.58234" lon="0.1956">
        <ele>199.88</ele>
        <time>2018-09-02T08:59:26.999Z</time>
      </trkpt>
      <trkpt lat="46.58242" lon="0.1955">
        <ele>199.94</ele>
        <time>2018-09-02T08:59:28.999Z</time>
      </trkpt>
      <trkpt lat="46.58253" lon="0.19538">
        <ele>200.76</ele>
        <time>2018-09-02T08:59:31.999Z</time>
      </trkpt>
      <trkpt lat="46.58261" lon="0.19531">
        <ele>201.12</ele>
        <time>2018-09-02T08:59:33.999Z</time>
      </trkpt>
      <trkpt lat="46.5827" lon="0.19525">
        <ele>201.25</ele>
        <time>2018-09-02T08:59:35.999Z</time>
      </trkpt>
      <trkpt lat="46.58278" lon="0.19519">
        <ele>200.84</ele>
        <time>2018-09-02T08:59:37.999Z</time>
      </trkpt>
      <trkpt lat="46.58287" lon="0.1951">
        <ele>200.54</ele>
        <time>2018-09-02T08:59:40.999Z</time>
      </trkpt>
      <trkpt lat="46.58292" lon="0.19499">
        <ele>200.36</ele>
        <time>2018-09-02T08:59:43.999Z</time>
      </trkpt>
      <trkpt lat="46.58297" lon="0.19488">
        <ele>199.83</ele>
        <time>2018-09-02T08:59:52.999Z</time>
      </trkpt>
      <trkpt lat="46.58303" lon="0.19477">
        <ele>200.39</ele>
        <time>2018-09-02T09:00:23.999Z</time>
      </trkpt>
      <trkpt lat="46.58294" lon="0.19472">
        <ele>199.21</ele>
        <time>2018-09-02T09:01:58.999Z</time>
      </trkpt>
      <trkpt lat="46.58299" lon="0.19484">
        <ele>197.24</ele>
        <time>2018-09-02T09:02:57.999Z</time>
      </trkpt>
      <trkpt lat="46.5829" lon="0.19494">
        <ele>197.06</ele>
        <time>2018-09-02T09:03:02.999Z</time>
      </trkpt>
      <trkpt lat="46.58295" lon="0.1951">
        <ele>197.2</ele>
        <time>2018-09-02T09:03:06.999Z</time>
      </trkpt>
      <trkpt lat="46.58306" lon="0.19519">
        <ele>197.75</ele>
        <time>2018-09-02T09:03:09.999Z</time>
      </trkpt>
      <trkpt lat="46.58318" lon="0.19527">
        <ele>199.23</ele>
        <time>2018-09-02T09:03:12.999Z</time>
      </trkpt>
      <trkpt lat="46.58327" lon="0.19535">
        <ele>200.68</ele>
        <time>2018-09-02T09:03:14.999Z</time>
      </trkpt>
      <trkpt lat="46.58335" lon="0.19544">
        <ele>202.12</ele>
        <time>2018-09-02T09:03:16.999Z</time>
      </trkpt>
      <trkpt lat="46.58342" lon="0.19555">
        <ele>203.37</ele>
        <time>2018-09-02T09:03:18.999Z</time>
      </trkpt>
      <trkpt lat="46.5835" lon="0.19564">
        <ele>204.57</ele>
        <time>2018-09-02T09:03:20.999Z</time>
      </trkpt>
      <trkpt lat="46.58357" lon="0.19574">
        <ele>205.56</ele>
        <time>2018-09-02T09:03:22.999Z</time>
      </trkpt>
      <trkpt lat="46.58365" lon="0.19585">
        <ele>205.98</ele>
        <time>2018-09-02T09:03:24.999Z</time>
      </trkpt>
      <trkpt lat="46.58373" lon="0.19597">
        <ele>206.52</ele>
        <time>2018-09-02T09:03:26.999Z</time>
      </trkpt>
      <trkpt lat="46.5838" lon="0.19608">
        <ele>207.15</ele>
        <time>2018-09-02T09:03:28.999Z</time>
      </trkpt>
      <trkpt lat="46.58388" lon="0.19618">
        <ele>207.35</ele>
        <time>2018-09-02T09:03:30.999Z</time>
      </trkpt>
      <trkpt lat="46.58395" lon="0.19628">
        <ele>207.59</ele>
        <time>2018-09-02T09:03:32.999Z</time>
      </trkpt>
      <trkpt lat="46.58403" lon="0.19639">
        <ele>208.03</ele>
        <time>2018-09-02T09:03:34.999Z</time>
      </trkpt>
      <trkpt lat="46.58411" lon="0.1965">
        <ele>208.75</ele>
        <time>2018-09-02T09:03:36.999Z</time>
      </trkpt>
      <trkpt lat="46.58421" lon="0.19662">
        <ele>209.64</ele>
        <time>2018-09-02T09:03:38.999Z</time>
      </trkpt>
      <trkpt lat="46.58431" lon="0.19674">
        <ele>210.16</ele>
        <time>2018-09-02T09:03:40.999Z</time>
      </trkpt>
      <trkpt lat="46.5844" lon="0.19685">
        <ele>210.96</ele>
        <time>2018-09-02T09:03:42.999Z</time>
      </trkpt>
      <trkpt lat="46.5845" lon="0.19697">
        <ele>211.56</ele>
        <time>2018-09-02T09:03:44.999Z</time>
      </trkpt>
      <trkpt lat="46.58459" lon="0.19707">
        <ele>212.04</ele>
        <time>2018-09-02T09:03:46.999Z</time>
      </trkpt>
      <trkpt lat="46.58469" lon="0.19718">
        <ele>211.5</ele>
        <time>2018-09-02T09:03:48.999Z</time>
      </trkpt>
      <trkpt lat="46.58478" lon="0.19729">
        <ele>210.73</ele>
        <time>2018-09-02T09:03:50.999Z</time>
      </trkpt>
      <trkpt lat="46.58487" lon="0.1974">
        <ele>210.42</ele>
        <time>2018-09-02T09:03:52.999Z</time>
      </trkpt>
      <trkpt lat="46.58497" lon="0.19752">
        <ele>210.22</ele>
        <time>2018-09-02T09:03:54.999Z</time>
      </trkpt>
      <trkpt lat="46.58506" lon="0.19762">
        <ele>209.97</ele>
        <time>2018-09-02T09:03:56.999Z</time>
      </trkpt>
      <trkpt lat="46.58515" lon="0.19774">
        <ele>209.77</ele>
        <time>2018-09-02T09:03:58.999Z</time>
      </trkpt>
      <trkpt lat="46.58526" lon="0.19786">
        <ele>209.54</ele>
        <time>2018-09-02T09:04:00.999Z</time>
      </trkpt>
      <trkpt lat="46.58537" lon="0.19801">
        <ele>209.81</ele>
        <time>2018-09-02T09:04:02.999Z</time>
      </trkpt>
      <trkpt lat="46.58548" lon="0.19814">
        <ele>209.53</ele>
        <time>2018-09-02T09:04:04.999Z</time>
      </trkpt>
      <trkpt lat="46.58558" lon="0.19826">
        <ele>209.34</ele>
        <time>2018-09-02T09:04:06.999Z</time>
      </trkpt>
      <trkpt lat="46.58569" lon="0.19839">
        <ele>209.07</ele>
        <time>2018-09-02T09:04:08.999Z</time>
      </trkpt>
      <trkpt lat="46.58576" lon="0.19852">
        <ele>208.68</ele>
        <time>2018-09-02T09:04:10.999Z</time>
      </trkpt>
      <trkpt lat="46.58574" lon="0.1987">
        <ele>207.49</ele>
        <time>2018-09-02T09:04:13.999Z</time>
      </trkpt>
      <trkpt lat="46.58577" lon="0.19889">
        <ele>206.5</ele>
        <time>2018-09-02T09:04:16.999Z</time>
      </trkpt>
      <trkpt lat="46.58579" lon="0.19903">
        <ele>206.01</ele>
        <time>2018-09-02T09:04:18.999Z</time>
      </trkpt>
      <trkpt lat="46.58582" lon="0.19918">
        <ele>205.17</ele>
        <time>2018-09-02T09:04:20.999Z</time>
      </trkpt>
      <trkpt lat="46.58584" lon="0.19935">
        <ele>204.02</ele>
        <time>2018-09-02T09:04:22.999Z</time>
      </trkpt>
      <trkpt lat="46.58588" lon="0.19952">
        <ele>204.19</ele>
        <time>2018-09-02T09:04:24.999Z</time>
      </trkpt>
      <trkpt lat="46.5859" lon="0.19967">
        <ele>204.06</ele>
        <time>2018-09-02T09:04:26.999Z</time>
      </trkpt>
      <trkpt lat="46.58593" lon="0.19982">
        <ele>203.77</ele>
        <time>2018-09-02T09:04:28.999Z</time>
      </trkpt>
      <trkpt lat="46.58594" lon="0.2">
        <ele>203.57</ele>
        <time>2018-09-02T09:04:30.999Z</time>
      </trkpt>
      <trkpt lat="46.58593" lon="0.20013">
        <ele>203.71</ele>
        <time>2018-09-02T09:04:32.999Z</time>
      </trkpt>
      <trkpt lat="46.58592" lon="0.20027">
        <ele>203.96</ele>
        <time>2018-09-02T09:04:34.999Z</time>
      </trkpt>
      <trkpt lat="46.58591" lon="0.20041">
        <ele>204.3</ele>
        <time>2018-09-02T09:04:36.999Z</time>
      </trkpt>
      <trkpt lat="46.5859" lon="0.20056">
        <ele>203.88</ele>
        <time>2018-09-02T09:04:38.999Z</time>
      </trkpt>
      <trkpt lat="46.5859" lon="0.20071">
        <ele>203.14</ele>
        <time>2018-09-02T09:04:40.999Z</time>
      </trkpt>
      <trkpt lat="46.5859" lon="0.20085">
        <ele>202.88</ele>
        <time>2018-09-02T09:04:42.999Z</time>
      </trkpt>
      <trkpt lat="46.5859" lon="0.201">
        <ele>202.7</ele>
        <time>2018-09-02T09:04:44.999Z</time>
      </trkpt>
      <trkpt lat="46.5859" lon="0.20115">
        <ele>202.4</ele>
        <time>2018-09-02T09:04:46.999Z</time>
      </trkpt>
      <trkpt lat="46.5859" lon="0.20129">
        <ele>202.41</ele>
        <time>2018-09-02T09:04:48.999Z</time>
      </trkpt>
      <trkpt lat="46.58592" lon="0.20144">
        <ele>202.7</ele>
        <time>2018-09-02T09:04:50.999Z</time>
      </trkpt>
      <trkpt lat="46.58594" lon="0.20158">
        <ele>202.95</ele>
        <time>2018-09-02T09:04:52.999Z</time>
      </trkpt>
      <trkpt lat="46.58596" lon="0.20173">
        <ele>203.35</ele>
        <time>2018-09-02T09:04:54.999Z</time>
      </trkpt>
      <trkpt lat="46.58598" lon="0.20187">
        <ele>203.9</ele>
        <time>2018-09-02T09:04:56.999Z</time>
      </trkpt>
      <trkpt lat="46.586" lon="0.20203">
        <ele>204.02</ele>
        <time>2018-09-02T09:04:58.999Z</time>
      </trkpt>
      <trkpt lat="46.58603" lon="0.20217">
        <ele>204.28</ele>
        <time>2018-09-02T09:05:00.999Z</time>
      </trkpt>
      <trkpt lat="46.58606" lon="0.20231">
        <ele>204.4</ele>
        <time>2018-09-02T09:05:02.999Z</time>
      </trkpt>
      <trkpt lat="46.58608" lon="0.20247">
        <ele>204.58</ele>
        <time>2018-09-02T09:05:04.999Z</time>
      </trkpt>
      <trkpt lat="46.58613" lon="0.20271">
        <ele>203.95</ele>
        <time>2018-09-02T09:05:07.999Z</time>
      </trkpt>
      <trkpt lat="46.58616" lon="0.20286">
        <ele>203.38</ele>
        <time>2018-09-02T09:05:09.999Z</time>
      </trkpt>
      <trkpt lat="46.58618" lon="0.20302">
        <ele>202.54</ele>
        <time>2018-09-02T09:05:11.999Z</time>
      </trkpt>
      <trkpt lat="46.5862" lon="0.20317">
        <ele>201.89</ele>
        <time>2018-09-02T09:05:13.999Z</time>
      </trkpt>
      <trkpt lat="46.58622" lon="0.20332">
        <ele>201.02</ele>
        <time>2018-09-02T09:05:15.999Z</time>
      </trkpt>
      <trkpt lat="46.58624" lon="0.20347">
        <ele>200.1</ele>
        <time>2018-09-02T09:05:17.999Z</time>
      </trkpt>
      <trkpt lat="46.58625" lon="0.20361">
        <ele>199.14</ele>
        <time>2018-09-02T09:05:19.999Z</time>
      </trkpt>
      <trkpt lat="46.58627" lon="0.20375">
        <ele>198.56</ele>
        <time>2018-09-02T09:05:21.999Z</time>
      </trkpt>
      <trkpt lat="46.58629" lon="0.2039">
        <ele>198.03</ele>
        <time>2018-09-02T09:05:23.999Z</time>
      </trkpt>
      <trkpt lat="46.58632" lon="0.2041">
        <ele>197.73</ele>
        <time>2018-09-02T09:05:26.999Z</time>
      </trkpt>
      <trkpt lat="46.58633" lon="0.20425">
        <ele>197.45</ele>
        <time>2018-09-02T09:05:28.999Z</time>
      </trkpt>
      <trkpt lat="46.58635" lon="0.20439">
        <ele>197.47</ele>
        <time>2018-09-02T09:05:30.999Z</time>
      </trkpt>
      <trkpt lat="46.58637" lon="0.20454">
        <ele>197.18</ele>
        <time>2018-09-02T09:05:32.999Z</time>
      </trkpt>
      <trkpt lat="46.58638" lon="0.20467">
        <ele>196.54</ele>
        <time>2018-09-02T09:05:34.999Z</time>
      </trkpt>
      <trkpt lat="46.58639" lon="0.20482">
        <ele>195.56</ele>
        <time>2018-09-02T09:05:36.999Z</time>
      </trkpt>
      <trkpt lat="46.58642" lon="0.20499">
        <ele>194.61</ele>
        <time>2018-09-02T09:05:39.999Z</time>
      </trkpt>
      <trkpt lat="46.58646" lon="0.20517">
        <ele>194.47</ele>
        <time>2018-09-02T09:05:42.999Z</time>
      </trkpt>
      <trkpt lat="46.58647" lon="0.2053">
        <ele>195.17</ele>
        <time>2018-09-02T09:05:44.999Z</time>
      </trkpt>
      <trkpt lat="46.58648" lon="0.20549">
        <ele>197.07</ele>
        <time>2018-09-02T09:05:47.999Z</time>
      </trkpt>
      <trkpt lat="46.58652" lon="0.20562">
        <ele>198.28</ele>
        <time>2018-09-02T09:05:49.999Z</time>
      </trkpt>
      <trkpt lat="46.58655" lon="0.20575">
        <ele>198.82</ele>
        <time>2018-09-02T09:05:51.999Z</time>
      </trkpt>
      <trkpt lat="46.58659" lon="0.20589">
        <ele>199.59</ele>
        <time>2018-09-02T09:05:53.999Z</time>
      </trkpt>
      <trkpt lat="46.58664" lon="0.20604">
        <ele>200.01</ele>
        <time>2018-09-02T09:05:55.999Z</time>
      </trkpt>
      <trkpt lat="46.58667" lon="0.20619">
        <ele>200.02</ele>
        <time>2018-09-02T09:05:57.999Z</time>
      </trkpt>
      <trkpt lat="46.58671" lon="0.20634">
        <ele>200.58</ele>
        <time>2018-09-02T09:05:59.999Z</time>
      </trkpt>
      <trkpt lat="46.58675" lon="0.20647">
        <ele>201.51</ele>
        <time>2018-09-02T09:06:01.999Z</time>
      </trkpt>
      <trkpt lat="46.58678" lon="0.20661">
        <ele>202.03</ele>
        <time>2018-09-02T09:06:03.999Z</time>
      </trkpt>
      <trkpt lat="46.58682" lon="0.20677">
        <ele>201.73</ele>
        <time>2018-09-02T09:06:05.999Z</time>
      </trkpt>
      <trkpt lat="46.58686" lon="0.20692">
        <ele>201.44</ele>
        <time>2018-09-02T09:06:07.999Z</time>
      </trkpt>
      <trkpt lat="46.5869" lon="0.20707">
        <ele>200.96</ele>
        <time>2018-09-02T09:06:09.999Z</time>
      </trkpt>
      <trkpt lat="46.58694" lon="0.20723">
        <ele>200.71</ele>
        <time>2018-09-02T09:06:11.999Z</time>
      </trkpt>
      <trkpt lat="46.58698" lon="0.20741">
        <ele>200.29</ele>
        <time>2018-09-02T09:06:13.999Z</time>
      </trkpt>
      <trkpt lat="46.58701" lon="0.20755">
        <ele>199.91</ele>
        <time>2018-09-02T09:06:15.999Z</time>
      </trkpt>
      <trkpt lat="46.58707" lon="0.20772">
        <ele>200.58</ele>
        <time>2018-09-02T09:06:18.999Z</time>
      </trkpt>
      <trkpt lat="46.58711" lon="0.20785">
        <ele>200.75</ele>
        <time>2018-09-02T09:06:21.999Z</time>
      </trkpt>
      <trkpt lat="46.58715" lon="0.208">
        <ele>200.97</ele>
        <time>2018-09-02T09:06:24.999Z</time>
      </trkpt>
      <trkpt lat="46.5872" lon="0.20816">
        <ele>202.17</ele>
        <time>2018-09-02T09:06:27.999Z</time>
      </trkpt>
      <trkpt lat="46.58723" lon="0.20834">
        <ele>202.33</ele>
        <time>2018-09-02T09:06:30.999Z</time>
      </trkpt>
      <trkpt lat="46.58726" lon="0.2085">
        <ele>202.55</ele>
        <time>2018-09-02T09:06:33.999Z</time>
      </trkpt>
      <trkpt lat="46.58728" lon="0.20866">
        <ele>202.84</ele>
        <time>2018-09-02T09:06:36.999Z</time>
      </trkpt>
      <trkpt lat="46.5873" lon="0.20883">
        <ele>203.19</ele>
        <time>2018-09-02T09:06:39.999Z</time>
      </trkpt>
      <trkpt lat="46.58734" lon="0.20898">
        <ele>203.49</ele>
        <time>2018-09-02T09:06:42.999Z</time>
      </trkpt>
      <trkpt lat="46.5874" lon="0.20915">
        <ele>203.83</ele>
        <time>2018-09-02T09:06:45.999Z</time>
      </trkpt>
      <trkpt lat="46.58745" lon="0.20931">
        <ele>204.18</ele>
        <time>2018-09-02T09:06:48.999Z</time>
      </trkpt>
      <trkpt lat="46.58749" lon="0.20945">
        <ele>204.44</ele>
        <time>2018-09-02T09:06:51.999Z</time>
      </trkpt>
      <trkpt lat="46.58754" lon="0.20958">
        <ele>205.33</ele>
        <time>2018-09-02T09:06:53.999Z</time>
      </trkpt>
      <trkpt lat="46.58757" lon="0.2097">
        <ele>205.4</ele>
        <time>2018-09-02T09:06:55.999Z</time>
      </trkpt>
      <trkpt lat="46.58761" lon="0.20982">
        <ele>205.73</ele>
        <time>2018-09-02T09:06:57.999Z</time>
      </trkpt>
      <trkpt lat="46.58763" lon="0.20996">
        <ele>205.77</ele>
        <time>2018-09-02T09:06:59.999Z</time>
      </trkpt>
      <trkpt lat="46.58766" lon="0.21009">
        <ele>206.13</ele>
        <time>2018-09-02T09:07:01.999Z</time>
      </trkpt>
      <trkpt lat="46.5877" lon="0.21024">
        <ele>206.62</ele>
        <time>2018-09-02T09:07:03.999Z</time>
      </trkpt>
      <trkpt lat="46.58775" lon="0.21038">
        <ele>206.71</ele>
        <time>2018-09-02T09:07:05.999Z</time>
      </trkpt>
      <trkpt lat="46.58778" lon="0.21051">
        <ele>206.85</ele>
        <time>2018-09-02T09:07:07.999Z</time>
      </trkpt>
      <trkpt lat="46.58783" lon="0.21063">
        <ele>206.99</ele>
        <time>2018-09-02T09:07:09.999Z</time>
      </trkpt>
      <trkpt lat="46.58788" lon="0.21076">
        <ele>206.7</ele>
        <time>2018-09-02T09:07:11.999Z</time>
      </trkpt>
      <trkpt lat="46.58791" lon="0.21089">
        <ele>206.53</ele>
        <time>2018-09-02T09:07:13.999Z</time>
      </trkpt>
      <trkpt lat="46.58793" lon="0.21102">
        <ele>206.21</ele>
        <time>2018-09-02T09:07:15.999Z</time>
      </trkpt>
      <trkpt lat="46.58795" lon="0.21115">
        <ele>205.85</ele>
        <time>2018-09-02T09:07:17.999Z</time>
      </trkpt>
      <trkpt lat="46.58797" lon="0.21131">
        <ele>205.65</ele>
        <time>2018-09-02T09:07:19.999Z</time>
      </trkpt>
      <trkpt lat="46.58797" lon="0.21145">
        <ele>205.62</ele>
        <time>2018-09-02T09:07:21.999Z</time>
      </trkpt>
      <trkpt lat="46.58798" lon="0.21161">
        <ele>205.66</ele>
        <time>2018-09-02T09:07:23.999Z</time>
      </trkpt>
      <trkpt lat="46.58799" lon="0.21178">
        <ele>205.42</ele>
        <time>2018-09-02T09:07:25.999Z</time>
      </trkpt>
      <trkpt lat="46.58802" lon="0.21192">
        <ele>205.45</ele>
        <time>2018-09-02T09:07:27.999Z</time>
      </trkpt>
      <trkpt lat="46.58804" lon="0.21204">
        <ele>205.27</ele>
        <time>2018-09-02T09:07:29.999Z</time>
      </trkpt>
      <trkpt lat="46.58806" lon="0.21218">
        <ele>205.09</ele>
        <time>2018-09-02T09:07:31.999Z</time>
      </trkpt>
      <trkpt lat="46.58807" lon="0.21232">
        <ele>205.05</ele>
        <time>2018-09-02T09:07:33.999Z</time>
      </trkpt>
      <trkpt lat="46.58808" lon="0.21245">
        <ele>204.68</ele>
        <time>2018-09-02T09:07:35.999Z</time>
      </trkpt>
      <trkpt lat="46.5881" lon="0.21264">
        <ele>204.36</ele>
        <time>2018-09-02T09:07:38.999Z</time>
      </trkpt>
      <trkpt lat="46.58811" lon="0.21278">
        <ele>203.98</ele>
        <time>2018-09-02T09:07:40.999Z</time>
      </trkpt>
      <trkpt lat="46.58813" lon="0.21292">
        <ele>204.11</ele>
        <time>2018-09-02T09:07:42.999Z</time>
      </trkpt>
      <trkpt lat="46.58815" lon="0.21306">
        <ele>203.99</ele>
        <time>2018-09-02T09:07:44.999Z</time>
      </trkpt>
      <trkpt lat="46.58819" lon="0.21321">
        <ele>204.05</ele>
        <time>2018-09-02T09:07:47.999Z</time>
      </trkpt>
      <trkpt lat="46.58819" lon="0.21335">
        <ele>204.48</ele>
        <time>2018-09-02T09:07:52.999Z</time>
      </trkpt>
      <trkpt lat="46.58824" lon="0.21351">
        <ele>204.85</ele>
        <time>2018-09-02T09:07:56.999Z</time>
      </trkpt>
      <trkpt lat="46.58826" lon="0.21365">
        <ele>205.62</ele>
        <time>2018-09-02T09:07:58.999Z</time>
      </trkpt>
      <trkpt lat="46.5883" lon="0.21382">
        <ele>206.64</ele>
        <time>2018-09-02T09:08:00.999Z</time>
      </trkpt>
      <trkpt lat="46.58834" lon="0.21398">
        <ele>207.03</ele>
        <time>2018-09-02T09:08:02.999Z</time>
      </trkpt>
      <trkpt lat="46.58837" lon="0.21413">
        <ele>207.15</ele>
        <time>2018-09-02T09:08:04.999Z</time>
      </trkpt>
      <trkpt lat="46.5884" lon="0.21428">
        <ele>207.08</ele>
        <time>2018-09-02T09:08:06.999Z</time>
      </trkpt>
      <trkpt lat="46.58842" lon="0.21442">
        <ele>206.85</ele>
        <time>2018-09-02T09:08:08.999Z</time>
      </trkpt>
      <trkpt lat="46.58846" lon="0.21459">
        <ele>206.58</ele>
        <time>2018-09-02T09:08:10.999Z</time>
      </trkpt>
      <trkpt lat="46.58849" lon="0.21477">
        <ele>205.82</ele>
        <time>2018-09-02T09:08:12.999Z</time>
      </trkpt>
      <trkpt lat="46.58854" lon="0.21493">
        <ele>205.38</ele>
        <time>2018-09-02T09:08:14.999Z</time>
      </trkpt>
      <trkpt lat="46.58858" lon="0.2151">
        <ele>204.8</ele>
        <time>2018-09-02T09:08:16.999Z</time>
      </trkpt>
      <trkpt lat="46.58862" lon="0.21525">
        <ele>204.02</ele>
        <time>2018-09-02T09:08:18.999Z</time>
      </trkpt>
      <trkpt lat="46.58865" lon="0.21541">
        <ele>203.22</ele>
        <time>2018-09-02T09:08:20.999Z</time>
      </trkpt>
      <trkpt lat="46.58868" lon="0.21557">
        <ele>202.51</ele>
        <time>2018-09-02T09:08:22.999Z</time>
      </trkpt>
      <trkpt lat="46.58872" lon="0.21573">
        <ele>202.13</ele>
        <time>2018-09-02T09:08:24.999Z</time>
      </trkpt>
      <trkpt lat="46.58872" lon="0.21588">
        <ele>201.73</ele>
        <time>2018-09-02T09:08:26.999Z</time>
      </trkpt>
      <trkpt lat="46.58874" lon="0.21601">
        <ele>201.76</ele>
        <time>2018-09-02T09:08:28.999Z</time>
      </trkpt>
      <trkpt lat="46.58877" lon="0.2162">
        <ele>202.37</ele>
        <time>2018-09-02T09:08:31.999Z</time>
      </trkpt>
      <trkpt lat="46.5888" lon="0.21636">
        <ele>202.48</ele>
        <time>2018-09-02T09:08:34.999Z</time>
      </trkpt>
      <trkpt lat="46.58883" lon="0.21652">
        <ele>202.55</ele>
        <time>2018-09-02T09:08:37.999Z</time>
      </trkpt>
      <trkpt lat="46.58875" lon="0.21667">
        <ele>202.29</ele>
        <time>2018-09-02T09:08:40.999Z</time>
      </trkpt>
      <trkpt lat="46.58868" lon="0.21678">
        <ele>201.72</ele>
        <time>2018-09-02T09:08:42.999Z</time>
      </trkpt>
      <trkpt lat="46.58862" lon="0.2169">
        <ele>201.47</ele>
        <time>2018-09-02T09:08:44.999Z</time>
      </trkpt>
      <trkpt lat="46.58855" lon="0.21702">
        <ele>201</ele>
        <time>2018-09-02T09:08:46.999Z</time>
      </trkpt>
      <trkpt lat="46.5885" lon="0.21714">
        <ele>200.1</ele>
        <time>2018-09-02T09:08:48.999Z</time>
      </trkpt>
      <trkpt lat="46.58842" lon="0.2173">
        <ele>198.71</ele>
        <time>2018-09-02T09:08:51.999Z</time>
      </trkpt>
      <trkpt lat="46.58835" lon="0.21745">
        <ele>197.79</ele>
        <time>2018-09-02T09:08:54.999Z</time>
      </trkpt>
      <trkpt lat="46.58829" lon="0.2176">
        <ele>197.97</ele>
        <time>2018-09-02T09:08:58.999Z</time>
      </trkpt>
      <trkpt lat="46.58823" lon="0.21775">
        <ele>198.92</ele>
        <time>2018-09-02T09:09:01.999Z</time>
      </trkpt>
      <trkpt lat="46.58817" lon="0.21787">
        <ele>199.83</ele>
        <time>2018-09-02T09:09:03.999Z</time>
      </trkpt>
      <trkpt lat="46.58811" lon="0.21797">
        <ele>199.92</ele>
        <time>2018-09-02T09:09:05.999Z</time>
      </trkpt>
      <trkpt lat="46.58803" lon="0.2181">
        <ele>200.06</ele>
        <time>2018-09-02T09:09:08.999Z</time>
      </trkpt>
      <trkpt lat="46.58796" lon="0.21824">
        <ele>200.26</ele>
        <time>2018-09-02T09:09:11.999Z</time>
      </trkpt>
      <trkpt lat="46.5879" lon="0.21835">
        <ele>201.43</ele>
        <time>2018-09-02T09:09:13.999Z</time>
      </trkpt>
      <trkpt lat="46.58783" lon="0.21847">
        <ele>202.33</ele>
        <time>2018-09-02T09:09:15.999Z</time>
      </trkpt>
      <trkpt lat="46.58777" lon="0.21858">
        <ele>203.04</ele>
        <time>2018-09-02T09:09:17.999Z</time>
      </trkpt>
      <trkpt lat="46.58771" lon="0.21871">
        <ele>203.34</ele>
        <time>2018-09-02T09:09:19.999Z</time>
      </trkpt>
      <trkpt lat="46.58765" lon="0.21882">
        <ele>203.72</ele>
        <time>2018-09-02T09:09:21.999Z</time>
      </trkpt>
      <trkpt lat="46.58757" lon="0.21897">
        <ele>204.55</ele>
        <time>2018-09-02T09:09:24.999Z</time>
      </trkpt>
      <trkpt lat="46.58752" lon="0.21909">
        <ele>204.61</ele>
        <time>2018-09-02T09:09:26.999Z</time>
      </trkpt>
      <trkpt lat="46.58745" lon="0.21923">
        <ele>204.65</ele>
        <time>2018-09-02T09:09:29.999Z</time>
      </trkpt>
      <trkpt lat="46.58738" lon="0.21941">
        <ele>204.4</ele>
        <time>2018-09-02T09:09:32.999Z</time>
      </trkpt>
      <trkpt lat="46.58733" lon="0.21954">
        <ele>203.28</ele>
        <time>2018-09-02T09:09:34.999Z</time>
      </trkpt>
      <trkpt lat="46.58727" lon="0.21965">
        <ele>202.12</ele>
        <time>2018-09-02T09:09:36.999Z</time>
      </trkpt>
      <trkpt lat="46.5872" lon="0.21979">
        <ele>202.07</ele>
        <time>2018-09-02T09:09:39.999Z</time>
      </trkpt>
      <trkpt lat="46.58715" lon="0.21994">
        <ele>201.83</ele>
        <time>2018-09-02T09:09:42.999Z</time>
      </trkpt>
      <trkpt lat="46.58722" lon="0.22006">
        <ele>200.49</ele>
        <time>2018-09-02T09:09:45.999Z</time>
      </trkpt>
      <trkpt lat="46.5873" lon="0.22017">
        <ele>200.05</ele>
        <time>2018-09-02T09:09:48.999Z</time>
      </trkpt>
      <trkpt lat="46.58737" lon="0.22027">
        <ele>197.14</ele>
        <time>2018-09-02T09:09:50.999Z</time>
      </trkpt>
      <trkpt lat="46.58748" lon="0.22037">
        <ele>196.06</ele>
        <time>2018-09-02T09:09:53.999Z</time>
      </trkpt>
      <trkpt lat="46.58757" lon="0.22046">
        <ele>195.39</ele>
        <time>2018-09-02T09:09:56.999Z</time>
      </trkpt>
      <trkpt lat="46.58767" lon="0.22053">
        <ele>195.21</ele>
        <time>2018-09-02T09:09:58.999Z</time>
      </trkpt>
      <trkpt lat="46.58778" lon="0.22062">
        <ele>195.24</ele>
        <time>2018-09-02T09:10:00.999Z</time>
      </trkpt>
      <trkpt lat="46.58786" lon="0.22071">
        <ele>195.54</ele>
        <time>2018-09-02T09:10:02.999Z</time>
      </trkpt>
      <trkpt lat="46.58793" lon="0.22081">
        <ele>195.95</ele>
        <time>2018-09-02T09:10:04.999Z</time>
      </trkpt>
      <trkpt lat="46.58798" lon="0.22092">
        <ele>197.04</ele>
        <time>2018-09-02T09:10:06.999Z</time>
      </trkpt>
      <trkpt lat="46.58801" lon="0.22109">
        <ele>197.66</ele>
        <time>2018-09-02T09:10:08.999Z</time>
      </trkpt>
      <trkpt lat="46.58804" lon="0.22124">
        <ele>198.36</ele>
        <time>2018-09-02T09:10:10.999Z</time>
      </trkpt>
      <trkpt lat="46.58808" lon="0.22138">
        <ele>199.49</ele>
        <time>2018-09-02T09:10:12.999Z</time>
      </trkpt>
      <trkpt lat="46.58812" lon="0.22153">
        <ele>200.45</ele>
        <time>2018-09-02T09:10:14.999Z</time>
      </trkpt>
      <trkpt lat="46.58816" lon="0.22167">
        <ele>201.31</ele>
        <time>2018-09-02T09:10:16.999Z</time>
      </trkpt>
      <trkpt lat="46.58822" lon="0.22179">
        <ele>201.99</ele>
        <time>2018-09-02T09:10:18.999Z</time>
      </trkpt>
      <trkpt lat="46.5883" lon="0.22193">
        <ele>202.42</ele>
        <time>2018-09-02T09:10:21.999Z</time>
      </trkpt>
      <trkpt lat="46.58836" lon="0.22203">
        <ele>202.62</ele>
        <time>2018-09-02T09:10:23.999Z</time>
      </trkpt>
      <trkpt lat="46.58844" lon="0.22215">
        <ele>202.67</ele>
        <time>2018-09-02T09:10:26.999Z</time>
      </trkpt>
      <trkpt lat="46.58854" lon="0.22228">
        <ele>203.07</ele>
        <time>2018-09-02T09:10:29.999Z</time>
      </trkpt>
      <trkpt lat="46.58862" lon="0.22236">
        <ele>203.64</ele>
        <time>2018-09-02T09:10:31.999Z</time>
      </trkpt>
      <trkpt lat="46.58871" lon="0.22244">
        <ele>203.89</ele>
        <time>2018-09-02T09:10:33.999Z</time>
      </trkpt>
      <trkpt lat="46.5888" lon="0.22251">
        <ele>203.91</ele>
        <time>2018-09-02T09:10:35.999Z</time>
      </trkpt>
      <trkpt lat="46.58888" lon="0.22258">
        <ele>204.41</ele>
        <time>2018-09-02T09:10:37.999Z</time>
      </trkpt>
      <trkpt lat="46.58897" lon="0.22266">
        <ele>204.6</ele>
        <time>2018-09-02T09:10:39.999Z</time>
      </trkpt>
      <trkpt lat="46.58907" lon="0.22274">
        <ele>205.08</ele>
        <time>2018-09-02T09:10:41.999Z</time>
      </trkpt>
      <trkpt lat="46.58918" lon="0.22281">
        <ele>205.73</ele>
        <time>2018-09-02T09:10:43.999Z</time>
      </trkpt>
      <trkpt lat="46.58928" lon="0.22288">
        <ele>206.47</ele>
        <time>2018-09-02T09:10:45.999Z</time>
      </trkpt>
      <trkpt lat="46.58938" lon="0.22294">
        <ele>207.22</ele>
        <time>2018-09-02T09:10:47.999Z</time>
      </trkpt>
      <trkpt lat="46.5895" lon="0.22302">
        <ele>208.24</ele>
        <time>2018-09-02T09:10:49.999Z</time>
      </trkpt>
      <trkpt lat="46.58959" lon="0.2231">
        <ele>209.2</ele>
        <time>2018-09-02T09:10:51.999Z</time>
      </trkpt>
      <trkpt lat="46.58968" lon="0.22316">
        <ele>209.99</ele>
        <time>2018-09-02T09:10:53.999Z</time>
      </trkpt>
      <trkpt lat="46.58979" lon="0.22327">
        <ele>210.97</ele>
        <time>2018-09-02T09:10:56.999Z</time>
      </trkpt>
      <trkpt lat="46.5899" lon="0.22341">
        <ele>211.77</ele>
        <time>2018-09-02T09:10:59.999Z</time>
      </trkpt>
      <trkpt lat="46.58999" lon="0.22353">
        <ele>212.16</ele>
        <time>2018-09-02T09:11:01.999Z</time>
      </trkpt>
      <trkpt lat="46.59005" lon="0.22363">
        <ele>212.37</ele>
        <time>2018-09-02T09:11:03.999Z</time>
      </trkpt>
      <trkpt lat="46.59013" lon="0.22376">
        <ele>212.39</ele>
        <time>2018-09-02T09:11:06.999Z</time>
      </trkpt>
      <trkpt lat="46.5902" lon="0.22386">
        <ele>212.3</ele>
        <time>2018-09-02T09:11:08.999Z</time>
      </trkpt>
      <trkpt lat="46.59028" lon="0.22396">
        <ele>212.12</ele>
        <time>2018-09-02T09:11:10.999Z</time>
      </trkpt>
      <trkpt lat="46.59037" lon="0.22406">
        <ele>211.92</ele>
        <time>2018-09-02T09:11:12.999Z</time>
      </trkpt>
      <trkpt lat="46.59048" lon="0.22415">
        <ele>212.09</ele>
        <time>2018-09-02T09:11:14.999Z</time>
      </trkpt>
      <trkpt lat="46.59057" lon="0.22422">
        <ele>212.31</ele>
        <time>2018-09-02T09:11:16.999Z</time>
      </trkpt>
      <trkpt lat="46.59067" lon="0.22427">
        <ele>212.86</ele>
        <time>2018-09-02T09:11:18.999Z</time>
      </trkpt>
      <trkpt lat="46.59078" lon="0.22429">
        <ele>213.04</ele>
        <time>2018-09-02T09:11:20.999Z</time>
      </trkpt>
      <trkpt lat="46.59087" lon="0.22432">
        <ele>212.96</ele>
        <time>2018-09-02T09:11:22.999Z</time>
      </trkpt>
      <trkpt lat="46.59095" lon="0.2244">
        <ele>212.27</ele>
        <time>2018-09-02T09:11:24.999Z</time>
      </trkpt>
      <trkpt lat="46.59108" lon="0.22446">
        <ele>210.65</ele>
        <time>2018-09-02T09:11:27.999Z</time>
      </trkpt>
      <trkpt lat="46.59116" lon="0.22459">
        <ele>209.16</ele>
        <time>2018-09-02T09:11:29.999Z</time>
      </trkpt>
      <trkpt lat="46.59121" lon="0.22473">
        <ele>207.87</ele>
        <time>2018-09-02T09:11:31.999Z</time>
      </trkpt>
      <trkpt lat="46.59128" lon="0.22484">
        <ele>207.37</ele>
        <time>2018-09-02T09:11:33.999Z</time>
      </trkpt>
      <trkpt lat="46.59133" lon="0.22498">
        <ele>206.33</ele>
        <time>2018-09-02T09:11:35.999Z</time>
      </trkpt>
      <trkpt lat="46.59138" lon="0.22514">
        <ele>205.27</ele>
        <time>2018-09-02T09:11:37.999Z</time>
      </trkpt>
      <trkpt lat="46.59143" lon="0.22529">
        <ele>204.41</ele>
        <time>2018-09-02T09:11:39.999Z</time>
      </trkpt>
      <trkpt lat="46.59147" lon="0.22542">
        <ele>203.62</ele>
        <time>2018-09-02T09:11:41.999Z</time>
      </trkpt>
      <trkpt lat="46.59152" lon="0.22557">
        <ele>202.74</ele>
        <time>2018-09-02T09:11:43.999Z</time>
      </trkpt>
      <trkpt lat="46.59155" lon="0.22569">
        <ele>202.06</ele>
        <time>2018-09-02T09:11:45.999Z</time>
      </trkpt>
      <trkpt lat="46.59158" lon="0.22584">
        <ele>201.29</ele>
        <time>2018-09-02T09:11:47.999Z</time>
      </trkpt>
      <trkpt lat="46.59164" lon="0.22596">
        <ele>201.11</ele>
        <time>2018-09-02T09:11:49.999Z</time>
      </trkpt>
      <trkpt lat="46.59169" lon="0.22608">
        <ele>200.83</ele>
        <time>2018-09-02T09:11:51.999Z</time>
      </trkpt>
      <trkpt lat="46.59176" lon="0.22622">
        <ele>200.58</ele>
        <time>2018-09-02T09:11:53.999Z</time>
      </trkpt>
      <trkpt lat="46.59182" lon="0.22634">
        <ele>200.26</ele>
        <time>2018-09-02T09:11:55.999Z</time>
      </trkpt>
      <trkpt lat="46.59189" lon="0.22647">
        <ele>199.99</ele>
        <time>2018-09-02T09:11:57.999Z</time>
      </trkpt>
      <trkpt lat="46.59196" lon="0.22661">
        <ele>199.8</ele>
        <time>2018-09-02T09:11:59.999Z</time>
      </trkpt>
      <trkpt lat="46.59203" lon="0.22674">
        <ele>199.67</ele>
        <time>2018-09-02T09:12:01.999Z</time>
      </trkpt>
      <trkpt lat="46.59209" lon="0.22688">
        <ele>199.73</ele>
        <time>2018-09-02T09:12:03.999Z</time>
      </trkpt>
      <trkpt lat="46.59215" lon="0.22699">
        <ele>200.36</ele>
        <time>2018-09-02T09:12:05.999Z</time>
      </trkpt>
      <trkpt lat="46.59222" lon="0.22711">
        <ele>201.48</ele>
        <time>2018-09-02T09:12:07.999Z</time>
      </trkpt>
      <trkpt lat="46.59229" lon="0.22723">
        <ele>202.54</ele>
        <time>2018-09-02T09:12:09.999Z</time>
      </trkpt>
      <trkpt lat="46.59237" lon="0.22734">
        <ele>203.23</ele>
        <time>2018-09-02T09:12:11.999Z</time>
      </trkpt>
      <trkpt lat="46.59246" lon="0.22746">
        <ele>203.19</ele>
        <time>2018-09-02T09:12:13.999Z</time>
      </trkpt>
      <trkpt lat="46.59252" lon="0.22757">
        <ele>202.92</ele>
        <time>2018-09-02T09:12:15.999Z</time>
      </trkpt>
      <trkpt lat="46.59263" lon="0.22769">
        <ele>202.66</ele>
        <time>2018-09-02T09:12:18.999Z</time>
      </trkpt>
      <trkpt lat="46.59271" lon="0.22777">
        <ele>202.45</ele>
        <time>2018-09-02T09:12:20.999Z</time>
      </trkpt>
      <trkpt lat="46.59282" lon="0.2279">
        <ele>202.08</ele>
        <time>2018-09-02T09:12:23.999Z</time>
      </trkpt>
      <trkpt lat="46.59292" lon="0.2279">
        <ele>202.17</ele>
        <time>2018-09-02T09:12:25.999Z</time>
      </trkpt>
      <trkpt lat="46.59301" lon="0.22785">
        <ele>201.98</ele>
        <time>2018-09-02T09:12:27.999Z</time>
      </trkpt>
      <trkpt lat="46.59308" lon="0.22775">
        <ele>201.98</ele>
        <time>2018-09-02T09:12:29.999Z</time>
      </trkpt>
      <trkpt lat="46.59314" lon="0.22764">
        <ele>201.94</ele>
        <time>2018-09-02T09:12:31.999Z</time>
      </trkpt>
      <trkpt lat="46.5932" lon="0.22752">
        <ele>201.95</ele>
        <time>2018-09-02T09:12:34.999Z</time>
      </trkpt>
      <trkpt lat="46.59329" lon="0.22739">
        <ele>201.92</ele>
        <time>2018-09-02T09:12:37.999Z</time>
      </trkpt>
      <trkpt lat="46.5934" lon="0.22729">
        <ele>201.79</ele>
        <time>2018-09-02T09:12:40.999Z</time>
      </trkpt>
      <trkpt lat="46.59353" lon="0.22727">
        <ele>200.74</ele>
        <time>2018-09-02T09:12:43.999Z</time>
      </trkpt>
      <trkpt lat="46.59362" lon="0.22728">
        <ele>199.23</ele>
        <time>2018-09-02T09:12:45.999Z</time>
      </trkpt>
      <trkpt lat="46.59371" lon="0.22731">
        <ele>198.74</ele>
        <time>2018-09-02T09:12:47.999Z</time>
      </trkpt>
      <trkpt lat="46.5938" lon="0.22734">
        <ele>198.58</ele>
        <time>2018-09-02T09:12:49.999Z</time>
      </trkpt>
      <trkpt lat="46.5939" lon="0.22738">
        <ele>198.59</ele>
        <time>2018-09-02T09:12:52.999Z</time>
      </trkpt>
      <trkpt lat="46.59403" lon="0.22747">
        <ele>198.07</ele>
        <time>2018-09-02T09:12:55.999Z</time>
      </trkpt>
      <trkpt lat="46.59413" lon="0.22752">
        <ele>197.73</ele>
        <time>2018-09-02T09:12:57.999Z</time>
      </trkpt>
      <trkpt lat="46.59423" lon="0.2276">
        <ele>197.96</ele>
        <time>2018-09-02T09:12:59.999Z</time>
      </trkpt>
      <trkpt lat="46.59436" lon="0.22767">
        <ele>198.95</ele>
        <time>2018-09-02T09:13:01.999Z</time>
      </trkpt>
      <trkpt lat="46.59448" lon="0.22765">
        <ele>199.91</ele>
        <time>2018-09-02T09:13:03.999Z</time>
      </trkpt>
      <trkpt lat="46.59461" lon="0.22768">
        <ele>200.54</ele>
        <time>2018-09-02T09:13:05.999Z</time>
      </trkpt>
      <trkpt lat="46.59473" lon="0.22774">
        <ele>201.29</ele>
        <time>2018-09-02T09:13:07.999Z</time>
      </trkpt>
      <trkpt lat="46.59487" lon="0.2278">
        <ele>201.88</ele>
        <time>2018-09-02T09:13:09.999Z</time>
      </trkpt>
      <trkpt lat="46.59502" lon="0.22784">
        <ele>202.22</ele>
        <time>2018-09-02T09:13:11.999Z</time>
      </trkpt>
      <trkpt lat="46.59517" lon="0.22787">
        <ele>202.41</ele>
        <time>2018-09-02T09:13:13.999Z</time>
      </trkpt>
      <trkpt lat="46.59532" lon="0.22792">
        <ele>202.16</ele>
        <time>2018-09-02T09:13:15.999Z</time>
      </trkpt>
      <trkpt lat="46.59547" lon="0.22793">
        <ele>200.28</ele>
        <time>2018-09-02T09:13:17.999Z</time>
      </trkpt>
      <trkpt lat="46.59561" lon="0.22794">
        <ele>199.37</ele>
        <time>2018-09-02T09:13:19.999Z</time>
      </trkpt>
      <trkpt lat="46.59575" lon="0.22794">
        <ele>198.81</ele>
        <time>2018-09-02T09:13:21.999Z</time>
      </trkpt>
      <trkpt lat="46.59586" lon="0.22795">
        <ele>197.14</ele>
        <time>2018-09-02T09:13:23.999Z</time>
      </trkpt>
      <trkpt lat="46.59599" lon="0.22793">
        <ele>196.61</ele>
        <time>2018-09-02T09:13:25.999Z</time>
      </trkpt>
      <trkpt lat="46.5961" lon="0.22794">
        <ele>196.74</ele>
        <time>2018-09-02T09:13:27.999Z</time>
      </trkpt>
      <trkpt lat="46.59621" lon="0.22797">
        <ele>196.33</ele>
        <time>2018-09-02T09:13:29.999Z</time>
      </trkpt>
      <trkpt lat="46.59632" lon="0.22799">
        <ele>195.79</ele>
        <time>2018-09-02T09:13:31.999Z</time>
      </trkpt>
      <trkpt lat="46.59646" lon="0.22801">
        <ele>194.94</ele>
        <time>2018-09-02T09:13:33.999Z</time>
      </trkpt>
      <trkpt lat="46.5966" lon="0.22802">
        <ele>192.53</ele>
        <time>2018-09-02T09:13:35.999Z</time>
      </trkpt>
      <trkpt lat="46.59675" lon="0.22804">
        <ele>190.55</ele>
        <time>2018-09-02T09:13:37.999Z</time>
      </trkpt>
      <trkpt lat="46.59686" lon="0.22811">
        <ele>188.82</ele>
        <time>2018-09-02T09:13:39.999Z</time>
      </trkpt>
      <trkpt lat="46.59697" lon="0.22818">
        <ele>187.25</ele>
        <time>2018-09-02T09:13:41.999Z</time>
      </trkpt>
      <trkpt lat="46.59711" lon="0.22824">
        <ele>184.85</ele>
        <time>2018-09-02T09:13:43.999Z</time>
      </trkpt>
      <trkpt lat="46.59724" lon="0.22829">
        <ele>182.41</ele>
        <time>2018-09-02T09:13:45.999Z</time>
      </trkpt>
      <trkpt lat="46.59736" lon="0.22836">
        <ele>180.29</ele>
        <time>2018-09-02T09:13:47.999Z</time>
      </trkpt>
      <trkpt lat="46.59748" lon="0.22844">
        <ele>179.03</ele>
        <time>2018-09-02T09:13:49.999Z</time>
      </trkpt>
      <trkpt lat="46.5976" lon="0.22851">
        <ele>178.2</ele>
        <time>2018-09-02T09:13:51.999Z</time>
      </trkpt>
      <trkpt lat="46.59772" lon="0.22856">
        <ele>177.74</ele>
        <time>2018-09-02T09:13:53.999Z</time>
      </trkpt>
      <trkpt lat="46.59786" lon="0.22857">
        <ele>177.46</ele>
        <time>2018-09-02T09:13:55.999Z</time>
      </trkpt>
      <trkpt lat="46.59798" lon="0.2286">
        <ele>176.78</ele>
        <time>2018-09-02T09:13:57.999Z</time>
      </trkpt>
      <trkpt lat="46.59806" lon="0.22873">
        <ele>176.65</ele>
        <time>2018-09-02T09:13:59.999Z</time>
      </trkpt>
      <trkpt lat="46.5981" lon="0.22889">
        <ele>177.19</ele>
        <time>2018-09-02T09:14:01.999Z</time>
      </trkpt>
      <trkpt lat="46.59813" lon="0.22907">
        <ele>177.91</ele>
        <time>2018-09-02T09:14:03.999Z</time>
      </trkpt>
      <trkpt lat="46.59816" lon="0.22926">
        <ele>178.62</ele>
        <time>2018-09-02T09:14:05.999Z</time>
      </trkpt>
      <trkpt lat="46.59819" lon="0.22945">
        <ele>179.04</ele>
        <time>2018-09-02T09:14:07.999Z</time>
      </trkpt>
      <trkpt lat="46.59824" lon="0.2296">
        <ele>179.87</ele>
        <time>2018-09-02T09:14:09.999Z</time>
      </trkpt>
      <trkpt lat="46.5983" lon="0.22974">
        <ele>180.08</ele>
        <time>2018-09-02T09:14:11.999Z</time>
      </trkpt>
      <trkpt lat="46.59835" lon="0.22988">
        <ele>180.35</ele>
        <time>2018-09-02T09:14:13.999Z</time>
      </trkpt>
      <trkpt lat="46.59841" lon="0.23002">
        <ele>180.84</ele>
        <time>2018-09-02T09:14:15.999Z</time>
      </trkpt>
      <trkpt lat="46.59847" lon="0.23015">
        <ele>181.03</ele>
        <time>2018-09-02T09:14:17.999Z</time>
      </trkpt>
      <trkpt lat="46.59853" lon="0.23027">
        <ele>181.14</ele>
        <time>2018-09-02T09:14:19.999Z</time>
      </trkpt>
      <trkpt lat="46.59861" lon="0.23041">
        <ele>180.61</ele>
        <time>2018-09-02T09:14:21.999Z</time>
      </trkpt>
      <trkpt lat="46.59867" lon="0.23055">
        <ele>179.56</ele>
        <time>2018-09-02T09:14:23.999Z</time>
      </trkpt>
      <trkpt lat="46.59874" lon="0.23068">
        <ele>179.77</ele>
        <time>2018-09-02T09:14:25.999Z</time>
      </trkpt>
      <trkpt lat="46.59883" lon="0.23082">
        <ele>179.17</ele>
        <time>2018-09-02T09:14:27.999Z</time>
      </trkpt>
      <trkpt lat="46.5989" lon="0.23094">
        <ele>178.66</ele>
        <time>2018-09-02T09:14:29.999Z</time>
      </trkpt>
      <trkpt lat="46.59896" lon="0.23104">
        <ele>177.79</ele>
        <time>2018-09-02T09:14:31.999Z</time>
      </trkpt>
      <trkpt lat="46.59903" lon="0.23117">
        <ele>176.97</ele>
        <time>2018-09-02T09:14:33.999Z</time>
      </trkpt>
      <trkpt lat="46.5991" lon="0.23128">
        <ele>176</ele>
        <time>2018-09-02T09:14:35.999Z</time>
      </trkpt>
      <trkpt lat="46.59917" lon="0.23139">
        <ele>175.55</ele>
        <time>2018-09-02T09:14:37.999Z</time>
      </trkpt>
      <trkpt lat="46.59924" lon="0.2315">
        <ele>174.96</ele>
        <time>2018-09-02T09:14:40.999Z</time>
      </trkpt>
      <trkpt lat="46.59935" lon="0.23159">
        <ele>174.19</ele>
        <time>2018-09-02T09:14:43.999Z</time>
      </trkpt>
      <trkpt lat="46.59944" lon="0.23155">
        <ele>173.63</ele>
        <time>2018-09-02T09:14:45.999Z</time>
      </trkpt>
      <trkpt lat="46.59953" lon="0.2315">
        <ele>173.23</ele>
        <time>2018-09-02T09:14:47.999Z</time>
      </trkpt>
      <trkpt lat="46.59964" lon="0.23145">
        <ele>173.12</ele>
        <time>2018-09-02T09:14:50.999Z</time>
      </trkpt>
      <trkpt lat="46.59974" lon="0.2314">
        <ele>172.97</ele>
        <time>2018-09-02T09:14:53.999Z</time>
      </trkpt>
      <trkpt lat="46.59983" lon="0.23135">
        <ele>172.79</ele>
        <time>2018-09-02T09:14:56.999Z</time>
      </trkpt>
      <trkpt lat="46.59992" lon="0.23128">
        <ele>172.57</ele>
        <time>2018-09-02T09:14:59.999Z</time>
      </trkpt>
      <trkpt lat="46.60001" lon="0.23121">
        <ele>172.21</ele>
        <time>2018-09-02T09:15:03.999Z</time>
      </trkpt>
      <trkpt lat="46.60011" lon="0.23113">
        <ele>171.83</ele>
        <time>2018-09-02T09:15:07.999Z</time>
      </trkpt>
      <trkpt lat="46.60019" lon="0.23104">
        <ele>171.51</ele>
        <time>2018-09-02T09:15:11.999Z</time>
      </trkpt>
      <trkpt lat="46.60027" lon="0.23093">
        <ele>171.33</ele>
        <time>2018-09-02T09:15:15.999Z</time>
      </trkpt>
      <trkpt lat="46.60036" lon="0.23082">
        <ele>171.35</ele>
        <time>2018-09-02T09:15:19.999Z</time>
      </trkpt>
      <trkpt lat="46.60048" lon="0.23076">
        <ele>171.41</ele>
        <time>2018-09-02T09:15:23.999Z</time>
      </trkpt>
      <trkpt lat="46.60059" lon="0.23074">
        <ele>171.5</ele>
        <time>2018-09-02T09:15:27.999Z</time>
      </trkpt>
      <trkpt lat="46.60069" lon="0.23074">
        <ele>171.56</ele>
        <time>2018-09-02T09:15:30.999Z</time>
      </trkpt>
      <trkpt lat="46.6008" lon="0.23071">
        <ele>172.23</ele>
        <time>2018-09-02T09:15:33.999Z</time>
      </trkpt>
      <trkpt lat="46.60092" lon="0.23067">
        <ele>173</ele>
        <time>2018-09-02T09:15:36.999Z</time>
      </trkpt>
      <trkpt lat="46.60103" lon="0.23065">
        <ele>173.12</ele>
        <time>2018-09-02T09:15:39.999Z</time>
      </trkpt>
      <trkpt lat="46.60114" lon="0.23063">
        <ele>173.21</ele>
        <time>2018-09-02T09:15:42.999Z</time>
      </trkpt>
      <trkpt lat="46.60125" lon="0.2306">
        <ele>173.57</ele>
        <time>2018-09-02T09:15:45.999Z</time>
      </trkpt>
      <trkpt lat="46.60136" lon="0.2306">
        <ele>173.67</ele>
        <time>2018-09-02T09:15:48.999Z</time>
      </trkpt>
      <trkpt lat="46.60146" lon="0.23059">
        <ele>173.8</ele>
        <time>2018-09-02T09:15:51.999Z</time>
      </trkpt>
      <trkpt lat="46.60156" lon="0.23057">
        <ele>173.95</ele>
        <time>2018-09-02T09:15:54.999Z</time>
      </trkpt>
      <trkpt lat="46.60165" lon="0.23054">
        <ele>174.1</ele>
        <time>2018-09-02T09:15:57.999Z</time>
      </trkpt>
      <trkpt lat="46.60175" lon="0.23048">
        <ele>174.3</ele>
        <time>2018-09-02T09:16:01.999Z</time>
      </trkpt>
      <trkpt lat="46.60186" lon="0.23041">
        <ele>174.51</ele>
        <time>2018-09-02T09:16:05.999Z</time>
      </trkpt>
      <trkpt lat="46.60194" lon="0.23036">
        <ele>174.63</ele>
        <time>2018-09-02T09:16:08.999Z</time>
      </trkpt>
      <trkpt lat="46.60204" lon="0.2303">
        <ele>174.79</ele>
        <time>2018-09-02T09:16:11.999Z</time>
      </trkpt>
      <trkpt lat="46.60213" lon="0.23024">
        <ele>174.95</ele>
        <time>2018-09-02T09:16:14.999Z</time>
      </trkpt>
      <trkpt lat="46.60223" lon="0.23017">
        <ele>175.18</ele>
        <time>2018-09-02T09:16:18.999Z</time>
      </trkpt>
      <trkpt lat="46.60235" lon="0.23011">
        <ele>175.38</ele>
        <time>2018-09-02T09:16:22.999Z</time>
      </trkpt>
      <trkpt lat="46.60246" lon="0.23009">
        <ele>175.64</ele>
        <time>2018-09-02T09:16:26.999Z</time>
      </trkpt>
      <trkpt lat="46.60256" lon="0.23009">
        <ele>175.9</ele>
        <time>2018-09-02T09:16:29.999Z</time>
      </trkpt>
      <trkpt lat="46.60265" lon="0.23011">
        <ele>176.19</ele>
        <time>2018-09-02T09:16:32.999Z</time>
      </trkpt>
      <trkpt lat="46.60275" lon="0.23014">
        <ele>176.54</ele>
        <time>2018-09-02T09:16:35.999Z</time>
      </trkpt>
      <trkpt lat="46.60286" lon="0.23017">
        <ele>176.85</ele>
        <time>2018-09-02T09:16:38.999Z</time>
      </trkpt>
      <trkpt lat="46.60297" lon="0.23019">
        <ele>179.16</ele>
        <time>2018-09-02T09:16:41.999Z</time>
      </trkpt>
      <trkpt lat="46.60309" lon="0.23021">
        <ele>180.29</ele>
        <time>2018-09-02T09:16:44.999Z</time>
      </trkpt>
      <trkpt lat="46.60322" lon="0.23025">
        <ele>180.84</ele>
        <time>2018-09-02T09:16:47.999Z</time>
      </trkpt>
      <trkpt lat="46.60331" lon="0.23027">
        <ele>181.04</ele>
        <time>2018-09-02T09:16:49.999Z</time>
      </trkpt>
      <trkpt lat="46.60342" lon="0.23028">
        <ele>181.32</ele>
        <time>2018-09-02T09:16:51.999Z</time>
      </trkpt>
      <trkpt lat="46.60352" lon="0.2303">
        <ele>181.69</ele>
        <time>2018-09-02T09:16:53.999Z</time>
      </trkpt>
      <trkpt lat="46.60362" lon="0.23032">
        <ele>182.04</ele>
        <time>2018-09-02T09:16:55.999Z</time>
      </trkpt>
      <trkpt lat="46.60373" lon="0.23035">
        <ele>182.32</ele>
        <time>2018-09-02T09:16:57.999Z</time>
      </trkpt>
      <trkpt lat="46.60383" lon="0.23037">
        <ele>182.34</ele>
        <time>2018-09-02T09:16:59.999Z</time>
      </trkpt>
      <trkpt lat="46.60395" lon="0.2304">
        <ele>182.07</ele>
        <time>2018-09-02T09:17:01.999Z</time>
      </trkpt>
      <trkpt lat="46.60405" lon="0.23042">
        <ele>181.92</ele>
        <time>2018-09-02T09:17:03.999Z</time>
      </trkpt>
      <trkpt lat="46.60414" lon="0.23044">
        <ele>181.75</ele>
        <time>2018-09-02T09:17:05.999Z</time>
      </trkpt>
      <trkpt lat="46.60425" lon="0.23047">
        <ele>181.56</ele>
        <time>2018-09-02T09:17:07.999Z</time>
      </trkpt>
      <trkpt lat="46.60436" lon="0.23049">
        <ele>181.52</ele>
        <time>2018-09-02T09:17:09.999Z</time>
      </trkpt>
      <trkpt lat="46.60445" lon="0.23051">
        <ele>181.59</ele>
        <time>2018-09-02T09:17:11.999Z</time>
      </trkpt>
      <trkpt lat="46.60455" lon="0.23053">
        <ele>182.12</ele>
        <time>2018-09-02T09:17:13.999Z</time>
      </trkpt>
      <trkpt lat="46.60465" lon="0.23055">
        <ele>182.99</ele>
        <time>2018-09-02T09:17:15.999Z</time>
      </trkpt>
      <trkpt lat="46.60478" lon="0.23056">
        <ele>185.01</ele>
        <time>2018-09-02T09:17:18.999Z</time>
      </trkpt>
      <trkpt lat="46.60487" lon="0.23058">
        <ele>187.06</ele>
        <time>2018-09-02T09:17:20.999Z</time>
      </trkpt>
      <trkpt lat="46.60498" lon="0.23058">
        <ele>189.11</ele>
        <time>2018-09-02T09:17:22.999Z</time>
      </trkpt>
      <trkpt lat="46.60509" lon="0.2306">
        <ele>190.62</ele>
        <time>2018-09-02T09:17:24.999Z</time>
      </trkpt>
      <trkpt lat="46.6052" lon="0.2306">
        <ele>191.28</ele>
        <time>2018-09-02T09:17:26.999Z</time>
      </trkpt>
      <trkpt lat="46.60531" lon="0.23061">
        <ele>191.71</ele>
        <time>2018-09-02T09:17:28.999Z</time>
      </trkpt>
      <trkpt lat="46.60541" lon="0.23062">
        <ele>191.97</ele>
        <time>2018-09-02T09:17:30.999Z</time>
      </trkpt>
      <trkpt lat="46.60552" lon="0.23063">
        <ele>192.05</ele>
        <time>2018-09-02T09:17:32.999Z</time>
      </trkpt>
      <trkpt lat="46.60562" lon="0.23064">
        <ele>191.92</ele>
        <time>2018-09-02T09:17:34.999Z</time>
      </trkpt>
      <trkpt lat="46.60573" lon="0.23063">
        <ele>191.72</ele>
        <time>2018-09-02T09:17:36.999Z</time>
      </trkpt>
      <trkpt lat="46.60583" lon="0.23061">
        <ele>191.25</ele>
        <time>2018-09-02T09:17:38.999Z</time>
      </trkpt>
      <trkpt lat="46.60592" lon="0.23051">
        <ele>189.89</ele>
        <time>2018-09-02T09:17:40.999Z</time>
      </trkpt>
      <trkpt lat="46.60595" lon="0.23035">
        <ele>188.53</ele>
        <time>2018-09-02T09:17:42.999Z</time>
      </trkpt>
      <trkpt lat="46.60596" lon="0.23017">
        <ele>188.05</ele>
        <time>2018-09-02T09:17:44.999Z</time>
      </trkpt>
      <trkpt lat="46.60598" lon="0.22999">
        <ele>188.12</ele>
        <time>2018-09-02T09:17:46.999Z</time>
      </trkpt>
      <trkpt lat="46.60601" lon="0.22981">
        <ele>188.26</ele>
        <time>2018-09-02T09:17:48.999Z</time>
      </trkpt>
      <trkpt lat="46.60605" lon="0.22965">
        <ele>188.35</ele>
        <time>2018-09-02T09:17:50.999Z</time>
      </trkpt>
      <trkpt lat="46.60608" lon="0.22947">
        <ele>187.97</ele>
        <time>2018-09-02T09:17:52.999Z</time>
      </trkpt>
      <trkpt lat="46.60614" lon="0.22928">
        <ele>187.54</ele>
        <time>2018-09-02T09:17:54.999Z</time>
      </trkpt>
      <trkpt lat="46.60618" lon="0.2291">
        <ele>187.15</ele>
        <time>2018-09-02T09:17:56.999Z</time>
      </trkpt>
      <trkpt lat="46.60622" lon="0.22895">
        <ele>186.65</ele>
        <time>2018-09-02T09:17:58.999Z</time>
      </trkpt>
      <trkpt lat="46.60627" lon="0.22879">
        <ele>186.13</ele>
        <time>2018-09-02T09:18:00.999Z</time>
      </trkpt>
      <trkpt lat="46.6063" lon="0.22865">
        <ele>185.67</ele>
        <time>2018-09-02T09:18:02.999Z</time>
      </trkpt>
      <trkpt lat="46.60634" lon="0.22851">
        <ele>185.5</ele>
        <time>2018-09-02T09:18:04.999Z</time>
      </trkpt>
      <trkpt lat="46.60637" lon="0.22837">
        <ele>185.53</ele>
        <time>2018-09-02T09:18:06.999Z</time>
      </trkpt>
      <trkpt lat="46.60642" lon="0.22823">
        <ele>185.49</ele>
        <time>2018-09-02T09:18:08.999Z</time>
      </trkpt>
      <trkpt lat="46.60646" lon="0.22808">
        <ele>185.51</ele>
        <time>2018-09-02T09:18:10.999Z</time>
      </trkpt>
      <trkpt lat="46.60649" lon="0.22794">
        <ele>185.42</ele>
        <time>2018-09-02T09:18:12.999Z</time>
      </trkpt>
      <trkpt lat="46.60653" lon="0.22779">
        <ele>185.5</ele>
        <time>2018-09-02T09:18:14.999Z</time>
      </trkpt>
      <trkpt lat="46.60656" lon="0.22765">
        <ele>185.51</ele>
        <time>2018-09-02T09:18:16.999Z</time>
      </trkpt>
      <trkpt lat="46.60661" lon="0.22751">
        <ele>185.47</ele>
        <time>2018-09-02T09:18:18.999Z</time>
      </trkpt>
      <trkpt lat="46.60664" lon="0.22738">
        <ele>185.52</ele>
        <time>2018-09-02T09:18:20.999Z</time>
      </trkpt>
      <trkpt lat="46.60667" lon="0.22725">
        <ele>185.5</ele>
        <time>2018-09-02T09:18:22.999Z</time>
      </trkpt>
      <trkpt lat="46.60671" lon="0.22712">
        <ele>185.54</ele>
        <time>2018-09-02T09:18:24.999Z</time>
      </trkpt>
      <trkpt lat="46.60674" lon="0.22699">
        <ele>185.76</ele>
        <time>2018-09-02T09:18:26.999Z</time>
      </trkpt>
      <trkpt lat="46.60678" lon="0.22686">
        <ele>186</ele>
        <time>2018-09-02T09:18:28.999Z</time>
      </trkpt>
      <trkpt lat="46.60681" lon="0.22673">
        <ele>186.04</ele>
        <time>2018-09-02T09:18:30.999Z</time>
      </trkpt>
      <trkpt lat="46.60685" lon="0.2266">
        <ele>185.98</ele>
        <time>2018-09-02T09:18:32.999Z</time>
      </trkpt>
      <trkpt lat="46.60689" lon="0.22647">
        <ele>186.14</ele>
        <time>2018-09-02T09:18:34.999Z</time>
      </trkpt>
      <trkpt lat="46.60693" lon="0.22633">
        <ele>186.29</ele>
        <time>2018-09-02T09:18:36.999Z</time>
      </trkpt>
      <trkpt lat="46.60696" lon="0.2262">
        <ele>186.58</ele>
        <time>2018-09-02T09:18:38.999Z</time>
      </trkpt>
      <trkpt lat="46.607" lon="0.22608">
        <ele>186.95</ele>
        <time>2018-09-02T09:18:40.999Z</time>
      </trkpt>
      <trkpt lat="46.60704" lon="0.22596">
        <ele>187.18</ele>
        <time>2018-09-02T09:18:42.999Z</time>
      </trkpt>
      <trkpt lat="46.6071" lon="0.22578">
        <ele>187.73</ele>
        <time>2018-09-02T09:18:45.999Z</time>
      </trkpt>
      <trkpt lat="46.60714" lon="0.22565">
        <ele>188.15</ele>
        <time>2018-09-02T09:18:47.999Z</time>
      </trkpt>
      <trkpt lat="46.60718" lon="0.22552">
        <ele>188.57</ele>
        <time>2018-09-02T09:18:49.999Z</time>
      </trkpt>
      <trkpt lat="46.60722" lon="0.2254">
        <ele>188.9</ele>
        <time>2018-09-02T09:18:51.999Z</time>
      </trkpt>
      <trkpt lat="46.60726" lon="0.22528">
        <ele>189.01</ele>
        <time>2018-09-02T09:18:53.999Z</time>
      </trkpt>
      <trkpt lat="46.60732" lon="0.22512">
        <ele>189.66</ele>
        <time>2018-09-02T09:18:56.999Z</time>
      </trkpt>
      <trkpt lat="46.60743" lon="0.22505">
        <ele>190.62</ele>
        <time>2018-09-02T09:18:59.999Z</time>
      </trkpt>
      <trkpt lat="46.60755" lon="0.22511">
        <ele>191.1</ele>
        <time>2018-09-02T09:19:02.999Z</time>
      </trkpt>
      <trkpt lat="46.60763" lon="0.22517">
        <ele>190.85</ele>
        <time>2018-09-02T09:19:04.999Z</time>
      </trkpt>
      <trkpt lat="46.60772" lon="0.22522">
        <ele>190.39</ele>
        <time>2018-09-02T09:19:06.999Z</time>
      </trkpt>
      <trkpt lat="46.60781" lon="0.22527">
        <ele>189.74</ele>
        <time>2018-09-02T09:19:08.999Z</time>
      </trkpt>
      <trkpt lat="46.6079" lon="0.22532">
        <ele>189.1</ele>
        <time>2018-09-02T09:19:10.999Z</time>
      </trkpt>
      <trkpt lat="46.60798" lon="0.22537">
        <ele>188.5</ele>
        <time>2018-09-02T09:19:12.999Z</time>
      </trkpt>
      <trkpt lat="46.6081" lon="0.22544">
        <ele>188.3</ele>
        <time>2018-09-02T09:19:15.999Z</time>
      </trkpt>
      <trkpt lat="46.60819" lon="0.22548">
        <ele>188.16</ele>
        <time>2018-09-02T09:19:17.999Z</time>
      </trkpt>
      <trkpt lat="46.60831" lon="0.22554">
        <ele>187.8</ele>
        <time>2018-09-02T09:19:20.999Z</time>
      </trkpt>
      <trkpt lat="46.60844" lon="0.22562">
        <ele>187.39</ele>
        <time>2018-09-02T09:19:23.999Z</time>
      </trkpt>
      <trkpt lat="46.60853" lon="0.22567">
        <ele>186.73</ele>
        <time>2018-09-02T09:19:25.999Z</time>
      </trkpt>
      <trkpt lat="46.60863" lon="0.22571">
        <ele>186.29</ele>
        <time>2018-09-02T09:19:27.999Z</time>
      </trkpt>
      <trkpt lat="46.60872" lon="0.22576">
        <ele>186.21</ele>
        <time>2018-09-02T09:19:29.999Z</time>
      </trkpt>
      <trkpt lat="46.60881" lon="0.22581">
        <ele>186.39</ele>
        <time>2018-09-02T09:19:31.999Z</time>
      </trkpt>
      <trkpt lat="46.60891" lon="0.22586">
        <ele>186.71</ele>
        <time>2018-09-02T09:19:33.999Z</time>
      </trkpt>
      <trkpt lat="46.60901" lon="0.22591">
        <ele>186.82</ele>
        <time>2018-09-02T09:19:35.999Z</time>
      </trkpt>
      <trkpt lat="46.60911" lon="0.22596">
        <ele>186.71</ele>
        <time>2018-09-02T09:19:37.999Z</time>
      </trkpt>
      <trkpt lat="46.6092" lon="0.22601">
        <ele>186.88</ele>
        <time>2018-09-02T09:19:39.999Z</time>
      </trkpt>
      <trkpt lat="46.60929" lon="0.22607">
        <ele>186.93</ele>
        <time>2018-09-02T09:19:41.999Z</time>
      </trkpt>
      <trkpt lat="46.6094" lon="0.22614">
        <ele>187.02</ele>
        <time>2018-09-02T09:19:44.999Z</time>
      </trkpt>
      <trkpt lat="46.60952" lon="0.22621">
        <ele>187.04</ele>
        <time>2018-09-02T09:19:47.999Z</time>
      </trkpt>
      <trkpt lat="46.60961" lon="0.22626">
        <ele>187.05</ele>
        <time>2018-09-02T09:19:49.999Z</time>
      </trkpt>
      <trkpt lat="46.6097" lon="0.2263">
        <ele>187.02</ele>
        <time>2018-09-02T09:19:51.999Z</time>
      </trkpt>
      <trkpt lat="46.6098" lon="0.22635">
        <ele>186.64</ele>
        <time>2018-09-02T09:19:53.999Z</time>
      </trkpt>
      <trkpt lat="46.60992" lon="0.22642">
        <ele>186.11</ele>
        <time>2018-09-02T09:19:56.999Z</time>
      </trkpt>
      <trkpt lat="46.61001" lon="0.22647">
        <ele>185.85</ele>
        <time>2018-09-02T09:19:58.999Z</time>
      </trkpt>
      <trkpt lat="46.6101" lon="0.22652">
        <ele>185.61</ele>
        <time>2018-09-02T09:20:00.999Z</time>
      </trkpt>
      <trkpt lat="46.61021" lon="0.22661">
        <ele>185.39</ele>
        <time>2018-09-02T09:20:03.999Z</time>
      </trkpt>
      <trkpt lat="46.61031" lon="0.22669">
        <ele>185.01</ele>
        <time>2018-09-02T09:20:05.999Z</time>
      </trkpt>
      <trkpt lat="46.6104" lon="0.22679">
        <ele>184.43</ele>
        <time>2018-09-02T09:20:07.999Z</time>
      </trkpt>
      <trkpt lat="46.61049" lon="0.22686">
        <ele>184.41</ele>
        <time>2018-09-02T09:20:09.999Z</time>
      </trkpt>
      <trkpt lat="46.61057" lon="0.22693">
        <ele>184.29</ele>
        <time>2018-09-02T09:20:11.999Z</time>
      </trkpt>
      <trkpt lat="46.61068" lon="0.22704">
        <ele>184.29</ele>
        <time>2018-09-02T09:20:14.999Z</time>
      </trkpt>
      <trkpt lat="46.61077" lon="0.22713">
        <ele>184.08</ele>
        <time>2018-09-02T09:20:16.999Z</time>
      </trkpt>
      <trkpt lat="46.61086" lon="0.22722">
        <ele>183.06</ele>
        <time>2018-09-02T09:20:18.999Z</time>
      </trkpt>
      <trkpt lat="46.61094" lon="0.22729">
        <ele>182.26</ele>
        <time>2018-09-02T09:20:20.999Z</time>
      </trkpt>
      <trkpt lat="46.61102" lon="0.22737">
        <ele>181.88</ele>
        <time>2018-09-02T09:20:22.999Z</time>
      </trkpt>
      <trkpt lat="46.61114" lon="0.22746">
        <ele>182.3</ele>
        <time>2018-09-02T09:20:25.999Z</time>
      </trkpt>
      <trkpt lat="46.61122" lon="0.22754">
        <ele>183.28</ele>
        <time>2018-09-02T09:20:27.999Z</time>
      </trkpt>
      <trkpt lat="46.61131" lon="0.22765">
        <ele>183.6</ele>
        <time>2018-09-02T09:20:30.999Z</time>
      </trkpt>
      <trkpt lat="46.61139" lon="0.22771">
        <ele>184.24</ele>
        <time>2018-09-02T09:20:32.999Z</time>
      </trkpt>
      <trkpt lat="46.6115" lon="0.22782">
        <ele>184.74</ele>
        <time>2018-09-02T09:20:35.999Z</time>
      </trkpt>
      <trkpt lat="46.61159" lon="0.22791">
        <ele>184.67</ele>
        <time>2018-09-02T09:20:37.999Z</time>
      </trkpt>
      <trkpt lat="46.61166" lon="0.228">
        <ele>184.32</ele>
        <time>2018-09-02T09:20:39.999Z</time>
      </trkpt>
      <trkpt lat="46.61174" lon="0.22812">
        <ele>183.91</ele>
        <time>2018-09-02T09:20:41.999Z</time>
      </trkpt>
      <trkpt lat="46.61184" lon="0.22824">
        <ele>183.91</ele>
        <time>2018-09-02T09:20:43.999Z</time>
      </trkpt>
      <trkpt lat="46.61194" lon="0.22836">
        <ele>184.1</ele>
        <time>2018-09-02T09:20:45.999Z</time>
      </trkpt>
      <trkpt lat="46.61202" lon="0.22844">
        <ele>184.52</ele>
        <time>2018-09-02T09:20:47.999Z</time>
      </trkpt>
      <trkpt lat="46.61211" lon="0.22853">
        <ele>184.98</ele>
        <time>2018-09-02T09:20:49.999Z</time>
      </trkpt>
      <trkpt lat="46.61219" lon="0.22865">
        <ele>185.6</ele>
        <time>2018-09-02T09:20:51.999Z</time>
      </trkpt>
      <trkpt lat="46.61227" lon="0.22877">
        <ele>186.12</ele>
        <time>2018-09-02T09:20:53.999Z</time>
      </trkpt>
      <trkpt lat="46.61239" lon="0.22891">
        <ele>185.75</ele>
        <time>2018-09-02T09:20:55.999Z</time>
      </trkpt>
      <trkpt lat="46.61251" lon="0.22903">
        <ele>185.06</ele>
        <time>2018-09-02T09:20:57.999Z</time>
      </trkpt>
      <trkpt lat="46.61261" lon="0.22916">
        <ele>184.71</ele>
        <time>2018-09-02T09:20:59.999Z</time>
      </trkpt>
      <trkpt lat="46.61273" lon="0.22927">
        <ele>184.91</ele>
        <time>2018-09-02T09:21:01.999Z</time>
      </trkpt>
      <trkpt lat="46.61283" lon="0.2294">
        <ele>184.78</ele>
        <time>2018-09-02T09:21:03.999Z</time>
      </trkpt>
      <trkpt lat="46.61292" lon="0.22953">
        <ele>184.55</ele>
        <time>2018-09-02T09:21:05.999Z</time>
      </trkpt>
      <trkpt lat="46.61302" lon="0.22966">
        <ele>184.18</ele>
        <time>2018-09-02T09:21:07.999Z</time>
      </trkpt>
      <trkpt lat="46.61313" lon="0.22978">
        <ele>183.67</ele>
        <time>2018-09-02T09:21:09.999Z</time>
      </trkpt>
      <trkpt lat="46.61323" lon="0.2299">
        <ele>183.33</ele>
        <time>2018-09-02T09:21:11.999Z</time>
      </trkpt>
      <trkpt lat="46.61332" lon="0.23002">
        <ele>183.1</ele>
        <time>2018-09-02T09:21:13.999Z</time>
      </trkpt>
      <trkpt lat="46.6134" lon="0.23013">
        <ele>183.03</ele>
        <time>2018-09-02T09:21:15.999Z</time>
      </trkpt>
      <trkpt lat="46.61348" lon="0.23023">
        <ele>183.39</ele>
        <time>2018-09-02T09:21:17.999Z</time>
      </trkpt>
      <trkpt lat="46.61354" lon="0.23033">
        <ele>183.21</ele>
        <time>2018-09-02T09:21:19.999Z</time>
      </trkpt>
      <trkpt lat="46.61362" lon="0.23043">
        <ele>183.33</ele>
        <time>2018-09-02T09:21:21.999Z</time>
      </trkpt>
      <trkpt lat="46.61369" lon="0.23053">
        <ele>182.9</ele>
        <time>2018-09-02T09:21:23.999Z</time>
      </trkpt>
      <trkpt lat="46.61376" lon="0.23064">
        <ele>182.4</ele>
        <time>2018-09-02T09:21:25.999Z</time>
      </trkpt>
      <trkpt lat="46.61383" lon="0.23077">
        <ele>182.09</ele>
        <time>2018-09-02T09:21:27.999Z</time>
      </trkpt>
      <trkpt lat="46.6139" lon="0.23091">
        <ele>181.91</ele>
        <time>2018-09-02T09:21:29.999Z</time>
      </trkpt>
      <trkpt lat="46.61398" lon="0.23104">
        <ele>181.76</ele>
        <time>2018-09-02T09:21:31.999Z</time>
      </trkpt>
      <trkpt lat="46.61406" lon="0.23116">
        <ele>182.18</ele>
        <time>2018-09-02T09:21:33.999Z</time>
      </trkpt>
      <trkpt lat="46.61415" lon="0.23123">
        <ele>182.52</ele>
        <time>2018-09-02T09:21:35.999Z</time>
      </trkpt>
      <trkpt lat="46.61425" lon="0.23127">
        <ele>182.74</ele>
        <time>2018-09-02T09:21:37.999Z</time>
      </trkpt>
      <trkpt lat="46.61435" lon="0.23132">
        <ele>183.12</ele>
        <time>2018-09-02T09:21:39.999Z</time>
      </trkpt>
      <trkpt lat="46.61444" lon="0.23135">
        <ele>183.21</ele>
        <time>2018-09-02T09:21:41.999Z</time>
      </trkpt>
      <trkpt lat="46.61454" lon="0.23141">
        <ele>183.51</ele>
        <time>2018-09-02T09:21:43.999Z</time>
      </trkpt>
      <trkpt lat="46.61465" lon="0.23147">
        <ele>184.16</ele>
        <time>2018-09-02T09:21:45.999Z</time>
      </trkpt>
      <trkpt lat="46.61475" lon="0.23154">
        <ele>184.37</ele>
        <time>2018-09-02T09:21:47.999Z</time>
      </trkpt>
      <trkpt lat="46.61486" lon="0.23158">
        <ele>184.08</ele>
        <time>2018-09-02T09:21:49.999Z</time>
      </trkpt>
      <trkpt lat="46.61496" lon="0.23163">
        <ele>184.23</ele>
        <time>2018-09-02T09:21:51.999Z</time>
      </trkpt>
      <trkpt lat="46.61507" lon="0.23168">
        <ele>184.59</ele>
        <time>2018-09-02T09:21:53.999Z</time>
      </trkpt>
      <trkpt lat="46.61517" lon="0.23175">
        <ele>183.75</ele>
        <time>2018-09-02T09:21:55.999Z</time>
      </trkpt>
      <trkpt lat="46.61527" lon="0.23185">
        <ele>182.66</ele>
        <time>2018-09-02T09:21:57.999Z</time>
      </trkpt>
      <trkpt lat="46.61538" lon="0.23196">
        <ele>181.13</ele>
        <time>2018-09-02T09:21:59.999Z</time>
      </trkpt>
      <trkpt lat="46.6155" lon="0.23209">
        <ele>179.89</ele>
        <time>2018-09-02T09:22:01.999Z</time>
      </trkpt>
      <trkpt lat="46.61563" lon="0.2322">
        <ele>179.56</ele>
        <time>2018-09-02T09:22:03.999Z</time>
      </trkpt>
      <trkpt lat="46.61576" lon="0.23232">
        <ele>179.67</ele>
        <time>2018-09-02T09:22:05.999Z</time>
      </trkpt>
      <trkpt lat="46.6159" lon="0.23243">
        <ele>180.13</ele>
        <time>2018-09-02T09:22:07.999Z</time>
      </trkpt>
      <trkpt lat="46.61602" lon="0.23257">
        <ele>180.91</ele>
        <time>2018-09-02T09:22:09.999Z</time>
      </trkpt>
      <trkpt lat="46.61614" lon="0.2327">
        <ele>181.36</ele>
        <time>2018-09-02T09:22:11.999Z</time>
      </trkpt>
      <trkpt lat="46.61625" lon="0.23282">
        <ele>181.68</ele>
        <time>2018-09-02T09:22:13.999Z</time>
      </trkpt>
      <trkpt lat="46.61636" lon="0.23296">
        <ele>181.21</ele>
        <time>2018-09-02T09:22:15.999Z</time>
      </trkpt>
      <trkpt lat="46.61646" lon="0.23312">
        <ele>181.01</ele>
        <time>2018-09-02T09:22:17.999Z</time>
      </trkpt>
      <trkpt lat="46.61657" lon="0.23327">
        <ele>180.67</ele>
        <time>2018-09-02T09:22:19.999Z</time>
      </trkpt>
      <trkpt lat="46.61667" lon="0.23342">
        <ele>180.37</ele>
        <time>2018-09-02T09:22:21.999Z</time>
      </trkpt>
      <trkpt lat="46.61677" lon="0.23358">
        <ele>179.82</ele>
        <time>2018-09-02T09:22:23.999Z</time>
      </trkpt>
      <trkpt lat="46.61686" lon="0.23374">
        <ele>179.5</ele>
        <time>2018-09-02T09:22:25.999Z</time>
      </trkpt>
      <trkpt lat="46.61694" lon="0.2339">
        <ele>179.27</ele>
        <time>2018-09-02T09:22:27.999Z</time>
      </trkpt>
      <trkpt lat="46.61702" lon="0.23408">
        <ele>179.03</ele>
        <time>2018-09-02T09:22:29.999Z</time>
      </trkpt>
      <trkpt lat="46.6171" lon="0.23427">
        <ele>178.73</ele>
        <time>2018-09-02T09:22:31.999Z</time>
      </trkpt>
      <trkpt lat="46.61718" lon="0.23442">
        <ele>178.3</ele>
        <time>2018-09-02T09:22:33.999Z</time>
      </trkpt>
      <trkpt lat="46.61726" lon="0.23458">
        <ele>177.88</ele>
        <time>2018-09-02T09:22:35.999Z</time>
      </trkpt>
      <trkpt lat="46.61734" lon="0.23473">
        <ele>177.69</ele>
        <time>2018-09-02T09:22:37.999Z</time>
      </trkpt>
      <trkpt lat="46.6174" lon="0.23489">
        <ele>177.45</ele>
        <time>2018-09-02T09:22:39.999Z</time>
      </trkpt>
      <trkpt lat="46.61747" lon="0.23502">
        <ele>177.35</ele>
        <time>2018-09-02T09:22:41.999Z</time>
      </trkpt>
      <trkpt lat="46.61754" lon="0.23518">
        <ele>177.32</ele>
        <time>2018-09-02T09:22:43.999Z</time>
      </trkpt>
      <trkpt lat="46.61759" lon="0.23535">
        <ele>177.31</ele>
        <time>2018-09-02T09:22:45.999Z</time>
      </trkpt>
      <trkpt lat="46.61763" lon="0.23552">
        <ele>177.18</ele>
        <time>2018-09-02T09:22:47.999Z</time>
      </trkpt>
      <trkpt lat="46.61766" lon="0.23572">
        <ele>176.74</ele>
        <time>2018-09-02T09:22:49.999Z</time>
      </trkpt>
      <trkpt lat="46.61769" lon="0.23593">
        <ele>176.29</ele>
        <time>2018-09-02T09:22:51.999Z</time>
      </trkpt>
      <trkpt lat="46.61771" lon="0.23617">
        <ele>175.89</ele>
        <time>2018-09-02T09:22:53.999Z</time>
      </trkpt>
      <trkpt lat="46.61773" lon="0.2364">
        <ele>175.19</ele>
        <time>2018-09-02T09:22:55.999Z</time>
      </trkpt>
      <trkpt lat="46.61774" lon="0.23663">
        <ele>174.29</ele>
        <time>2018-09-02T09:22:57.999Z</time>
      </trkpt>
      <trkpt lat="46.61776" lon="0.23688">
        <ele>173.38</ele>
        <time>2018-09-02T09:22:59.999Z</time>
      </trkpt>
      <trkpt lat="46.61778" lon="0.23713">
        <ele>172.27</ele>
        <time>2018-09-02T09:23:01.999Z</time>
      </trkpt>
      <trkpt lat="46.61779" lon="0.23739">
        <ele>171.24</ele>
        <time>2018-09-02T09:23:03.999Z</time>
      </trkpt>
      <trkpt lat="46.61781" lon="0.23764">
        <ele>170.14</ele>
        <time>2018-09-02T09:23:05.999Z</time>
      </trkpt>
      <trkpt lat="46.61781" lon="0.23778">
        <ele>169.8</ele>
        <time>2018-09-02T09:23:06.999Z</time>
      </trkpt>
      <trkpt lat="46.61781" lon="0.23791">
        <ele>169.45</ele>
        <time>2018-09-02T09:23:07.999Z</time>
      </trkpt>
      <trkpt lat="46.61781" lon="0.23804">
        <ele>168.87</ele>
        <time>2018-09-02T09:23:08.999Z</time>
      </trkpt>
      <trkpt lat="46.61781" lon="0.23817">
        <ele>168.22</ele>
        <time>2018-09-02T09:23:09.999Z</time>
      </trkpt>
      <trkpt lat="46.61782" lon="0.23831">
        <ele>167.78</ele>
        <time>2018-09-02T09:23:10.999Z</time>
      </trkpt>
      <trkpt lat="46.61783" lon="0.23845">
        <ele>167.32</ele>
        <time>2018-09-02T09:23:11.999Z</time>
      </trkpt>
      <trkpt lat="46.61784" lon="0.23858">
        <ele>166.71</ele>
        <time>2018-09-02T09:23:12.999Z</time>
      </trkpt>
      <trkpt lat="46.61786" lon="0.23871">
        <ele>166.15</ele>
        <time>2018-09-02T09:23:13.999Z</time>
      </trkpt>
      <trkpt lat="46.61787" lon="0.23895">
        <ele>165.35</ele>
        <time>2018-09-02T09:23:15.999Z</time>
      </trkpt>
      <trkpt lat="46.61791" lon="0.23918">
        <ele>164.42</ele>
        <time>2018-09-02T09:23:17.999Z</time>
      </trkpt>
      <trkpt lat="46.61793" lon="0.23941">
        <ele>163.53</ele>
        <time>2018-09-02T09:23:19.999Z</time>
      </trkpt>
      <trkpt lat="46.61797" lon="0.23963">
        <ele>162.84</ele>
        <time>2018-09-02T09:23:21.999Z</time>
      </trkpt>
      <trkpt lat="46.61802" lon="0.23983">
        <ele>162.26</ele>
        <time>2018-09-02T09:23:23.999Z</time>
      </trkpt>
      <trkpt lat="46.61806" lon="0.24003">
        <ele>161.79</ele>
        <time>2018-09-02T09:23:25.999Z</time>
      </trkpt>
      <trkpt lat="46.61812" lon="0.2402">
        <ele>161.46</ele>
        <time>2018-09-02T09:23:27.999Z</time>
      </trkpt>
      <trkpt lat="46.61819" lon="0.24036">
        <ele>161.31</ele>
        <time>2018-09-02T09:23:29.999Z</time>
      </trkpt>
      <trkpt lat="46.61828" lon="0.24047">
        <ele>160.9</ele>
        <time>2018-09-02T09:23:31.999Z</time>
      </trkpt>
      <trkpt lat="46.61839" lon="0.24049">
        <ele>160.68</ele>
        <time>2018-09-02T09:23:33.999Z</time>
      </trkpt>
      <trkpt lat="46.61848" lon="0.24043">
        <ele>160.62</ele>
        <time>2018-09-02T09:23:35.999Z</time>
      </trkpt>
      <trkpt lat="46.61858" lon="0.24034">
        <ele>161.22</ele>
        <time>2018-09-02T09:23:37.999Z</time>
      </trkpt>
      <trkpt lat="46.61869" lon="0.24022">
        <ele>161.46</ele>
        <time>2018-09-02T09:23:39.999Z</time>
      </trkpt>
      <trkpt lat="46.61881" lon="0.24007">
        <ele>161.3</ele>
        <time>2018-09-02T09:23:41.999Z</time>
      </trkpt>
      <trkpt lat="46.61893" lon="0.23994">
        <ele>161.49</ele>
        <time>2018-09-02T09:23:43.999Z</time>
      </trkpt>
      <trkpt lat="46.61906" lon="0.23982">
        <ele>161.5</ele>
        <time>2018-09-02T09:23:45.999Z</time>
      </trkpt>
      <trkpt lat="46.61918" lon="0.2397">
        <ele>161.27</ele>
        <time>2018-09-02T09:23:47.999Z</time>
      </trkpt>
      <trkpt lat="46.61929" lon="0.23959">
        <ele>160.57</ele>
        <time>2018-09-02T09:23:49.999Z</time>
      </trkpt>
      <trkpt lat="46.61939" lon="0.23947">
        <ele>159.64</ele>
        <time>2018-09-02T09:23:51.999Z</time>
      </trkpt>
      <trkpt lat="46.6195" lon="0.23937">
        <ele>158.54</ele>
        <time>2018-09-02T09:23:53.999Z</time>
      </trkpt>
      <trkpt lat="46.61959" lon="0.23927">
        <ele>157.59</ele>
        <time>2018-09-02T09:23:55.999Z</time>
      </trkpt>
      <trkpt lat="46.61968" lon="0.23917">
        <ele>156.91</ele>
        <time>2018-09-02T09:23:57.999Z</time>
      </trkpt>
      <trkpt lat="46.61976" lon="0.23908">
        <ele>156.26</ele>
        <time>2018-09-02T09:23:59.999Z</time>
      </trkpt>
      <trkpt lat="46.61986" lon="0.23899">
        <ele>155.86</ele>
        <time>2018-09-02T09:24:01.999Z</time>
      </trkpt>
      <trkpt lat="46.61995" lon="0.23889">
        <ele>155.85</ele>
        <time>2018-09-02T09:24:03.999Z</time>
      </trkpt>
      <trkpt lat="46.62004" lon="0.23881">
        <ele>156.21</ele>
        <time>2018-09-02T09:24:05.999Z</time>
      </trkpt>
      <trkpt lat="46.62011" lon="0.23872">
        <ele>156.98</ele>
        <time>2018-09-02T09:24:07.999Z</time>
      </trkpt>
      <trkpt lat="46.62022" lon="0.23863">
        <ele>158.21</ele>
        <time>2018-09-02T09:24:10.999Z</time>
      </trkpt>
      <trkpt lat="46.62032" lon="0.23859">
        <ele>158.76</ele>
        <time>2018-09-02T09:24:12.999Z</time>
      </trkpt>
      <trkpt lat="46.62044" lon="0.23861">
        <ele>160.66</ele>
        <time>2018-09-02T09:24:15.999Z</time>
      </trkpt>
      <trkpt lat="46.62054" lon="0.23867">
        <ele>162.54</ele>
        <time>2018-09-02T09:24:17.999Z</time>
      </trkpt>
      <trkpt lat="46.62063" lon="0.23874">
        <ele>162.66</ele>
        <time>2018-09-02T09:24:19.999Z</time>
      </trkpt>
      <trkpt lat="46.62074" lon="0.23883">
        <ele>163.17</ele>
        <time>2018-09-02T09:24:22.999Z</time>
      </trkpt>
      <trkpt lat="46.62082" lon="0.2389">
        <ele>163.46</ele>
        <time>2018-09-02T09:24:24.999Z</time>
      </trkpt>
      <trkpt lat="46.62091" lon="0.23902">
        <ele>163.54</ele>
        <time>2018-09-02T09:24:27.999Z</time>
      </trkpt>
      <trkpt lat="46.62102" lon="0.23907">
        <ele>163.49</ele>
        <time>2018-09-02T09:24:31.999Z</time>
      </trkpt>
      <trkpt lat="46.6211" lon="0.23916">
        <ele>163.11</ele>
        <time>2018-09-02T09:24:34.999Z</time>
      </trkpt>
      <trkpt lat="46.62119" lon="0.23927">
        <ele>162.27</ele>
        <time>2018-09-02T09:24:39.999Z</time>
      </trkpt>
      <trkpt lat="46.62127" lon="0.2394">
        <ele>161.85</ele>
        <time>2018-09-02T09:24:42.999Z</time>
      </trkpt>
      <trkpt lat="46.62136" lon="0.23949">
        <ele>161.26</ele>
        <time>2018-09-02T09:24:46.999Z</time>
      </trkpt>
      <trkpt lat="46.62145" lon="0.2395">
        <ele>160.81</ele>
        <time>2018-09-02T09:24:49.999Z</time>
      </trkpt>
      <trkpt lat="46.62156" lon="0.2395">
        <ele>160.46</ele>
        <time>2018-09-02T09:24:52.999Z</time>
      </trkpt>
      <trkpt lat="46.62165" lon="0.23949">
        <ele>160.16</ele>
        <time>2018-09-02T09:24:56.999Z</time>
      </trkpt>
      <trkpt lat="46.62174" lon="0.23948">
        <ele>160.18</ele>
        <time>2018-09-02T09:24:59.999Z</time>
      </trkpt>
      <trkpt lat="46.62184" lon="0.23948">
        <ele>160.56</ele>
        <time>2018-09-02T09:25:03.999Z</time>
      </trkpt>
      <trkpt lat="46.62194" lon="0.23949">
        <ele>161.09</ele>
        <time>2018-09-02T09:25:07.999Z</time>
      </trkpt>
      <trkpt lat="46.62204" lon="0.23951">
        <ele>161.8</ele>
        <time>2018-09-02T09:25:11.999Z</time>
      </trkpt>
      <trkpt lat="46.62214" lon="0.23956">
        <ele>162.67</ele>
        <time>2018-09-02T09:25:16.999Z</time>
      </trkpt>
      <trkpt lat="46.62224" lon="0.2396">
        <ele>163.5</ele>
        <time>2018-09-02T09:25:21.999Z</time>
      </trkpt>
      <trkpt lat="46.62234" lon="0.23965">
        <ele>164.34</ele>
        <time>2018-09-02T09:25:26.999Z</time>
      </trkpt>
      <trkpt lat="46.62244" lon="0.23973">
        <ele>164.98</ele>
        <time>2018-09-02T09:25:30.999Z</time>
      </trkpt>
      <trkpt lat="46.62253" lon="0.23981">
        <ele>165.8</ele>
        <time>2018-09-02T09:25:35.999Z</time>
      </trkpt>
      <trkpt lat="46.62263" lon="0.23983">
        <ele>166.3</ele>
        <time>2018-09-02T09:25:40.999Z</time>
      </trkpt>
      <trkpt lat="46.62272" lon="0.23989">
        <ele>166.28</ele>
        <time>2018-09-02T09:25:44.999Z</time>
      </trkpt>
      <trkpt lat="46.6228" lon="0.23997">
        <ele>166.25</ele>
        <time>2018-09-02T09:25:49.999Z</time>
      </trkpt>
      <trkpt lat="46.62289" lon="0.24005">
        <ele>166.31</ele>
        <time>2018-09-02T09:25:54.999Z</time>
      </trkpt>
      <trkpt lat="46.62298" lon="0.24013">
        <ele>166.45</ele>
        <time>2018-09-02T09:26:00.999Z</time>
      </trkpt>
      <trkpt lat="46.62306" lon="0.24019">
        <ele>166.66</ele>
        <time>2018-09-02T09:26:04.999Z</time>
      </trkpt>
      <trkpt lat="46.62317" lon="0.24025">
        <ele>166.87</ele>
        <time>2018-09-02T09:26:09.999Z</time>
      </trkpt>
      <trkpt lat="46.62327" lon="0.24031">
        <ele>167.09</ele>
        <time>2018-09-02T09:26:15.999Z</time>
      </trkpt>
      <trkpt lat="46.62336" lon="0.24036">
        <ele>167.41</ele>
        <time>2018-09-02T09:26:21.999Z</time>
      </trkpt>
      <trkpt lat="46.62346" lon="0.2404">
        <ele>167.79</ele>
        <time>2018-09-02T09:26:26.999Z</time>
      </trkpt>
      <trkpt lat="46.62355" lon="0.24043">
        <ele>168.07</ele>
        <time>2018-09-02T09:26:29.999Z</time>
      </trkpt>
      <trkpt lat="46.62364" lon="0.24047">
        <ele>168.35</ele>
        <time>2018-09-02T09:26:32.999Z</time>
      </trkpt>
      <trkpt lat="46.62375" lon="0.24051">
        <ele>168.68</ele>
        <time>2018-09-02T09:26:36.999Z</time>
      </trkpt>
      <trkpt lat="46.62384" lon="0.24053">
        <ele>169.05</ele>
        <time>2018-09-02T09:26:40.999Z</time>
      </trkpt>
      <trkpt lat="46.62394" lon="0.24055">
        <ele>169.6</ele>
        <time>2018-09-02T09:26:44.999Z</time>
      </trkpt>
      <trkpt lat="46.62405" lon="0.24057">
        <ele>170.41</ele>
        <time>2018-09-02T09:26:49.999Z</time>
      </trkpt>
      <trkpt lat="46.62414" lon="0.24059">
        <ele>171.04</ele>
        <time>2018-09-02T09:26:53.999Z</time>
      </trkpt>
      <trkpt lat="46.62423" lon="0.2406">
        <ele>171.63</ele>
        <time>2018-09-02T09:26:57.999Z</time>
      </trkpt>
      <trkpt lat="46.62434" lon="0.24056">
        <ele>172.23</ele>
        <time>2018-09-02T09:27:01.999Z</time>
      </trkpt>
      <trkpt lat="46.62445" lon="0.2405">
        <ele>172.82</ele>
        <time>2018-09-02T09:27:05.999Z</time>
      </trkpt>
      <trkpt lat="46.62455" lon="0.24044">
        <ele>173.49</ele>
        <time>2018-09-02T09:27:09.999Z</time>
      </trkpt>
      <trkpt lat="46.62465" lon="0.24037">
        <ele>174.21</ele>
        <time>2018-09-02T09:27:13.999Z</time>
      </trkpt>
      <trkpt lat="46.62471" lon="0.24024">
        <ele>174.78</ele>
        <time>2018-09-02T09:27:17.999Z</time>
      </trkpt>
      <trkpt lat="46.62473" lon="0.2401">
        <ele>175.13</ele>
        <time>2018-09-02T09:27:20.999Z</time>
      </trkpt>
      <trkpt lat="46.62475" lon="0.23995">
        <ele>175.48</ele>
        <time>2018-09-02T09:27:23.999Z</time>
      </trkpt>
      <trkpt lat="46.62478" lon="0.2398">
        <ele>175.82</ele>
        <time>2018-09-02T09:27:26.999Z</time>
      </trkpt>
      <trkpt lat="46.62481" lon="0.23966">
        <ele>176.17</ele>
        <time>2018-09-02T09:27:29.999Z</time>
      </trkpt>
      <trkpt lat="46.62484" lon="0.23951">
        <ele>176.47</ele>
        <time>2018-09-02T09:27:32.999Z</time>
      </trkpt>
      <trkpt lat="46.62488" lon="0.23936">
        <ele>176.71</ele>
        <time>2018-09-02T09:27:35.999Z</time>
      </trkpt>
      <trkpt lat="46.62491" lon="0.23921">
        <ele>176.9</ele>
        <time>2018-09-02T09:27:38.999Z</time>
      </trkpt>
      <trkpt lat="46.62495" lon="0.23905">
        <ele>177.79</ele>
        <time>2018-09-02T09:27:41.999Z</time>
      </trkpt>
      <trkpt lat="46.62499" lon="0.23888">
        <ele>178.66</ele>
        <time>2018-09-02T09:27:44.999Z</time>
      </trkpt>
      <trkpt lat="46.62503" lon="0.2387">
        <ele>179.14</ele>
        <time>2018-09-02T09:27:47.999Z</time>
      </trkpt>
      <trkpt lat="46.62507" lon="0.23854">
        <ele>180.19</ele>
        <time>2018-09-02T09:27:50.999Z</time>
      </trkpt>
      <trkpt lat="46.62511" lon="0.23837">
        <ele>180.4</ele>
        <time>2018-09-02T09:27:53.999Z</time>
      </trkpt>
      <trkpt lat="46.62514" lon="0.23821">
        <ele>180.04</ele>
        <time>2018-09-02T09:27:56.999Z</time>
      </trkpt>
      <trkpt lat="46.62518" lon="0.23804">
        <ele>180.25</ele>
        <time>2018-09-02T09:27:59.999Z</time>
      </trkpt>
      <trkpt lat="46.62521" lon="0.23788">
        <ele>180.74</ele>
        <time>2018-09-02T09:28:02.999Z</time>
      </trkpt>
      <trkpt lat="46.62525" lon="0.23771">
        <ele>180.91</ele>
        <time>2018-09-02T09:28:05.999Z</time>
      </trkpt>
      <trkpt lat="46.6253" lon="0.23755">
        <ele>180.16</ele>
        <time>2018-09-02T09:28:08.999Z</time>
      </trkpt>
      <trkpt lat="46.62534" lon="0.23736">
        <ele>179.26</ele>
        <time>2018-09-02T09:28:11.999Z</time>
      </trkpt>
      <trkpt lat="46.62538" lon="0.23719">
        <ele>179.09</ele>
        <time>2018-09-02T09:28:14.999Z</time>
      </trkpt>
      <trkpt lat="46.62541" lon="0.23706">
        <ele>179.21</ele>
        <time>2018-09-02T09:28:16.999Z</time>
      </trkpt>
      <trkpt lat="46.62544" lon="0.23693">
        <ele>179.42</ele>
        <time>2018-09-02T09:28:18.999Z</time>
      </trkpt>
      <trkpt lat="46.62547" lon="0.2368">
        <ele>179.63</ele>
        <time>2018-09-02T09:28:20.999Z</time>
      </trkpt>
      <trkpt lat="46.62552" lon="0.23662">
        <ele>180.16</ele>
        <time>2018-09-02T09:28:23.999Z</time>
      </trkpt>
      <trkpt lat="46.62556" lon="0.23644">
        <ele>180.86</ele>
        <time>2018-09-02T09:28:26.999Z</time>
      </trkpt>
      <trkpt lat="46.62559" lon="0.23632">
        <ele>181.04</ele>
        <time>2018-09-02T09:28:28.999Z</time>
      </trkpt>
      <trkpt lat="46.62563" lon="0.23615">
        <ele>181.81</ele>
        <time>2018-09-02T09:28:31.999Z</time>
      </trkpt>
      <trkpt lat="46.62567" lon="0.23597">
        <ele>182.3</ele>
        <time>2018-09-02T09:28:34.999Z</time>
      </trkpt>
      <trkpt lat="46.6257" lon="0.23582">
        <ele>182.73</ele>
        <time>2018-09-02T09:28:37.999Z</time>
      </trkpt>
      <trkpt lat="46.62574" lon="0.23566">
        <ele>183.14</ele>
        <time>2018-09-02T09:28:40.999Z</time>
      </trkpt>
      <trkpt lat="46.62576" lon="0.23551">
        <ele>183.25</ele>
        <time>2018-09-02T09:28:43.999Z</time>
      </trkpt>
      <trkpt lat="46.6258" lon="0.23536">
        <ele>183.4</ele>
        <time>2018-09-02T09:28:46.999Z</time>
      </trkpt>
      <trkpt lat="46.62584" lon="0.23521">
        <ele>183.63</ele>
        <time>2018-09-02T09:28:49.999Z</time>
      </trkpt>
      <trkpt lat="46.62587" lon="0.23505">
        <ele>184.78</ele>
        <time>2018-09-02T09:28:52.999Z</time>
      </trkpt>
      <trkpt lat="46.62591" lon="0.23489">
        <ele>186.08</ele>
        <time>2018-09-02T09:28:55.999Z</time>
      </trkpt>
      <trkpt lat="46.62595" lon="0.23472">
        <ele>187.1</ele>
        <time>2018-09-02T09:28:58.999Z</time>
      </trkpt>
      <trkpt lat="46.62598" lon="0.23455">
        <ele>187.83</ele>
        <time>2018-09-02T09:29:01.999Z</time>
      </trkpt>
      <trkpt lat="46.62602" lon="0.23438">
        <ele>188.02</ele>
        <time>2018-09-02T09:29:04.999Z</time>
      </trkpt>
      <trkpt lat="46.62606" lon="0.23421">
        <ele>188.41</ele>
        <time>2018-09-02T09:29:07.999Z</time>
      </trkpt>
      <trkpt lat="46.6261" lon="0.23405">
        <ele>188.59</ele>
        <time>2018-09-02T09:29:10.999Z</time>
      </trkpt>
      <trkpt lat="46.62613" lon="0.23388">
        <ele>188.63</ele>
        <time>2018-09-02T09:29:13.999Z</time>
      </trkpt>
      <trkpt lat="46.62616" lon="0.23372">
        <ele>188.62</ele>
        <time>2018-09-02T09:29:16.999Z</time>
      </trkpt>
      <trkpt lat="46.62619" lon="0.23358">
        <ele>188.58</ele>
        <time>2018-09-02T09:29:19.999Z</time>
      </trkpt>
      <trkpt lat="46.62623" lon="0.23345">
        <ele>188.57</ele>
        <time>2018-09-02T09:29:22.999Z</time>
      </trkpt>
      <trkpt lat="46.62626" lon="0.2333">
        <ele>188.56</ele>
        <time>2018-09-02T09:29:26.999Z</time>
      </trkpt>
      <trkpt lat="46.62629" lon="0.23317">
        <ele>188.56</ele>
        <time>2018-09-02T09:29:29.999Z</time>
      </trkpt>
      <trkpt lat="46.62631" lon="0.23303">
        <ele>188.58</ele>
        <time>2018-09-02T09:29:32.999Z</time>
      </trkpt>
      <trkpt lat="46.62634" lon="0.23289">
        <ele>188.54</ele>
        <time>2018-09-02T09:29:35.999Z</time>
      </trkpt>
      <trkpt lat="46.62636" lon="0.23271">
        <ele>188.48</ele>
        <time>2018-09-02T09:29:40.999Z</time>
      </trkpt>
      <trkpt lat="46.62638" lon="0.23257">
        <ele>188.44</ele>
        <time>2018-09-02T09:29:43.999Z</time>
      </trkpt>
      <trkpt lat="46.62639" lon="0.23243">
        <ele>188.4</ele>
        <time>2018-09-02T09:29:47.999Z</time>
      </trkpt>
      <trkpt lat="46.62642" lon="0.23227">
        <ele>188.39</ele>
        <time>2018-09-02T09:29:50.999Z</time>
      </trkpt>
      <trkpt lat="46.62644" lon="0.2321">
        <ele>188.49</ele>
        <time>2018-09-02T09:29:54.999Z</time>
      </trkpt>
      <trkpt lat="46.62646" lon="0.23193">
        <ele>188.61</ele>
        <time>2018-09-02T09:29:58.999Z</time>
      </trkpt>
      <trkpt lat="46.62648" lon="0.23177">
        <ele>188.74</ele>
        <time>2018-09-02T09:30:02.999Z</time>
      </trkpt>
      <trkpt lat="46.6265" lon="0.23162">
        <ele>188.83</ele>
        <time>2018-09-02T09:30:05.999Z</time>
      </trkpt>
      <trkpt lat="46.62652" lon="0.23148">
        <ele>188.89</ele>
        <time>2018-09-02T09:30:08.999Z</time>
      </trkpt>
      <trkpt lat="46.62655" lon="0.23135">
        <ele>189.01</ele>
        <time>2018-09-02T09:30:10.999Z</time>
      </trkpt>
      <trkpt lat="46.62657" lon="0.2312">
        <ele>189.19</ele>
        <time>2018-09-02T09:30:14.999Z</time>
      </trkpt>
      <trkpt lat="46.62659" lon="0.23104">
        <ele>189.31</ele>
        <time>2018-09-02T09:30:17.999Z</time>
      </trkpt>
      <trkpt lat="46.62661" lon="0.23091">
        <ele>189.44</ele>
        <time>2018-09-02T09:30:20.999Z</time>
      </trkpt>
      <trkpt lat="46.62664" lon="0.23078">
        <ele>189.62</ele>
        <time>2018-09-02T09:30:23.999Z</time>
      </trkpt>
      <trkpt lat="46.62666" lon="0.23065">
        <ele>189.81</ele>
        <time>2018-09-02T09:30:26.999Z</time>
      </trkpt>
      <trkpt lat="46.62669" lon="0.2305">
        <ele>190.04</ele>
        <time>2018-09-02T09:30:29.999Z</time>
      </trkpt>
      <trkpt lat="46.62671" lon="0.23034">
        <ele>190.32</ele>
        <time>2018-09-02T09:30:33.999Z</time>
      </trkpt>
      <trkpt lat="46.62674" lon="0.23017">
        <ele>190.59</ele>
        <time>2018-09-02T09:30:36.999Z</time>
      </trkpt>
      <trkpt lat="46.62677" lon="0.23">
        <ele>190.83</ele>
        <time>2018-09-02T09:30:39.999Z</time>
      </trkpt>
      <trkpt lat="46.62681" lon="0.22987">
        <ele>191.08</ele>
        <time>2018-09-02T09:30:42.999Z</time>
      </trkpt>
      <trkpt lat="46.62686" lon="0.22974">
        <ele>191.83</ele>
        <time>2018-09-02T09:30:46.999Z</time>
      </trkpt>
      <trkpt lat="46.62691" lon="0.22962">
        <ele>192.66</ele>
        <time>2018-09-02T09:30:49.999Z</time>
      </trkpt>
      <trkpt lat="46.62696" lon="0.22949">
        <ele>193.52</ele>
        <time>2018-09-02T09:30:52.999Z</time>
      </trkpt>
      <trkpt lat="46.627" lon="0.22934">
        <ele>193.27</ele>
        <time>2018-09-02T09:30:55.999Z</time>
      </trkpt>
      <trkpt lat="46.62703" lon="0.22919">
        <ele>193.28</ele>
        <time>2018-09-02T09:30:58.999Z</time>
      </trkpt>
      <trkpt lat="46.62708" lon="0.22901">
        <ele>193.49</ele>
        <time>2018-09-02T09:31:01.999Z</time>
      </trkpt>
      <trkpt lat="46.62712" lon="0.22883">
        <ele>194.25</ele>
        <time>2018-09-02T09:31:04.999Z</time>
      </trkpt>
      <trkpt lat="46.62716" lon="0.22866">
        <ele>195.62</ele>
        <time>2018-09-02T09:31:07.999Z</time>
      </trkpt>
      <trkpt lat="46.6272" lon="0.22853">
        <ele>196.22</ele>
        <time>2018-09-02T09:31:09.999Z</time>
      </trkpt>
      <trkpt lat="46.62726" lon="0.22836">
        <ele>196.62</ele>
        <time>2018-09-02T09:31:12.999Z</time>
      </trkpt>
      <trkpt lat="46.6273" lon="0.22824">
        <ele>196.41</ele>
        <time>2018-09-02T09:31:14.999Z</time>
      </trkpt>
      <trkpt lat="46.62735" lon="0.2281">
        <ele>196.12</ele>
        <time>2018-09-02T09:31:16.999Z</time>
      </trkpt>
      <trkpt lat="46.6274" lon="0.22798">
        <ele>195.34</ele>
        <time>2018-09-02T09:31:18.999Z</time>
      </trkpt>
      <trkpt lat="46.62745" lon="0.22785">
        <ele>194.63</ele>
        <time>2018-09-02T09:31:20.999Z</time>
      </trkpt>
      <trkpt lat="46.62751" lon="0.22771">
        <ele>193.75</ele>
        <time>2018-09-02T09:31:22.999Z</time>
      </trkpt>
      <trkpt lat="46.62757" lon="0.22757">
        <ele>192.83</ele>
        <time>2018-09-02T09:31:24.999Z</time>
      </trkpt>
      <trkpt lat="46.62763" lon="0.22743">
        <ele>191.96</ele>
        <time>2018-09-02T09:31:26.999Z</time>
      </trkpt>
      <trkpt lat="46.62769" lon="0.22728">
        <ele>191.51</ele>
        <time>2018-09-02T09:31:28.999Z</time>
      </trkpt>
      <trkpt lat="46.62777" lon="0.22713">
        <ele>190.43</ele>
        <time>2018-09-02T09:31:30.999Z</time>
      </trkpt>
      <trkpt lat="46.62783" lon="0.22698">
        <ele>189.49</ele>
        <time>2018-09-02T09:31:32.999Z</time>
      </trkpt>
      <trkpt lat="46.6279" lon="0.22681">
        <ele>188.14</ele>
        <time>2018-09-02T09:31:34.999Z</time>
      </trkpt>
      <trkpt lat="46.62795" lon="0.22662">
        <ele>186.91</ele>
        <time>2018-09-02T09:31:36.999Z</time>
      </trkpt>
      <trkpt lat="46.62801" lon="0.22642">
        <ele>185.9</ele>
        <time>2018-09-02T09:31:38.999Z</time>
      </trkpt>
      <trkpt lat="46.62807" lon="0.22621">
        <ele>184.92</ele>
        <time>2018-09-02T09:31:40.999Z</time>
      </trkpt>
      <trkpt lat="46.62813" lon="0.226">
        <ele>184.3</ele>
        <time>2018-09-02T09:31:42.999Z</time>
      </trkpt>
      <trkpt lat="46.62819" lon="0.2258">
        <ele>183.86</ele>
        <time>2018-09-02T09:31:44.999Z</time>
      </trkpt>
      <trkpt lat="46.62825" lon="0.22558">
        <ele>183.45</ele>
        <time>2018-09-02T09:31:46.999Z</time>
      </trkpt>
      <trkpt lat="46.6283" lon="0.22537">
        <ele>183.12</ele>
        <time>2018-09-02T09:31:48.999Z</time>
      </trkpt>
      <trkpt lat="46.62836" lon="0.22516">
        <ele>182.73</ele>
        <time>2018-09-02T09:31:50.999Z</time>
      </trkpt>
      <trkpt lat="46.62841" lon="0.22496">
        <ele>182.17</ele>
        <time>2018-09-02T09:31:52.999Z</time>
      </trkpt>
      <trkpt lat="46.62846" lon="0.22477">
        <ele>181.75</ele>
        <time>2018-09-02T09:31:54.999Z</time>
      </trkpt>
      <trkpt lat="46.62851" lon="0.22459">
        <ele>181.26</ele>
        <time>2018-09-02T09:31:56.999Z</time>
      </trkpt>
      <trkpt lat="46.62856" lon="0.22441">
        <ele>180.97</ele>
        <time>2018-09-02T09:31:58.999Z</time>
      </trkpt>
      <trkpt lat="46.62861" lon="0.22424">
        <ele>180.46</ele>
        <time>2018-09-02T09:32:00.999Z</time>
      </trkpt>
      <trkpt lat="46.62867" lon="0.22409">
        <ele>179.85</ele>
        <time>2018-09-02T09:32:02.999Z</time>
      </trkpt>
      <trkpt lat="46.62872" lon="0.22395">
        <ele>179.25</ele>
        <time>2018-09-02T09:32:04.999Z</time>
      </trkpt>
      <trkpt lat="46.62877" lon="0.22381">
        <ele>178.7</ele>
        <time>2018-09-02T09:32:06.999Z</time>
      </trkpt>
      <trkpt lat="46.62882" lon="0.22367">
        <ele>178.27</ele>
        <time>2018-09-02T09:32:08.999Z</time>
      </trkpt>
      <trkpt lat="46.62887" lon="0.22354">
        <ele>178.45</ele>
        <time>2018-09-02T09:32:10.999Z</time>
      </trkpt>
      <trkpt lat="46.62891" lon="0.22341">
        <ele>178.35</ele>
        <time>2018-09-02T09:32:12.999Z</time>
      </trkpt>
      <trkpt lat="46.62896" lon="0.22327">
        <ele>178.59</ele>
        <time>2018-09-02T09:32:14.999Z</time>
      </trkpt>
      <trkpt lat="46.629" lon="0.22314">
        <ele>178.63</ele>
        <time>2018-09-02T09:32:16.999Z</time>
      </trkpt>
      <trkpt lat="46.62904" lon="0.223">
        <ele>178.47</ele>
        <time>2018-09-02T09:32:18.999Z</time>
      </trkpt>
      <trkpt lat="46.62909" lon="0.22286">
        <ele>178.45</ele>
        <time>2018-09-02T09:32:20.999Z</time>
      </trkpt>
      <trkpt lat="46.62913" lon="0.22273">
        <ele>178.46</ele>
        <time>2018-09-02T09:32:22.999Z</time>
      </trkpt>
      <trkpt lat="46.62918" lon="0.2226">
        <ele>178.48</ele>
        <time>2018-09-02T09:32:24.999Z</time>
      </trkpt>
      <trkpt lat="46.62922" lon="0.22246">
        <ele>178.49</ele>
        <time>2018-09-02T09:32:26.999Z</time>
      </trkpt>
      <trkpt lat="46.62927" lon="0.22233">
        <ele>178.34</ele>
        <time>2018-09-02T09:32:28.999Z</time>
      </trkpt>
      <trkpt lat="46.6293" lon="0.2222">
        <ele>178.25</ele>
        <time>2018-09-02T09:32:30.999Z</time>
      </trkpt>
      <trkpt lat="46.62935" lon="0.22206">
        <ele>178.48</ele>
        <time>2018-09-02T09:32:32.999Z</time>
      </trkpt>
      <trkpt lat="46.62943" lon="0.22194">
        <ele>178.59</ele>
        <time>2018-09-02T09:32:34.999Z</time>
      </trkpt>
      <trkpt lat="46.62953" lon="0.22184">
        <ele>178.39</ele>
        <time>2018-09-02T09:32:36.999Z</time>
      </trkpt>
      <trkpt lat="46.6296" lon="0.22174">
        <ele>178.12</ele>
        <time>2018-09-02T09:32:38.999Z</time>
      </trkpt>
      <trkpt lat="46.62965" lon="0.22162">
        <ele>177.96</ele>
        <time>2018-09-02T09:32:47.999Z</time>
      </trkpt>
      <trkpt lat="46.62972" lon="0.22147">
        <ele>177.81</ele>
        <time>2018-09-02T09:32:50.999Z</time>
      </trkpt>
      <trkpt lat="46.62978" lon="0.22133">
        <ele>177.45</ele>
        <time>2018-09-02T09:32:52.999Z</time>
      </trkpt>
      <trkpt lat="46.62982" lon="0.22115">
        <ele>176.93</ele>
        <time>2018-09-02T09:32:54.999Z</time>
      </trkpt>
      <trkpt lat="46.62986" lon="0.22094">
        <ele>176.55</ele>
        <time>2018-09-02T09:32:56.999Z</time>
      </trkpt>
      <trkpt lat="46.62988" lon="0.2207">
        <ele>175.98</ele>
        <time>2018-09-02T09:32:58.999Z</time>
      </trkpt>
      <trkpt lat="46.62988" lon="0.22056">
        <ele>175.72</ele>
        <time>2018-09-02T09:32:59.999Z</time>
      </trkpt>
      <trkpt lat="46.62986" lon="0.22042">
        <ele>175.43</ele>
        <time>2018-09-02T09:33:00.999Z</time>
      </trkpt>
      <trkpt lat="46.62985" lon="0.22028">
        <ele>175.18</ele>
        <time>2018-09-02T09:33:01.999Z</time>
      </trkpt>
      <trkpt lat="46.62981" lon="0.22014">
        <ele>174.87</ele>
        <time>2018-09-02T09:33:02.999Z</time>
      </trkpt>
      <trkpt lat="46.62978" lon="0.22001">
        <ele>174.57</ele>
        <time>2018-09-02T09:33:03.999Z</time>
      </trkpt>
      <trkpt lat="46.62975" lon="0.21987">
        <ele>174.23</ele>
        <time>2018-09-02T09:33:04.999Z</time>
      </trkpt>
      <trkpt lat="46.6297" lon="0.21974">
        <ele>173.85</ele>
        <time>2018-09-02T09:33:05.999Z</time>
      </trkpt>
      <trkpt lat="46.62965" lon="0.21962">
        <ele>173.41</ele>
        <time>2018-09-02T09:33:06.999Z</time>
      </trkpt>
      <trkpt lat="46.62959" lon="0.2195">
        <ele>172.81</ele>
        <time>2018-09-02T09:33:07.999Z</time>
      </trkpt>
      <trkpt lat="46.6295" lon="0.21928">
        <ele>171.86</ele>
        <time>2018-09-02T09:33:09.999Z</time>
      </trkpt>
      <trkpt lat="46.62944" lon="0.21917">
        <ele>171.4</ele>
        <time>2018-09-02T09:33:10.999Z</time>
      </trkpt>
      <trkpt lat="46.62933" lon="0.21904">
        <ele>171.02</ele>
        <time>2018-09-02T09:33:12.999Z</time>
      </trkpt>
      <trkpt lat="46.6293" lon="0.21885">
        <ele>170.28</ele>
        <time>2018-09-02T09:33:15.999Z</time>
      </trkpt>
      <trkpt lat="46.62934" lon="0.21866">
        <ele>169.23</ele>
        <time>2018-09-02T09:33:17.999Z</time>
      </trkpt>
      <trkpt lat="46.62938" lon="0.21842">
        <ele>168.14</ele>
        <time>2018-09-02T09:33:19.999Z</time>
      </trkpt>
      <trkpt lat="46.62942" lon="0.21817">
        <ele>167.05</ele>
        <time>2018-09-02T09:33:21.999Z</time>
      </trkpt>
      <trkpt lat="46.62944" lon="0.21805">
        <ele>166.5</ele>
        <time>2018-09-02T09:33:22.999Z</time>
      </trkpt>
      <trkpt lat="46.62947" lon="0.21792">
        <ele>165.94</ele>
        <time>2018-09-02T09:33:23.999Z</time>
      </trkpt>
      <trkpt lat="46.62952" lon="0.21767">
        <ele>164.88</ele>
        <time>2018-09-02T09:33:25.999Z</time>
      </trkpt>
      <trkpt lat="46.62957" lon="0.21745">
        <ele>164</ele>
        <time>2018-09-02T09:33:27.999Z</time>
      </trkpt>
      <trkpt lat="46.6296" lon="0.21723">
        <ele>163.12</ele>
        <time>2018-09-02T09:33:29.999Z</time>
      </trkpt>
      <trkpt lat="46.62964" lon="0.21703">
        <ele>162.38</ele>
        <time>2018-09-02T09:33:31.999Z</time>
      </trkpt>
      <trkpt lat="46.62967" lon="0.21686">
        <ele>161.95</ele>
        <time>2018-09-02T09:33:33.999Z</time>
      </trkpt>
      <trkpt lat="46.62971" lon="0.21672">
        <ele>161.57</ele>
        <time>2018-09-02T09:33:35.999Z</time>
      </trkpt>
      <trkpt lat="46.62974" lon="0.21657">
        <ele>161.15</ele>
        <time>2018-09-02T09:33:37.999Z</time>
      </trkpt>
      <trkpt lat="46.62976" lon="0.21642">
        <ele>160.88</ele>
        <time>2018-09-02T09:33:39.999Z</time>
      </trkpt>
      <trkpt lat="46.62978" lon="0.21627">
        <ele>160.71</ele>
        <time>2018-09-02T09:33:41.999Z</time>
      </trkpt>
      <trkpt lat="46.6298" lon="0.21611">
        <ele>160.68</ele>
        <time>2018-09-02T09:33:43.999Z</time>
      </trkpt>
      <trkpt lat="46.62983" lon="0.21596">
        <ele>160.47</ele>
        <time>2018-09-02T09:33:45.999Z</time>
      </trkpt>
      <trkpt lat="46.62986" lon="0.21578">
        <ele>160.07</ele>
        <time>2018-09-02T09:33:47.999Z</time>
      </trkpt>
      <trkpt lat="46.62988" lon="0.21559">
        <ele>159.52</ele>
        <time>2018-09-02T09:33:49.999Z</time>
      </trkpt>
      <trkpt lat="46.62989" lon="0.21541">
        <ele>159.13</ele>
        <time>2018-09-02T09:33:51.999Z</time>
      </trkpt>
      <trkpt lat="46.6299" lon="0.21523">
        <ele>158.96</ele>
        <time>2018-09-02T09:33:53.999Z</time>
      </trkpt>
      <trkpt lat="46.62991" lon="0.21506">
        <ele>158.94</ele>
        <time>2018-09-02T09:33:55.999Z</time>
      </trkpt>
      <trkpt lat="46.62992" lon="0.2149">
        <ele>158.69</ele>
        <time>2018-09-02T09:33:57.999Z</time>
      </trkpt>
      <trkpt lat="46.62994" lon="0.21475">
        <ele>158.41</ele>
        <time>2018-09-02T09:33:59.999Z</time>
      </trkpt>
      <trkpt lat="46.62994" lon="0.21461">
        <ele>157.98</ele>
        <time>2018-09-02T09:34:01.999Z</time>
      </trkpt>
      <trkpt lat="46.62996" lon="0.21448">
        <ele>157.75</ele>
        <time>2018-09-02T09:34:03.999Z</time>
      </trkpt>
      <trkpt lat="46.62997" lon="0.21432">
        <ele>157.69</ele>
        <time>2018-09-02T09:34:06.999Z</time>
      </trkpt>
      <trkpt lat="46.62999" lon="0.21417">
        <ele>157.69</ele>
        <time>2018-09-02T09:34:09.999Z</time>
      </trkpt>
      <trkpt lat="46.63" lon="0.21402">
        <ele>157.69</ele>
        <time>2018-09-02T09:34:13.999Z</time>
      </trkpt>
      <trkpt lat="46.63001" lon="0.21385">
        <ele>157.71</ele>
        <time>2018-09-02T09:34:17.999Z</time>
      </trkpt>
      <trkpt lat="46.63006" lon="0.21373">
        <ele>157.86</ele>
        <time>2018-09-02T09:34:21.999Z</time>
      </trkpt>
      <trkpt lat="46.63015" lon="0.21372">
        <ele>158.14</ele>
        <time>2018-09-02T09:34:25.999Z</time>
      </trkpt>
      <trkpt lat="46.63027" lon="0.21375">
        <ele>158.77</ele>
        <time>2018-09-02T09:34:30.999Z</time>
      </trkpt>
      <trkpt lat="46.63038" lon="0.21379">
        <ele>159.13</ele>
        <time>2018-09-02T09:34:33.999Z</time>
      </trkpt>
      <trkpt lat="46.63052" lon="0.21384">
        <ele>159.79</ele>
        <time>2018-09-02T09:34:36.999Z</time>
      </trkpt>
      <trkpt lat="46.63063" lon="0.21389">
        <ele>159.34</ele>
        <time>2018-09-02T09:34:39.999Z</time>
      </trkpt>
      <trkpt lat="46.63073" lon="0.21394">
        <ele>159.34</ele>
        <time>2018-09-02T09:34:42.999Z</time>
      </trkpt>
      <trkpt lat="46.63085" lon="0.21398">
        <ele>159.24</ele>
        <time>2018-09-02T09:34:45.999Z</time>
      </trkpt>
      <trkpt lat="46.63097" lon="0.21403">
        <ele>158.98</ele>
        <time>2018-09-02T09:34:48.999Z</time>
      </trkpt>
      <trkpt lat="46.63109" lon="0.21407">
        <ele>157.65</ele>
        <time>2018-09-02T09:34:51.999Z</time>
      </trkpt>
      <trkpt lat="46.63117" lon="0.21412">
        <ele>156.57</ele>
        <time>2018-09-02T09:34:53.999Z</time>
      </trkpt>
      <trkpt lat="46.63127" lon="0.21416">
        <ele>155.58</ele>
        <time>2018-09-02T09:34:55.999Z</time>
      </trkpt>
      <trkpt lat="46.63135" lon="0.2142">
        <ele>155.07</ele>
        <time>2018-09-02T09:34:57.999Z</time>
      </trkpt>
      <trkpt lat="46.63151" lon="0.21428">
        <ele>154.4</ele>
        <time>2018-09-02T09:35:01.999Z</time>
      </trkpt>
      <trkpt lat="46.63161" lon="0.21431">
        <ele>154.47</ele>
        <time>2018-09-02T09:35:03.999Z</time>
      </trkpt>
      <trkpt lat="46.6317" lon="0.21434">
        <ele>154.6</ele>
        <time>2018-09-02T09:35:05.999Z</time>
      </trkpt>
      <trkpt lat="46.63182" lon="0.2144">
        <ele>155.25</ele>
        <time>2018-09-02T09:35:08.999Z</time>
      </trkpt>
      <trkpt lat="46.63194" lon="0.21445">
        <ele>155.47</ele>
        <time>2018-09-02T09:35:11.999Z</time>
      </trkpt>
      <trkpt lat="46.63202" lon="0.21451">
        <ele>155.55</ele>
        <time>2018-09-02T09:35:13.999Z</time>
      </trkpt>
      <trkpt lat="46.63216" lon="0.21457">
        <ele>155.69</ele>
        <time>2018-09-02T09:35:17.999Z</time>
      </trkpt>
      <trkpt lat="46.6323" lon="0.21465">
        <ele>155.78</ele>
        <time>2018-09-02T09:35:21.999Z</time>
      </trkpt>
      <trkpt lat="46.63241" lon="0.21471">
        <ele>155.86</ele>
        <time>2018-09-02T09:35:25.999Z</time>
      </trkpt>
      <trkpt lat="46.63251" lon="0.21475">
        <ele>156.04</ele>
        <time>2018-09-02T09:35:28.999Z</time>
      </trkpt>
      <trkpt lat="46.63262" lon="0.2148">
        <ele>156.83</ele>
        <time>2018-09-02T09:35:31.999Z</time>
      </trkpt>
      <trkpt lat="46.63273" lon="0.21486">
        <ele>157.05</ele>
        <time>2018-09-02T09:35:34.999Z</time>
      </trkpt>
      <trkpt lat="46.63282" lon="0.21489">
        <ele>157.21</ele>
        <time>2018-09-02T09:35:37.999Z</time>
      </trkpt>
      <trkpt lat="46.63291" lon="0.21492">
        <ele>157.41</ele>
        <time>2018-09-02T09:35:40.999Z</time>
      </trkpt>
      <trkpt lat="46.63302" lon="0.21497">
        <ele>157.57</ele>
        <time>2018-09-02T09:35:43.999Z</time>
      </trkpt>
      <trkpt lat="46.63313" lon="0.21502">
        <ele>157.81</ele>
        <time>2018-09-02T09:35:48.999Z</time>
      </trkpt>
      <trkpt lat="46.63322" lon="0.21507">
        <ele>158.08</ele>
        <time>2018-09-02T09:35:52.999Z</time>
      </trkpt>
      <trkpt lat="46.63331" lon="0.21511">
        <ele>158.47</ele>
        <time>2018-09-02T09:35:56.999Z</time>
      </trkpt>
      <trkpt lat="46.63341" lon="0.21517">
        <ele>158.96</ele>
        <time>2018-09-02T09:36:00.999Z</time>
      </trkpt>
      <trkpt lat="46.63351" lon="0.21523">
        <ele>159.4</ele>
        <time>2018-09-02T09:36:04.999Z</time>
      </trkpt>
      <trkpt lat="46.6336" lon="0.21527">
        <ele>159.81</ele>
        <time>2018-09-02T09:36:08.999Z</time>
      </trkpt>
      <trkpt lat="46.6337" lon="0.21532">
        <ele>160.41</ele>
        <time>2018-09-02T09:36:14.999Z</time>
      </trkpt>
      <trkpt lat="46.63378" lon="0.21536">
        <ele>160.64</ele>
        <time>2018-09-02T09:36:18.999Z</time>
      </trkpt>
      <trkpt lat="46.63389" lon="0.21541">
        <ele>160.76</ele>
        <time>2018-09-02T09:36:21.999Z</time>
      </trkpt>
      <trkpt lat="46.634" lon="0.21547">
        <ele>160.97</ele>
        <time>2018-09-02T09:36:25.999Z</time>
      </trkpt>
      <trkpt lat="46.63411" lon="0.21552">
        <ele>161.29</ele>
        <time>2018-09-02T09:36:29.999Z</time>
      </trkpt>
      <trkpt lat="46.63422" lon="0.21556">
        <ele>161.58</ele>
        <time>2018-09-02T09:36:32.999Z</time>
      </trkpt>
      <trkpt lat="46.63432" lon="0.2156">
        <ele>161.81</ele>
        <time>2018-09-02T09:36:35.999Z</time>
      </trkpt>
      <trkpt lat="46.63441" lon="0.21565">
        <ele>162.02</ele>
        <time>2018-09-02T09:36:38.999Z</time>
      </trkpt>
      <trkpt lat="46.6345" lon="0.21569">
        <ele>162.23</ele>
        <time>2018-09-02T09:36:41.999Z</time>
      </trkpt>
      <trkpt lat="46.6346" lon="0.21573">
        <ele>162.54</ele>
        <time>2018-09-02T09:36:44.999Z</time>
      </trkpt>
      <trkpt lat="46.63469" lon="0.21576">
        <ele>162.88</ele>
        <time>2018-09-02T09:36:47.999Z</time>
      </trkpt>
      <trkpt lat="46.63479" lon="0.2158">
        <ele>163.15</ele>
        <time>2018-09-02T09:36:50.999Z</time>
      </trkpt>
      <trkpt lat="46.63488" lon="0.21585">
        <ele>163.32</ele>
        <time>2018-09-02T09:36:53.999Z</time>
      </trkpt>
      <trkpt lat="46.635" lon="0.21588">
        <ele>163.62</ele>
        <time>2018-09-02T09:36:57.999Z</time>
      </trkpt>
      <trkpt lat="46.63509" lon="0.21592">
        <ele>163.99</ele>
        <time>2018-09-02T09:37:01.999Z</time>
      </trkpt>
      <trkpt lat="46.63519" lon="0.21597">
        <ele>164.32</ele>
        <time>2018-09-02T09:37:05.999Z</time>
      </trkpt>
      <trkpt lat="46.63529" lon="0.21603">
        <ele>164.58</ele>
        <time>2018-09-02T09:37:09.999Z</time>
      </trkpt>
      <trkpt lat="46.63539" lon="0.21608">
        <ele>164.84</ele>
        <time>2018-09-02T09:37:13.999Z</time>
      </trkpt>
      <trkpt lat="46.63548" lon="0.21611">
        <ele>165.09</ele>
        <time>2018-09-02T09:37:17.999Z</time>
      </trkpt>
      <trkpt lat="46.63558" lon="0.21616">
        <ele>165.22</ele>
        <time>2018-09-02T09:37:21.999Z</time>
      </trkpt>
      <trkpt lat="46.63568" lon="0.2162">
        <ele>165.38</ele>
        <time>2018-09-02T09:37:25.999Z</time>
      </trkpt>
      <trkpt lat="46.63577" lon="0.21625">
        <ele>165.59</ele>
        <time>2018-09-02T09:37:29.999Z</time>
      </trkpt>
      <trkpt lat="46.63588" lon="0.21629">
        <ele>165.8</ele>
        <time>2018-09-02T09:37:34.999Z</time>
      </trkpt>
      <trkpt lat="46.63598" lon="0.21634">
        <ele>166.13</ele>
        <time>2018-09-02T09:37:39.999Z</time>
      </trkpt>
      <trkpt lat="46.63607" lon="0.21638">
        <ele>166.35</ele>
        <time>2018-09-02T09:37:43.999Z</time>
      </trkpt>
      <trkpt lat="46.63618" lon="0.21643">
        <ele>166.59</ele>
        <time>2018-09-02T09:37:48.999Z</time>
      </trkpt>
      <trkpt lat="46.63628" lon="0.21649">
        <ele>166.86</ele>
        <time>2018-09-02T09:37:52.999Z</time>
      </trkpt>
      <trkpt lat="46.63638" lon="0.21653">
        <ele>167.28</ele>
        <time>2018-09-02T09:37:57.999Z</time>
      </trkpt>
      <trkpt lat="46.63649" lon="0.21659">
        <ele>167.83</ele>
        <time>2018-09-02T09:38:02.999Z</time>
      </trkpt>
      <trkpt lat="46.63658" lon="0.21663">
        <ele>168.31</ele>
        <time>2018-09-02T09:38:06.999Z</time>
      </trkpt>
      <trkpt lat="46.63668" lon="0.21668">
        <ele>168.89</ele>
        <time>2018-09-02T09:38:11.999Z</time>
      </trkpt>
      <trkpt lat="46.63678" lon="0.21671">
        <ele>169.47</ele>
        <time>2018-09-02T09:38:17.999Z</time>
      </trkpt>
      <trkpt lat="46.63688" lon="0.21677">
        <ele>169.83</ele>
        <time>2018-09-02T09:38:21.999Z</time>
      </trkpt>
      <trkpt lat="46.63697" lon="0.21684">
        <ele>170.29</ele>
        <time>2018-09-02T09:38:25.999Z</time>
      </trkpt>
      <trkpt lat="46.63707" lon="0.21689">
        <ele>170.9</ele>
        <time>2018-09-02T09:38:30.999Z</time>
      </trkpt>
      <trkpt lat="46.63716" lon="0.21694">
        <ele>171.62</ele>
        <time>2018-09-02T09:38:36.999Z</time>
      </trkpt>
      <trkpt lat="46.63723" lon="0.21704">
        <ele>172.19</ele>
        <time>2018-09-02T09:38:41.999Z</time>
      </trkpt>
      <trkpt lat="46.63724" lon="0.21721">
        <ele>172.7</ele>
        <time>2018-09-02T09:38:46.999Z</time>
      </trkpt>
      <trkpt lat="46.6372" lon="0.21736">
        <ele>173.16</ele>
        <time>2018-09-02T09:38:49.999Z</time>
      </trkpt>
      <trkpt lat="46.63716" lon="0.21751">
        <ele>175.71</ele>
        <time>2018-09-02T09:38:52.999Z</time>
      </trkpt>
      <trkpt lat="46.63711" lon="0.21769">
        <ele>177.48</ele>
        <time>2018-09-02T09:38:55.999Z</time>
      </trkpt>
      <trkpt lat="46.63707" lon="0.21787">
        <ele>177.73</ele>
        <time>2018-09-02T09:38:58.999Z</time>
      </trkpt>
      <trkpt lat="46.63702" lon="0.21803">
        <ele>177.4</ele>
        <time>2018-09-02T09:39:01.999Z</time>
      </trkpt>
      <trkpt lat="46.63698" lon="0.21817">
        <ele>177.15</ele>
        <time>2018-09-02T09:39:04.999Z</time>
      </trkpt>
      <trkpt lat="46.63695" lon="0.2183">
        <ele>177.13</ele>
        <time>2018-09-02T09:39:06.999Z</time>
      </trkpt>
      <trkpt lat="46.63691" lon="0.21843">
        <ele>176.62</ele>
        <time>2018-09-02T09:39:08.999Z</time>
      </trkpt>
      <trkpt lat="46.63688" lon="0.21856">
        <ele>175.62</ele>
        <time>2018-09-02T09:39:10.999Z</time>
      </trkpt>
      <trkpt lat="46.63683" lon="0.21873">
        <ele>174.07</ele>
        <time>2018-09-02T09:39:13.999Z</time>
      </trkpt>
      <trkpt lat="46.63678" lon="0.21889">
        <ele>173.02</ele>
        <time>2018-09-02T09:39:16.999Z</time>
      </trkpt>
      <trkpt lat="46.63674" lon="0.21906">
        <ele>172.72</ele>
        <time>2018-09-02T09:39:19.999Z</time>
      </trkpt>
      <trkpt lat="46.6367" lon="0.21921">
        <ele>172.86</ele>
        <time>2018-09-02T09:39:22.999Z</time>
      </trkpt>
      <trkpt lat="46.63667" lon="0.21937">
        <ele>172.18</ele>
        <time>2018-09-02T09:39:25.999Z</time>
      </trkpt>
      <trkpt lat="46.63662" lon="0.21953">
        <ele>172.15</ele>
        <time>2018-09-02T09:39:28.999Z</time>
      </trkpt>
      <trkpt lat="46.63658" lon="0.21968">
        <ele>171.87</ele>
        <time>2018-09-02T09:39:31.999Z</time>
      </trkpt>
      <trkpt lat="46.63654" lon="0.21986">
        <ele>171.52</ele>
        <time>2018-09-02T09:39:34.999Z</time>
      </trkpt>
      <trkpt lat="46.6365" lon="0.22003">
        <ele>170.97</ele>
        <time>2018-09-02T09:39:37.999Z</time>
      </trkpt>
      <trkpt lat="46.63646" lon="0.22018">
        <ele>170.74</ele>
        <time>2018-09-02T09:39:40.999Z</time>
      </trkpt>
      <trkpt lat="46.63651" lon="0.22029">
        <ele>170.54</ele>
        <time>2018-09-02T09:39:45.999Z</time>
      </trkpt>
      <trkpt lat="46.63661" lon="0.2203">
        <ele>169.3</ele>
        <time>2018-09-02T09:39:50.999Z</time>
      </trkpt>
      <trkpt lat="46.6367" lon="0.22038">
        <ele>169.25</ele>
        <time>2018-09-02T09:39:55.999Z</time>
      </trkpt>
      <trkpt lat="46.63679" lon="0.22045">
        <ele>169.19</ele>
        <time>2018-09-02T09:39:58.999Z</time>
      </trkpt>
      <trkpt lat="46.63686" lon="0.22052">
        <ele>169.15</ele>
        <time>2018-09-02T09:40:00.999Z</time>
      </trkpt>
      <trkpt lat="46.63696" lon="0.22062">
        <ele>169.1</ele>
        <time>2018-09-02T09:40:03.999Z</time>
      </trkpt>
      <trkpt lat="46.63705" lon="0.22071">
        <ele>169.08</ele>
        <time>2018-09-02T09:40:06.999Z</time>
      </trkpt>
      <trkpt lat="46.63714" lon="0.22081">
        <ele>169.03</ele>
        <time>2018-09-02T09:40:09.999Z</time>
      </trkpt>
      <trkpt lat="46.63721" lon="0.22089">
        <ele>169.04</ele>
        <time>2018-09-02T09:40:12.999Z</time>
      </trkpt>
      <trkpt lat="46.63729" lon="0.22097">
        <ele>169.06</ele>
        <time>2018-09-02T09:40:15.999Z</time>
      </trkpt>
      <trkpt lat="46.63738" lon="0.22103">
        <ele>169.15</ele>
        <time>2018-09-02T09:40:19.999Z</time>
      </trkpt>
      <trkpt lat="46.63747" lon="0.22112">
        <ele>169.23</ele>
        <time>2018-09-02T09:40:23.999Z</time>
      </trkpt>
      <trkpt lat="46.63756" lon="0.2212">
        <ele>169.56</ele>
        <time>2018-09-02T09:40:28.999Z</time>
      </trkpt>
      <trkpt lat="46.63765" lon="0.22128">
        <ele>169.82</ele>
        <time>2018-09-02T09:40:31.999Z</time>
      </trkpt>
      <trkpt lat="46.63774" lon="0.22136">
        <ele>170.09</ele>
        <time>2018-09-02T09:40:34.999Z</time>
      </trkpt>
      <trkpt lat="46.63782" lon="0.22144">
        <ele>170.51</ele>
        <time>2018-09-02T09:40:38.999Z</time>
      </trkpt>
      <trkpt lat="46.63791" lon="0.22151">
        <ele>170.96</ele>
        <time>2018-09-02T09:40:42.999Z</time>
      </trkpt>
      <trkpt lat="46.63799" lon="0.22159">
        <ele>171.29</ele>
        <time>2018-09-02T09:40:46.999Z</time>
      </trkpt>
      <trkpt lat="46.63808" lon="0.22167">
        <ele>171.71</ele>
        <time>2018-09-02T09:40:50.999Z</time>
      </trkpt>
      <trkpt lat="46.63816" lon="0.22175">
        <ele>172.18</ele>
        <time>2018-09-02T09:40:55.999Z</time>
      </trkpt>
      <trkpt lat="46.63825" lon="0.22183">
        <ele>172.68</ele>
        <time>2018-09-02T09:41:00.999Z</time>
      </trkpt>
      <trkpt lat="46.63835" lon="0.22191">
        <ele>173.27</ele>
        <time>2018-09-02T09:41:04.999Z</time>
      </trkpt>
      <trkpt lat="46.63844" lon="0.22198">
        <ele>173.9</ele>
        <time>2018-09-02T09:41:08.999Z</time>
      </trkpt>
      <trkpt lat="46.63852" lon="0.22206">
        <ele>174.35</ele>
        <time>2018-09-02T09:41:12.999Z</time>
      </trkpt>
      <trkpt lat="46.63861" lon="0.22213">
        <ele>174.68</ele>
        <time>2018-09-02T09:41:16.999Z</time>
      </trkpt>
      <trkpt lat="46.6387" lon="0.22221">
        <ele>175.1</ele>
        <time>2018-09-02T09:41:20.999Z</time>
      </trkpt>
      <trkpt lat="46.63879" lon="0.22227">
        <ele>175.34</ele>
        <time>2018-09-02T09:41:23.999Z</time>
      </trkpt>
      <trkpt lat="46.63887" lon="0.22235">
        <ele>175.58</ele>
        <time>2018-09-02T09:41:26.999Z</time>
      </trkpt>
      <trkpt lat="46.63897" lon="0.22242">
        <ele>176.04</ele>
        <time>2018-09-02T09:41:30.999Z</time>
      </trkpt>
      <trkpt lat="46.63905" lon="0.22249">
        <ele>176.3</ele>
        <time>2018-09-02T09:41:33.999Z</time>
      </trkpt>
      <trkpt lat="46.63916" lon="0.22257">
        <ele>176.6</ele>
        <time>2018-09-02T09:41:37.999Z</time>
      </trkpt>
      <trkpt lat="46.63925" lon="0.22265">
        <ele>176.88</ele>
        <time>2018-09-02T09:41:41.999Z</time>
      </trkpt>
      <trkpt lat="46.63934" lon="0.22272">
        <ele>177.11</ele>
        <time>2018-09-02T09:41:44.999Z</time>
      </trkpt>
      <trkpt lat="46.63943" lon="0.2228">
        <ele>177.3</ele>
        <time>2018-09-02T09:41:47.999Z</time>
      </trkpt>
      <trkpt lat="46.63951" lon="0.22287">
        <ele>177.45</ele>
        <time>2018-09-02T09:41:50.999Z</time>
      </trkpt>
      <trkpt lat="46.63961" lon="0.22295">
        <ele>177.56</ele>
        <time>2018-09-02T09:41:54.999Z</time>
      </trkpt>
      <trkpt lat="46.63972" lon="0.22304">
        <ele>177.79</ele>
        <time>2018-09-02T09:41:58.999Z</time>
      </trkpt>
      <trkpt lat="46.63981" lon="0.2231">
        <ele>178.19</ele>
        <time>2018-09-02T09:42:02.999Z</time>
      </trkpt>
      <trkpt lat="46.6399" lon="0.22318">
        <ele>178.52</ele>
        <time>2018-09-02T09:42:06.999Z</time>
      </trkpt>
      <trkpt lat="46.64" lon="0.22327">
        <ele>178.69</ele>
        <time>2018-09-02T09:42:09.999Z</time>
      </trkpt>
      <trkpt lat="46.64009" lon="0.22336">
        <ele>178.95</ele>
        <time>2018-09-02T09:42:13.999Z</time>
      </trkpt>
      <trkpt lat="46.64016" lon="0.22348">
        <ele>179.19</ele>
        <time>2018-09-02T09:42:17.999Z</time>
      </trkpt>
      <trkpt lat="46.64024" lon="0.2236">
        <ele>179.53</ele>
        <time>2018-09-02T09:42:21.999Z</time>
      </trkpt>
      <trkpt lat="46.6403" lon="0.22373">
        <ele>179.81</ele>
        <time>2018-09-02T09:42:24.999Z</time>
      </trkpt>
      <trkpt lat="46.64038" lon="0.22382">
        <ele>179.99</ele>
        <time>2018-09-02T09:42:27.999Z</time>
      </trkpt>
      <trkpt lat="46.6405" lon="0.22387">
        <ele>180.24</ele>
        <time>2018-09-02T09:42:31.999Z</time>
      </trkpt>
      <trkpt lat="46.64058" lon="0.22393">
        <ele>180.41</ele>
        <time>2018-09-02T09:42:34.999Z</time>
      </trkpt>
      <trkpt lat="46.64068" lon="0.22397">
        <ele>180.59</ele>
        <time>2018-09-02T09:42:38.999Z</time>
      </trkpt>
      <trkpt lat="46.64078" lon="0.22401">
        <ele>180.76</ele>
        <time>2018-09-02T09:42:41.999Z</time>
      </trkpt>
      <trkpt lat="46.64088" lon="0.22406">
        <ele>181.17</ele>
        <time>2018-09-02T09:42:45.999Z</time>
      </trkpt>
      <trkpt lat="46.64097" lon="0.22412">
        <ele>181.62</ele>
        <time>2018-09-02T09:42:49.999Z</time>
      </trkpt>
      <trkpt lat="46.64105" lon="0.22418">
        <ele>182</ele>
        <time>2018-09-02T09:42:53.999Z</time>
      </trkpt>
      <trkpt lat="46.64114" lon="0.22424">
        <ele>182.14</ele>
        <time>2018-09-02T09:42:56.999Z</time>
      </trkpt>
      <trkpt lat="46.64123" lon="0.22427">
        <ele>182.21</ele>
        <time>2018-09-02T09:42:59.999Z</time>
      </trkpt>
      <trkpt lat="46.64134" lon="0.22433">
        <ele>182.16</ele>
        <time>2018-09-02T09:43:03.999Z</time>
      </trkpt>
      <trkpt lat="46.64143" lon="0.22438">
        <ele>182.11</ele>
        <time>2018-09-02T09:43:07.999Z</time>
      </trkpt>
      <trkpt lat="46.64153" lon="0.22443">
        <ele>182.28</ele>
        <time>2018-09-02T09:43:11.999Z</time>
      </trkpt>
      <trkpt lat="46.64162" lon="0.2245">
        <ele>182.5</ele>
        <time>2018-09-02T09:43:15.999Z</time>
      </trkpt>
      <trkpt lat="46.64173" lon="0.22457">
        <ele>182.81</ele>
        <time>2018-09-02T09:43:19.999Z</time>
      </trkpt>
      <trkpt lat="46.64181" lon="0.22463">
        <ele>183.21</ele>
        <time>2018-09-02T09:43:22.999Z</time>
      </trkpt>
      <trkpt lat="46.64191" lon="0.22469">
        <ele>183.57</ele>
        <time>2018-09-02T09:43:25.999Z</time>
      </trkpt>
      <trkpt lat="46.642" lon="0.22474">
        <ele>183.95</ele>
        <time>2018-09-02T09:43:28.999Z</time>
      </trkpt>
      <trkpt lat="46.64209" lon="0.22478">
        <ele>184.4</ele>
        <time>2018-09-02T09:43:31.999Z</time>
      </trkpt>
      <trkpt lat="46.64218" lon="0.22482">
        <ele>184.68</ele>
        <time>2018-09-02T09:43:34.999Z</time>
      </trkpt>
      <trkpt lat="46.64226" lon="0.2249">
        <ele>185.08</ele>
        <time>2018-09-02T09:43:39.999Z</time>
      </trkpt>
      <trkpt lat="46.64235" lon="0.22495">
        <ele>185.39</ele>
        <time>2018-09-02T09:43:42.999Z</time>
      </trkpt>
      <trkpt lat="46.64244" lon="0.22499">
        <ele>185.87</ele>
        <time>2018-09-02T09:43:45.999Z</time>
      </trkpt>
      <trkpt lat="46.64254" lon="0.22504">
        <ele>186.39</ele>
        <time>2018-09-02T09:43:48.999Z</time>
      </trkpt>
      <trkpt lat="46.64265" lon="0.22511">
        <ele>187.22</ele>
        <time>2018-09-02T09:43:52.999Z</time>
      </trkpt>
      <trkpt lat="46.64276" lon="0.22516">
        <ele>187.84</ele>
        <time>2018-09-02T09:43:55.999Z</time>
      </trkpt>
      <trkpt lat="46.64286" lon="0.22522">
        <ele>188.44</ele>
        <time>2018-09-02T09:43:58.999Z</time>
      </trkpt>
      <trkpt lat="46.64295" lon="0.22528">
        <ele>189.11</ele>
        <time>2018-09-02T09:44:01.999Z</time>
      </trkpt>
      <trkpt lat="46.64307" lon="0.22533">
        <ele>191.55</ele>
        <time>2018-09-02T09:44:04.999Z</time>
      </trkpt>
      <trkpt lat="46.64316" lon="0.22538">
        <ele>193.29</ele>
        <time>2018-09-02T09:44:07.999Z</time>
      </trkpt>
      <trkpt lat="46.64325" lon="0.22544">
        <ele>196.5</ele>
        <time>2018-09-02T09:44:10.999Z</time>
      </trkpt>
      <trkpt lat="46.64334" lon="0.2255">
        <ele>198.21</ele>
        <time>2018-09-02T09:44:12.999Z</time>
      </trkpt>
      <trkpt lat="46.64342" lon="0.22557">
        <ele>198.87</ele>
        <time>2018-09-02T09:44:14.999Z</time>
      </trkpt>
      <trkpt lat="46.6435" lon="0.22564">
        <ele>198.54</ele>
        <time>2018-09-02T09:44:16.999Z</time>
      </trkpt>
      <trkpt lat="46.64359" lon="0.22578">
        <ele>197.6</ele>
        <time>2018-09-02T09:44:19.999Z</time>
      </trkpt>
      <trkpt lat="46.64366" lon="0.22585">
        <ele>197.17</ele>
        <time>2018-09-02T09:44:21.999Z</time>
      </trkpt>
      <trkpt lat="46.64374" lon="0.22598">
        <ele>196.56</ele>
        <time>2018-09-02T09:44:24.999Z</time>
      </trkpt>
      <trkpt lat="46.64381" lon="0.22612">
        <ele>196.53</ele>
        <time>2018-09-02T09:44:27.999Z</time>
      </trkpt>
      <trkpt lat="46.64388" lon="0.22629">
        <ele>196.35</ele>
        <time>2018-09-02T09:44:31.999Z</time>
      </trkpt>
      <trkpt lat="46.64399" lon="0.2264">
        <ele>196.67</ele>
        <time>2018-09-02T09:44:34.999Z</time>
      </trkpt>
      <trkpt lat="46.64406" lon="0.22647">
        <ele>196.35</ele>
        <time>2018-09-02T09:44:36.999Z</time>
      </trkpt>
      <trkpt lat="46.64418" lon="0.22654">
        <ele>196.32</ele>
        <time>2018-09-02T09:44:39.999Z</time>
      </trkpt>
      <trkpt lat="46.6443" lon="0.22658">
        <ele>195.64</ele>
        <time>2018-09-02T09:44:42.999Z</time>
      </trkpt>
      <trkpt lat="46.64438" lon="0.22669">
        <ele>194.68</ele>
        <time>2018-09-02T09:44:44.999Z</time>
      </trkpt>
      <trkpt lat="46.64449" lon="0.2268">
        <ele>193.93</ele>
        <time>2018-09-02T09:44:47.999Z</time>
      </trkpt>
      <trkpt lat="46.64459" lon="0.22689">
        <ele>193.08</ele>
        <time>2018-09-02T09:44:50.999Z</time>
      </trkpt>
      <trkpt lat="46.6447" lon="0.22699">
        <ele>192.57</ele>
        <time>2018-09-02T09:44:53.999Z</time>
      </trkpt>
      <trkpt lat="46.64481" lon="0.22706">
        <ele>192.06</ele>
        <time>2018-09-02T09:44:56.999Z</time>
      </trkpt>
      <trkpt lat="46.64491" lon="0.22713">
        <ele>191.99</ele>
        <time>2018-09-02T09:44:59.999Z</time>
      </trkpt>
      <trkpt lat="46.645" lon="0.2272">
        <ele>192.27</ele>
        <time>2018-09-02T09:45:02.999Z</time>
      </trkpt>
      <trkpt lat="46.64512" lon="0.22732">
        <ele>192.51</ele>
        <time>2018-09-02T09:45:05.999Z</time>
      </trkpt>
      <trkpt lat="46.64521" lon="0.22742">
        <ele>192.36</ele>
        <time>2018-09-02T09:45:08.999Z</time>
      </trkpt>
      <trkpt lat="46.64531" lon="0.22752">
        <ele>191.67</ele>
        <time>2018-09-02T09:45:11.999Z</time>
      </trkpt>
      <trkpt lat="46.64541" lon="0.22764">
        <ele>191.29</ele>
        <time>2018-09-02T09:45:14.999Z</time>
      </trkpt>
      <trkpt lat="46.6455" lon="0.22776">
        <ele>191.45</ele>
        <time>2018-09-02T09:45:17.999Z</time>
      </trkpt>
      <trkpt lat="46.64561" lon="0.22787">
        <ele>191.09</ele>
        <time>2018-09-02T09:45:20.999Z</time>
      </trkpt>
      <trkpt lat="46.64571" lon="0.22798">
        <ele>191.14</ele>
        <time>2018-09-02T09:45:23.999Z</time>
      </trkpt>
      <trkpt lat="46.6458" lon="0.22809">
        <ele>191.16</ele>
        <time>2018-09-02T09:45:26.999Z</time>
      </trkpt>
      <trkpt lat="46.6459" lon="0.2282">
        <ele>190.7</ele>
        <time>2018-09-02T09:45:29.999Z</time>
      </trkpt>
      <trkpt lat="46.64595" lon="0.22831">
        <ele>190.11</ele>
        <time>2018-09-02T09:45:31.999Z</time>
      </trkpt>
      <trkpt lat="46.64601" lon="0.22844">
        <ele>190.04</ele>
        <time>2018-09-02T09:45:34.999Z</time>
      </trkpt>
      <trkpt lat="46.6461" lon="0.22855">
        <ele>189.47</ele>
        <time>2018-09-02T09:45:37.999Z</time>
      </trkpt>
      <trkpt lat="46.64619" lon="0.22868">
        <ele>189.18</ele>
        <time>2018-09-02T09:45:40.999Z</time>
      </trkpt>
      <trkpt lat="46.64626" lon="0.22881">
        <ele>189.21</ele>
        <time>2018-09-02T09:45:43.999Z</time>
      </trkpt>
      <trkpt lat="46.64633" lon="0.22892">
        <ele>189.43</ele>
        <time>2018-09-02T09:45:47.999Z</time>
      </trkpt>
      <trkpt lat="46.64641" lon="0.22904">
        <ele>190.28</ele>
        <time>2018-09-02T09:45:50.999Z</time>
      </trkpt>
      <trkpt lat="46.64647" lon="0.2292">
        <ele>190.83</ele>
        <time>2018-09-02T09:45:53.999Z</time>
      </trkpt>
      <trkpt lat="46.64654" lon="0.22933">
        <ele>191.02</ele>
        <time>2018-09-02T09:45:56.999Z</time>
      </trkpt>
      <trkpt lat="46.64659" lon="0.22948">
        <ele>191.04</ele>
        <time>2018-09-02T09:45:59.999Z</time>
      </trkpt>
      <trkpt lat="46.64665" lon="0.22963">
        <ele>190.84</ele>
        <time>2018-09-02T09:46:02.999Z</time>
      </trkpt>
      <trkpt lat="46.64671" lon="0.22977">
        <ele>190.85</ele>
        <time>2018-09-02T09:46:05.999Z</time>
      </trkpt>
      <trkpt lat="46.64676" lon="0.2299">
        <ele>190.83</ele>
        <time>2018-09-02T09:46:08.999Z</time>
      </trkpt>
      <trkpt lat="46.64681" lon="0.23005">
        <ele>190.81</ele>
        <time>2018-09-02T09:46:11.999Z</time>
      </trkpt>
      <trkpt lat="46.64687" lon="0.23018">
        <ele>190.89</ele>
        <time>2018-09-02T09:46:14.999Z</time>
      </trkpt>
      <trkpt lat="46.64695" lon="0.2303">
        <ele>190.99</ele>
        <time>2018-09-02T09:46:17.999Z</time>
      </trkpt>
      <trkpt lat="46.647" lon="0.2304">
        <ele>191.37</ele>
        <time>2018-09-02T09:46:19.999Z</time>
      </trkpt>
      <trkpt lat="46.64709" lon="0.23054">
        <ele>191.61</ele>
        <time>2018-09-02T09:46:22.999Z</time>
      </trkpt>
      <trkpt lat="46.64717" lon="0.23063">
        <ele>193.34</ele>
        <time>2018-09-02T09:46:25.999Z</time>
      </trkpt>
      <trkpt lat="46.64728" lon="0.23071">
        <ele>195.04</ele>
        <time>2018-09-02T09:46:28.999Z</time>
      </trkpt>
      <trkpt lat="46.64739" lon="0.23078">
        <ele>198.83</ele>
        <time>2018-09-02T09:46:31.999Z</time>
      </trkpt>
      <trkpt lat="46.6475" lon="0.23085">
        <ele>199.73</ele>
        <time>2018-09-02T09:46:34.999Z</time>
      </trkpt>
      <trkpt lat="46.6476" lon="0.23093">
        <ele>200.89</ele>
        <time>2018-09-02T09:46:37.999Z</time>
      </trkpt>
      <trkpt lat="46.64769" lon="0.23099">
        <ele>201.68</ele>
        <time>2018-09-02T09:46:40.999Z</time>
      </trkpt>
      <trkpt lat="46.64781" lon="0.23106">
        <ele>201.82</ele>
        <time>2018-09-02T09:46:43.999Z</time>
      </trkpt>
      <trkpt lat="46.64791" lon="0.23113">
        <ele>203</ele>
        <time>2018-09-02T09:46:46.999Z</time>
      </trkpt>
      <trkpt lat="46.64798" lon="0.23122">
        <ele>202.98</ele>
        <time>2018-09-02T09:46:49.999Z</time>
      </trkpt>
      <trkpt lat="46.648" lon="0.23139">
        <ele>201.98</ele>
        <time>2018-09-02T09:46:52.999Z</time>
      </trkpt>
      <trkpt lat="46.64794" lon="0.23151">
        <ele>201.65</ele>
        <time>2018-09-02T09:46:54.999Z</time>
      </trkpt>
      <trkpt lat="46.64788" lon="0.23163">
        <ele>201.43</ele>
        <time>2018-09-02T09:46:56.999Z</time>
      </trkpt>
      <trkpt lat="46.64782" lon="0.23174">
        <ele>201.61</ele>
        <time>2018-09-02T09:46:58.999Z</time>
      </trkpt>
      <trkpt lat="46.64775" lon="0.23187">
        <ele>201.85</ele>
        <time>2018-09-02T09:47:00.999Z</time>
      </trkpt>
      <trkpt lat="46.64769" lon="0.23197">
        <ele>201.95</ele>
        <time>2018-09-02T09:47:02.999Z</time>
      </trkpt>
      <trkpt lat="46.64763" lon="0.23209">
        <ele>201.5</ele>
        <time>2018-09-02T09:47:04.999Z</time>
      </trkpt>
      <trkpt lat="46.64756" lon="0.23223">
        <ele>201.1</ele>
        <time>2018-09-02T09:47:07.999Z</time>
      </trkpt>
      <trkpt lat="46.64747" lon="0.23239">
        <ele>201.83</ele>
        <time>2018-09-02T09:47:10.999Z</time>
      </trkpt>
      <trkpt lat="46.64741" lon="0.23253">
        <ele>201.96</ele>
        <time>2018-09-02T09:47:13.999Z</time>
      </trkpt>
      <trkpt lat="46.64735" lon="0.23266">
        <ele>201.19</ele>
        <time>2018-09-02T09:47:15.999Z</time>
      </trkpt>
      <trkpt lat="46.64726" lon="0.23282">
        <ele>201.45</ele>
        <time>2018-09-02T09:47:18.999Z</time>
      </trkpt>
      <trkpt lat="46.64718" lon="0.23296">
        <ele>201.7</ele>
        <time>2018-09-02T09:47:21.999Z</time>
      </trkpt>
      <trkpt lat="46.64711" lon="0.23308">
        <ele>201.83</ele>
        <time>2018-09-02T09:47:23.999Z</time>
      </trkpt>
      <trkpt lat="46.64706" lon="0.23321">
        <ele>202.24</ele>
        <time>2018-09-02T09:47:25.999Z</time>
      </trkpt>
      <trkpt lat="46.64702" lon="0.23334">
        <ele>201.91</ele>
        <time>2018-09-02T09:47:27.999Z</time>
      </trkpt>
      <trkpt lat="46.64696" lon="0.23347">
        <ele>200.78</ele>
        <time>2018-09-02T09:47:29.999Z</time>
      </trkpt>
      <trkpt lat="46.6469" lon="0.23357">
        <ele>199.8</ele>
        <time>2018-09-02T09:47:31.999Z</time>
      </trkpt>
      <trkpt lat="46.64683" lon="0.23367">
        <ele>199.07</ele>
        <time>2018-09-02T09:47:33.999Z</time>
      </trkpt>
      <trkpt lat="46.64676" lon="0.23377">
        <ele>198.44</ele>
        <time>2018-09-02T09:47:35.999Z</time>
      </trkpt>
      <trkpt lat="46.6467" lon="0.23388">
        <ele>198.21</ele>
        <time>2018-09-02T09:47:37.999Z</time>
      </trkpt>
      <trkpt lat="46.64665" lon="0.23399">
        <ele>198.05</ele>
        <time>2018-09-02T09:47:39.999Z</time>
      </trkpt>
      <trkpt lat="46.64658" lon="0.23411">
        <ele>198.12</ele>
        <time>2018-09-02T09:47:41.999Z</time>
      </trkpt>
      <trkpt lat="46.6465" lon="0.23426">
        <ele>198.37</ele>
        <time>2018-09-02T09:47:44.999Z</time>
      </trkpt>
      <trkpt lat="46.64644" lon="0.2344">
        <ele>198.44</ele>
        <time>2018-09-02T09:47:47.999Z</time>
      </trkpt>
      <trkpt lat="46.64636" lon="0.23456">
        <ele>198.92</ele>
        <time>2018-09-02T09:47:50.999Z</time>
      </trkpt>
      <trkpt lat="46.64636" lon="0.23476">
        <ele>198.72</ele>
        <time>2018-09-02T09:47:53.999Z</time>
      </trkpt>
      <trkpt lat="46.64644" lon="0.2349">
        <ele>198.64</ele>
        <time>2018-09-02T09:47:55.999Z</time>
      </trkpt>
      <trkpt lat="46.64652" lon="0.23503">
        <ele>198.68</ele>
        <time>2018-09-02T09:47:57.999Z</time>
      </trkpt>
      <trkpt lat="46.64659" lon="0.23512">
        <ele>198.89</ele>
        <time>2018-09-02T09:47:59.999Z</time>
      </trkpt>
      <trkpt lat="46.64666" lon="0.23522">
        <ele>199.17</ele>
        <time>2018-09-02T09:48:01.999Z</time>
      </trkpt>
      <trkpt lat="46.64674" lon="0.23531">
        <ele>198.92</ele>
        <time>2018-09-02T09:48:03.999Z</time>
      </trkpt>
      <trkpt lat="46.64683" lon="0.2354">
        <ele>198.35</ele>
        <time>2018-09-02T09:48:05.999Z</time>
      </trkpt>
      <trkpt lat="46.64692" lon="0.23551">
        <ele>198.29</ele>
        <time>2018-09-02T09:48:08.999Z</time>
      </trkpt>
      <trkpt lat="46.64701" lon="0.23561">
        <ele>198.54</ele>
        <time>2018-09-02T09:48:11.999Z</time>
      </trkpt>
      <trkpt lat="46.6471" lon="0.23572">
        <ele>198.61</ele>
        <time>2018-09-02T09:48:15.999Z</time>
      </trkpt>
      <trkpt lat="46.64715" lon="0.23584">
        <ele>198.7</ele>
        <time>2018-09-02T09:48:18.999Z</time>
      </trkpt>
      <trkpt lat="46.64718" lon="0.23597">
        <ele>198.7</ele>
        <time>2018-09-02T09:48:21.999Z</time>
      </trkpt>
      <trkpt lat="46.64723" lon="0.23611">
        <ele>198.68</ele>
        <time>2018-09-02T09:48:24.999Z</time>
      </trkpt>
      <trkpt lat="46.64721" lon="0.23625">
        <ele>198.56</ele>
        <time>2018-09-02T09:48:27.999Z</time>
      </trkpt>
      <trkpt lat="46.64713" lon="0.23637">
        <ele>198.55</ele>
        <time>2018-09-02T09:48:30.999Z</time>
      </trkpt>
      <trkpt lat="46.64708" lon="0.23651">
        <ele>198.93</ele>
        <time>2018-09-02T09:48:34.999Z</time>
      </trkpt>
      <trkpt lat="46.64714" lon="0.23665">
        <ele>199.28</ele>
        <time>2018-09-02T09:48:37.999Z</time>
      </trkpt>
      <trkpt lat="46.64722" lon="0.23676">
        <ele>199.63</ele>
        <time>2018-09-02T09:48:40.999Z</time>
      </trkpt>
      <trkpt lat="46.64727" lon="0.2369">
        <ele>199.94</ele>
        <time>2018-09-02T09:48:43.999Z</time>
      </trkpt>
      <trkpt lat="46.64723" lon="0.23702">
        <ele>200.16</ele>
        <time>2018-09-02T09:48:46.999Z</time>
      </trkpt>
      <trkpt lat="46.6472" lon="0.23715">
        <ele>200.73</ele>
        <time>2018-09-02T09:48:48.999Z</time>
      </trkpt>
      <trkpt lat="46.64717" lon="0.23728">
        <ele>200.77</ele>
        <time>2018-09-02T09:48:50.999Z</time>
      </trkpt>
      <trkpt lat="46.64711" lon="0.23741">
        <ele>200.72</ele>
        <time>2018-09-02T09:48:54.999Z</time>
      </trkpt>
      <trkpt lat="46.64702" lon="0.23743">
        <ele>200.05</ele>
        <time>2018-09-02T09:49:15.999Z</time>
      </trkpt>
    </trkseg>
  </trk>
</gpx>